<?xml version="1.0" encoding="UTF-8" standalone="no" ?>
<gpx xmlns="http://www.topografix.com/GPX/1/1" xmlns:xsi="http://www.w3.org/2001/XMLSchema-instance" xsi:schemaLocation="http://www.topografix.com/GPX/1/1 http://www.topografix.com/GPX/1/1/gpx.xsd" version="1.1" creator="VisuGPX - https://www.visugpx.com">
  <metadata>
    <name>Le trêfle Bulliçois</name>
    <desc><![CDATA[Randonnée avec de trop nombreuses parties de macadam!! (50% environ) 
Le circuit de la course a du être privilégier au détriment de la randonnée. Le choix du parcours n\'a pas était fait par un VTTiste!!
Les ravitaillements sont bien. ]]></desc>
  </metadata>
  <trk>
    <name><![CDATA[30 sept. 2012 10:09:30]]></name>
    <cmt><![CDATA[30 sept. 2012 10:09:30]]></cmt>
    <trkseg>
      <trkpt lat="45.92844" lon="4.00727">
        <ele>451</ele>
        <time>2012-09-30T08:09:31Z</time>
      </trkpt>
      <trkpt lat="45.92806" lon="4.00725">
        <ele>452</ele>
        <time>2012-09-30T08:10:09Z</time>
      </trkpt>
      <trkpt lat="45.92807" lon="4.00719">
        <ele>444</ele>
        <time>2012-09-30T08:10:31Z</time>
      </trkpt>
      <trkpt lat="45.92809" lon="4.00705">
        <ele>445</ele>
        <time>2012-09-30T08:10:40Z</time>
      </trkpt>
      <trkpt lat="45.92808" lon="4.0069">
        <ele>446</ele>
        <time>2012-09-30T08:10:45Z</time>
      </trkpt>
      <trkpt lat="45.92806" lon="4.00678">
        <ele>446</ele>
        <time>2012-09-30T08:10:54Z</time>
      </trkpt>
      <trkpt lat="45.92803" lon="4.00665">
        <ele>446</ele>
        <time>2012-09-30T08:10:57Z</time>
      </trkpt>
      <trkpt lat="45.92802" lon="4.00652">
        <ele>446</ele>
        <time>2012-09-30T08:11:01Z</time>
      </trkpt>
      <trkpt lat="45.92801" lon="4.00639">
        <ele>447</ele>
        <time>2012-09-30T08:11:04Z</time>
      </trkpt>
      <trkpt lat="45.928" lon="4.00626">
        <ele>448</ele>
        <time>2012-09-30T08:11:08Z</time>
      </trkpt>
      <trkpt lat="45.92798" lon="4.00611">
        <ele>450</ele>
        <time>2012-09-30T08:11:13Z</time>
      </trkpt>
      <trkpt lat="45.92796" lon="4.00597">
        <ele>456</ele>
        <time>2012-09-30T08:11:28Z</time>
      </trkpt>
      <trkpt lat="45.928" lon="4.00582">
        <ele>456</ele>
        <time>2012-09-30T08:11:40Z</time>
      </trkpt>
      <trkpt lat="45.92802" lon="4.00565">
        <ele>457</ele>
        <time>2012-09-30T08:11:45Z</time>
      </trkpt>
      <trkpt lat="45.92803" lon="4.00551">
        <ele>458</ele>
        <time>2012-09-30T08:11:48Z</time>
      </trkpt>
      <trkpt lat="45.92802" lon="4.00537">
        <ele>459</ele>
        <time>2012-09-30T08:11:52Z</time>
      </trkpt>
      <trkpt lat="45.92799" lon="4.00523">
        <ele>459</ele>
        <time>2012-09-30T08:11:56Z</time>
      </trkpt>
      <trkpt lat="45.92794" lon="4.00511">
        <ele>459</ele>
        <time>2012-09-30T08:11:59Z</time>
      </trkpt>
      <trkpt lat="45.92788" lon="4.00495">
        <ele>459</ele>
        <time>2012-09-30T08:12:02Z</time>
      </trkpt>
      <trkpt lat="45.92785" lon="4.00483">
        <ele>459</ele>
        <time>2012-09-30T08:12:04Z</time>
      </trkpt>
      <trkpt lat="45.92779" lon="4.00473">
        <ele>459</ele>
        <time>2012-09-30T08:12:06Z</time>
      </trkpt>
      <trkpt lat="45.92771" lon="4.00466">
        <ele>459</ele>
        <time>2012-09-30T08:12:08Z</time>
      </trkpt>
      <trkpt lat="45.92759" lon="4.00461">
        <ele>459</ele>
        <time>2012-09-30T08:12:11Z</time>
      </trkpt>
      <trkpt lat="45.92748" lon="4.00462">
        <ele>458</ele>
        <time>2012-09-30T08:12:14Z</time>
      </trkpt>
      <trkpt lat="45.92739" lon="4.00467">
        <ele>458</ele>
        <time>2012-09-30T08:12:17Z</time>
      </trkpt>
      <trkpt lat="45.92732" lon="4.00469">
        <ele>459</ele>
        <time>2012-09-30T08:12:19Z</time>
      </trkpt>
      <trkpt lat="45.92724" lon="4.00475">
        <ele>459</ele>
        <time>2012-09-30T08:12:22Z</time>
      </trkpt>
      <trkpt lat="45.92715" lon="4.00483">
        <ele>460</ele>
        <time>2012-09-30T08:12:27Z</time>
      </trkpt>
      <trkpt lat="45.92708" lon="4.00497">
        <ele>462</ele>
        <time>2012-09-30T08:12:31Z</time>
      </trkpt>
      <trkpt lat="45.92702" lon="4.00511">
        <ele>464</ele>
        <time>2012-09-30T08:12:34Z</time>
      </trkpt>
      <trkpt lat="45.92697" lon="4.00524">
        <ele>467</ele>
        <time>2012-09-30T08:12:38Z</time>
      </trkpt>
      <trkpt lat="45.9269" lon="4.00533">
        <ele>468</ele>
        <time>2012-09-30T08:12:42Z</time>
      </trkpt>
      <trkpt lat="45.92683" lon="4.00543">
        <ele>469</ele>
        <time>2012-09-30T08:12:46Z</time>
      </trkpt>
      <trkpt lat="45.92672" lon="4.00548">
        <ele>471</ele>
        <time>2012-09-30T08:12:50Z</time>
      </trkpt>
      <trkpt lat="45.92664" lon="4.00548">
        <ele>473</ele>
        <time>2012-09-30T08:12:53Z</time>
      </trkpt>
      <trkpt lat="45.92658" lon="4.00549">
        <ele>473</ele>
        <time>2012-09-30T08:12:55Z</time>
      </trkpt>
      <trkpt lat="45.92651" lon="4.00551">
        <ele>474</ele>
        <time>2012-09-30T08:12:57Z</time>
      </trkpt>
      <trkpt lat="45.92645" lon="4.00552">
        <ele>475</ele>
        <time>2012-09-30T08:12:59Z</time>
      </trkpt>
      <trkpt lat="45.92639" lon="4.00554">
        <ele>475</ele>
        <time>2012-09-30T08:13:01Z</time>
      </trkpt>
      <trkpt lat="45.9263" lon="4.00558">
        <ele>475</ele>
        <time>2012-09-30T08:13:04Z</time>
      </trkpt>
      <trkpt lat="45.92619" lon="4.00561">
        <ele>475</ele>
        <time>2012-09-30T08:13:07Z</time>
      </trkpt>
      <trkpt lat="45.92612" lon="4.00562">
        <ele>476</ele>
        <time>2012-09-30T08:13:09Z</time>
      </trkpt>
      <trkpt lat="45.92604" lon="4.00564">
        <ele>476</ele>
        <time>2012-09-30T08:13:11Z</time>
      </trkpt>
      <trkpt lat="45.92594" lon="4.00564">
        <ele>477</ele>
        <time>2012-09-30T08:13:14Z</time>
      </trkpt>
      <trkpt lat="45.92587" lon="4.00564">
        <ele>477</ele>
        <time>2012-09-30T08:13:16Z</time>
      </trkpt>
      <trkpt lat="45.92579" lon="4.00564">
        <ele>478</ele>
        <time>2012-09-30T08:13:18Z</time>
      </trkpt>
      <trkpt lat="45.92572" lon="4.00563">
        <ele>479</ele>
        <time>2012-09-30T08:13:20Z</time>
      </trkpt>
      <trkpt lat="45.92564" lon="4.00564">
        <ele>479</ele>
        <time>2012-09-30T08:13:22Z</time>
      </trkpt>
      <trkpt lat="45.92557" lon="4.00565">
        <ele>479</ele>
        <time>2012-09-30T08:13:24Z</time>
      </trkpt>
      <trkpt lat="45.92551" lon="4.00567">
        <ele>479</ele>
        <time>2012-09-30T08:13:26Z</time>
      </trkpt>
      <trkpt lat="45.92542" lon="4.00569">
        <ele>480</ele>
        <time>2012-09-30T08:13:28Z</time>
      </trkpt>
      <trkpt lat="45.92538" lon="4.00571">
        <ele>480</ele>
        <time>2012-09-30T08:13:29Z</time>
      </trkpt>
      <trkpt lat="45.9253" lon="4.00573">
        <ele>480</ele>
        <time>2012-09-30T08:13:31Z</time>
      </trkpt>
      <trkpt lat="45.92523" lon="4.00574">
        <ele>481</ele>
        <time>2012-09-30T08:13:33Z</time>
      </trkpt>
      <trkpt lat="45.92516" lon="4.00577">
        <ele>481</ele>
        <time>2012-09-30T08:13:35Z</time>
      </trkpt>
      <trkpt lat="45.92508" lon="4.00578">
        <ele>481</ele>
        <time>2012-09-30T08:13:37Z</time>
      </trkpt>
      <trkpt lat="45.925" lon="4.00579">
        <ele>481</ele>
        <time>2012-09-30T08:13:39Z</time>
      </trkpt>
      <trkpt lat="45.92493" lon="4.00581">
        <ele>481</ele>
        <time>2012-09-30T08:13:41Z</time>
      </trkpt>
      <trkpt lat="45.92485" lon="4.00582">
        <ele>482</ele>
        <time>2012-09-30T08:13:43Z</time>
      </trkpt>
      <trkpt lat="45.92472" lon="4.00585">
        <ele>483</ele>
        <time>2012-09-30T08:13:46Z</time>
      </trkpt>
      <trkpt lat="45.92461" lon="4.00589">
        <ele>485</ele>
        <time>2012-09-30T08:13:49Z</time>
      </trkpt>
      <trkpt lat="45.92447" lon="4.00594">
        <ele>487</ele>
        <time>2012-09-30T08:13:52Z</time>
      </trkpt>
      <trkpt lat="45.92437" lon="4.006">
        <ele>488</ele>
        <time>2012-09-30T08:13:54Z</time>
      </trkpt>
      <trkpt lat="45.92426" lon="4.00605">
        <ele>489</ele>
        <time>2012-09-30T08:13:56Z</time>
      </trkpt>
      <trkpt lat="45.92415" lon="4.0061">
        <ele>489</ele>
        <time>2012-09-30T08:13:58Z</time>
      </trkpt>
      <trkpt lat="45.92405" lon="4.00617">
        <ele>488</ele>
        <time>2012-09-30T08:14:00Z</time>
      </trkpt>
      <trkpt lat="45.92394" lon="4.00623">
        <ele>487</ele>
        <time>2012-09-30T08:14:02Z</time>
      </trkpt>
      <trkpt lat="45.92381" lon="4.0063">
        <ele>488</ele>
        <time>2012-09-30T08:14:04Z</time>
      </trkpt>
      <trkpt lat="45.92368" lon="4.00636">
        <ele>488</ele>
        <time>2012-09-30T08:14:06Z</time>
      </trkpt>
      <trkpt lat="45.92354" lon="4.00643">
        <ele>488</ele>
        <time>2012-09-30T08:14:08Z</time>
      </trkpt>
      <trkpt lat="45.92341" lon="4.00649">
        <ele>488</ele>
        <time>2012-09-30T08:14:10Z</time>
      </trkpt>
      <trkpt lat="45.92326" lon="4.00646">
        <ele>488</ele>
        <time>2012-09-30T08:14:12Z</time>
      </trkpt>
      <trkpt lat="45.92311" lon="4.0064">
        <ele>488</ele>
        <time>2012-09-30T08:14:14Z</time>
      </trkpt>
      <trkpt lat="45.92302" lon="4.00635">
        <ele>488</ele>
        <time>2012-09-30T08:14:15Z</time>
      </trkpt>
      <trkpt lat="45.92293" lon="4.0063">
        <ele>487</ele>
        <time>2012-09-30T08:14:16Z</time>
      </trkpt>
      <trkpt lat="45.92284" lon="4.00625">
        <ele>486</ele>
        <time>2012-09-30T08:14:17Z</time>
      </trkpt>
      <trkpt lat="45.92267" lon="4.0062">
        <ele>485</ele>
        <time>2012-09-30T08:14:19Z</time>
      </trkpt>
      <trkpt lat="45.92251" lon="4.00625">
        <ele>484</ele>
        <time>2012-09-30T08:14:21Z</time>
      </trkpt>
      <trkpt lat="45.92238" lon="4.00634">
        <ele>482</ele>
        <time>2012-09-30T08:14:23Z</time>
      </trkpt>
      <trkpt lat="45.92249" lon="4.00676">
        <ele>481</ele>
        <time>2012-09-30T08:14:27Z</time>
      </trkpt>
      <trkpt lat="45.92251" lon="4.0069">
        <ele>480</ele>
        <time>2012-09-30T08:14:28Z</time>
      </trkpt>
      <trkpt lat="45.92252" lon="4.00704">
        <ele>479</ele>
        <time>2012-09-30T08:14:29Z</time>
      </trkpt>
      <trkpt lat="45.92252" lon="4.00728">
        <ele>478</ele>
        <time>2012-09-30T08:14:31Z</time>
      </trkpt>
      <trkpt lat="45.92249" lon="4.00747">
        <ele>476</ele>
        <time>2012-09-30T08:14:33Z</time>
      </trkpt>
      <trkpt lat="45.92248" lon="4.00761">
        <ele>474</ele>
        <time>2012-09-30T08:14:35Z</time>
      </trkpt>
      <trkpt lat="45.92243" lon="4.00775">
        <ele>471</ele>
        <time>2012-09-30T08:14:38Z</time>
      </trkpt>
      <trkpt lat="45.92236" lon="4.00785">
        <ele>468</ele>
        <time>2012-09-30T08:14:41Z</time>
      </trkpt>
      <trkpt lat="45.92228" lon="4.00793">
        <ele>466</ele>
        <time>2012-09-30T08:14:43Z</time>
      </trkpt>
      <trkpt lat="45.9222" lon="4.00803">
        <ele>463</ele>
        <time>2012-09-30T08:14:46Z</time>
      </trkpt>
      <trkpt lat="45.92217" lon="4.00819">
        <ele>462</ele>
        <time>2012-09-30T08:14:50Z</time>
      </trkpt>
      <trkpt lat="45.92219" lon="4.00832">
        <ele>463</ele>
        <time>2012-09-30T08:14:55Z</time>
      </trkpt>
      <trkpt lat="45.92221" lon="4.00847">
        <ele>463</ele>
        <time>2012-09-30T08:14:59Z</time>
      </trkpt>
      <trkpt lat="45.92221" lon="4.00863">
        <ele>465</ele>
        <time>2012-09-30T08:15:03Z</time>
      </trkpt>
      <trkpt lat="45.92219" lon="4.00878">
        <ele>467</ele>
        <time>2012-09-30T08:15:07Z</time>
      </trkpt>
      <trkpt lat="45.92217" lon="4.00894">
        <ele>470</ele>
        <time>2012-09-30T08:15:11Z</time>
      </trkpt>
      <trkpt lat="45.92212" lon="4.00907">
        <ele>473</ele>
        <time>2012-09-30T08:15:15Z</time>
      </trkpt>
      <trkpt lat="45.92206" lon="4.00929">
        <ele>479</ele>
        <time>2012-09-30T08:15:23Z</time>
      </trkpt>
      <trkpt lat="45.92199" lon="4.00944">
        <ele>481</ele>
        <time>2012-09-30T08:15:27Z</time>
      </trkpt>
      <trkpt lat="45.92191" lon="4.00956">
        <ele>482</ele>
        <time>2012-09-30T08:15:31Z</time>
      </trkpt>
      <trkpt lat="45.92184" lon="4.00967">
        <ele>484</ele>
        <time>2012-09-30T08:15:35Z</time>
      </trkpt>
      <trkpt lat="45.92177" lon="4.00976">
        <ele>485</ele>
        <time>2012-09-30T08:15:38Z</time>
      </trkpt>
      <trkpt lat="45.92169" lon="4.00985">
        <ele>487</ele>
        <time>2012-09-30T08:15:42Z</time>
      </trkpt>
      <trkpt lat="45.92161" lon="4.00995">
        <ele>489</ele>
        <time>2012-09-30T08:15:46Z</time>
      </trkpt>
      <trkpt lat="45.92153" lon="4.01005">
        <ele>490</ele>
        <time>2012-09-30T08:15:50Z</time>
      </trkpt>
      <trkpt lat="45.92145" lon="4.01015">
        <ele>492</ele>
        <time>2012-09-30T08:15:54Z</time>
      </trkpt>
      <trkpt lat="45.92137" lon="4.01023">
        <ele>493</ele>
        <time>2012-09-30T08:15:57Z</time>
      </trkpt>
      <trkpt lat="45.9213" lon="4.01032">
        <ele>495</ele>
        <time>2012-09-30T08:16:00Z</time>
      </trkpt>
      <trkpt lat="45.9212" lon="4.01047">
        <ele>497</ele>
        <time>2012-09-30T08:16:05Z</time>
      </trkpt>
      <trkpt lat="45.92113" lon="4.0106">
        <ele>498</ele>
        <time>2012-09-30T08:16:08Z</time>
      </trkpt>
      <trkpt lat="45.92107" lon="4.01074">
        <ele>497</ele>
        <time>2012-09-30T08:16:12Z</time>
      </trkpt>
      <trkpt lat="45.92103" lon="4.01086">
        <ele>497</ele>
        <time>2012-09-30T08:16:15Z</time>
      </trkpt>
      <trkpt lat="45.92101" lon="4.01099">
        <ele>497</ele>
        <time>2012-09-30T08:16:18Z</time>
      </trkpt>
      <trkpt lat="45.921" lon="4.01112">
        <ele>497</ele>
        <time>2012-09-30T08:16:21Z</time>
      </trkpt>
      <trkpt lat="45.921" lon="4.01126">
        <ele>498</ele>
        <time>2012-09-30T08:16:24Z</time>
      </trkpt>
      <trkpt lat="45.92098" lon="4.0114">
        <ele>499</ele>
        <time>2012-09-30T08:16:27Z</time>
      </trkpt>
      <trkpt lat="45.92098" lon="4.01155">
        <ele>499</ele>
        <time>2012-09-30T08:16:30Z</time>
      </trkpt>
      <trkpt lat="45.92095" lon="4.01177">
        <ele>501</ele>
        <time>2012-09-30T08:16:36Z</time>
      </trkpt>
      <trkpt lat="45.92092" lon="4.01198">
        <ele>503</ele>
        <time>2012-09-30T08:16:44Z</time>
      </trkpt>
      <trkpt lat="45.92092" lon="4.01219">
        <ele>507</ele>
        <time>2012-09-30T08:16:51Z</time>
      </trkpt>
      <trkpt lat="45.9209" lon="4.01232">
        <ele>508</ele>
        <time>2012-09-30T08:16:55Z</time>
      </trkpt>
      <trkpt lat="45.92083" lon="4.01253">
        <ele>511</ele>
        <time>2012-09-30T08:17:05Z</time>
      </trkpt>
      <trkpt lat="45.92078" lon="4.01265">
        <ele>514</ele>
        <time>2012-09-30T08:17:10Z</time>
      </trkpt>
      <trkpt lat="45.92071" lon="4.01277">
        <ele>515</ele>
        <time>2012-09-30T08:17:15Z</time>
      </trkpt>
      <trkpt lat="45.92066" lon="4.0129">
        <ele>516</ele>
        <time>2012-09-30T08:17:20Z</time>
      </trkpt>
      <trkpt lat="45.92062" lon="4.01303">
        <ele>518</ele>
        <time>2012-09-30T08:17:24Z</time>
      </trkpt>
      <trkpt lat="45.92057" lon="4.01317">
        <ele>520</ele>
        <time>2012-09-30T08:17:29Z</time>
      </trkpt>
      <trkpt lat="45.92055" lon="4.01331">
        <ele>524</ele>
        <time>2012-09-30T08:17:34Z</time>
      </trkpt>
      <trkpt lat="45.9205" lon="4.01348">
        <ele>524</ele>
        <time>2012-09-30T08:17:41Z</time>
      </trkpt>
      <trkpt lat="45.92048" lon="4.01371">
        <ele>524</ele>
        <time>2012-09-30T08:17:53Z</time>
      </trkpt>
      <trkpt lat="45.92046" lon="4.01386">
        <ele>524</ele>
        <time>2012-09-30T08:17:59Z</time>
      </trkpt>
      <trkpt lat="45.92043" lon="4.01402">
        <ele>525</ele>
        <time>2012-09-30T08:18:07Z</time>
      </trkpt>
      <trkpt lat="45.92038" lon="4.01415">
        <ele>527</ele>
        <time>2012-09-30T08:18:13Z</time>
      </trkpt>
      <trkpt lat="45.92035" lon="4.01432">
        <ele>531</ele>
        <time>2012-09-30T08:18:22Z</time>
      </trkpt>
      <trkpt lat="45.92038" lon="4.01439">
        <ele>532</ele>
        <time>2012-09-30T08:18:26Z</time>
      </trkpt>
      <trkpt lat="45.9204" lon="4.01449">
        <ele>533</ele>
        <time>2012-09-30T08:18:30Z</time>
      </trkpt>
      <trkpt lat="45.92041" lon="4.01463">
        <ele>533</ele>
        <time>2012-09-30T08:18:34Z</time>
      </trkpt>
      <trkpt lat="45.9204" lon="4.01477">
        <ele>533</ele>
        <time>2012-09-30T08:18:38Z</time>
      </trkpt>
      <trkpt lat="45.92035" lon="4.01491">
        <ele>533</ele>
        <time>2012-09-30T08:18:42Z</time>
      </trkpt>
      <trkpt lat="45.92028" lon="4.01501">
        <ele>533</ele>
        <time>2012-09-30T08:18:45Z</time>
      </trkpt>
      <trkpt lat="45.92021" lon="4.01512">
        <ele>533</ele>
        <time>2012-09-30T08:18:48Z</time>
      </trkpt>
      <trkpt lat="45.92012" lon="4.01523">
        <ele>534</ele>
        <time>2012-09-30T08:18:51Z</time>
      </trkpt>
      <trkpt lat="45.92004" lon="4.01534">
        <ele>535</ele>
        <time>2012-09-30T08:18:55Z</time>
      </trkpt>
      <trkpt lat="45.91996" lon="4.01545">
        <ele>535</ele>
        <time>2012-09-30T08:18:58Z</time>
      </trkpt>
      <trkpt lat="45.91989" lon="4.01557">
        <ele>537</ele>
        <time>2012-09-30T08:19:01Z</time>
      </trkpt>
      <trkpt lat="45.9198" lon="4.01567">
        <ele>538</ele>
        <time>2012-09-30T08:19:04Z</time>
      </trkpt>
      <trkpt lat="45.91973" lon="4.01575">
        <ele>538</ele>
        <time>2012-09-30T08:19:06Z</time>
      </trkpt>
      <trkpt lat="45.91963" lon="4.01583">
        <ele>538</ele>
        <time>2012-09-30T08:19:09Z</time>
      </trkpt>
      <trkpt lat="45.91952" lon="4.01589">
        <ele>538</ele>
        <time>2012-09-30T08:19:12Z</time>
      </trkpt>
      <trkpt lat="45.9194" lon="4.01594">
        <ele>538</ele>
        <time>2012-09-30T08:19:15Z</time>
      </trkpt>
      <trkpt lat="45.9193" lon="4.01595">
        <ele>538</ele>
        <time>2012-09-30T08:19:18Z</time>
      </trkpt>
      <trkpt lat="45.9192" lon="4.01595">
        <ele>538</ele>
        <time>2012-09-30T08:19:21Z</time>
      </trkpt>
      <trkpt lat="45.9191" lon="4.01593">
        <ele>539</ele>
        <time>2012-09-30T08:19:25Z</time>
      </trkpt>
      <trkpt lat="45.91901" lon="4.01588">
        <ele>539</ele>
        <time>2012-09-30T08:19:31Z</time>
      </trkpt>
      <trkpt lat="45.91892" lon="4.01593">
        <ele>540</ele>
        <time>2012-09-30T08:19:37Z</time>
      </trkpt>
      <trkpt lat="45.91882" lon="4.01596">
        <ele>540</ele>
        <time>2012-09-30T08:19:42Z</time>
      </trkpt>
      <trkpt lat="45.91873" lon="4.01601">
        <ele>541</ele>
        <time>2012-09-30T08:19:48Z</time>
      </trkpt>
      <trkpt lat="45.91863" lon="4.01608">
        <ele>541</ele>
        <time>2012-09-30T08:19:55Z</time>
      </trkpt>
      <trkpt lat="45.91855" lon="4.01616">
        <ele>544</ele>
        <time>2012-09-30T08:20:02Z</time>
      </trkpt>
      <trkpt lat="45.91849" lon="4.01617">
        <ele>544</ele>
        <time>2012-09-30T08:20:14Z</time>
      </trkpt>
      <trkpt lat="45.91832" lon="4.01611">
        <ele>541</ele>
        <time>2012-09-30T08:21:29Z</time>
      </trkpt>
      <trkpt lat="45.91803" lon="4.01612">
        <ele>549</ele>
        <time>2012-09-30T08:22:15Z</time>
      </trkpt>
      <trkpt lat="45.91748" lon="4.01579">
        <ele>554.5</ele>
        <time>2012-09-30T08:22:48Z</time>
      </trkpt>
      <trkpt lat="45.91716" lon="4.01556">
        <ele>546</ele>
        <time>2012-09-30T08:22:52Z</time>
      </trkpt>
      <trkpt lat="45.91668" lon="4.01471">
        <ele>549</ele>
        <time>2012-09-30T08:23:05Z</time>
      </trkpt>
      <trkpt lat="45.91655" lon="4.01413">
        <ele>550</ele>
        <time>2012-09-30T08:23:26Z</time>
      </trkpt>
      <trkpt lat="45.91645" lon="4.01375">
        <ele>549</ele>
        <time>2012-09-30T08:23:29Z</time>
      </trkpt>
      <trkpt lat="45.91671" lon="4.01357">
        <ele>550</ele>
        <time>2012-09-30T08:23:41Z</time>
      </trkpt>
      <trkpt lat="45.91679" lon="4.0135">
        <ele>552</ele>
        <time>2012-09-30T08:23:45Z</time>
      </trkpt>
      <trkpt lat="45.91682" lon="4.01335">
        <ele>555</ele>
        <time>2012-09-30T08:23:49Z</time>
      </trkpt>
      <trkpt lat="45.91685" lon="4.01317">
        <ele>557</ele>
        <time>2012-09-30T08:23:52Z</time>
      </trkpt>
      <trkpt lat="45.91685" lon="4.01304">
        <ele>559</ele>
        <time>2012-09-30T08:23:54Z</time>
      </trkpt>
      <trkpt lat="45.91686" lon="4.01291">
        <ele>560</ele>
        <time>2012-09-30T08:23:56Z</time>
      </trkpt>
      <trkpt lat="45.91687" lon="4.01277">
        <ele>561</ele>
        <time>2012-09-30T08:23:58Z</time>
      </trkpt>
      <trkpt lat="45.91686" lon="4.01263">
        <ele>563</ele>
        <time>2012-09-30T08:24:00Z</time>
      </trkpt>
      <trkpt lat="45.91684" lon="4.01249">
        <ele>563</ele>
        <time>2012-09-30T08:24:02Z</time>
      </trkpt>
      <trkpt lat="45.9168" lon="4.01234">
        <ele>564</ele>
        <time>2012-09-30T08:24:04Z</time>
      </trkpt>
      <trkpt lat="45.91678" lon="4.0122">
        <ele>565</ele>
        <time>2012-09-30T08:24:06Z</time>
      </trkpt>
      <trkpt lat="45.91677" lon="4.01205">
        <ele>566</ele>
        <time>2012-09-30T08:24:08Z</time>
      </trkpt>
      <trkpt lat="45.9168" lon="4.01189">
        <ele>567</ele>
        <time>2012-09-30T08:24:10Z</time>
      </trkpt>
      <trkpt lat="45.91685" lon="4.01175">
        <ele>569</ele>
        <time>2012-09-30T08:24:12Z</time>
      </trkpt>
      <trkpt lat="45.91689" lon="4.01161">
        <ele>570</ele>
        <time>2012-09-30T08:24:14Z</time>
      </trkpt>
      <trkpt lat="45.9169" lon="4.01145">
        <ele>572</ele>
        <time>2012-09-30T08:24:16Z</time>
      </trkpt>
      <trkpt lat="45.91689" lon="4.01128">
        <ele>573</ele>
        <time>2012-09-30T08:24:18Z</time>
      </trkpt>
      <trkpt lat="45.9169" lon="4.01105">
        <ele>575</ele>
        <time>2012-09-30T08:24:20Z</time>
      </trkpt>
      <trkpt lat="45.91692" lon="4.01083">
        <ele>576</ele>
        <time>2012-09-30T08:24:22Z</time>
      </trkpt>
      <trkpt lat="45.91692" lon="4.01066">
        <ele>576</ele>
        <time>2012-09-30T08:24:24Z</time>
      </trkpt>
      <trkpt lat="45.91694" lon="4.01049">
        <ele>576</ele>
        <time>2012-09-30T08:24:26Z</time>
      </trkpt>
      <trkpt lat="45.91696" lon="4.01031">
        <ele>576</ele>
        <time>2012-09-30T08:24:28Z</time>
      </trkpt>
      <trkpt lat="45.91695" lon="4.01014">
        <ele>576</ele>
        <time>2012-09-30T08:24:31Z</time>
      </trkpt>
      <trkpt lat="45.91682" lon="4.01003">
        <ele>575</ele>
        <time>2012-09-30T08:24:34Z</time>
      </trkpt>
      <trkpt lat="45.91668" lon="4.01">
        <ele>574</ele>
        <time>2012-09-30T08:24:36Z</time>
      </trkpt>
      <trkpt lat="45.91653" lon="4.01">
        <ele>573</ele>
        <time>2012-09-30T08:24:38Z</time>
      </trkpt>
      <trkpt lat="45.91637" lon="4.00997">
        <ele>573</ele>
        <time>2012-09-30T08:24:40Z</time>
      </trkpt>
      <trkpt lat="45.91622" lon="4.00995">
        <ele>572</ele>
        <time>2012-09-30T08:24:42Z</time>
      </trkpt>
      <trkpt lat="45.91606" lon="4.00994">
        <ele>572</ele>
        <time>2012-09-30T08:24:44Z</time>
      </trkpt>
      <trkpt lat="45.9159" lon="4.00993">
        <ele>571</ele>
        <time>2012-09-30T08:24:46Z</time>
      </trkpt>
      <trkpt lat="45.91575" lon="4.00992">
        <ele>571</ele>
        <time>2012-09-30T08:24:48Z</time>
      </trkpt>
      <trkpt lat="45.91562" lon="4.0099">
        <ele>570</ele>
        <time>2012-09-30T08:24:50Z</time>
      </trkpt>
      <trkpt lat="45.91547" lon="4.00989">
        <ele>570</ele>
        <time>2012-09-30T08:24:52Z</time>
      </trkpt>
      <trkpt lat="45.9153" lon="4.00989">
        <ele>571</ele>
        <time>2012-09-30T08:24:54Z</time>
      </trkpt>
      <trkpt lat="45.91521" lon="4.0099">
        <ele>570</ele>
        <time>2012-09-30T08:24:55Z</time>
      </trkpt>
      <trkpt lat="45.91505" lon="4.0099">
        <ele>570</ele>
        <time>2012-09-30T08:24:57Z</time>
      </trkpt>
      <trkpt lat="45.9149" lon="4.00989">
        <ele>570</ele>
        <time>2012-09-30T08:24:59Z</time>
      </trkpt>
      <trkpt lat="45.91481" lon="4.00986">
        <ele>569</ele>
        <time>2012-09-30T08:25:00Z</time>
      </trkpt>
      <trkpt lat="45.91468" lon="4.00978">
        <ele>569</ele>
        <time>2012-09-30T08:25:02Z</time>
      </trkpt>
      <trkpt lat="45.91455" lon="4.00969">
        <ele>569</ele>
        <time>2012-09-30T08:25:04Z</time>
      </trkpt>
      <trkpt lat="45.91441" lon="4.00964">
        <ele>568</ele>
        <time>2012-09-30T08:25:06Z</time>
      </trkpt>
      <trkpt lat="45.91427" lon="4.0096">
        <ele>568</ele>
        <time>2012-09-30T08:25:08Z</time>
      </trkpt>
      <trkpt lat="45.91414" lon="4.00959">
        <ele>568</ele>
        <time>2012-09-30T08:25:10Z</time>
      </trkpt>
      <trkpt lat="45.91401" lon="4.00959">
        <ele>568</ele>
        <time>2012-09-30T08:25:12Z</time>
      </trkpt>
      <trkpt lat="45.91392" lon="4.00959">
        <ele>568</ele>
        <time>2012-09-30T08:25:14Z</time>
      </trkpt>
      <trkpt lat="45.91381" lon="4.00956">
        <ele>569</ele>
        <time>2012-09-30T08:25:16Z</time>
      </trkpt>
      <trkpt lat="45.91368" lon="4.00952">
        <ele>569</ele>
        <time>2012-09-30T08:25:19Z</time>
      </trkpt>
      <trkpt lat="45.91359" lon="4.00948">
        <ele>568</ele>
        <time>2012-09-30T08:25:21Z</time>
      </trkpt>
      <trkpt lat="45.91349" lon="4.00942">
        <ele>568</ele>
        <time>2012-09-30T08:25:23Z</time>
      </trkpt>
      <trkpt lat="45.91341" lon="4.00937">
        <ele>569</ele>
        <time>2012-09-30T08:25:25Z</time>
      </trkpt>
      <trkpt lat="45.91332" lon="4.0093">
        <ele>570</ele>
        <time>2012-09-30T08:25:27Z</time>
      </trkpt>
      <trkpt lat="45.91322" lon="4.00922">
        <ele>571</ele>
        <time>2012-09-30T08:25:29Z</time>
      </trkpt>
      <trkpt lat="45.91311" lon="4.00915">
        <ele>572</ele>
        <time>2012-09-30T08:25:31Z</time>
      </trkpt>
      <trkpt lat="45.91301" lon="4.00908">
        <ele>573</ele>
        <time>2012-09-30T08:25:33Z</time>
      </trkpt>
      <trkpt lat="45.91291" lon="4.00902">
        <ele>573</ele>
        <time>2012-09-30T08:25:35Z</time>
      </trkpt>
      <trkpt lat="45.9128" lon="4.00896">
        <ele>574</ele>
        <time>2012-09-30T08:25:37Z</time>
      </trkpt>
      <trkpt lat="45.91269" lon="4.00891">
        <ele>575</ele>
        <time>2012-09-30T08:25:39Z</time>
      </trkpt>
      <trkpt lat="45.91259" lon="4.0089">
        <ele>575</ele>
        <time>2012-09-30T08:25:41Z</time>
      </trkpt>
      <trkpt lat="45.91248" lon="4.00886">
        <ele>575</ele>
        <time>2012-09-30T08:25:43Z</time>
      </trkpt>
      <trkpt lat="45.91236" lon="4.00883">
        <ele>575</ele>
        <time>2012-09-30T08:25:45Z</time>
      </trkpt>
      <trkpt lat="45.91226" lon="4.00879">
        <ele>575</ele>
        <time>2012-09-30T08:25:47Z</time>
      </trkpt>
      <trkpt lat="45.91216" lon="4.00876">
        <ele>575</ele>
        <time>2012-09-30T08:25:49Z</time>
      </trkpt>
      <trkpt lat="45.91206" lon="4.00872">
        <ele>575</ele>
        <time>2012-09-30T08:25:51Z</time>
      </trkpt>
      <trkpt lat="45.91193" lon="4.00864">
        <ele>575</ele>
        <time>2012-09-30T08:25:53Z</time>
      </trkpt>
      <trkpt lat="45.9118" lon="4.00859">
        <ele>575</ele>
        <time>2012-09-30T08:25:55Z</time>
      </trkpt>
      <trkpt lat="45.91169" lon="4.00855">
        <ele>575</ele>
        <time>2012-09-30T08:25:57Z</time>
      </trkpt>
      <trkpt lat="45.91156" lon="4.00849">
        <ele>575</ele>
        <time>2012-09-30T08:25:59Z</time>
      </trkpt>
      <trkpt lat="45.91144" lon="4.00846">
        <ele>574</ele>
        <time>2012-09-30T08:26:01Z</time>
      </trkpt>
      <trkpt lat="45.91132" lon="4.00842">
        <ele>574</ele>
        <time>2012-09-30T08:26:03Z</time>
      </trkpt>
      <trkpt lat="45.91121" lon="4.00838">
        <ele>573</ele>
        <time>2012-09-30T08:26:05Z</time>
      </trkpt>
      <trkpt lat="45.9111" lon="4.00834">
        <ele>571</ele>
        <time>2012-09-30T08:26:07Z</time>
      </trkpt>
      <trkpt lat="45.91102" lon="4.0083">
        <ele>570</ele>
        <time>2012-09-30T08:26:09Z</time>
      </trkpt>
      <trkpt lat="45.91092" lon="4.00821">
        <ele>569</ele>
        <time>2012-09-30T08:26:11Z</time>
      </trkpt>
      <trkpt lat="45.91084" lon="4.00807">
        <ele>568</ele>
        <time>2012-09-30T08:26:13Z</time>
      </trkpt>
      <trkpt lat="45.91081" lon="4.00791">
        <ele>568</ele>
        <time>2012-09-30T08:26:15Z</time>
      </trkpt>
      <trkpt lat="45.91077" lon="4.00776">
        <ele>567</ele>
        <time>2012-09-30T08:26:17Z</time>
      </trkpt>
      <trkpt lat="45.91073" lon="4.00761">
        <ele>567</ele>
        <time>2012-09-30T08:26:19Z</time>
      </trkpt>
      <trkpt lat="45.9107" lon="4.00746">
        <ele>566</ele>
        <time>2012-09-30T08:26:21Z</time>
      </trkpt>
      <trkpt lat="45.91065" lon="4.00731">
        <ele>566</ele>
        <time>2012-09-30T08:26:23Z</time>
      </trkpt>
      <trkpt lat="45.9106" lon="4.00716">
        <ele>566</ele>
        <time>2012-09-30T08:26:25Z</time>
      </trkpt>
      <trkpt lat="45.91055" lon="4.007">
        <ele>566</ele>
        <time>2012-09-30T08:26:27Z</time>
      </trkpt>
      <trkpt lat="45.91049" lon="4.00685">
        <ele>565</ele>
        <time>2012-09-30T08:26:29Z</time>
      </trkpt>
      <trkpt lat="45.91042" lon="4.0067">
        <ele>565</ele>
        <time>2012-09-30T08:26:31Z</time>
      </trkpt>
      <trkpt lat="45.91035" lon="4.00653">
        <ele>565</ele>
        <time>2012-09-30T08:26:33Z</time>
      </trkpt>
      <trkpt lat="45.91027" lon="4.00637">
        <ele>565</ele>
        <time>2012-09-30T08:26:35Z</time>
      </trkpt>
      <trkpt lat="45.91019" lon="4.00622">
        <ele>566</ele>
        <time>2012-09-30T08:26:37Z</time>
      </trkpt>
      <trkpt lat="45.91011" lon="4.00607">
        <ele>567</ele>
        <time>2012-09-30T08:26:39Z</time>
      </trkpt>
      <trkpt lat="45.91003" lon="4.00592">
        <ele>567</ele>
        <time>2012-09-30T08:26:41Z</time>
      </trkpt>
      <trkpt lat="45.90995" lon="4.00577">
        <ele>567</ele>
        <time>2012-09-30T08:26:43Z</time>
      </trkpt>
      <trkpt lat="45.90986" lon="4.00562">
        <ele>567</ele>
        <time>2012-09-30T08:26:45Z</time>
      </trkpt>
      <trkpt lat="45.90978" lon="4.00547">
        <ele>566</ele>
        <time>2012-09-30T08:26:47Z</time>
      </trkpt>
      <trkpt lat="45.9097" lon="4.00532">
        <ele>566</ele>
        <time>2012-09-30T08:26:49Z</time>
      </trkpt>
      <trkpt lat="45.9096" lon="4.0052">
        <ele>566</ele>
        <time>2012-09-30T08:26:51Z</time>
      </trkpt>
      <trkpt lat="45.90953" lon="4.00506">
        <ele>565</ele>
        <time>2012-09-30T08:26:53Z</time>
      </trkpt>
      <trkpt lat="45.90945" lon="4.0049">
        <ele>565</ele>
        <time>2012-09-30T08:26:55Z</time>
      </trkpt>
      <trkpt lat="45.90939" lon="4.00473">
        <ele>565</ele>
        <time>2012-09-30T08:26:57Z</time>
      </trkpt>
      <trkpt lat="45.90934" lon="4.00456">
        <ele>564</ele>
        <time>2012-09-30T08:26:59Z</time>
      </trkpt>
      <trkpt lat="45.90927" lon="4.00442">
        <ele>564</ele>
        <time>2012-09-30T08:27:01Z</time>
      </trkpt>
      <trkpt lat="45.9092" lon="4.00429">
        <ele>564</ele>
        <time>2012-09-30T08:27:03Z</time>
      </trkpt>
      <trkpt lat="45.90911" lon="4.00421">
        <ele>563</ele>
        <time>2012-09-30T08:27:05Z</time>
      </trkpt>
      <trkpt lat="45.90899" lon="4.00417">
        <ele>563</ele>
        <time>2012-09-30T08:27:07Z</time>
      </trkpt>
      <trkpt lat="45.90887" lon="4.00415">
        <ele>562</ele>
        <time>2012-09-30T08:27:09Z</time>
      </trkpt>
      <trkpt lat="45.90876" lon="4.00411">
        <ele>562</ele>
        <time>2012-09-30T08:27:11Z</time>
      </trkpt>
      <trkpt lat="45.90864" lon="4.00408">
        <ele>562</ele>
        <time>2012-09-30T08:27:13Z</time>
      </trkpt>
      <trkpt lat="45.90851" lon="4.0041">
        <ele>562</ele>
        <time>2012-09-30T08:27:15Z</time>
      </trkpt>
      <trkpt lat="45.90838" lon="4.00415">
        <ele>561</ele>
        <time>2012-09-30T08:27:17Z</time>
      </trkpt>
      <trkpt lat="45.90824" lon="4.00419">
        <ele>561</ele>
        <time>2012-09-30T08:27:19Z</time>
      </trkpt>
      <trkpt lat="45.90811" lon="4.00423">
        <ele>561</ele>
        <time>2012-09-30T08:27:21Z</time>
      </trkpt>
      <trkpt lat="45.90799" lon="4.00424">
        <ele>561</ele>
        <time>2012-09-30T08:27:23Z</time>
      </trkpt>
      <trkpt lat="45.90786" lon="4.00426">
        <ele>560</ele>
        <time>2012-09-30T08:27:25Z</time>
      </trkpt>
      <trkpt lat="45.90772" lon="4.00428">
        <ele>560</ele>
        <time>2012-09-30T08:27:27Z</time>
      </trkpt>
      <trkpt lat="45.90763" lon="4.00429">
        <ele>560</ele>
        <time>2012-09-30T08:27:28Z</time>
      </trkpt>
      <trkpt lat="45.90753" lon="4.00429">
        <ele>560</ele>
        <time>2012-09-30T08:27:29Z</time>
      </trkpt>
      <trkpt lat="45.90743" lon="4.00429">
        <ele>560</ele>
        <time>2012-09-30T08:27:30Z</time>
      </trkpt>
      <trkpt lat="45.90734" lon="4.0043">
        <ele>559</ele>
        <time>2012-09-30T08:27:31Z</time>
      </trkpt>
      <trkpt lat="45.90724" lon="4.00431">
        <ele>559</ele>
        <time>2012-09-30T08:27:32Z</time>
      </trkpt>
      <trkpt lat="45.90707" lon="4.00432">
        <ele>559</ele>
        <time>2012-09-30T08:27:34Z</time>
      </trkpt>
      <trkpt lat="45.90692" lon="4.00433">
        <ele>558</ele>
        <time>2012-09-30T08:27:36Z</time>
      </trkpt>
      <trkpt lat="45.90676" lon="4.00435">
        <ele>558</ele>
        <time>2012-09-30T08:27:38Z</time>
      </trkpt>
      <trkpt lat="45.90661" lon="4.00437">
        <ele>557</ele>
        <time>2012-09-30T08:27:40Z</time>
      </trkpt>
      <trkpt lat="45.90642" lon="4.00436">
        <ele>557</ele>
        <time>2012-09-30T08:27:50Z</time>
      </trkpt>
      <trkpt lat="45.90632" lon="4.00436">
        <ele>555</ele>
        <time>2012-09-30T08:27:57Z</time>
      </trkpt>
      <trkpt lat="45.90619" lon="4.00427">
        <ele>554</ele>
        <time>2012-09-30T08:28:00Z</time>
      </trkpt>
      <trkpt lat="45.90609" lon="4.00418">
        <ele>554</ele>
        <time>2012-09-30T08:28:02Z</time>
      </trkpt>
      <trkpt lat="45.906" lon="4.00409">
        <ele>554</ele>
        <time>2012-09-30T08:28:04Z</time>
      </trkpt>
      <trkpt lat="45.90589" lon="4.00398">
        <ele>554</ele>
        <time>2012-09-30T08:28:06Z</time>
      </trkpt>
      <trkpt lat="45.90579" lon="4.00387">
        <ele>553</ele>
        <time>2012-09-30T08:28:08Z</time>
      </trkpt>
      <trkpt lat="45.90571" lon="4.00375">
        <ele>554</ele>
        <time>2012-09-30T08:28:10Z</time>
      </trkpt>
      <trkpt lat="45.90561" lon="4.00364">
        <ele>554</ele>
        <time>2012-09-30T08:28:12Z</time>
      </trkpt>
      <trkpt lat="45.90554" lon="4.00356">
        <ele>555</ele>
        <time>2012-09-30T08:28:14Z</time>
      </trkpt>
      <trkpt lat="45.90543" lon="4.00344">
        <ele>555</ele>
        <time>2012-09-30T08:28:17Z</time>
      </trkpt>
      <trkpt lat="45.90534" lon="4.00333">
        <ele>556</ele>
        <time>2012-09-30T08:28:20Z</time>
      </trkpt>
      <trkpt lat="45.90526" lon="4.00321">
        <ele>555</ele>
        <time>2012-09-30T08:28:23Z</time>
      </trkpt>
      <trkpt lat="45.90519" lon="4.00307">
        <ele>554</ele>
        <time>2012-09-30T08:28:26Z</time>
      </trkpt>
      <trkpt lat="45.90515" lon="4.00292">
        <ele>553</ele>
        <time>2012-09-30T08:28:29Z</time>
      </trkpt>
      <trkpt lat="45.90514" lon="4.00279">
        <ele>553</ele>
        <time>2012-09-30T08:28:31Z</time>
      </trkpt>
      <trkpt lat="45.90514" lon="4.00263">
        <ele>552</ele>
        <time>2012-09-30T08:28:33Z</time>
      </trkpt>
      <trkpt lat="45.90515" lon="4.00245">
        <ele>552</ele>
        <time>2012-09-30T08:28:36Z</time>
      </trkpt>
      <trkpt lat="45.90517" lon="4.0023">
        <ele>553</ele>
        <time>2012-09-30T08:28:39Z</time>
      </trkpt>
      <trkpt lat="45.90522" lon="4.00218">
        <ele>553</ele>
        <time>2012-09-30T08:28:42Z</time>
      </trkpt>
      <trkpt lat="45.90531" lon="4.00205">
        <ele>554</ele>
        <time>2012-09-30T08:28:45Z</time>
      </trkpt>
      <trkpt lat="45.90538" lon="4.00196">
        <ele>554</ele>
        <time>2012-09-30T08:28:47Z</time>
      </trkpt>
      <trkpt lat="45.90548" lon="4.00181">
        <ele>555</ele>
        <time>2012-09-30T08:28:50Z</time>
      </trkpt>
      <trkpt lat="45.90556" lon="4.00169">
        <ele>556</ele>
        <time>2012-09-30T08:28:53Z</time>
      </trkpt>
      <trkpt lat="45.90567" lon="4.00153">
        <ele>556</ele>
        <time>2012-09-30T08:28:55Z</time>
      </trkpt>
      <trkpt lat="45.90575" lon="4.0014">
        <ele>556</ele>
        <time>2012-09-30T08:28:57Z</time>
      </trkpt>
      <trkpt lat="45.90597" lon="4.00109">
        <ele>556</ele>
        <time>2012-09-30T08:29:03Z</time>
      </trkpt>
      <trkpt lat="45.90607" lon="4.00094">
        <ele>556</ele>
        <time>2012-09-30T08:29:07Z</time>
      </trkpt>
      <trkpt lat="45.90615" lon="4.00082">
        <ele>557</ele>
        <time>2012-09-30T08:29:09Z</time>
      </trkpt>
      <trkpt lat="45.90625" lon="4.00068">
        <ele>557</ele>
        <time>2012-09-30T08:29:11Z</time>
      </trkpt>
      <trkpt lat="45.90633" lon="4.00055">
        <ele>557</ele>
        <time>2012-09-30T08:29:13Z</time>
      </trkpt>
      <trkpt lat="45.9065" lon="4.00026">
        <ele>557</ele>
        <time>2012-09-30T08:29:18Z</time>
      </trkpt>
      <trkpt lat="45.90654" lon="4.00002">
        <ele>557</ele>
        <time>2012-09-30T08:29:22Z</time>
      </trkpt>
      <trkpt lat="45.90652" lon="3.99982">
        <ele>557</ele>
        <time>2012-09-30T08:29:24Z</time>
      </trkpt>
      <trkpt lat="45.90649" lon="3.99962">
        <ele>556</ele>
        <time>2012-09-30T08:29:26Z</time>
      </trkpt>
      <trkpt lat="45.90644" lon="3.99944">
        <ele>555</ele>
        <time>2012-09-30T08:29:28Z</time>
      </trkpt>
      <trkpt lat="45.90639" lon="3.99927">
        <ele>555</ele>
        <time>2012-09-30T08:29:30Z</time>
      </trkpt>
      <trkpt lat="45.90634" lon="3.9991">
        <ele>554</ele>
        <time>2012-09-30T08:29:32Z</time>
      </trkpt>
      <trkpt lat="45.90629" lon="3.99894">
        <ele>553</ele>
        <time>2012-09-30T08:29:34Z</time>
      </trkpt>
      <trkpt lat="45.90624" lon="3.99879">
        <ele>553</ele>
        <time>2012-09-30T08:29:36Z</time>
      </trkpt>
      <trkpt lat="45.9062" lon="3.99865">
        <ele>552</ele>
        <time>2012-09-30T08:29:38Z</time>
      </trkpt>
      <trkpt lat="45.90615" lon="3.99851">
        <ele>551</ele>
        <time>2012-09-30T08:29:40Z</time>
      </trkpt>
      <trkpt lat="45.9061" lon="3.99837">
        <ele>550</ele>
        <time>2012-09-30T08:29:42Z</time>
      </trkpt>
      <trkpt lat="45.90604" lon="3.99823">
        <ele>549</ele>
        <time>2012-09-30T08:29:44Z</time>
      </trkpt>
      <trkpt lat="45.90599" lon="3.99807">
        <ele>548</ele>
        <time>2012-09-30T08:29:46Z</time>
      </trkpt>
      <trkpt lat="45.90594" lon="3.99792">
        <ele>547</ele>
        <time>2012-09-30T08:29:48Z</time>
      </trkpt>
      <trkpt lat="45.90587" lon="3.99779">
        <ele>546</ele>
        <time>2012-09-30T08:29:50Z</time>
      </trkpt>
      <trkpt lat="45.90583" lon="3.99767">
        <ele>545</ele>
        <time>2012-09-30T08:29:52Z</time>
      </trkpt>
      <trkpt lat="45.90577" lon="3.99753">
        <ele>545</ele>
        <time>2012-09-30T08:29:54Z</time>
      </trkpt>
      <trkpt lat="45.90571" lon="3.99741">
        <ele>544</ele>
        <time>2012-09-30T08:29:56Z</time>
      </trkpt>
      <trkpt lat="45.90563" lon="3.99732">
        <ele>543</ele>
        <time>2012-09-30T08:29:58Z</time>
      </trkpt>
      <trkpt lat="45.90554" lon="3.99721">
        <ele>542</ele>
        <time>2012-09-30T08:30:00Z</time>
      </trkpt>
      <trkpt lat="45.90545" lon="3.99707">
        <ele>542</ele>
        <time>2012-09-30T08:30:02Z</time>
      </trkpt>
      <trkpt lat="45.90536" lon="3.99695">
        <ele>542</ele>
        <time>2012-09-30T08:30:04Z</time>
      </trkpt>
      <trkpt lat="45.90527" lon="3.99681">
        <ele>543</ele>
        <time>2012-09-30T08:30:06Z</time>
      </trkpt>
      <trkpt lat="45.90519" lon="3.99668">
        <ele>543</ele>
        <time>2012-09-30T08:30:08Z</time>
      </trkpt>
      <trkpt lat="45.90512" lon="3.99654">
        <ele>543</ele>
        <time>2012-09-30T08:30:10Z</time>
      </trkpt>
      <trkpt lat="45.90508" lon="3.9964">
        <ele>544</ele>
        <time>2012-09-30T08:30:12Z</time>
      </trkpt>
      <trkpt lat="45.90505" lon="3.99626">
        <ele>544</ele>
        <time>2012-09-30T08:30:14Z</time>
      </trkpt>
      <trkpt lat="45.90503" lon="3.9961">
        <ele>545</ele>
        <time>2012-09-30T08:30:16Z</time>
      </trkpt>
      <trkpt lat="45.90502" lon="3.99592">
        <ele>546</ele>
        <time>2012-09-30T08:30:18Z</time>
      </trkpt>
      <trkpt lat="45.90501" lon="3.99571">
        <ele>547</ele>
        <time>2012-09-30T08:30:20Z</time>
      </trkpt>
      <trkpt lat="45.90501" lon="3.99551">
        <ele>548</ele>
        <time>2012-09-30T08:30:22Z</time>
      </trkpt>
      <trkpt lat="45.90501" lon="3.99531">
        <ele>549</ele>
        <time>2012-09-30T08:30:24Z</time>
      </trkpt>
      <trkpt lat="45.90501" lon="3.9951">
        <ele>549</ele>
        <time>2012-09-30T08:30:26Z</time>
      </trkpt>
      <trkpt lat="45.905" lon="3.9949">
        <ele>549</ele>
        <time>2012-09-30T08:30:28Z</time>
      </trkpt>
      <trkpt lat="45.90498" lon="3.99472">
        <ele>549</ele>
        <time>2012-09-30T08:30:30Z</time>
      </trkpt>
      <trkpt lat="45.90495" lon="3.99455">
        <ele>549</ele>
        <time>2012-09-30T08:30:32Z</time>
      </trkpt>
      <trkpt lat="45.90491" lon="3.99437">
        <ele>549</ele>
        <time>2012-09-30T08:30:34Z</time>
      </trkpt>
      <trkpt lat="45.90487" lon="3.99415">
        <ele>549</ele>
        <time>2012-09-30T08:30:36Z</time>
      </trkpt>
      <trkpt lat="45.90484" lon="3.99394">
        <ele>549</ele>
        <time>2012-09-30T08:30:38Z</time>
      </trkpt>
      <trkpt lat="45.90479" lon="3.99372">
        <ele>549</ele>
        <time>2012-09-30T08:30:40Z</time>
      </trkpt>
      <trkpt lat="45.90473" lon="3.9935">
        <ele>549</ele>
        <time>2012-09-30T08:30:42Z</time>
      </trkpt>
      <trkpt lat="45.90467" lon="3.99327">
        <ele>548</ele>
        <time>2012-09-30T08:30:44Z</time>
      </trkpt>
      <trkpt lat="45.90463" lon="3.99315">
        <ele>548</ele>
        <time>2012-09-30T08:30:45Z</time>
      </trkpt>
      <trkpt lat="45.90459" lon="3.99303">
        <ele>548</ele>
        <time>2012-09-30T08:30:46Z</time>
      </trkpt>
      <trkpt lat="45.90454" lon="3.99291">
        <ele>548</ele>
        <time>2012-09-30T08:30:47Z</time>
      </trkpt>
      <trkpt lat="45.90446" lon="3.99269">
        <ele>548</ele>
        <time>2012-09-30T08:30:49Z</time>
      </trkpt>
      <trkpt lat="45.90438" lon="3.99247">
        <ele>549</ele>
        <time>2012-09-30T08:30:51Z</time>
      </trkpt>
      <trkpt lat="45.90434" lon="3.99235">
        <ele>548</ele>
        <time>2012-09-30T08:30:52Z</time>
      </trkpt>
      <trkpt lat="45.90426" lon="3.99213">
        <ele>548</ele>
        <time>2012-09-30T08:30:54Z</time>
      </trkpt>
      <trkpt lat="45.90417" lon="3.99191">
        <ele>548</ele>
        <time>2012-09-30T08:30:56Z</time>
      </trkpt>
      <trkpt lat="45.9041" lon="3.99172">
        <ele>548</ele>
        <time>2012-09-30T08:30:58Z</time>
      </trkpt>
      <trkpt lat="45.90402" lon="3.99148">
        <ele>547</ele>
        <time>2012-09-30T08:31:00Z</time>
      </trkpt>
      <trkpt lat="45.90398" lon="3.99135">
        <ele>547</ele>
        <time>2012-09-30T08:31:01Z</time>
      </trkpt>
      <trkpt lat="45.90395" lon="3.99123">
        <ele>547</ele>
        <time>2012-09-30T08:31:02Z</time>
      </trkpt>
      <trkpt lat="45.90384" lon="3.99078">
        <ele>547</ele>
        <time>2012-09-30T08:31:07Z</time>
      </trkpt>
      <trkpt lat="45.90379" lon="3.99041">
        <ele>546</ele>
        <time>2012-09-30T08:31:11Z</time>
      </trkpt>
      <trkpt lat="45.9038" lon="3.99026">
        <ele>545</ele>
        <time>2012-09-30T08:31:13Z</time>
      </trkpt>
      <trkpt lat="45.90465" lon="3.98741">
        <ele>509.5</ele>
        <time>2012-09-30T08:32:34Z</time>
      </trkpt>
      <trkpt lat="45.90488" lon="3.98682">
        <ele>513.4</ele>
        <time>2012-09-30T08:32:56Z</time>
      </trkpt>
      <trkpt lat="45.90517" lon="3.98624">
        <ele>516.4</ele>
        <time>2012-09-30T08:33:07Z</time>
      </trkpt>
      <trkpt lat="45.90538" lon="3.98592">
        <ele>519</ele>
        <time>2012-09-30T08:33:38Z</time>
      </trkpt>
      <trkpt lat="45.90586" lon="3.98576">
        <ele>516.8</ele>
        <time>2012-09-30T08:33:59Z</time>
      </trkpt>
      <trkpt lat="45.90725" lon="3.98509">
        <ele>546</ele>
        <time>2012-09-30T08:34:25Z</time>
      </trkpt>
      <trkpt lat="45.90739" lon="3.98467">
        <ele>545</ele>
        <time>2012-09-30T08:34:36Z</time>
      </trkpt>
      <trkpt lat="45.90735" lon="3.98426">
        <ele>543</ele>
        <time>2012-09-30T08:34:40Z</time>
      </trkpt>
      <trkpt lat="45.90728" lon="3.98402">
        <ele>540</ele>
        <time>2012-09-30T08:34:46Z</time>
      </trkpt>
      <trkpt lat="45.90728" lon="3.98389">
        <ele>539</ele>
        <time>2012-09-30T08:34:50Z</time>
      </trkpt>
      <trkpt lat="45.90734" lon="3.98378">
        <ele>538</ele>
        <time>2012-09-30T08:34:55Z</time>
      </trkpt>
      <trkpt lat="45.90739" lon="3.98366">
        <ele>537</ele>
        <time>2012-09-30T08:35:00Z</time>
      </trkpt>
      <trkpt lat="45.90735" lon="3.98351">
        <ele>537</ele>
        <time>2012-09-30T08:35:05Z</time>
      </trkpt>
      <trkpt lat="45.90729" lon="3.9834">
        <ele>535</ele>
        <time>2012-09-30T08:35:08Z</time>
      </trkpt>
      <trkpt lat="45.90719" lon="3.98327">
        <ele>533</ele>
        <time>2012-09-30T08:35:12Z</time>
      </trkpt>
      <trkpt lat="45.90712" lon="3.98316">
        <ele>531</ele>
        <time>2012-09-30T08:35:15Z</time>
      </trkpt>
      <trkpt lat="45.90706" lon="3.98306">
        <ele>529</ele>
        <time>2012-09-30T08:35:18Z</time>
      </trkpt>
      <trkpt lat="45.90699" lon="3.98296">
        <ele>528</ele>
        <time>2012-09-30T08:35:21Z</time>
      </trkpt>
      <trkpt lat="45.90689" lon="3.98274">
        <ele>525</ele>
        <time>2012-09-30T08:35:30Z</time>
      </trkpt>
      <trkpt lat="45.90681" lon="3.98261">
        <ele>524</ele>
        <time>2012-09-30T08:35:35Z</time>
      </trkpt>
      <trkpt lat="45.90674" lon="3.98252">
        <ele>524</ele>
        <time>2012-09-30T08:35:40Z</time>
      </trkpt>
      <trkpt lat="45.90668" lon="3.98241">
        <ele>523</ele>
        <time>2012-09-30T08:35:47Z</time>
      </trkpt>
      <trkpt lat="45.90663" lon="3.98227">
        <ele>524</ele>
        <time>2012-09-30T08:35:52Z</time>
      </trkpt>
      <trkpt lat="45.90658" lon="3.98216">
        <ele>525</ele>
        <time>2012-09-30T08:35:56Z</time>
      </trkpt>
      <trkpt lat="45.9065" lon="3.9821">
        <ele>527</ele>
        <time>2012-09-30T08:36:00Z</time>
      </trkpt>
      <trkpt lat="45.90635" lon="3.98212">
        <ele>531</ele>
        <time>2012-09-30T08:36:08Z</time>
      </trkpt>
      <trkpt lat="45.90626" lon="3.98218">
        <ele>533</ele>
        <time>2012-09-30T08:36:13Z</time>
      </trkpt>
      <trkpt lat="45.90615" lon="3.98224">
        <ele>533</ele>
        <time>2012-09-30T08:36:17Z</time>
      </trkpt>
      <trkpt lat="45.90607" lon="3.98231">
        <ele>534</ele>
        <time>2012-09-30T08:36:21Z</time>
      </trkpt>
      <trkpt lat="45.90597" lon="3.98233">
        <ele>535</ele>
        <time>2012-09-30T08:36:27Z</time>
      </trkpt>
      <trkpt lat="45.90586" lon="3.98229">
        <ele>536</ele>
        <time>2012-09-30T08:36:35Z</time>
      </trkpt>
      <trkpt lat="45.90577" lon="3.98231">
        <ele>536</ele>
        <time>2012-09-30T08:36:38Z</time>
      </trkpt>
      <trkpt lat="45.90565" lon="3.98233">
        <ele>536</ele>
        <time>2012-09-30T08:36:41Z</time>
      </trkpt>
      <trkpt lat="45.90556" lon="3.98232">
        <ele>536</ele>
        <time>2012-09-30T08:36:43Z</time>
      </trkpt>
      <trkpt lat="45.90543" lon="3.98228">
        <ele>537</ele>
        <time>2012-09-30T08:36:46Z</time>
      </trkpt>
      <trkpt lat="45.90533" lon="3.98222">
        <ele>537</ele>
        <time>2012-09-30T08:36:48Z</time>
      </trkpt>
      <trkpt lat="45.9052" lon="3.98217">
        <ele>537</ele>
        <time>2012-09-30T08:36:50Z</time>
      </trkpt>
      <trkpt lat="45.90509" lon="3.98207">
        <ele>538</ele>
        <time>2012-09-30T08:36:52Z</time>
      </trkpt>
      <trkpt lat="45.90497" lon="3.98196">
        <ele>538</ele>
        <time>2012-09-30T08:36:54Z</time>
      </trkpt>
      <trkpt lat="45.90486" lon="3.98181">
        <ele>538</ele>
        <time>2012-09-30T08:36:56Z</time>
      </trkpt>
      <trkpt lat="45.90478" lon="3.98164">
        <ele>538</ele>
        <time>2012-09-30T08:36:58Z</time>
      </trkpt>
      <trkpt lat="45.90468" lon="3.98148">
        <ele>537</ele>
        <time>2012-09-30T08:37:00Z</time>
      </trkpt>
      <trkpt lat="45.9046" lon="3.98132">
        <ele>537</ele>
        <time>2012-09-30T08:37:02Z</time>
      </trkpt>
      <trkpt lat="45.90377" lon="3.98225">
        <ele>536</ele>
        <time>2012-09-30T08:37:20Z</time>
      </trkpt>
      <trkpt lat="45.90357" lon="3.98263">
        <ele>536</ele>
        <time>2012-09-30T08:37:23Z</time>
      </trkpt>
      <trkpt lat="45.90348" lon="3.98333">
        <ele>536</ele>
        <time>2012-09-30T08:37:29Z</time>
      </trkpt>
      <trkpt lat="45.90336" lon="3.98365">
        <ele>536</ele>
        <time>2012-09-30T08:37:33Z</time>
      </trkpt>
      <trkpt lat="45.90328" lon="3.98378">
        <ele>536</ele>
        <time>2012-09-30T08:37:35Z</time>
      </trkpt>
      <trkpt lat="45.90315" lon="3.98388">
        <ele>537</ele>
        <time>2012-09-30T08:37:37Z</time>
      </trkpt>
      <trkpt lat="45.90302" lon="3.98398">
        <ele>537</ele>
        <time>2012-09-30T08:37:39Z</time>
      </trkpt>
      <trkpt lat="45.90289" lon="3.98408">
        <ele>538</ele>
        <time>2012-09-30T08:37:41Z</time>
      </trkpt>
      <trkpt lat="45.90276" lon="3.98418">
        <ele>539</ele>
        <time>2012-09-30T08:37:43Z</time>
      </trkpt>
      <trkpt lat="45.90264" lon="3.98425">
        <ele>539</ele>
        <time>2012-09-30T08:37:45Z</time>
      </trkpt>
      <trkpt lat="45.9025" lon="3.98433">
        <ele>539</ele>
        <time>2012-09-30T08:37:47Z</time>
      </trkpt>
      <trkpt lat="45.90236" lon="3.98441">
        <ele>539</ele>
        <time>2012-09-30T08:37:49Z</time>
      </trkpt>
      <trkpt lat="45.90222" lon="3.98446">
        <ele>538</ele>
        <time>2012-09-30T08:37:51Z</time>
      </trkpt>
      <trkpt lat="45.90206" lon="3.98449">
        <ele>538</ele>
        <time>2012-09-30T08:37:53Z</time>
      </trkpt>
      <trkpt lat="45.90189" lon="3.98452">
        <ele>538</ele>
        <time>2012-09-30T08:37:55Z</time>
      </trkpt>
      <trkpt lat="45.90173" lon="3.98453">
        <ele>537</ele>
        <time>2012-09-30T08:37:57Z</time>
      </trkpt>
      <trkpt lat="45.90157" lon="3.98451">
        <ele>537</ele>
        <time>2012-09-30T08:37:59Z</time>
      </trkpt>
      <trkpt lat="45.9014" lon="3.98447">
        <ele>536</ele>
        <time>2012-09-30T08:38:01Z</time>
      </trkpt>
      <trkpt lat="45.90123" lon="3.9844">
        <ele>536</ele>
        <time>2012-09-30T08:38:03Z</time>
      </trkpt>
      <trkpt lat="45.9011" lon="3.98434">
        <ele>535</ele>
        <time>2012-09-30T08:38:05Z</time>
      </trkpt>
      <trkpt lat="45.90101" lon="3.98421">
        <ele>535</ele>
        <time>2012-09-30T08:38:07Z</time>
      </trkpt>
      <trkpt lat="45.90092" lon="3.98404">
        <ele>536</ele>
        <time>2012-09-30T08:38:09Z</time>
      </trkpt>
      <trkpt lat="45.90084" lon="3.98389">
        <ele>536</ele>
        <time>2012-09-30T08:38:11Z</time>
      </trkpt>
      <trkpt lat="45.90078" lon="3.98374">
        <ele>535</ele>
        <time>2012-09-30T08:38:13Z</time>
      </trkpt>
      <trkpt lat="45.90072" lon="3.98357">
        <ele>534</ele>
        <time>2012-09-30T08:38:15Z</time>
      </trkpt>
      <trkpt lat="45.90065" lon="3.9834">
        <ele>533</ele>
        <time>2012-09-30T08:38:17Z</time>
      </trkpt>
      <trkpt lat="45.90057" lon="3.9832">
        <ele>532</ele>
        <time>2012-09-30T08:38:19Z</time>
      </trkpt>
      <trkpt lat="45.90052" lon="3.98308">
        <ele>531</ele>
        <time>2012-09-30T08:38:20Z</time>
      </trkpt>
      <trkpt lat="45.90047" lon="3.98297">
        <ele>531</ele>
        <time>2012-09-30T08:38:21Z</time>
      </trkpt>
      <trkpt lat="45.90043" lon="3.98286">
        <ele>530</ele>
        <time>2012-09-30T08:38:22Z</time>
      </trkpt>
      <trkpt lat="45.90038" lon="3.98274">
        <ele>529</ele>
        <time>2012-09-30T08:38:23Z</time>
      </trkpt>
      <trkpt lat="45.90028" lon="3.98255">
        <ele>527</ele>
        <time>2012-09-30T08:38:25Z</time>
      </trkpt>
      <trkpt lat="45.90019" lon="3.9824">
        <ele>525</ele>
        <time>2012-09-30T08:38:27Z</time>
      </trkpt>
      <trkpt lat="45.90009" lon="3.98225">
        <ele>523</ele>
        <time>2012-09-30T08:38:29Z</time>
      </trkpt>
      <trkpt lat="45.90004" lon="3.98211">
        <ele>521</ele>
        <time>2012-09-30T08:38:31Z</time>
      </trkpt>
      <trkpt lat="45.89998" lon="3.98196">
        <ele>519</ele>
        <time>2012-09-30T08:38:33Z</time>
      </trkpt>
      <trkpt lat="45.8999" lon="3.98177">
        <ele>516</ele>
        <time>2012-09-30T08:38:35Z</time>
      </trkpt>
      <trkpt lat="45.89982" lon="3.98159">
        <ele>514</ele>
        <time>2012-09-30T08:38:37Z</time>
      </trkpt>
      <trkpt lat="45.89973" lon="3.98142">
        <ele>512</ele>
        <time>2012-09-30T08:38:39Z</time>
      </trkpt>
      <trkpt lat="45.89966" lon="3.98128">
        <ele>511</ele>
        <time>2012-09-30T08:38:41Z</time>
      </trkpt>
      <trkpt lat="45.89939" lon="3.98111">
        <ele>507</ele>
        <time>2012-09-30T08:38:50Z</time>
      </trkpt>
      <trkpt lat="45.89914" lon="3.98086">
        <ele>506</ele>
        <time>2012-09-30T08:38:55Z</time>
      </trkpt>
      <trkpt lat="45.8989" lon="3.98056">
        <ele>506</ele>
        <time>2012-09-30T08:38:59Z</time>
      </trkpt>
      <trkpt lat="45.89866" lon="3.98024">
        <ele>507</ele>
        <time>2012-09-30T08:39:04Z</time>
      </trkpt>
      <trkpt lat="45.89859" lon="3.98005">
        <ele>508</ele>
        <time>2012-09-30T08:39:06Z</time>
      </trkpt>
      <trkpt lat="45.89854" lon="3.97986">
        <ele>510</ele>
        <time>2012-09-30T08:39:08Z</time>
      </trkpt>
      <trkpt lat="45.89845" lon="3.97974">
        <ele>512</ele>
        <time>2012-09-30T08:39:10Z</time>
      </trkpt>
      <trkpt lat="45.89821" lon="3.97958">
        <ele>513</ele>
        <time>2012-09-30T08:39:15Z</time>
      </trkpt>
      <trkpt lat="45.89812" lon="3.97955">
        <ele>513</ele>
        <time>2012-09-30T08:39:16Z</time>
      </trkpt>
      <trkpt lat="45.89802" lon="3.97953">
        <ele>513</ele>
        <time>2012-09-30T08:39:17Z</time>
      </trkpt>
      <trkpt lat="45.89786" lon="3.9795">
        <ele>514</ele>
        <time>2012-09-30T08:39:19Z</time>
      </trkpt>
      <trkpt lat="45.89771" lon="3.97946">
        <ele>514</ele>
        <time>2012-09-30T08:39:21Z</time>
      </trkpt>
      <trkpt lat="45.89756" lon="3.97943">
        <ele>514</ele>
        <time>2012-09-30T08:39:23Z</time>
      </trkpt>
      <trkpt lat="45.89742" lon="3.9794">
        <ele>513</ele>
        <time>2012-09-30T08:39:25Z</time>
      </trkpt>
      <trkpt lat="45.89727" lon="3.97938">
        <ele>512</ele>
        <time>2012-09-30T08:39:29Z</time>
      </trkpt>
      <trkpt lat="45.89698" lon="3.97921">
        <ele>510</ele>
        <time>2012-09-30T08:39:42Z</time>
      </trkpt>
      <trkpt lat="45.89687" lon="3.97896">
        <ele>510</ele>
        <time>2012-09-30T08:39:50Z</time>
      </trkpt>
      <trkpt lat="45.89677" lon="3.97858">
        <ele>512</ele>
        <time>2012-09-30T08:40:07Z</time>
      </trkpt>
      <trkpt lat="45.89697" lon="3.97803">
        <ele>512</ele>
        <time>2012-09-30T08:40:14Z</time>
      </trkpt>
      <trkpt lat="45.89719" lon="3.97771">
        <ele>512</ele>
        <time>2012-09-30T08:40:16Z</time>
      </trkpt>
      <trkpt lat="45.89743" lon="3.97742">
        <ele>512</ele>
        <time>2012-09-30T08:40:19Z</time>
      </trkpt>
      <trkpt lat="45.8976" lon="3.97719">
        <ele>511</ele>
        <time>2012-09-30T08:40:23Z</time>
      </trkpt>
      <trkpt lat="45.89769" lon="3.97709">
        <ele>510</ele>
        <time>2012-09-30T08:40:25Z</time>
      </trkpt>
      <trkpt lat="45.89796" lon="3.97682">
        <ele>510</ele>
        <time>2012-09-30T08:40:40Z</time>
      </trkpt>
      <trkpt lat="45.89779" lon="3.97649">
        <ele>511</ele>
        <time>2012-09-30T08:40:54Z</time>
      </trkpt>
      <trkpt lat="45.89765" lon="3.97612">
        <ele>513</ele>
        <time>2012-09-30T08:41:06Z</time>
      </trkpt>
      <trkpt lat="45.89762" lon="3.97571">
        <ele>514</ele>
        <time>2012-09-30T08:41:17Z</time>
      </trkpt>
      <trkpt lat="45.89778" lon="3.97538">
        <ele>516</ele>
        <time>2012-09-30T08:41:29Z</time>
      </trkpt>
      <trkpt lat="45.89798" lon="3.97509">
        <ele>516</ele>
        <time>2012-09-30T08:41:38Z</time>
      </trkpt>
      <trkpt lat="45.89822" lon="3.97477">
        <ele>516</ele>
        <time>2012-09-30T08:41:43Z</time>
      </trkpt>
      <trkpt lat="45.89843" lon="3.97449">
        <ele>516</ele>
        <time>2012-09-30T08:41:50Z</time>
      </trkpt>
      <trkpt lat="45.89858" lon="3.97411">
        <ele>517</ele>
        <time>2012-09-30T08:41:58Z</time>
      </trkpt>
      <trkpt lat="45.89863" lon="3.97391">
        <ele>518</ele>
        <time>2012-09-30T08:42:02Z</time>
      </trkpt>
      <trkpt lat="45.89889" lon="3.97364">
        <ele>518</ele>
        <time>2012-09-30T08:42:09Z</time>
      </trkpt>
      <trkpt lat="45.89905" lon="3.97352">
        <ele>517</ele>
        <time>2012-09-30T08:42:11Z</time>
      </trkpt>
      <trkpt lat="45.89917" lon="3.97342">
        <ele>515</ele>
        <time>2012-09-30T08:42:13Z</time>
      </trkpt>
      <trkpt lat="45.89933" lon="3.97328">
        <ele>512</ele>
        <time>2012-09-30T08:42:17Z</time>
      </trkpt>
      <trkpt lat="45.89943" lon="3.97312">
        <ele>507</ele>
        <time>2012-09-30T08:42:22Z</time>
      </trkpt>
      <trkpt lat="45.8995" lon="3.97298">
        <ele>505</ele>
        <time>2012-09-30T08:42:26Z</time>
      </trkpt>
      <trkpt lat="45.89956" lon="3.97286">
        <ele>505</ele>
        <time>2012-09-30T08:42:30Z</time>
      </trkpt>
      <trkpt lat="45.89977" lon="3.97255">
        <ele>505</ele>
        <time>2012-09-30T08:42:38Z</time>
      </trkpt>
      <trkpt lat="45.89996" lon="3.97222">
        <ele>506</ele>
        <time>2012-09-30T08:42:45Z</time>
      </trkpt>
      <trkpt lat="45.90016" lon="3.9719">
        <ele>507</ele>
        <time>2012-09-30T08:42:52Z</time>
      </trkpt>
      <trkpt lat="45.90044" lon="3.97175">
        <ele>508</ele>
        <time>2012-09-30T08:43:01Z</time>
      </trkpt>
      <trkpt lat="45.9007" lon="3.97165">
        <ele>509</ele>
        <time>2012-09-30T08:43:04Z</time>
      </trkpt>
      <trkpt lat="45.90096" lon="3.97152">
        <ele>509</ele>
        <time>2012-09-30T08:43:11Z</time>
      </trkpt>
      <trkpt lat="45.90123" lon="3.97126">
        <ele>510</ele>
        <time>2012-09-30T08:43:20Z</time>
      </trkpt>
      <trkpt lat="45.90146" lon="3.97103">
        <ele>512</ele>
        <time>2012-09-30T08:43:29Z</time>
      </trkpt>
      <trkpt lat="45.90169" lon="3.97073">
        <ele>512</ele>
        <time>2012-09-30T08:43:35Z</time>
      </trkpt>
      <trkpt lat="45.90192" lon="3.97043">
        <ele>512</ele>
        <time>2012-09-30T08:43:40Z</time>
      </trkpt>
      <trkpt lat="45.90216" lon="3.97016">
        <ele>512</ele>
        <time>2012-09-30T08:43:45Z</time>
      </trkpt>
      <trkpt lat="45.90242" lon="3.96995">
        <ele>512</ele>
        <time>2012-09-30T08:43:56Z</time>
      </trkpt>
      <trkpt lat="45.90238" lon="3.96968">
        <ele>513</ele>
        <time>2012-09-30T08:44:17Z</time>
      </trkpt>
      <trkpt lat="45.90228" lon="3.96974">
        <ele>512</ele>
        <time>2012-09-30T08:44:20Z</time>
      </trkpt>
      <trkpt lat="45.9022" lon="3.96981">
        <ele>512</ele>
        <time>2012-09-30T08:44:24Z</time>
      </trkpt>
      <trkpt lat="45.9021" lon="3.96982">
        <ele>510</ele>
        <time>2012-09-30T08:44:28Z</time>
      </trkpt>
      <trkpt lat="45.902" lon="3.96978">
        <ele>509</ele>
        <time>2012-09-30T08:44:32Z</time>
      </trkpt>
      <trkpt lat="45.90181" lon="3.96978">
        <ele>506</ele>
        <time>2012-09-30T08:44:41Z</time>
      </trkpt>
      <trkpt lat="45.90172" lon="3.96982">
        <ele>503</ele>
        <time>2012-09-30T08:44:49Z</time>
      </trkpt>
      <trkpt lat="45.90162" lon="3.96983">
        <ele>504</ele>
        <time>2012-09-30T08:44:56Z</time>
      </trkpt>
      <trkpt lat="45.90151" lon="3.96982">
        <ele>505</ele>
        <time>2012-09-30T08:45:02Z</time>
      </trkpt>
      <trkpt lat="45.90141" lon="3.96982">
        <ele>504</ele>
        <time>2012-09-30T08:45:06Z</time>
      </trkpt>
      <trkpt lat="45.9013" lon="3.96984">
        <ele>503</ele>
        <time>2012-09-30T08:45:12Z</time>
      </trkpt>
      <trkpt lat="45.90121" lon="3.96987">
        <ele>503</ele>
        <time>2012-09-30T08:45:19Z</time>
      </trkpt>
      <trkpt lat="45.9011" lon="3.96989">
        <ele>503</ele>
        <time>2012-09-30T08:45:25Z</time>
      </trkpt>
      <trkpt lat="45.90101" lon="3.96986">
        <ele>502</ele>
        <time>2012-09-30T08:45:31Z</time>
      </trkpt>
      <trkpt lat="45.90092" lon="3.9698">
        <ele>501</ele>
        <time>2012-09-30T08:45:35Z</time>
      </trkpt>
      <trkpt lat="45.90083" lon="3.96975">
        <ele>500</ele>
        <time>2012-09-30T08:45:39Z</time>
      </trkpt>
      <trkpt lat="45.90074" lon="3.96974">
        <ele>499</ele>
        <time>2012-09-30T08:45:43Z</time>
      </trkpt>
      <trkpt lat="45.90065" lon="3.96978">
        <ele>500</ele>
        <time>2012-09-30T08:45:50Z</time>
      </trkpt>
      <trkpt lat="45.90056" lon="3.96987">
        <ele>503</ele>
        <time>2012-09-30T08:45:56Z</time>
      </trkpt>
      <trkpt lat="45.9005" lon="3.96996">
        <ele>504</ele>
        <time>2012-09-30T08:46:02Z</time>
      </trkpt>
      <trkpt lat="45.90046" lon="3.97008">
        <ele>505</ele>
        <time>2012-09-30T08:46:08Z</time>
      </trkpt>
      <trkpt lat="45.90032" lon="3.97025">
        <ele>505</ele>
        <time>2012-09-30T08:46:23Z</time>
      </trkpt>
      <trkpt lat="45.90024" lon="3.97032">
        <ele>505</ele>
        <time>2012-09-30T08:46:25Z</time>
      </trkpt>
      <trkpt lat="45.90015" lon="3.97031">
        <ele>506</ele>
        <time>2012-09-30T08:46:33Z</time>
      </trkpt>
      <trkpt lat="45.90006" lon="3.97029">
        <ele>510</ele>
        <time>2012-09-30T08:46:40Z</time>
      </trkpt>
      <trkpt lat="45.89996" lon="3.97029">
        <ele>512</ele>
        <time>2012-09-30T08:46:48Z</time>
      </trkpt>
      <trkpt lat="45.89985" lon="3.97032">
        <ele>514</ele>
        <time>2012-09-30T08:46:57Z</time>
      </trkpt>
      <trkpt lat="45.89977" lon="3.97037">
        <ele>516</ele>
        <time>2012-09-30T08:47:03Z</time>
      </trkpt>
      <trkpt lat="45.89966" lon="3.97037">
        <ele>518</ele>
        <time>2012-09-30T08:47:10Z</time>
      </trkpt>
      <trkpt lat="45.89957" lon="3.9704">
        <ele>519</ele>
        <time>2012-09-30T08:47:16Z</time>
      </trkpt>
      <trkpt lat="45.89947" lon="3.97041">
        <ele>520</ele>
        <time>2012-09-30T08:47:22Z</time>
      </trkpt>
      <trkpt lat="45.89938" lon="3.97042">
        <ele>521</ele>
        <time>2012-09-30T08:47:27Z</time>
      </trkpt>
      <trkpt lat="45.89928" lon="3.97042">
        <ele>522</ele>
        <time>2012-09-30T08:47:32Z</time>
      </trkpt>
      <trkpt lat="45.89916" lon="3.97044">
        <ele>523</ele>
        <time>2012-09-30T08:47:35Z</time>
      </trkpt>
      <trkpt lat="45.89907" lon="3.97044">
        <ele>524</ele>
        <time>2012-09-30T08:47:38Z</time>
      </trkpt>
      <trkpt lat="45.89897" lon="3.97044">
        <ele>527</ele>
        <time>2012-09-30T08:47:51Z</time>
      </trkpt>
      <trkpt lat="45.89891" lon="3.97034">
        <ele>529</ele>
        <time>2012-09-30T08:47:55Z</time>
      </trkpt>
      <trkpt lat="45.89884" lon="3.97021">
        <ele>531</ele>
        <time>2012-09-30T08:47:58Z</time>
      </trkpt>
      <trkpt lat="45.89867" lon="3.96994">
        <ele>534</ele>
        <time>2012-09-30T08:48:07Z</time>
      </trkpt>
      <trkpt lat="45.89859" lon="3.96987">
        <ele>535</ele>
        <time>2012-09-30T08:48:12Z</time>
      </trkpt>
      <trkpt lat="45.89842" lon="3.96956">
        <ele>534</ele>
        <time>2012-09-30T08:48:36Z</time>
      </trkpt>
      <trkpt lat="45.89842" lon="3.9691">
        <ele>535.1</ele>
        <time>2012-09-30T08:49:07Z</time>
      </trkpt>
      <trkpt lat="45.89857" lon="3.96821">
        <ele>547.5</ele>
        <time>2012-09-30T08:50:12Z</time>
      </trkpt>
      <trkpt lat="45.89937" lon="3.96569">
        <ele>561.4</ele>
        <time>2012-09-30T08:51:05Z</time>
      </trkpt>
      <trkpt lat="45.89951" lon="3.96534">
        <ele>528</ele>
        <time>2012-09-30T08:51:11Z</time>
      </trkpt>
      <trkpt lat="45.89965" lon="3.96501">
        <ele>529</ele>
        <time>2012-09-30T08:51:21Z</time>
      </trkpt>
      <trkpt lat="45.89981" lon="3.96469">
        <ele>536</ele>
        <time>2012-09-30T08:51:36Z</time>
      </trkpt>
      <trkpt lat="45.90006" lon="3.96411">
        <ele>557</ele>
        <time>2012-09-30T08:51:52Z</time>
      </trkpt>
      <trkpt lat="45.90008" lon="3.96397">
        <ele>558</ele>
        <time>2012-09-30T08:51:55Z</time>
      </trkpt>
      <trkpt lat="45.90015" lon="3.96359">
        <ele>557</ele>
        <time>2012-09-30T08:52:03Z</time>
      </trkpt>
      <trkpt lat="45.90024" lon="3.96336">
        <ele>556</ele>
        <time>2012-09-30T08:52:07Z</time>
      </trkpt>
      <trkpt lat="45.9003" lon="3.96323">
        <ele>555</ele>
        <time>2012-09-30T08:52:09Z</time>
      </trkpt>
      <trkpt lat="45.90035" lon="3.96312">
        <ele>554</ele>
        <time>2012-09-30T08:52:11Z</time>
      </trkpt>
      <trkpt lat="45.90056" lon="3.9627">
        <ele>554</ele>
        <time>2012-09-30T08:52:21Z</time>
      </trkpt>
      <trkpt lat="45.90064" lon="3.96256">
        <ele>555</ele>
        <time>2012-09-30T08:52:24Z</time>
      </trkpt>
      <trkpt lat="45.9007" lon="3.96242">
        <ele>556</ele>
        <time>2012-09-30T08:52:27Z</time>
      </trkpt>
      <trkpt lat="45.90075" lon="3.96228">
        <ele>556</ele>
        <time>2012-09-30T08:52:30Z</time>
      </trkpt>
      <trkpt lat="45.90079" lon="3.96215">
        <ele>558</ele>
        <time>2012-09-30T08:52:33Z</time>
      </trkpt>
      <trkpt lat="45.90084" lon="3.962">
        <ele>559</ele>
        <time>2012-09-30T08:52:36Z</time>
      </trkpt>
      <trkpt lat="45.90088" lon="3.96185">
        <ele>560</ele>
        <time>2012-09-30T08:52:39Z</time>
      </trkpt>
      <trkpt lat="45.90092" lon="3.96171">
        <ele>562</ele>
        <time>2012-09-30T08:52:43Z</time>
      </trkpt>
      <trkpt lat="45.90099" lon="3.96158">
        <ele>564</ele>
        <time>2012-09-30T08:52:47Z</time>
      </trkpt>
      <trkpt lat="45.90105" lon="3.96148">
        <ele>566</ele>
        <time>2012-09-30T08:52:50Z</time>
      </trkpt>
      <trkpt lat="45.90111" lon="3.96137">
        <ele>568</ele>
        <time>2012-09-30T08:52:53Z</time>
      </trkpt>
      <trkpt lat="45.90119" lon="3.96127">
        <ele>568</ele>
        <time>2012-09-30T08:52:56Z</time>
      </trkpt>
      <trkpt lat="45.90126" lon="3.96118">
        <ele>569</ele>
        <time>2012-09-30T08:52:59Z</time>
      </trkpt>
      <trkpt lat="45.90135" lon="3.96109">
        <ele>570</ele>
        <time>2012-09-30T08:53:02Z</time>
      </trkpt>
      <trkpt lat="45.90141" lon="3.961">
        <ele>570</ele>
        <time>2012-09-30T08:53:05Z</time>
      </trkpt>
      <trkpt lat="45.90148" lon="3.96087">
        <ele>571</ele>
        <time>2012-09-30T08:53:08Z</time>
      </trkpt>
      <trkpt lat="45.90157" lon="3.96076">
        <ele>572</ele>
        <time>2012-09-30T08:53:11Z</time>
      </trkpt>
      <trkpt lat="45.90165" lon="3.96065">
        <ele>572</ele>
        <time>2012-09-30T08:53:13Z</time>
      </trkpt>
      <trkpt lat="45.90172" lon="3.96055">
        <ele>573</ele>
        <time>2012-09-30T08:53:15Z</time>
      </trkpt>
      <trkpt lat="45.9018" lon="3.9604">
        <ele>573</ele>
        <time>2012-09-30T08:53:18Z</time>
      </trkpt>
      <trkpt lat="45.90186" lon="3.96025">
        <ele>573</ele>
        <time>2012-09-30T08:53:21Z</time>
      </trkpt>
      <trkpt lat="45.90196" lon="3.96021">
        <ele>573</ele>
        <time>2012-09-30T08:53:25Z</time>
      </trkpt>
      <trkpt lat="45.90206" lon="3.96014">
        <ele>572</ele>
        <time>2012-09-30T08:53:31Z</time>
      </trkpt>
      <trkpt lat="45.90205" lon="3.96039">
        <ele>558</ele>
        <time>2012-09-30T08:54:07Z</time>
      </trkpt>
      <trkpt lat="45.90206" lon="3.96045">
        <ele>550</ele>
        <time>2012-09-30T08:54:24Z</time>
      </trkpt>
      <trkpt lat="45.90174" lon="3.96068">
        <ele>582.8</ele>
        <time>2012-09-30T08:55:42Z</time>
      </trkpt>
      <trkpt lat="45.90137" lon="3.95979">
        <ele>573.1</ele>
        <time>2012-09-30T08:55:47Z</time>
      </trkpt>
      <trkpt lat="45.90047" lon="3.95811">
        <ele>577.1</ele>
        <time>2012-09-30T08:55:57Z</time>
      </trkpt>
      <trkpt lat="45.9006" lon="3.95778">
        <ele>548</ele>
        <time>2012-09-30T08:56:18Z</time>
      </trkpt>
      <trkpt lat="45.90076" lon="3.95735">
        <ele>554</ele>
        <time>2012-09-30T08:56:27Z</time>
      </trkpt>
      <trkpt lat="45.90084" lon="3.95697">
        <ele>558</ele>
        <time>2012-09-30T08:56:33Z</time>
      </trkpt>
      <trkpt lat="45.9009" lon="3.95659">
        <ele>563</ele>
        <time>2012-09-30T08:56:45Z</time>
      </trkpt>
      <trkpt lat="45.90089" lon="3.95616">
        <ele>567</ele>
        <time>2012-09-30T08:56:59Z</time>
      </trkpt>
      <trkpt lat="45.90082" lon="3.95562">
        <ele>570</ele>
        <time>2012-09-30T08:57:15Z</time>
      </trkpt>
      <trkpt lat="45.90092" lon="3.95525">
        <ele>577</ele>
        <time>2012-09-30T08:57:29Z</time>
      </trkpt>
      <trkpt lat="45.90101" lon="3.95482">
        <ele>582</ele>
        <time>2012-09-30T08:57:38Z</time>
      </trkpt>
      <trkpt lat="45.90109" lon="3.95441">
        <ele>585</ele>
        <time>2012-09-30T08:57:45Z</time>
      </trkpt>
      <trkpt lat="45.90117" lon="3.95404">
        <ele>588</ele>
        <time>2012-09-30T08:57:52Z</time>
      </trkpt>
      <trkpt lat="45.90122" lon="3.95363">
        <ele>590</ele>
        <time>2012-09-30T08:58:01Z</time>
      </trkpt>
      <trkpt lat="45.90126" lon="3.95321">
        <ele>592</ele>
        <time>2012-09-30T08:58:09Z</time>
      </trkpt>
      <trkpt lat="45.90124" lon="3.95279">
        <ele>595</ele>
        <time>2012-09-30T08:58:19Z</time>
      </trkpt>
      <trkpt lat="45.90131" lon="3.95235">
        <ele>596</ele>
        <time>2012-09-30T08:58:25Z</time>
      </trkpt>
      <trkpt lat="45.90141" lon="3.95197">
        <ele>597</ele>
        <time>2012-09-30T08:58:31Z</time>
      </trkpt>
      <trkpt lat="45.90159" lon="3.95152">
        <ele>600</ele>
        <time>2012-09-30T08:58:47Z</time>
      </trkpt>
      <trkpt lat="45.90176" lon="3.95048">
        <ele>602</ele>
        <time>2012-09-30T08:59:13Z</time>
      </trkpt>
      <trkpt lat="45.90171" lon="3.95">
        <ele>607</ele>
        <time>2012-09-30T08:59:40Z</time>
      </trkpt>
      <trkpt lat="45.90183" lon="3.94963">
        <ele>615</ele>
        <time>2012-09-30T09:00:09Z</time>
      </trkpt>
      <trkpt lat="45.90187" lon="3.94918">
        <ele>618</ele>
        <time>2012-09-30T09:00:29Z</time>
      </trkpt>
      <trkpt lat="45.90177" lon="3.94881">
        <ele>625</ele>
        <time>2012-09-30T09:01:00Z</time>
      </trkpt>
      <trkpt lat="45.90158" lon="3.94846">
        <ele>628</ele>
        <time>2012-09-30T09:01:20Z</time>
      </trkpt>
      <trkpt lat="45.90144" lon="3.94804">
        <ele>632</ele>
        <time>2012-09-30T09:01:42Z</time>
      </trkpt>
      <trkpt lat="45.90154" lon="3.94767">
        <ele>634</ele>
        <time>2012-09-30T09:01:56Z</time>
      </trkpt>
      <trkpt lat="45.90168" lon="3.94726">
        <ele>635</ele>
        <time>2012-09-30T09:02:10Z</time>
      </trkpt>
      <trkpt lat="45.90196" lon="3.94664">
        <ele>635</ele>
        <time>2012-09-30T09:02:13Z</time>
      </trkpt>
      <trkpt lat="45.90226" lon="3.94548">
        <ele>632</ele>
        <time>2012-09-30T09:02:25Z</time>
      </trkpt>
      <trkpt lat="45.90248" lon="3.9444">
        <ele>630</ele>
        <time>2012-09-30T09:03:30Z</time>
      </trkpt>
      <trkpt lat="45.90269" lon="3.94401">
        <ele>631</ele>
        <time>2012-09-30T09:03:40Z</time>
      </trkpt>
      <trkpt lat="45.90334" lon="3.94278">
        <ele>638</ele>
        <time>2012-09-30T09:04:06Z</time>
      </trkpt>
      <trkpt lat="45.90357" lon="3.94187">
        <ele>656</ele>
        <time>2012-09-30T09:04:25Z</time>
      </trkpt>
      <trkpt lat="45.90382" lon="3.94166">
        <ele>638</ele>
        <time>2012-09-30T09:04:29Z</time>
      </trkpt>
      <trkpt lat="45.90419" lon="3.94125">
        <ele>656.4</ele>
        <time>2012-09-30T09:04:33Z</time>
      </trkpt>
      <trkpt lat="45.90529" lon="3.93986">
        <ele>656.9</ele>
        <time>2012-09-30T09:04:46Z</time>
      </trkpt>
      <trkpt lat="45.90424" lon="3.93968">
        <ele>663.6</ele>
        <time>2012-09-30T09:05:05Z</time>
      </trkpt>
      <trkpt lat="45.90493" lon="3.9385">
        <ele>675.6</ele>
        <time>2012-09-30T09:05:26Z</time>
      </trkpt>
      <trkpt lat="45.90473" lon="3.93836">
        <ele>654</ele>
        <time>2012-09-30T09:05:47Z</time>
      </trkpt>
      <trkpt lat="45.90479" lon="3.93825">
        <ele>660</ele>
        <time>2012-09-30T09:05:52Z</time>
      </trkpt>
      <trkpt lat="45.90484" lon="3.93812">
        <ele>663</ele>
        <time>2012-09-30T09:05:55Z</time>
      </trkpt>
      <trkpt lat="45.9049" lon="3.93801">
        <ele>667</ele>
        <time>2012-09-30T09:05:59Z</time>
      </trkpt>
      <trkpt lat="45.90495" lon="3.93788">
        <ele>670</ele>
        <time>2012-09-30T09:06:03Z</time>
      </trkpt>
      <trkpt lat="45.905" lon="3.93775">
        <ele>673</ele>
        <time>2012-09-30T09:06:07Z</time>
      </trkpt>
      <trkpt lat="45.90503" lon="3.9376">
        <ele>676</ele>
        <time>2012-09-30T09:06:11Z</time>
      </trkpt>
      <trkpt lat="45.90506" lon="3.93745">
        <ele>678</ele>
        <time>2012-09-30T09:06:15Z</time>
      </trkpt>
      <trkpt lat="45.90509" lon="3.9373">
        <ele>681</ele>
        <time>2012-09-30T09:06:20Z</time>
      </trkpt>
      <trkpt lat="45.90511" lon="3.93717">
        <ele>682</ele>
        <time>2012-09-30T09:06:23Z</time>
      </trkpt>
      <trkpt lat="45.90512" lon="3.93702">
        <ele>684</ele>
        <time>2012-09-30T09:06:26Z</time>
      </trkpt>
      <trkpt lat="45.90512" lon="3.93688">
        <ele>685</ele>
        <time>2012-09-30T09:06:29Z</time>
      </trkpt>
      <trkpt lat="45.90516" lon="3.9367">
        <ele>687</ele>
        <time>2012-09-30T09:06:32Z</time>
      </trkpt>
      <trkpt lat="45.9052" lon="3.93657">
        <ele>687</ele>
        <time>2012-09-30T09:06:34Z</time>
      </trkpt>
      <trkpt lat="45.90526" lon="3.93643">
        <ele>688</ele>
        <time>2012-09-30T09:06:36Z</time>
      </trkpt>
      <trkpt lat="45.90531" lon="3.93626">
        <ele>688</ele>
        <time>2012-09-30T09:06:38Z</time>
      </trkpt>
      <trkpt lat="45.90535" lon="3.93605">
        <ele>688</ele>
        <time>2012-09-30T09:06:40Z</time>
      </trkpt>
      <trkpt lat="45.90541" lon="3.93559">
        <ele>687</ele>
        <time>2012-09-30T09:06:44Z</time>
      </trkpt>
      <trkpt lat="45.90546" lon="3.93521">
        <ele>687</ele>
        <time>2012-09-30T09:06:47Z</time>
      </trkpt>
      <trkpt lat="45.90552" lon="3.93494">
        <ele>687</ele>
        <time>2012-09-30T09:06:49Z</time>
      </trkpt>
      <trkpt lat="45.90562" lon="3.93452">
        <ele>687</ele>
        <time>2012-09-30T09:06:52Z</time>
      </trkpt>
      <trkpt lat="45.90573" lon="3.93424">
        <ele>687</ele>
        <time>2012-09-30T09:06:54Z</time>
      </trkpt>
      <trkpt lat="45.90592" lon="3.93385">
        <ele>688</ele>
        <time>2012-09-30T09:06:57Z</time>
      </trkpt>
      <trkpt lat="45.90612" lon="3.93334">
        <ele>688</ele>
        <time>2012-09-30T09:07:02Z</time>
      </trkpt>
      <trkpt lat="45.90629" lon="3.93301">
        <ele>688</ele>
        <time>2012-09-30T09:07:06Z</time>
      </trkpt>
      <trkpt lat="45.90647" lon="3.93266">
        <ele>688</ele>
        <time>2012-09-30T09:07:12Z</time>
      </trkpt>
      <trkpt lat="45.90623" lon="3.9324">
        <ele>686</ele>
        <time>2012-09-30T09:07:24Z</time>
      </trkpt>
      <trkpt lat="45.90594" lon="3.9322">
        <ele>685</ele>
        <time>2012-09-30T09:07:28Z</time>
      </trkpt>
      <trkpt lat="45.90568" lon="3.9319">
        <ele>684</ele>
        <time>2012-09-30T09:07:32Z</time>
      </trkpt>
      <trkpt lat="45.90547" lon="3.93153">
        <ele>683</ele>
        <time>2012-09-30T09:07:37Z</time>
      </trkpt>
      <trkpt lat="45.90525" lon="3.93112">
        <ele>683</ele>
        <time>2012-09-30T09:07:42Z</time>
      </trkpt>
      <trkpt lat="45.90503" lon="3.93074">
        <ele>682</ele>
        <time>2012-09-30T09:07:46Z</time>
      </trkpt>
      <trkpt lat="45.90483" lon="3.93038">
        <ele>682</ele>
        <time>2012-09-30T09:07:50Z</time>
      </trkpt>
      <trkpt lat="45.9047" lon="3.92999">
        <ele>681</ele>
        <time>2012-09-30T09:07:55Z</time>
      </trkpt>
      <trkpt lat="45.90479" lon="3.92957">
        <ele>680</ele>
        <time>2012-09-30T09:08:00Z</time>
      </trkpt>
      <trkpt lat="45.90487" lon="3.92919">
        <ele>680</ele>
        <time>2012-09-30T09:08:04Z</time>
      </trkpt>
      <trkpt lat="45.90494" lon="3.9288">
        <ele>679</ele>
        <time>2012-09-30T09:08:07Z</time>
      </trkpt>
      <trkpt lat="45.90487" lon="3.92838">
        <ele>679</ele>
        <time>2012-09-30T09:08:11Z</time>
      </trkpt>
      <trkpt lat="45.90466" lon="3.92808">
        <ele>678</ele>
        <time>2012-09-30T09:08:14Z</time>
      </trkpt>
      <trkpt lat="45.90449" lon="3.92786">
        <ele>678</ele>
        <time>2012-09-30T09:08:16Z</time>
      </trkpt>
      <trkpt lat="45.90436" lon="3.92776">
        <ele>678</ele>
        <time>2012-09-30T09:08:17Z</time>
      </trkpt>
      <trkpt lat="45.90424" lon="3.92764">
        <ele>678</ele>
        <time>2012-09-30T09:08:18Z</time>
      </trkpt>
      <trkpt lat="45.90412" lon="3.92754">
        <ele>678</ele>
        <time>2012-09-30T09:08:19Z</time>
      </trkpt>
      <trkpt lat="45.904" lon="3.92743">
        <ele>678</ele>
        <time>2012-09-30T09:08:20Z</time>
      </trkpt>
      <trkpt lat="45.90388" lon="3.92732">
        <ele>677</ele>
        <time>2012-09-30T09:08:21Z</time>
      </trkpt>
      <trkpt lat="45.90376" lon="3.92721">
        <ele>677</ele>
        <time>2012-09-30T09:08:22Z</time>
      </trkpt>
      <trkpt lat="45.90364" lon="3.92711">
        <ele>677</ele>
        <time>2012-09-30T09:08:23Z</time>
      </trkpt>
      <trkpt lat="45.90352" lon="3.92701">
        <ele>677</ele>
        <time>2012-09-30T09:08:24Z</time>
      </trkpt>
      <trkpt lat="45.90341" lon="3.9269">
        <ele>677</ele>
        <time>2012-09-30T09:08:25Z</time>
      </trkpt>
      <trkpt lat="45.90329" lon="3.9268">
        <ele>677</ele>
        <time>2012-09-30T09:08:26Z</time>
      </trkpt>
      <trkpt lat="45.90307" lon="3.92659">
        <ele>677</ele>
        <time>2012-09-30T09:08:28Z</time>
      </trkpt>
      <trkpt lat="45.90261" lon="3.92579">
        <ele>628.5</ele>
        <time>2012-09-30T09:09:06Z</time>
      </trkpt>
      <trkpt lat="45.90249" lon="3.9248">
        <ele>632.6</ele>
        <time>2012-09-30T09:09:16Z</time>
      </trkpt>
      <trkpt lat="45.90257" lon="3.92403">
        <ele>678</ele>
        <time>2012-09-30T09:09:20Z</time>
      </trkpt>
      <trkpt lat="45.90274" lon="3.92354">
        <ele>678</ele>
        <time>2012-09-30T09:09:27Z</time>
      </trkpt>
      <trkpt lat="45.90278" lon="3.92317">
        <ele>645.2</ele>
        <time>2012-09-30T09:09:58Z</time>
      </trkpt>
      <trkpt lat="45.90266" lon="3.9224">
        <ele>648.6</ele>
        <time>2012-09-30T09:10:14Z</time>
      </trkpt>
      <trkpt lat="45.90209" lon="3.92163">
        <ele>679</ele>
        <time>2012-09-30T09:10:23Z</time>
      </trkpt>
      <trkpt lat="45.9021" lon="3.9212">
        <ele>679</ele>
        <time>2012-09-30T09:10:37Z</time>
      </trkpt>
      <trkpt lat="45.90208" lon="3.9208">
        <ele>679</ele>
        <time>2012-09-30T09:10:43Z</time>
      </trkpt>
      <trkpt lat="45.90212" lon="3.9204">
        <ele>679</ele>
        <time>2012-09-30T09:10:52Z</time>
      </trkpt>
      <trkpt lat="45.90216" lon="3.92001">
        <ele>679</ele>
        <time>2012-09-30T09:11:00Z</time>
      </trkpt>
      <trkpt lat="45.90214" lon="3.91956">
        <ele>679</ele>
        <time>2012-09-30T09:11:06Z</time>
      </trkpt>
      <trkpt lat="45.90212" lon="3.91916">
        <ele>679</ele>
        <time>2012-09-30T09:11:13Z</time>
      </trkpt>
      <trkpt lat="45.90212" lon="3.91876">
        <ele>679</ele>
        <time>2012-09-30T09:11:20Z</time>
      </trkpt>
      <trkpt lat="45.90211" lon="3.91829">
        <ele>679</ele>
        <time>2012-09-30T09:11:26Z</time>
      </trkpt>
      <trkpt lat="45.90211" lon="3.91802">
        <ele>679</ele>
        <time>2012-09-30T09:11:29Z</time>
      </trkpt>
      <trkpt lat="45.90211" lon="3.91781">
        <ele>679</ele>
        <time>2012-09-30T09:11:31Z</time>
      </trkpt>
      <trkpt lat="45.90212" lon="3.9174">
        <ele>679</ele>
        <time>2012-09-30T09:11:35Z</time>
      </trkpt>
      <trkpt lat="45.90217" lon="3.91699">
        <ele>678</ele>
        <time>2012-09-30T09:11:39Z</time>
      </trkpt>
      <trkpt lat="45.90222" lon="3.91681">
        <ele>678</ele>
        <time>2012-09-30T09:11:42Z</time>
      </trkpt>
      <trkpt lat="45.90227" lon="3.91661">
        <ele>677</ele>
        <time>2012-09-30T09:11:44Z</time>
      </trkpt>
      <trkpt lat="45.90237" lon="3.91636">
        <ele>676</ele>
        <time>2012-09-30T09:11:48Z</time>
      </trkpt>
      <trkpt lat="45.90246" lon="3.91615">
        <ele>675</ele>
        <time>2012-09-30T09:11:50Z</time>
      </trkpt>
      <trkpt lat="45.90253" lon="3.91596">
        <ele>675</ele>
        <time>2012-09-30T09:11:52Z</time>
      </trkpt>
      <trkpt lat="45.90259" lon="3.91577">
        <ele>674</ele>
        <time>2012-09-30T09:11:54Z</time>
      </trkpt>
      <trkpt lat="45.90264" lon="3.91559">
        <ele>674</ele>
        <time>2012-09-30T09:11:56Z</time>
      </trkpt>
      <trkpt lat="45.9027" lon="3.91515">
        <ele>674</ele>
        <time>2012-09-30T09:12:00Z</time>
      </trkpt>
      <trkpt lat="45.90273" lon="3.91475">
        <ele>674</ele>
        <time>2012-09-30T09:12:03Z</time>
      </trkpt>
      <trkpt lat="45.90284" lon="3.91429">
        <ele>673</ele>
        <time>2012-09-30T09:12:07Z</time>
      </trkpt>
      <trkpt lat="45.90302" lon="3.91391">
        <ele>672</ele>
        <time>2012-09-30T09:12:11Z</time>
      </trkpt>
      <trkpt lat="45.90313" lon="3.91373">
        <ele>671</ele>
        <time>2012-09-30T09:12:13Z</time>
      </trkpt>
      <trkpt lat="45.90326" lon="3.91357">
        <ele>670</ele>
        <time>2012-09-30T09:12:15Z</time>
      </trkpt>
      <trkpt lat="45.90338" lon="3.91343">
        <ele>669</ele>
        <time>2012-09-30T09:12:17Z</time>
      </trkpt>
      <trkpt lat="45.90351" lon="3.91329">
        <ele>668</ele>
        <time>2012-09-30T09:12:19Z</time>
      </trkpt>
      <trkpt lat="45.90364" lon="3.91318">
        <ele>668</ele>
        <time>2012-09-30T09:12:21Z</time>
      </trkpt>
      <trkpt lat="45.90378" lon="3.91308">
        <ele>667</ele>
        <time>2012-09-30T09:12:23Z</time>
      </trkpt>
      <trkpt lat="45.90393" lon="3.91298">
        <ele>667</ele>
        <time>2012-09-30T09:12:25Z</time>
      </trkpt>
      <trkpt lat="45.90408" lon="3.91289">
        <ele>666</ele>
        <time>2012-09-30T09:12:27Z</time>
      </trkpt>
      <trkpt lat="45.9043" lon="3.91275">
        <ele>666</ele>
        <time>2012-09-30T09:12:31Z</time>
      </trkpt>
      <trkpt lat="45.90457" lon="3.91256">
        <ele>665</ele>
        <time>2012-09-30T09:12:34Z</time>
      </trkpt>
      <trkpt lat="45.90479" lon="3.91245">
        <ele>664</ele>
        <time>2012-09-30T09:12:38Z</time>
      </trkpt>
      <trkpt lat="45.90488" lon="3.91242">
        <ele>664</ele>
        <time>2012-09-30T09:12:39Z</time>
      </trkpt>
      <trkpt lat="45.90516" lon="3.91235">
        <ele>664</ele>
        <time>2012-09-30T09:12:44Z</time>
      </trkpt>
      <trkpt lat="45.90546" lon="3.91233">
        <ele>663</ele>
        <time>2012-09-30T09:12:50Z</time>
      </trkpt>
      <trkpt lat="45.9056" lon="3.91231">
        <ele>663</ele>
        <time>2012-09-30T09:12:52Z</time>
      </trkpt>
      <trkpt lat="45.90569" lon="3.9123">
        <ele>662</ele>
        <time>2012-09-30T09:12:54Z</time>
      </trkpt>
      <trkpt lat="45.90579" lon="3.91227">
        <ele>661</ele>
        <time>2012-09-30T09:12:57Z</time>
      </trkpt>
      <trkpt lat="45.90592" lon="3.91224">
        <ele>661</ele>
        <time>2012-09-30T09:13:00Z</time>
      </trkpt>
      <trkpt lat="45.90605" lon="3.91221">
        <ele>660</ele>
        <time>2012-09-30T09:13:04Z</time>
      </trkpt>
      <trkpt lat="45.90617" lon="3.91217">
        <ele>660</ele>
        <time>2012-09-30T09:13:07Z</time>
      </trkpt>
      <trkpt lat="45.90629" lon="3.91214">
        <ele>660</ele>
        <time>2012-09-30T09:13:11Z</time>
      </trkpt>
      <trkpt lat="45.90638" lon="3.91212">
        <ele>660</ele>
        <time>2012-09-30T09:13:13Z</time>
      </trkpt>
      <trkpt lat="45.90648" lon="3.91211">
        <ele>660</ele>
        <time>2012-09-30T09:13:16Z</time>
      </trkpt>
      <trkpt lat="45.90658" lon="3.91211">
        <ele>660</ele>
        <time>2012-09-30T09:13:20Z</time>
      </trkpt>
      <trkpt lat="45.9067" lon="3.91214">
        <ele>660</ele>
        <time>2012-09-30T09:13:24Z</time>
      </trkpt>
      <trkpt lat="45.90679" lon="3.91216">
        <ele>660</ele>
        <time>2012-09-30T09:13:27Z</time>
      </trkpt>
      <trkpt lat="45.9069" lon="3.91221">
        <ele>660</ele>
        <time>2012-09-30T09:13:30Z</time>
      </trkpt>
      <trkpt lat="45.90697" lon="3.91232">
        <ele>660</ele>
        <time>2012-09-30T09:13:36Z</time>
      </trkpt>
      <trkpt lat="45.90705" lon="3.91244">
        <ele>659</ele>
        <time>2012-09-30T09:13:40Z</time>
      </trkpt>
      <trkpt lat="45.90712" lon="3.91254">
        <ele>658</ele>
        <time>2012-09-30T09:13:43Z</time>
      </trkpt>
      <trkpt lat="45.90735" lon="3.91274">
        <ele>658</ele>
        <time>2012-09-30T09:13:52Z</time>
      </trkpt>
      <trkpt lat="45.90778" lon="3.91296">
        <ele>658</ele>
        <time>2012-09-30T09:14:07Z</time>
      </trkpt>
      <trkpt lat="45.90793" lon="3.91299">
        <ele>659</ele>
        <time>2012-09-30T09:14:20Z</time>
      </trkpt>
      <trkpt lat="45.90802" lon="3.91305">
        <ele>659</ele>
        <time>2012-09-30T09:14:23Z</time>
      </trkpt>
      <trkpt lat="45.90814" lon="3.91307">
        <ele>660</ele>
        <time>2012-09-30T09:14:26Z</time>
      </trkpt>
      <trkpt lat="45.90834" lon="3.9131">
        <ele>662</ele>
        <time>2012-09-30T09:14:32Z</time>
      </trkpt>
      <trkpt lat="45.90845" lon="3.91309">
        <ele>664</ele>
        <time>2012-09-30T09:14:37Z</time>
      </trkpt>
      <trkpt lat="45.90856" lon="3.91307">
        <ele>664</ele>
        <time>2012-09-30T09:14:41Z</time>
      </trkpt>
      <trkpt lat="45.90867" lon="3.91304">
        <ele>663</ele>
        <time>2012-09-30T09:14:46Z</time>
      </trkpt>
      <trkpt lat="45.90876" lon="3.91303">
        <ele>663</ele>
        <time>2012-09-30T09:14:49Z</time>
      </trkpt>
      <trkpt lat="45.90885" lon="3.91303">
        <ele>662</ele>
        <time>2012-09-30T09:14:52Z</time>
      </trkpt>
      <trkpt lat="45.90896" lon="3.91303">
        <ele>661</ele>
        <time>2012-09-30T09:14:56Z</time>
      </trkpt>
      <trkpt lat="45.90902" lon="3.91315">
        <ele>661</ele>
        <time>2012-09-30T09:15:04Z</time>
      </trkpt>
      <trkpt lat="45.90918" lon="3.91332">
        <ele>662</ele>
        <time>2012-09-30T09:15:15Z</time>
      </trkpt>
      <trkpt lat="45.90927" lon="3.91342">
        <ele>663</ele>
        <time>2012-09-30T09:15:18Z</time>
      </trkpt>
      <trkpt lat="45.90935" lon="3.91351">
        <ele>665</ele>
        <time>2012-09-30T09:15:22Z</time>
      </trkpt>
      <trkpt lat="45.90952" lon="3.91374">
        <ele>666</ele>
        <time>2012-09-30T09:15:35Z</time>
      </trkpt>
      <trkpt lat="45.90957" lon="3.91385">
        <ele>667</ele>
        <time>2012-09-30T09:15:38Z</time>
      </trkpt>
      <trkpt lat="45.90963" lon="3.91397">
        <ele>668</ele>
        <time>2012-09-30T09:15:44Z</time>
      </trkpt>
      <trkpt lat="45.90972" lon="3.91393">
        <ele>669</ele>
        <time>2012-09-30T09:15:51Z</time>
      </trkpt>
      <trkpt lat="45.90985" lon="3.91387">
        <ele>670</ele>
        <time>2012-09-30T09:15:54Z</time>
      </trkpt>
      <trkpt lat="45.90995" lon="3.91383">
        <ele>670</ele>
        <time>2012-09-30T09:15:57Z</time>
      </trkpt>
      <trkpt lat="45.91004" lon="3.91375">
        <ele>671</ele>
        <time>2012-09-30T09:16:00Z</time>
      </trkpt>
      <trkpt lat="45.91012" lon="3.91363">
        <ele>672</ele>
        <time>2012-09-30T09:16:03Z</time>
      </trkpt>
      <trkpt lat="45.91018" lon="3.91351">
        <ele>673</ele>
        <time>2012-09-30T09:16:06Z</time>
      </trkpt>
      <trkpt lat="45.91021" lon="3.91336">
        <ele>673</ele>
        <time>2012-09-30T09:16:09Z</time>
      </trkpt>
      <trkpt lat="45.91023" lon="3.91322">
        <ele>673</ele>
        <time>2012-09-30T09:16:12Z</time>
      </trkpt>
      <trkpt lat="45.91023" lon="3.91306">
        <ele>674</ele>
        <time>2012-09-30T09:16:15Z</time>
      </trkpt>
      <trkpt lat="45.91023" lon="3.91286">
        <ele>674</ele>
        <time>2012-09-30T09:16:18Z</time>
      </trkpt>
      <trkpt lat="45.91023" lon="3.91271">
        <ele>675</ele>
        <time>2012-09-30T09:16:20Z</time>
      </trkpt>
      <trkpt lat="45.91023" lon="3.91252">
        <ele>676</ele>
        <time>2012-09-30T09:16:22Z</time>
      </trkpt>
      <trkpt lat="45.91027" lon="3.91229">
        <ele>677</ele>
        <time>2012-09-30T09:16:24Z</time>
      </trkpt>
      <trkpt lat="45.91031" lon="3.9121">
        <ele>676</ele>
        <time>2012-09-30T09:16:26Z</time>
      </trkpt>
      <trkpt lat="45.9104" lon="3.91168">
        <ele>675</ele>
        <time>2012-09-30T09:16:31Z</time>
      </trkpt>
      <trkpt lat="45.91043" lon="3.91153">
        <ele>675</ele>
        <time>2012-09-30T09:16:33Z</time>
      </trkpt>
      <trkpt lat="45.91053" lon="3.91114">
        <ele>674</ele>
        <time>2012-09-30T09:16:38Z</time>
      </trkpt>
      <trkpt lat="45.91055" lon="3.91095">
        <ele>675</ele>
        <time>2012-09-30T09:16:40Z</time>
      </trkpt>
      <trkpt lat="45.91057" lon="3.91072">
        <ele>676</ele>
        <time>2012-09-30T09:16:44Z</time>
      </trkpt>
      <trkpt lat="45.91061" lon="3.91051">
        <ele>676</ele>
        <time>2012-09-30T09:16:46Z</time>
      </trkpt>
      <trkpt lat="45.91066" lon="3.91032">
        <ele>676</ele>
        <time>2012-09-30T09:16:48Z</time>
      </trkpt>
      <trkpt lat="45.91073" lon="3.91012">
        <ele>675</ele>
        <time>2012-09-30T09:16:50Z</time>
      </trkpt>
      <trkpt lat="45.9108" lon="3.90991">
        <ele>675</ele>
        <time>2012-09-30T09:16:52Z</time>
      </trkpt>
      <trkpt lat="45.91086" lon="3.90968">
        <ele>673</ele>
        <time>2012-09-30T09:16:54Z</time>
      </trkpt>
      <trkpt lat="45.91089" lon="3.90954">
        <ele>673</ele>
        <time>2012-09-30T09:16:55Z</time>
      </trkpt>
      <trkpt lat="45.91092" lon="3.90941">
        <ele>672</ele>
        <time>2012-09-30T09:16:56Z</time>
      </trkpt>
      <trkpt lat="45.91095" lon="3.90927">
        <ele>671</ele>
        <time>2012-09-30T09:16:57Z</time>
      </trkpt>
      <trkpt lat="45.91098" lon="3.90914">
        <ele>670</ele>
        <time>2012-09-30T09:16:58Z</time>
      </trkpt>
      <trkpt lat="45.911" lon="3.909">
        <ele>669</ele>
        <time>2012-09-30T09:16:59Z</time>
      </trkpt>
      <trkpt lat="45.91102" lon="3.90887">
        <ele>668</ele>
        <time>2012-09-30T09:17:00Z</time>
      </trkpt>
      <trkpt lat="45.91104" lon="3.90874">
        <ele>667</ele>
        <time>2012-09-30T09:17:01Z</time>
      </trkpt>
      <trkpt lat="45.91105" lon="3.90861">
        <ele>667</ele>
        <time>2012-09-30T09:17:02Z</time>
      </trkpt>
      <trkpt lat="45.91108" lon="3.9082">
        <ele>666</ele>
        <time>2012-09-30T09:17:05Z</time>
      </trkpt>
      <trkpt lat="45.91106" lon="3.90775">
        <ele>666</ele>
        <time>2012-09-30T09:17:08Z</time>
      </trkpt>
      <trkpt lat="45.91108" lon="3.90744">
        <ele>665</ele>
        <time>2012-09-30T09:17:10Z</time>
      </trkpt>
      <trkpt lat="45.9111" lon="3.90731">
        <ele>665</ele>
        <time>2012-09-30T09:17:11Z</time>
      </trkpt>
      <trkpt lat="45.91114" lon="3.90719">
        <ele>664</ele>
        <time>2012-09-30T09:17:12Z</time>
      </trkpt>
      <trkpt lat="45.91121" lon="3.907">
        <ele>664</ele>
        <time>2012-09-30T09:17:14Z</time>
      </trkpt>
      <trkpt lat="45.91131" lon="3.90686">
        <ele>663</ele>
        <time>2012-09-30T09:17:16Z</time>
      </trkpt>
      <trkpt lat="45.91145" lon="3.9068">
        <ele>662</ele>
        <time>2012-09-30T09:17:18Z</time>
      </trkpt>
      <trkpt lat="45.91159" lon="3.90674">
        <ele>662</ele>
        <time>2012-09-30T09:17:20Z</time>
      </trkpt>
      <trkpt lat="45.91173" lon="3.90665">
        <ele>662</ele>
        <time>2012-09-30T09:17:22Z</time>
      </trkpt>
      <trkpt lat="45.91186" lon="3.90655">
        <ele>662</ele>
        <time>2012-09-30T09:17:24Z</time>
      </trkpt>
      <trkpt lat="45.912" lon="3.90643">
        <ele>661</ele>
        <time>2012-09-30T09:17:26Z</time>
      </trkpt>
      <trkpt lat="45.9121" lon="3.90631">
        <ele>661</ele>
        <time>2012-09-30T09:17:28Z</time>
      </trkpt>
      <trkpt lat="45.91222" lon="3.90617">
        <ele>661</ele>
        <time>2012-09-30T09:17:32Z</time>
      </trkpt>
      <trkpt lat="45.91241" lon="3.90591">
        <ele>661</ele>
        <time>2012-09-30T09:17:39Z</time>
      </trkpt>
      <trkpt lat="45.91248" lon="3.90576">
        <ele>661</ele>
        <time>2012-09-30T09:17:41Z</time>
      </trkpt>
      <trkpt lat="45.91256" lon="3.90563">
        <ele>661</ele>
        <time>2012-09-30T09:17:43Z</time>
      </trkpt>
      <trkpt lat="45.91261" lon="3.9055">
        <ele>661</ele>
        <time>2012-09-30T09:17:45Z</time>
      </trkpt>
      <trkpt lat="45.91264" lon="3.90537">
        <ele>662</ele>
        <time>2012-09-30T09:17:47Z</time>
      </trkpt>
      <trkpt lat="45.91267" lon="3.90524">
        <ele>662</ele>
        <time>2012-09-30T09:17:49Z</time>
      </trkpt>
      <trkpt lat="45.9127" lon="3.90506">
        <ele>662</ele>
        <time>2012-09-30T09:17:52Z</time>
      </trkpt>
      <trkpt lat="45.9127" lon="3.90489">
        <ele>662</ele>
        <time>2012-09-30T09:17:56Z</time>
      </trkpt>
      <trkpt lat="45.9127" lon="3.90471">
        <ele>662</ele>
        <time>2012-09-30T09:18:00Z</time>
      </trkpt>
      <trkpt lat="45.91271" lon="3.90452">
        <ele>663</ele>
        <time>2012-09-30T09:18:03Z</time>
      </trkpt>
      <trkpt lat="45.91267" lon="3.9044">
        <ele>664</ele>
        <time>2012-09-30T09:18:08Z</time>
      </trkpt>
      <trkpt lat="45.91257" lon="3.90435">
        <ele>665</ele>
        <time>2012-09-30T09:18:14Z</time>
      </trkpt>
      <trkpt lat="45.91246" lon="3.90433">
        <ele>667</ele>
        <time>2012-09-30T09:18:18Z</time>
      </trkpt>
      <trkpt lat="45.91237" lon="3.90431">
        <ele>668</ele>
        <time>2012-09-30T09:18:22Z</time>
      </trkpt>
      <trkpt lat="45.91228" lon="3.90427">
        <ele>669</ele>
        <time>2012-09-30T09:18:28Z</time>
      </trkpt>
      <trkpt lat="45.9122" lon="3.90419">
        <ele>668</ele>
        <time>2012-09-30T09:18:29Z</time>
      </trkpt>
      <trkpt lat="45.91212" lon="3.90411">
        <ele>667</ele>
        <time>2012-09-30T09:18:32Z</time>
      </trkpt>
      <trkpt lat="45.91203" lon="3.90404">
        <ele>665</ele>
        <time>2012-09-30T09:18:35Z</time>
      </trkpt>
      <trkpt lat="45.91191" lon="3.90397">
        <ele>664</ele>
        <time>2012-09-30T09:18:39Z</time>
      </trkpt>
      <trkpt lat="45.91181" lon="3.9039">
        <ele>663</ele>
        <time>2012-09-30T09:18:42Z</time>
      </trkpt>
      <trkpt lat="45.91169" lon="3.90382">
        <ele>663</ele>
        <time>2012-09-30T09:18:45Z</time>
      </trkpt>
      <trkpt lat="45.91157" lon="3.90379">
        <ele>662</ele>
        <time>2012-09-30T09:18:48Z</time>
      </trkpt>
      <trkpt lat="45.91144" lon="3.90383">
        <ele>663</ele>
        <time>2012-09-30T09:18:51Z</time>
      </trkpt>
      <trkpt lat="45.91135" lon="3.90386">
        <ele>663</ele>
        <time>2012-09-30T09:18:53Z</time>
      </trkpt>
      <trkpt lat="45.91123" lon="3.9039">
        <ele>664</ele>
        <time>2012-09-30T09:18:56Z</time>
      </trkpt>
      <trkpt lat="45.91113" lon="3.90393">
        <ele>666</ele>
        <time>2012-09-30T09:18:59Z</time>
      </trkpt>
      <trkpt lat="45.91105" lon="3.904">
        <ele>667</ele>
        <time>2012-09-30T09:19:03Z</time>
      </trkpt>
      <trkpt lat="45.91097" lon="3.90408">
        <ele>668</ele>
        <time>2012-09-30T09:19:06Z</time>
      </trkpt>
      <trkpt lat="45.91087" lon="3.90415">
        <ele>668</ele>
        <time>2012-09-30T09:19:09Z</time>
      </trkpt>
      <trkpt lat="45.91079" lon="3.9042">
        <ele>669</ele>
        <time>2012-09-30T09:19:12Z</time>
      </trkpt>
      <trkpt lat="45.91068" lon="3.90414">
        <ele>671</ele>
        <time>2012-09-30T09:19:22Z</time>
      </trkpt>
      <trkpt lat="45.9106" lon="3.90408">
        <ele>674</ele>
        <time>2012-09-30T09:19:27Z</time>
      </trkpt>
      <trkpt lat="45.91053" lon="3.90399">
        <ele>677</ele>
        <time>2012-09-30T09:19:31Z</time>
      </trkpt>
      <trkpt lat="45.91046" lon="3.90384">
        <ele>680</ele>
        <time>2012-09-30T09:19:35Z</time>
      </trkpt>
      <trkpt lat="45.91039" lon="3.90371">
        <ele>682</ele>
        <time>2012-09-30T09:19:39Z</time>
      </trkpt>
      <trkpt lat="45.91033" lon="3.90361">
        <ele>684</ele>
        <time>2012-09-30T09:19:42Z</time>
      </trkpt>
      <trkpt lat="45.91027" lon="3.90349">
        <ele>686</ele>
        <time>2012-09-30T09:19:45Z</time>
      </trkpt>
      <trkpt lat="45.91022" lon="3.90335">
        <ele>688</ele>
        <time>2012-09-30T09:19:48Z</time>
      </trkpt>
      <trkpt lat="45.91015" lon="3.90297">
        <ele>689</ele>
        <time>2012-09-30T09:19:56Z</time>
      </trkpt>
      <trkpt lat="45.9102" lon="3.90255">
        <ele>690</ele>
        <time>2012-09-30T09:20:09Z</time>
      </trkpt>
      <trkpt lat="45.91031" lon="3.90231">
        <ele>691</ele>
        <time>2012-09-30T09:20:18Z</time>
      </trkpt>
      <trkpt lat="45.91037" lon="3.9022">
        <ele>692</ele>
        <time>2012-09-30T09:20:19Z</time>
      </trkpt>
      <trkpt lat="45.91044" lon="3.90211">
        <ele>693</ele>
        <time>2012-09-30T09:20:22Z</time>
      </trkpt>
      <trkpt lat="45.91051" lon="3.902">
        <ele>695</ele>
        <time>2012-09-30T09:20:26Z</time>
      </trkpt>
      <trkpt lat="45.91051" lon="3.90186">
        <ele>699</ele>
        <time>2012-09-30T09:20:35Z</time>
      </trkpt>
      <trkpt lat="45.9105" lon="3.90172">
        <ele>699</ele>
        <time>2012-09-30T09:20:44Z</time>
      </trkpt>
      <trkpt lat="45.91054" lon="3.90157">
        <ele>699</ele>
        <time>2012-09-30T09:20:50Z</time>
      </trkpt>
      <trkpt lat="45.91055" lon="3.90141">
        <ele>698</ele>
        <time>2012-09-30T09:20:56Z</time>
      </trkpt>
      <trkpt lat="45.91056" lon="3.90127">
        <ele>697</ele>
        <time>2012-09-30T09:21:01Z</time>
      </trkpt>
      <trkpt lat="45.91058" lon="3.90085">
        <ele>696</ele>
        <time>2012-09-30T09:21:17Z</time>
      </trkpt>
      <trkpt lat="45.91057" lon="3.90072">
        <ele>696</ele>
        <time>2012-09-30T09:21:25Z</time>
      </trkpt>
      <trkpt lat="45.91055" lon="3.90059">
        <ele>697</ele>
        <time>2012-09-30T09:21:28Z</time>
      </trkpt>
      <trkpt lat="45.91054" lon="3.90045">
        <ele>699</ele>
        <time>2012-09-30T09:21:37Z</time>
      </trkpt>
      <trkpt lat="45.91056" lon="3.90033">
        <ele>705</ele>
        <time>2012-09-30T09:21:46Z</time>
      </trkpt>
      <trkpt lat="45.91058" lon="3.90018">
        <ele>707</ele>
        <time>2012-09-30T09:21:51Z</time>
      </trkpt>
      <trkpt lat="45.9106" lon="3.90003">
        <ele>709</ele>
        <time>2012-09-30T09:21:55Z</time>
      </trkpt>
      <trkpt lat="45.91063" lon="3.89989">
        <ele>711</ele>
        <time>2012-09-30T09:22:00Z</time>
      </trkpt>
      <trkpt lat="45.91066" lon="3.89975">
        <ele>713</ele>
        <time>2012-09-30T09:22:03Z</time>
      </trkpt>
      <trkpt lat="45.91071" lon="3.8996">
        <ele>714</ele>
        <time>2012-09-30T09:22:08Z</time>
      </trkpt>
      <trkpt lat="45.91077" lon="3.89947">
        <ele>715</ele>
        <time>2012-09-30T09:22:12Z</time>
      </trkpt>
      <trkpt lat="45.91081" lon="3.89934">
        <ele>716</ele>
        <time>2012-09-30T09:22:16Z</time>
      </trkpt>
      <trkpt lat="45.91086" lon="3.89921">
        <ele>717</ele>
        <time>2012-09-30T09:22:20Z</time>
      </trkpt>
      <trkpt lat="45.9109" lon="3.89906">
        <ele>718</ele>
        <time>2012-09-30T09:22:24Z</time>
      </trkpt>
      <trkpt lat="45.91095" lon="3.89893">
        <ele>719</ele>
        <time>2012-09-30T09:22:28Z</time>
      </trkpt>
      <trkpt lat="45.91097" lon="3.89878">
        <ele>720</ele>
        <time>2012-09-30T09:22:32Z</time>
      </trkpt>
      <trkpt lat="45.91099" lon="3.89864">
        <ele>720</ele>
        <time>2012-09-30T09:22:37Z</time>
      </trkpt>
      <trkpt lat="45.91102" lon="3.89851">
        <ele>720</ele>
        <time>2012-09-30T09:22:41Z</time>
      </trkpt>
      <trkpt lat="45.91103" lon="3.89838">
        <ele>721</ele>
        <time>2012-09-30T09:22:46Z</time>
      </trkpt>
      <trkpt lat="45.91105" lon="3.89825">
        <ele>722</ele>
        <time>2012-09-30T09:22:50Z</time>
      </trkpt>
      <trkpt lat="45.91108" lon="3.8981">
        <ele>723</ele>
        <time>2012-09-30T09:22:55Z</time>
      </trkpt>
      <trkpt lat="45.9111" lon="3.89796">
        <ele>725</ele>
        <time>2012-09-30T09:22:59Z</time>
      </trkpt>
      <trkpt lat="45.91111" lon="3.89782">
        <ele>726</ele>
        <time>2012-09-30T09:23:03Z</time>
      </trkpt>
      <trkpt lat="45.91113" lon="3.89768">
        <ele>727</ele>
        <time>2012-09-30T09:23:07Z</time>
      </trkpt>
      <trkpt lat="45.91116" lon="3.89755">
        <ele>727</ele>
        <time>2012-09-30T09:23:11Z</time>
      </trkpt>
      <trkpt lat="45.9112" lon="3.89741">
        <ele>727</ele>
        <time>2012-09-30T09:23:17Z</time>
      </trkpt>
      <trkpt lat="45.91125" lon="3.89727">
        <ele>727</ele>
        <time>2012-09-30T09:23:21Z</time>
      </trkpt>
      <trkpt lat="45.91128" lon="3.89715">
        <ele>727</ele>
        <time>2012-09-30T09:23:24Z</time>
      </trkpt>
      <trkpt lat="45.91132" lon="3.89699">
        <ele>727</ele>
        <time>2012-09-30T09:23:27Z</time>
      </trkpt>
      <trkpt lat="45.91144" lon="3.89669">
        <ele>727</ele>
        <time>2012-09-30T09:23:33Z</time>
      </trkpt>
      <trkpt lat="45.9115" lon="3.89653">
        <ele>727</ele>
        <time>2012-09-30T09:23:37Z</time>
      </trkpt>
      <trkpt lat="45.91154" lon="3.89642">
        <ele>726</ele>
        <time>2012-09-30T09:23:39Z</time>
      </trkpt>
      <trkpt lat="45.9116" lon="3.89628">
        <ele>726</ele>
        <time>2012-09-30T09:23:42Z</time>
      </trkpt>
      <trkpt lat="45.91167" lon="3.89618">
        <ele>726</ele>
        <time>2012-09-30T09:23:46Z</time>
      </trkpt>
      <trkpt lat="45.91174" lon="3.89609">
        <ele>726</ele>
        <time>2012-09-30T09:23:49Z</time>
      </trkpt>
      <trkpt lat="45.91182" lon="3.89599">
        <ele>726</ele>
        <time>2012-09-30T09:23:54Z</time>
      </trkpt>
      <trkpt lat="45.9119" lon="3.89588">
        <ele>726</ele>
        <time>2012-09-30T09:23:59Z</time>
      </trkpt>
      <trkpt lat="45.91199" lon="3.89576">
        <ele>726</ele>
        <time>2012-09-30T09:24:03Z</time>
      </trkpt>
      <trkpt lat="45.91207" lon="3.89566">
        <ele>726</ele>
        <time>2012-09-30T09:24:06Z</time>
      </trkpt>
      <trkpt lat="45.91216" lon="3.89559">
        <ele>727</ele>
        <time>2012-09-30T09:24:09Z</time>
      </trkpt>
      <trkpt lat="45.91225" lon="3.89551">
        <ele>728</ele>
        <time>2012-09-30T09:24:12Z</time>
      </trkpt>
      <trkpt lat="45.91235" lon="3.89542">
        <ele>729</ele>
        <time>2012-09-30T09:24:15Z</time>
      </trkpt>
      <trkpt lat="45.91242" lon="3.89529">
        <ele>731</ele>
        <time>2012-09-30T09:24:18Z</time>
      </trkpt>
      <trkpt lat="45.91247" lon="3.89516">
        <ele>731</ele>
        <time>2012-09-30T09:24:21Z</time>
      </trkpt>
      <trkpt lat="45.91251" lon="3.89501">
        <ele>732</ele>
        <time>2012-09-30T09:24:24Z</time>
      </trkpt>
      <trkpt lat="45.91255" lon="3.89484">
        <ele>732</ele>
        <time>2012-09-30T09:24:27Z</time>
      </trkpt>
      <trkpt lat="45.91259" lon="3.89467">
        <ele>731</ele>
        <time>2012-09-30T09:24:30Z</time>
      </trkpt>
      <trkpt lat="45.91263" lon="3.89454">
        <ele>731</ele>
        <time>2012-09-30T09:24:32Z</time>
      </trkpt>
      <trkpt lat="45.91267" lon="3.89441">
        <ele>730</ele>
        <time>2012-09-30T09:24:34Z</time>
      </trkpt>
      <trkpt lat="45.91278" lon="3.89399">
        <ele>730</ele>
        <time>2012-09-30T09:24:39Z</time>
      </trkpt>
      <trkpt lat="45.91287" lon="3.89359">
        <ele>730</ele>
        <time>2012-09-30T09:24:44Z</time>
      </trkpt>
      <trkpt lat="45.91292" lon="3.89326">
        <ele>730</ele>
        <time>2012-09-30T09:24:48Z</time>
      </trkpt>
      <trkpt lat="45.91301" lon="3.89206">
        <ele>729</ele>
        <time>2012-09-30T09:25:07Z</time>
      </trkpt>
      <trkpt lat="45.91355" lon="3.88991">
        <ele>758</ele>
        <time>2012-09-30T09:26:53Z</time>
      </trkpt>
      <trkpt lat="45.91382" lon="3.89">
        <ele>729</ele>
        <time>2012-09-30T09:26:56Z</time>
      </trkpt>
      <trkpt lat="45.91411" lon="3.89002">
        <ele>730</ele>
        <time>2012-09-30T09:27:04Z</time>
      </trkpt>
      <trkpt lat="45.91317" lon="3.88988">
        <ele>732</ele>
        <time>2012-09-30T09:27:17Z</time>
      </trkpt>
      <trkpt lat="45.91379" lon="3.88795">
        <ele>728</ele>
        <time>2012-09-30T09:30:40Z</time>
      </trkpt>
      <trkpt lat="45.91416" lon="3.88793">
        <ele>783.5</ele>
        <time>2012-09-30T09:32:46Z</time>
      </trkpt>
      <trkpt lat="45.91611" lon="3.88606">
        <ele>728</ele>
        <time>2012-09-30T09:34:34Z</time>
      </trkpt>
      <trkpt lat="45.91831" lon="3.88572">
        <ele>783.4</ele>
        <time>2012-09-30T09:35:04Z</time>
      </trkpt>
      <trkpt lat="45.91987" lon="3.88565">
        <ele>729</ele>
        <time>2012-09-30T09:35:27Z</time>
      </trkpt>
      <trkpt lat="45.92017" lon="3.88553">
        <ele>733</ele>
        <time>2012-09-30T09:36:23Z</time>
      </trkpt>
      <trkpt lat="45.92027" lon="3.88546">
        <ele>736</ele>
        <time>2012-09-30T09:36:25Z</time>
      </trkpt>
      <trkpt lat="45.92039" lon="3.88539">
        <ele>740</ele>
        <time>2012-09-30T09:36:27Z</time>
      </trkpt>
      <trkpt lat="45.92051" lon="3.88531">
        <ele>743</ele>
        <time>2012-09-30T09:36:29Z</time>
      </trkpt>
      <trkpt lat="45.92062" lon="3.88523">
        <ele>747</ele>
        <time>2012-09-30T09:36:31Z</time>
      </trkpt>
      <trkpt lat="45.92073" lon="3.88517">
        <ele>750</ele>
        <time>2012-09-30T09:36:33Z</time>
      </trkpt>
      <trkpt lat="45.92084" lon="3.88512">
        <ele>753</ele>
        <time>2012-09-30T09:36:35Z</time>
      </trkpt>
      <trkpt lat="45.92094" lon="3.88507">
        <ele>756</ele>
        <time>2012-09-30T09:36:37Z</time>
      </trkpt>
      <trkpt lat="45.92106" lon="3.88501">
        <ele>760</ele>
        <time>2012-09-30T09:36:40Z</time>
      </trkpt>
      <trkpt lat="45.92117" lon="3.88495">
        <ele>762</ele>
        <time>2012-09-30T09:36:43Z</time>
      </trkpt>
      <trkpt lat="45.92124" lon="3.88487">
        <ele>765</ele>
        <time>2012-09-30T09:36:46Z</time>
      </trkpt>
      <trkpt lat="45.92133" lon="3.88481">
        <ele>767</ele>
        <time>2012-09-30T09:36:49Z</time>
      </trkpt>
      <trkpt lat="45.92145" lon="3.88474">
        <ele>769</ele>
        <time>2012-09-30T09:36:52Z</time>
      </trkpt>
      <trkpt lat="45.92155" lon="3.88466">
        <ele>770</ele>
        <time>2012-09-30T09:36:56Z</time>
      </trkpt>
      <trkpt lat="45.92164" lon="3.88459">
        <ele>772</ele>
        <time>2012-09-30T09:37:02Z</time>
      </trkpt>
      <trkpt lat="45.92173" lon="3.88463">
        <ele>774</ele>
        <time>2012-09-30T09:37:07Z</time>
      </trkpt>
      <trkpt lat="45.92183" lon="3.88467">
        <ele>776</ele>
        <time>2012-09-30T09:37:11Z</time>
      </trkpt>
      <trkpt lat="45.92192" lon="3.88475">
        <ele>777</ele>
        <time>2012-09-30T09:37:14Z</time>
      </trkpt>
      <trkpt lat="45.92205" lon="3.88481">
        <ele>778</ele>
        <time>2012-09-30T09:37:18Z</time>
      </trkpt>
      <trkpt lat="45.92214" lon="3.88482">
        <ele>779</ele>
        <time>2012-09-30T09:37:21Z</time>
      </trkpt>
      <trkpt lat="45.92223" lon="3.88483">
        <ele>779</ele>
        <time>2012-09-30T09:37:24Z</time>
      </trkpt>
      <trkpt lat="45.92234" lon="3.88485">
        <ele>779</ele>
        <time>2012-09-30T09:37:27Z</time>
      </trkpt>
      <trkpt lat="45.92244" lon="3.88489">
        <ele>780</ele>
        <time>2012-09-30T09:37:29Z</time>
      </trkpt>
      <trkpt lat="45.92253" lon="3.88493">
        <ele>780</ele>
        <time>2012-09-30T09:37:31Z</time>
      </trkpt>
      <trkpt lat="45.92265" lon="3.88491">
        <ele>780</ele>
        <time>2012-09-30T09:37:34Z</time>
      </trkpt>
      <trkpt lat="45.92272" lon="3.88477">
        <ele>779</ele>
        <time>2012-09-30T09:37:38Z</time>
      </trkpt>
      <trkpt lat="45.92275" lon="3.88461">
        <ele>778</ele>
        <time>2012-09-30T09:37:41Z</time>
      </trkpt>
      <trkpt lat="45.92277" lon="3.88444">
        <ele>777</ele>
        <time>2012-09-30T09:37:44Z</time>
      </trkpt>
      <trkpt lat="45.92278" lon="3.88427">
        <ele>776</ele>
        <time>2012-09-30T09:37:47Z</time>
      </trkpt>
      <trkpt lat="45.92279" lon="3.88411">
        <ele>776</ele>
        <time>2012-09-30T09:37:50Z</time>
      </trkpt>
      <trkpt lat="45.9228" lon="3.88397">
        <ele>776</ele>
        <time>2012-09-30T09:37:53Z</time>
      </trkpt>
      <trkpt lat="45.92281" lon="3.88381">
        <ele>776</ele>
        <time>2012-09-30T09:37:56Z</time>
      </trkpt>
      <trkpt lat="45.92282" lon="3.88364">
        <ele>776</ele>
        <time>2012-09-30T09:37:59Z</time>
      </trkpt>
      <trkpt lat="45.92287" lon="3.88352">
        <ele>777</ele>
        <time>2012-09-30T09:38:02Z</time>
      </trkpt>
      <trkpt lat="45.92288" lon="3.88338">
        <ele>777</ele>
        <time>2012-09-30T09:38:05Z</time>
      </trkpt>
      <trkpt lat="45.9229" lon="3.88325">
        <ele>777</ele>
        <time>2012-09-30T09:38:08Z</time>
      </trkpt>
      <trkpt lat="45.92292" lon="3.88312">
        <ele>777</ele>
        <time>2012-09-30T09:38:12Z</time>
      </trkpt>
      <trkpt lat="45.92296" lon="3.88297">
        <ele>777</ele>
        <time>2012-09-30T09:38:16Z</time>
      </trkpt>
      <trkpt lat="45.92301" lon="3.88284">
        <ele>778</ele>
        <time>2012-09-30T09:38:20Z</time>
      </trkpt>
      <trkpt lat="45.92307" lon="3.8827">
        <ele>779</ele>
        <time>2012-09-30T09:38:24Z</time>
      </trkpt>
      <trkpt lat="45.9231" lon="3.88257">
        <ele>781</ele>
        <time>2012-09-30T09:38:27Z</time>
      </trkpt>
      <trkpt lat="45.92312" lon="3.88242">
        <ele>782</ele>
        <time>2012-09-30T09:38:31Z</time>
      </trkpt>
      <trkpt lat="45.92313" lon="3.88228">
        <ele>783</ele>
        <time>2012-09-30T09:38:35Z</time>
      </trkpt>
      <trkpt lat="45.92316" lon="3.88215">
        <ele>783</ele>
        <time>2012-09-30T09:38:40Z</time>
      </trkpt>
      <trkpt lat="45.92318" lon="3.88202">
        <ele>783</ele>
        <time>2012-09-30T09:38:44Z</time>
      </trkpt>
      <trkpt lat="45.9232" lon="3.88188">
        <ele>783</ele>
        <time>2012-09-30T09:38:49Z</time>
      </trkpt>
      <trkpt lat="45.92324" lon="3.88176">
        <ele>784</ele>
        <time>2012-09-30T09:38:53Z</time>
      </trkpt>
      <trkpt lat="45.92328" lon="3.88161">
        <ele>785</ele>
        <time>2012-09-30T09:38:58Z</time>
      </trkpt>
      <trkpt lat="45.92334" lon="3.88151">
        <ele>788</ele>
        <time>2012-09-30T09:39:03Z</time>
      </trkpt>
      <trkpt lat="45.9234" lon="3.88142">
        <ele>788</ele>
        <time>2012-09-30T09:39:10Z</time>
      </trkpt>
      <trkpt lat="45.9235" lon="3.88132">
        <ele>787</ele>
        <time>2012-09-30T09:39:16Z</time>
      </trkpt>
      <trkpt lat="45.92358" lon="3.88124">
        <ele>788</ele>
        <time>2012-09-30T09:39:21Z</time>
      </trkpt>
      <trkpt lat="45.92368" lon="3.88116">
        <ele>791</ele>
        <time>2012-09-30T09:39:28Z</time>
      </trkpt>
      <trkpt lat="45.92377" lon="3.88111">
        <ele>792</ele>
        <time>2012-09-30T09:39:36Z</time>
      </trkpt>
      <trkpt lat="45.92387" lon="3.88103">
        <ele>794</ele>
        <time>2012-09-30T09:39:45Z</time>
      </trkpt>
      <trkpt lat="45.92396" lon="3.88097">
        <ele>795</ele>
        <time>2012-09-30T09:39:50Z</time>
      </trkpt>
      <trkpt lat="45.92405" lon="3.88088">
        <ele>796</ele>
        <time>2012-09-30T09:39:56Z</time>
      </trkpt>
      <trkpt lat="45.92414" lon="3.88079">
        <ele>796</ele>
        <time>2012-09-30T09:40:00Z</time>
      </trkpt>
      <trkpt lat="45.92421" lon="3.88064">
        <ele>796</ele>
        <time>2012-09-30T09:40:05Z</time>
      </trkpt>
      <trkpt lat="45.92428" lon="3.88055">
        <ele>796</ele>
        <time>2012-09-30T09:40:09Z</time>
      </trkpt>
      <trkpt lat="45.92435" lon="3.88045">
        <ele>795</ele>
        <time>2012-09-30T09:40:13Z</time>
      </trkpt>
      <trkpt lat="45.92442" lon="3.88034">
        <ele>794</ele>
        <time>2012-09-30T09:40:19Z</time>
      </trkpt>
      <trkpt lat="45.92455" lon="3.87999">
        <ele>794</ele>
        <time>2012-09-30T09:40:33Z</time>
      </trkpt>
      <trkpt lat="45.92467" lon="3.87961">
        <ele>795</ele>
        <time>2012-09-30T09:40:46Z</time>
      </trkpt>
      <trkpt lat="45.92471" lon="3.87943">
        <ele>796</ele>
        <time>2012-09-30T09:40:52Z</time>
      </trkpt>
      <trkpt lat="45.92477" lon="3.87933">
        <ele>797</ele>
        <time>2012-09-30T09:40:56Z</time>
      </trkpt>
      <trkpt lat="45.92484" lon="3.87922">
        <ele>798</ele>
        <time>2012-09-30T09:41:01Z</time>
      </trkpt>
      <trkpt lat="45.92489" lon="3.87912">
        <ele>799</ele>
        <time>2012-09-30T09:41:05Z</time>
      </trkpt>
      <trkpt lat="45.92493" lon="3.87897">
        <ele>799</ele>
        <time>2012-09-30T09:41:09Z</time>
      </trkpt>
      <trkpt lat="45.92498" lon="3.87884">
        <ele>799</ele>
        <time>2012-09-30T09:41:13Z</time>
      </trkpt>
      <trkpt lat="45.92502" lon="3.87871">
        <ele>799</ele>
        <time>2012-09-30T09:41:17Z</time>
      </trkpt>
      <trkpt lat="45.92506" lon="3.87859">
        <ele>800</ele>
        <time>2012-09-30T09:41:21Z</time>
      </trkpt>
      <trkpt lat="45.92512" lon="3.87845">
        <ele>799</ele>
        <time>2012-09-30T09:41:26Z</time>
      </trkpt>
      <trkpt lat="45.92519" lon="3.87824">
        <ele>798</ele>
        <time>2012-09-30T09:41:32Z</time>
      </trkpt>
      <trkpt lat="45.92522" lon="3.8781">
        <ele>797</ele>
        <time>2012-09-30T09:41:34Z</time>
      </trkpt>
      <trkpt lat="45.92523" lon="3.87796">
        <ele>796</ele>
        <time>2012-09-30T09:41:36Z</time>
      </trkpt>
      <trkpt lat="45.92526" lon="3.87782">
        <ele>796</ele>
        <time>2012-09-30T09:41:38Z</time>
      </trkpt>
      <trkpt lat="45.92531" lon="3.87765">
        <ele>795</ele>
        <time>2012-09-30T09:41:41Z</time>
      </trkpt>
      <trkpt lat="45.92537" lon="3.87725">
        <ele>794</ele>
        <time>2012-09-30T09:41:49Z</time>
      </trkpt>
      <trkpt lat="45.92527" lon="3.87685">
        <ele>793</ele>
        <time>2012-09-30T09:41:56Z</time>
      </trkpt>
      <trkpt lat="45.92515" lon="3.87555">
        <ele>791</ele>
        <time>2012-09-30T09:42:44Z</time>
      </trkpt>
      <trkpt lat="45.92547" lon="3.87461">
        <ele>824.9</ele>
        <time>2012-09-30T09:43:02Z</time>
      </trkpt>
      <trkpt lat="45.92526" lon="3.87401">
        <ele>820.1</ele>
        <time>2012-09-30T09:43:24Z</time>
      </trkpt>
      <trkpt lat="45.92528" lon="3.8736">
        <ele>791</ele>
        <time>2012-09-30T09:43:28Z</time>
      </trkpt>
      <trkpt lat="45.92563" lon="3.87312">
        <ele>791</ele>
        <time>2012-09-30T09:43:43Z</time>
      </trkpt>
      <trkpt lat="45.92595" lon="3.8728">
        <ele>793</ele>
        <time>2012-09-30T09:44:03Z</time>
      </trkpt>
      <trkpt lat="45.92596" lon="3.87267">
        <ele>798</ele>
        <time>2012-09-30T09:44:08Z</time>
      </trkpt>
      <trkpt lat="45.92597" lon="3.87251">
        <ele>801</ele>
        <time>2012-09-30T09:44:12Z</time>
      </trkpt>
      <trkpt lat="45.92593" lon="3.87236">
        <ele>805</ele>
        <time>2012-09-30T09:44:16Z</time>
      </trkpt>
      <trkpt lat="45.92587" lon="3.87222">
        <ele>808</ele>
        <time>2012-09-30T09:44:19Z</time>
      </trkpt>
      <trkpt lat="45.92581" lon="3.87209">
        <ele>811</ele>
        <time>2012-09-30T09:44:22Z</time>
      </trkpt>
      <trkpt lat="45.92577" lon="3.87193">
        <ele>814</ele>
        <time>2012-09-30T09:44:25Z</time>
      </trkpt>
      <trkpt lat="45.92574" lon="3.87178">
        <ele>817</ele>
        <time>2012-09-30T09:44:28Z</time>
      </trkpt>
      <trkpt lat="45.9257" lon="3.87166">
        <ele>818</ele>
        <time>2012-09-30T09:44:31Z</time>
      </trkpt>
      <trkpt lat="45.92567" lon="3.87153">
        <ele>819</ele>
        <time>2012-09-30T09:44:34Z</time>
      </trkpt>
      <trkpt lat="45.92563" lon="3.87138">
        <ele>820</ele>
        <time>2012-09-30T09:44:37Z</time>
      </trkpt>
      <trkpt lat="45.92559" lon="3.87125">
        <ele>821</ele>
        <time>2012-09-30T09:44:40Z</time>
      </trkpt>
      <trkpt lat="45.92553" lon="3.87112">
        <ele>824</ele>
        <time>2012-09-30T09:44:45Z</time>
      </trkpt>
      <trkpt lat="45.92548" lon="3.87099">
        <ele>824</ele>
        <time>2012-09-30T09:44:51Z</time>
      </trkpt>
      <trkpt lat="45.92545" lon="3.87087">
        <ele>824</ele>
        <time>2012-09-30T09:44:56Z</time>
      </trkpt>
      <trkpt lat="45.92544" lon="3.87072">
        <ele>825</ele>
        <time>2012-09-30T09:45:00Z</time>
      </trkpt>
      <trkpt lat="45.92547" lon="3.87055">
        <ele>826</ele>
        <time>2012-09-30T09:45:03Z</time>
      </trkpt>
      <trkpt lat="45.92549" lon="3.87041">
        <ele>827</ele>
        <time>2012-09-30T09:45:05Z</time>
      </trkpt>
      <trkpt lat="45.92549" lon="3.87024">
        <ele>829</ele>
        <time>2012-09-30T09:45:08Z</time>
      </trkpt>
      <trkpt lat="45.92549" lon="3.8701">
        <ele>830</ele>
        <time>2012-09-30T09:45:11Z</time>
      </trkpt>
      <trkpt lat="45.92548" lon="3.86997">
        <ele>830</ele>
        <time>2012-09-30T09:45:14Z</time>
      </trkpt>
      <trkpt lat="45.92544" lon="3.86983">
        <ele>830</ele>
        <time>2012-09-30T09:45:18Z</time>
      </trkpt>
      <trkpt lat="45.9254" lon="3.86971">
        <ele>832</ele>
        <time>2012-09-30T09:45:23Z</time>
      </trkpt>
      <trkpt lat="45.92538" lon="3.86957">
        <ele>833</ele>
        <time>2012-09-30T09:45:27Z</time>
      </trkpt>
      <trkpt lat="45.92535" lon="3.86944">
        <ele>834</ele>
        <time>2012-09-30T09:45:31Z</time>
      </trkpt>
      <trkpt lat="45.92532" lon="3.86929">
        <ele>836</ele>
        <time>2012-09-30T09:45:37Z</time>
      </trkpt>
      <trkpt lat="45.92533" lon="3.86915">
        <ele>839</ele>
        <time>2012-09-30T09:45:42Z</time>
      </trkpt>
      <trkpt lat="45.92534" lon="3.86903">
        <ele>840</ele>
        <time>2012-09-30T09:45:47Z</time>
      </trkpt>
      <trkpt lat="45.92538" lon="3.86889">
        <ele>841</ele>
        <time>2012-09-30T09:45:52Z</time>
      </trkpt>
      <trkpt lat="45.92539" lon="3.86875">
        <ele>842</ele>
        <time>2012-09-30T09:45:59Z</time>
      </trkpt>
      <trkpt lat="45.9254" lon="3.8686">
        <ele>844</ele>
        <time>2012-09-30T09:46:06Z</time>
      </trkpt>
      <trkpt lat="45.92539" lon="3.86846">
        <ele>845</ele>
        <time>2012-09-30T09:46:12Z</time>
      </trkpt>
      <trkpt lat="45.92539" lon="3.86832">
        <ele>847</ele>
        <time>2012-09-30T09:46:17Z</time>
      </trkpt>
      <trkpt lat="45.9254" lon="3.86819">
        <ele>848</ele>
        <time>2012-09-30T09:46:22Z</time>
      </trkpt>
      <trkpt lat="45.92538" lon="3.86803">
        <ele>849</ele>
        <time>2012-09-30T09:46:29Z</time>
      </trkpt>
      <trkpt lat="45.92536" lon="3.86789">
        <ele>850</ele>
        <time>2012-09-30T09:46:34Z</time>
      </trkpt>
      <trkpt lat="45.92531" lon="3.86776">
        <ele>852</ele>
        <time>2012-09-30T09:46:40Z</time>
      </trkpt>
      <trkpt lat="45.92525" lon="3.86765">
        <ele>855</ele>
        <time>2012-09-30T09:46:45Z</time>
      </trkpt>
      <trkpt lat="45.92518" lon="3.86756">
        <ele>855</ele>
        <time>2012-09-30T09:46:50Z</time>
      </trkpt>
      <trkpt lat="45.9251" lon="3.86748">
        <ele>856</ele>
        <time>2012-09-30T09:46:56Z</time>
      </trkpt>
      <trkpt lat="45.92501" lon="3.86744">
        <ele>858</ele>
        <time>2012-09-30T09:47:02Z</time>
      </trkpt>
      <trkpt lat="45.92491" lon="3.86743">
        <ele>858</ele>
        <time>2012-09-30T09:47:08Z</time>
      </trkpt>
      <trkpt lat="45.92481" lon="3.86743">
        <ele>860</ele>
        <time>2012-09-30T09:47:16Z</time>
      </trkpt>
      <trkpt lat="45.92472" lon="3.86741">
        <ele>862</ele>
        <time>2012-09-30T09:47:20Z</time>
      </trkpt>
      <trkpt lat="45.92463" lon="3.86738">
        <ele>863</ele>
        <time>2012-09-30T09:47:24Z</time>
      </trkpt>
      <trkpt lat="45.92451" lon="3.86734">
        <ele>863</ele>
        <time>2012-09-30T09:47:30Z</time>
      </trkpt>
      <trkpt lat="45.92442" lon="3.86728">
        <ele>863</ele>
        <time>2012-09-30T09:47:36Z</time>
      </trkpt>
      <trkpt lat="45.92435" lon="3.8672">
        <ele>863</ele>
        <time>2012-09-30T09:47:42Z</time>
      </trkpt>
      <trkpt lat="45.92428" lon="3.86709">
        <ele>865</ele>
        <time>2012-09-30T09:47:47Z</time>
      </trkpt>
      <trkpt lat="45.92422" lon="3.86697">
        <ele>867</ele>
        <time>2012-09-30T09:47:52Z</time>
      </trkpt>
      <trkpt lat="45.92416" lon="3.86686">
        <ele>867</ele>
        <time>2012-09-30T09:47:57Z</time>
      </trkpt>
      <trkpt lat="45.92409" lon="3.86676">
        <ele>868</ele>
        <time>2012-09-30T09:48:04Z</time>
      </trkpt>
      <trkpt lat="45.92405" lon="3.86664">
        <ele>868</ele>
        <time>2012-09-30T09:48:09Z</time>
      </trkpt>
      <trkpt lat="45.92398" lon="3.86651">
        <ele>867</ele>
        <time>2012-09-30T09:48:14Z</time>
      </trkpt>
      <trkpt lat="45.92395" lon="3.86639">
        <ele>865</ele>
        <time>2012-09-30T09:48:18Z</time>
      </trkpt>
      <trkpt lat="45.92397" lon="3.86623">
        <ele>863</ele>
        <time>2012-09-30T09:48:24Z</time>
      </trkpt>
      <trkpt lat="45.92403" lon="3.86604">
        <ele>863</ele>
        <time>2012-09-30T09:48:30Z</time>
      </trkpt>
      <trkpt lat="45.92406" lon="3.86591">
        <ele>866</ele>
        <time>2012-09-30T09:48:34Z</time>
      </trkpt>
      <trkpt lat="45.92409" lon="3.86578">
        <ele>868</ele>
        <time>2012-09-30T09:48:39Z</time>
      </trkpt>
      <trkpt lat="45.92409" lon="3.86565">
        <ele>870</ele>
        <time>2012-09-30T09:48:44Z</time>
      </trkpt>
      <trkpt lat="45.92407" lon="3.86548">
        <ele>870</ele>
        <time>2012-09-30T09:48:50Z</time>
      </trkpt>
      <trkpt lat="45.92404" lon="3.86535">
        <ele>870</ele>
        <time>2012-09-30T09:48:54Z</time>
      </trkpt>
      <trkpt lat="45.924" lon="3.86521">
        <ele>871</ele>
        <time>2012-09-30T09:48:59Z</time>
      </trkpt>
      <trkpt lat="45.92406" lon="3.86514">
        <ele>873</ele>
        <time>2012-09-30T09:49:37Z</time>
      </trkpt>
      <trkpt lat="45.92415" lon="3.8651">
        <ele>873</ele>
        <time>2012-09-30T09:49:55Z</time>
      </trkpt>
      <trkpt lat="45.92425" lon="3.86511">
        <ele>876</ele>
        <time>2012-09-30T09:50:01Z</time>
      </trkpt>
      <trkpt lat="45.92431" lon="3.8651">
        <ele>877</ele>
        <time>2012-09-30T09:50:04Z</time>
      </trkpt>
      <trkpt lat="45.92437" lon="3.8651">
        <ele>877</ele>
        <time>2012-09-30T09:50:07Z</time>
      </trkpt>
      <trkpt lat="45.92444" lon="3.86511">
        <ele>877</ele>
        <time>2012-09-30T09:50:10Z</time>
      </trkpt>
      <trkpt lat="45.9245" lon="3.86511">
        <ele>878</ele>
        <time>2012-09-30T09:50:13Z</time>
      </trkpt>
      <trkpt lat="45.92456" lon="3.86514">
        <ele>879</ele>
        <time>2012-09-30T09:50:15Z</time>
      </trkpt>
      <trkpt lat="45.9246" lon="3.86515">
        <ele>880</ele>
        <time>2012-09-30T09:50:17Z</time>
      </trkpt>
      <trkpt lat="45.92472" lon="3.86518">
        <ele>881</ele>
        <time>2012-09-30T09:50:21Z</time>
      </trkpt>
      <trkpt lat="45.92481" lon="3.86522">
        <ele>883</ele>
        <time>2012-09-30T09:50:24Z</time>
      </trkpt>
      <trkpt lat="45.9249" lon="3.86528">
        <ele>884</ele>
        <time>2012-09-30T09:50:27Z</time>
      </trkpt>
      <trkpt lat="45.92501" lon="3.86534">
        <ele>884</ele>
        <time>2012-09-30T09:50:31Z</time>
      </trkpt>
      <trkpt lat="45.9251" lon="3.86538">
        <ele>884</ele>
        <time>2012-09-30T09:50:34Z</time>
      </trkpt>
      <trkpt lat="45.92519" lon="3.86542">
        <ele>884</ele>
        <time>2012-09-30T09:50:37Z</time>
      </trkpt>
      <trkpt lat="45.92528" lon="3.86545">
        <ele>884</ele>
        <time>2012-09-30T09:50:40Z</time>
      </trkpt>
      <trkpt lat="45.9254" lon="3.86547">
        <ele>884</ele>
        <time>2012-09-30T09:50:44Z</time>
      </trkpt>
      <trkpt lat="45.9255" lon="3.86553">
        <ele>885</ele>
        <time>2012-09-30T09:50:48Z</time>
      </trkpt>
      <trkpt lat="45.92559" lon="3.86559">
        <ele>887</ele>
        <time>2012-09-30T09:50:51Z</time>
      </trkpt>
      <trkpt lat="45.92569" lon="3.86565">
        <ele>887</ele>
        <time>2012-09-30T09:50:54Z</time>
      </trkpt>
      <trkpt lat="45.92581" lon="3.86571">
        <ele>887</ele>
        <time>2012-09-30T09:50:57Z</time>
      </trkpt>
      <trkpt lat="45.92592" lon="3.86577">
        <ele>888</ele>
        <time>2012-09-30T09:51:00Z</time>
      </trkpt>
      <trkpt lat="45.92604" lon="3.86584">
        <ele>888</ele>
        <time>2012-09-30T09:51:03Z</time>
      </trkpt>
      <trkpt lat="45.92616" lon="3.86589">
        <ele>889</ele>
        <time>2012-09-30T09:51:06Z</time>
      </trkpt>
      <trkpt lat="45.92627" lon="3.86595">
        <ele>891</ele>
        <time>2012-09-30T09:51:09Z</time>
      </trkpt>
      <trkpt lat="45.92638" lon="3.86601">
        <ele>891</ele>
        <time>2012-09-30T09:51:12Z</time>
      </trkpt>
      <trkpt lat="45.92648" lon="3.86606">
        <ele>892</ele>
        <time>2012-09-30T09:51:15Z</time>
      </trkpt>
      <trkpt lat="45.92659" lon="3.86608">
        <ele>891</ele>
        <time>2012-09-30T09:51:18Z</time>
      </trkpt>
      <trkpt lat="45.9267" lon="3.8661">
        <ele>891</ele>
        <time>2012-09-30T09:51:21Z</time>
      </trkpt>
      <trkpt lat="45.9268" lon="3.8661">
        <ele>890</ele>
        <time>2012-09-30T09:51:24Z</time>
      </trkpt>
      <trkpt lat="45.92691" lon="3.86612">
        <ele>890</ele>
        <time>2012-09-30T09:51:27Z</time>
      </trkpt>
      <trkpt lat="45.92702" lon="3.86614">
        <ele>891</ele>
        <time>2012-09-30T09:51:30Z</time>
      </trkpt>
      <trkpt lat="45.92716" lon="3.86615">
        <ele>891</ele>
        <time>2012-09-30T09:51:33Z</time>
      </trkpt>
      <trkpt lat="45.92726" lon="3.86617">
        <ele>891</ele>
        <time>2012-09-30T09:51:35Z</time>
      </trkpt>
      <trkpt lat="45.92736" lon="3.8662">
        <ele>892</ele>
        <time>2012-09-30T09:51:37Z</time>
      </trkpt>
      <trkpt lat="45.92746" lon="3.86625">
        <ele>892</ele>
        <time>2012-09-30T09:51:39Z</time>
      </trkpt>
      <trkpt lat="45.92756" lon="3.86629">
        <ele>891</ele>
        <time>2012-09-30T09:51:41Z</time>
      </trkpt>
      <trkpt lat="45.92766" lon="3.86637">
        <ele>890</ele>
        <time>2012-09-30T09:51:43Z</time>
      </trkpt>
      <trkpt lat="45.92776" lon="3.86643">
        <ele>889</ele>
        <time>2012-09-30T09:51:45Z</time>
      </trkpt>
      <trkpt lat="45.92787" lon="3.8665">
        <ele>889</ele>
        <time>2012-09-30T09:51:47Z</time>
      </trkpt>
      <trkpt lat="45.92799" lon="3.86659">
        <ele>888</ele>
        <time>2012-09-30T09:51:49Z</time>
      </trkpt>
      <trkpt lat="45.9281" lon="3.86668">
        <ele>888</ele>
        <time>2012-09-30T09:51:51Z</time>
      </trkpt>
      <trkpt lat="45.92822" lon="3.86677">
        <ele>887</ele>
        <time>2012-09-30T09:51:53Z</time>
      </trkpt>
      <trkpt lat="45.92835" lon="3.86687">
        <ele>887</ele>
        <time>2012-09-30T09:51:55Z</time>
      </trkpt>
      <trkpt lat="45.92846" lon="3.86697">
        <ele>886</ele>
        <time>2012-09-30T09:51:57Z</time>
      </trkpt>
      <trkpt lat="45.92858" lon="3.86708">
        <ele>885</ele>
        <time>2012-09-30T09:51:59Z</time>
      </trkpt>
      <trkpt lat="45.9287" lon="3.8672">
        <ele>885</ele>
        <time>2012-09-30T09:52:01Z</time>
      </trkpt>
      <trkpt lat="45.92881" lon="3.86732">
        <ele>884</ele>
        <time>2012-09-30T09:52:03Z</time>
      </trkpt>
      <trkpt lat="45.92892" lon="3.86745">
        <ele>884</ele>
        <time>2012-09-30T09:52:05Z</time>
      </trkpt>
      <trkpt lat="45.92904" lon="3.86758">
        <ele>883</ele>
        <time>2012-09-30T09:52:07Z</time>
      </trkpt>
      <trkpt lat="45.92915" lon="3.8677">
        <ele>882</ele>
        <time>2012-09-30T09:52:09Z</time>
      </trkpt>
      <trkpt lat="45.92927" lon="3.86781">
        <ele>881</ele>
        <time>2012-09-30T09:52:11Z</time>
      </trkpt>
      <trkpt lat="45.92938" lon="3.86792">
        <ele>881</ele>
        <time>2012-09-30T09:52:13Z</time>
      </trkpt>
      <trkpt lat="45.92949" lon="3.86802">
        <ele>881</ele>
        <time>2012-09-30T09:52:15Z</time>
      </trkpt>
      <trkpt lat="45.92961" lon="3.86813">
        <ele>880</ele>
        <time>2012-09-30T09:52:17Z</time>
      </trkpt>
      <trkpt lat="45.92973" lon="3.86823">
        <ele>880</ele>
        <time>2012-09-30T09:52:19Z</time>
      </trkpt>
      <trkpt lat="45.92983" lon="3.86832">
        <ele>879</ele>
        <time>2012-09-30T09:52:21Z</time>
      </trkpt>
      <trkpt lat="45.92993" lon="3.8684">
        <ele>879</ele>
        <time>2012-09-30T09:52:23Z</time>
      </trkpt>
      <trkpt lat="45.93003" lon="3.86846">
        <ele>879</ele>
        <time>2012-09-30T09:52:25Z</time>
      </trkpt>
      <trkpt lat="45.93012" lon="3.86851">
        <ele>878</ele>
        <time>2012-09-30T09:52:27Z</time>
      </trkpt>
      <trkpt lat="45.93021" lon="3.86855">
        <ele>878</ele>
        <time>2012-09-30T09:52:29Z</time>
      </trkpt>
      <trkpt lat="45.93033" lon="3.86864">
        <ele>877</ele>
        <time>2012-09-30T09:52:32Z</time>
      </trkpt>
      <trkpt lat="45.93045" lon="3.86873">
        <ele>877</ele>
        <time>2012-09-30T09:52:35Z</time>
      </trkpt>
      <trkpt lat="45.93054" lon="3.86878">
        <ele>877</ele>
        <time>2012-09-30T09:52:37Z</time>
      </trkpt>
      <trkpt lat="45.93063" lon="3.86884">
        <ele>877</ele>
        <time>2012-09-30T09:52:39Z</time>
      </trkpt>
      <trkpt lat="45.93074" lon="3.86889">
        <ele>877</ele>
        <time>2012-09-30T09:52:41Z</time>
      </trkpt>
      <trkpt lat="45.93084" lon="3.86892">
        <ele>877</ele>
        <time>2012-09-30T09:52:43Z</time>
      </trkpt>
      <trkpt lat="45.93095" lon="3.86895">
        <ele>877</ele>
        <time>2012-09-30T09:52:45Z</time>
      </trkpt>
      <trkpt lat="45.93106" lon="3.86894">
        <ele>878</ele>
        <time>2012-09-30T09:52:47Z</time>
      </trkpt>
      <trkpt lat="45.93115" lon="3.8689">
        <ele>878</ele>
        <time>2012-09-30T09:52:49Z</time>
      </trkpt>
      <trkpt lat="45.93125" lon="3.86887">
        <ele>879</ele>
        <time>2012-09-30T09:52:51Z</time>
      </trkpt>
      <trkpt lat="45.93135" lon="3.86887">
        <ele>879</ele>
        <time>2012-09-30T09:52:53Z</time>
      </trkpt>
      <trkpt lat="45.93146" lon="3.86891">
        <ele>879</ele>
        <time>2012-09-30T09:52:55Z</time>
      </trkpt>
      <trkpt lat="45.93157" lon="3.86894">
        <ele>878</ele>
        <time>2012-09-30T09:52:57Z</time>
      </trkpt>
      <trkpt lat="45.93168" lon="3.86895">
        <ele>878</ele>
        <time>2012-09-30T09:52:59Z</time>
      </trkpt>
      <trkpt lat="45.93181" lon="3.86896">
        <ele>879</ele>
        <time>2012-09-30T09:53:01Z</time>
      </trkpt>
      <trkpt lat="45.93196" lon="3.86896">
        <ele>879</ele>
        <time>2012-09-30T09:53:03Z</time>
      </trkpt>
      <trkpt lat="45.93211" lon="3.86897">
        <ele>879</ele>
        <time>2012-09-30T09:53:05Z</time>
      </trkpt>
      <trkpt lat="45.93226" lon="3.86898">
        <ele>878</ele>
        <time>2012-09-30T09:53:07Z</time>
      </trkpt>
      <trkpt lat="45.93242" lon="3.86902">
        <ele>877</ele>
        <time>2012-09-30T09:53:09Z</time>
      </trkpt>
      <trkpt lat="45.93252" lon="3.86904">
        <ele>877</ele>
        <time>2012-09-30T09:53:10Z</time>
      </trkpt>
      <trkpt lat="45.93262" lon="3.86905">
        <ele>877</ele>
        <time>2012-09-30T09:53:11Z</time>
      </trkpt>
      <trkpt lat="45.93273" lon="3.86907">
        <ele>877</ele>
        <time>2012-09-30T09:53:12Z</time>
      </trkpt>
      <trkpt lat="45.93283" lon="3.86909">
        <ele>877</ele>
        <time>2012-09-30T09:53:13Z</time>
      </trkpt>
      <trkpt lat="45.93293" lon="3.8691">
        <ele>877</ele>
        <time>2012-09-30T09:53:14Z</time>
      </trkpt>
      <trkpt lat="45.93302" lon="3.86911">
        <ele>876</ele>
        <time>2012-09-30T09:53:15Z</time>
      </trkpt>
      <trkpt lat="45.93312" lon="3.86911">
        <ele>876</ele>
        <time>2012-09-30T09:53:16Z</time>
      </trkpt>
      <trkpt lat="45.93321" lon="3.86912">
        <ele>876</ele>
        <time>2012-09-30T09:53:17Z</time>
      </trkpt>
      <trkpt lat="45.93331" lon="3.86913">
        <ele>876</ele>
        <time>2012-09-30T09:53:18Z</time>
      </trkpt>
      <trkpt lat="45.93341" lon="3.86915">
        <ele>875</ele>
        <time>2012-09-30T09:53:19Z</time>
      </trkpt>
      <trkpt lat="45.93351" lon="3.86916">
        <ele>875</ele>
        <time>2012-09-30T09:53:20Z</time>
      </trkpt>
      <trkpt lat="45.93361" lon="3.86917">
        <ele>875</ele>
        <time>2012-09-30T09:53:21Z</time>
      </trkpt>
      <trkpt lat="45.9337" lon="3.86918">
        <ele>874</ele>
        <time>2012-09-30T09:53:22Z</time>
      </trkpt>
      <trkpt lat="45.93387" lon="3.86918">
        <ele>874</ele>
        <time>2012-09-30T09:53:24Z</time>
      </trkpt>
      <trkpt lat="45.93405" lon="3.86919">
        <ele>874</ele>
        <time>2012-09-30T09:53:26Z</time>
      </trkpt>
      <trkpt lat="45.93414" lon="3.8692">
        <ele>874</ele>
        <time>2012-09-30T09:53:27Z</time>
      </trkpt>
      <trkpt lat="45.93429" lon="3.86924">
        <ele>874</ele>
        <time>2012-09-30T09:53:29Z</time>
      </trkpt>
      <trkpt lat="45.93438" lon="3.86925">
        <ele>875</ele>
        <time>2012-09-30T09:53:30Z</time>
      </trkpt>
      <trkpt lat="45.93453" lon="3.86927">
        <ele>875</ele>
        <time>2012-09-30T09:53:32Z</time>
      </trkpt>
      <trkpt lat="45.93467" lon="3.86928">
        <ele>876</ele>
        <time>2012-09-30T09:53:34Z</time>
      </trkpt>
      <trkpt lat="45.9348" lon="3.86928">
        <ele>876</ele>
        <time>2012-09-30T09:53:36Z</time>
      </trkpt>
      <trkpt lat="45.93493" lon="3.86925">
        <ele>875</ele>
        <time>2012-09-30T09:53:38Z</time>
      </trkpt>
      <trkpt lat="45.93512" lon="3.86926">
        <ele>875</ele>
        <time>2012-09-30T09:54:20Z</time>
      </trkpt>
      <trkpt lat="45.93471" lon="3.87621">
        <ele>826.9</ele>
        <time>2012-09-30T09:57:18Z</time>
      </trkpt>
      <trkpt lat="45.93471" lon="3.87626">
        <ele>877</ele>
        <time>2012-09-30T09:57:56Z</time>
      </trkpt>
      <trkpt lat="45.93502" lon="3.87608">
        <ele>876</ele>
        <time>2012-09-30T09:58:13Z</time>
      </trkpt>
      <trkpt lat="45.93616" lon="3.8764">
        <ele>840.1</ele>
        <time>2012-09-30T09:59:06Z</time>
      </trkpt>
      <trkpt lat="45.93915" lon="3.87904">
        <ele>879</ele>
        <time>2012-09-30T10:01:21Z</time>
      </trkpt>
      <trkpt lat="45.93964" lon="3.87902">
        <ele>879</ele>
        <time>2012-09-30T10:01:32Z</time>
      </trkpt>
      <trkpt lat="45.93995" lon="3.87891">
        <ele>882</ele>
        <time>2012-09-30T10:01:47Z</time>
      </trkpt>
      <trkpt lat="45.94023" lon="3.87884">
        <ele>882</ele>
        <time>2012-09-30T10:01:58Z</time>
      </trkpt>
      <trkpt lat="45.94053" lon="3.8788">
        <ele>883</ele>
        <time>2012-09-30T10:02:14Z</time>
      </trkpt>
      <trkpt lat="45.94096" lon="3.88238">
        <ele>884</ele>
        <time>2012-09-30T10:03:09Z</time>
      </trkpt>
      <trkpt lat="45.94041" lon="3.88632">
        <ele>883</ele>
        <time>2012-09-30T10:03:45Z</time>
      </trkpt>
      <trkpt lat="45.93982" lon="3.8882">
        <ele>835.2</ele>
        <time>2012-09-30T10:03:56Z</time>
      </trkpt>
      <trkpt lat="45.93839" lon="3.89206">
        <ele>818.5</ele>
        <time>2012-09-30T10:04:35Z</time>
      </trkpt>
      <trkpt lat="45.93857" lon="3.89479">
        <ele>812.4</ele>
        <time>2012-09-30T10:05:00Z</time>
      </trkpt>
      <trkpt lat="45.93854" lon="3.89572">
        <ele>808.8</ele>
        <time>2012-09-30T10:05:13Z</time>
      </trkpt>
      <trkpt lat="45.93766" lon="3.89919">
        <ele>879</ele>
        <time>2012-09-30T10:05:48Z</time>
      </trkpt>
      <trkpt lat="45.93748" lon="3.89981">
        <ele>793.1</ele>
        <time>2012-09-30T10:06:02Z</time>
      </trkpt>
      <trkpt lat="45.93882" lon="3.90171">
        <ele>877</ele>
        <time>2012-09-30T10:06:53Z</time>
      </trkpt>
      <trkpt lat="45.93845" lon="3.90211">
        <ele>878</ele>
        <time>2012-09-30T10:07:28Z</time>
      </trkpt>
      <trkpt lat="45.93932" lon="3.90455">
        <ele>818.2</ele>
        <time>2012-09-30T10:08:40Z</time>
      </trkpt>
      <trkpt lat="45.93941" lon="3.90499">
        <ele>880</ele>
        <time>2012-09-30T10:08:56Z</time>
      </trkpt>
      <trkpt lat="45.93913" lon="3.90524">
        <ele>879</ele>
        <time>2012-09-30T10:09:05Z</time>
      </trkpt>
      <trkpt lat="45.93906" lon="3.90534">
        <ele>877</ele>
        <time>2012-09-30T10:09:08Z</time>
      </trkpt>
      <trkpt lat="45.93899" lon="3.90546">
        <ele>876</ele>
        <time>2012-09-30T10:09:12Z</time>
      </trkpt>
      <trkpt lat="45.93885" lon="3.90583">
        <ele>877</ele>
        <time>2012-09-30T10:09:24Z</time>
      </trkpt>
      <trkpt lat="45.9388" lon="3.90601">
        <ele>878</ele>
        <time>2012-09-30T10:09:28Z</time>
      </trkpt>
      <trkpt lat="45.93874" lon="3.90643">
        <ele>878</ele>
        <time>2012-09-30T10:09:34Z</time>
      </trkpt>
      <trkpt lat="45.93872" lon="3.90687">
        <ele>877</ele>
        <time>2012-09-30T10:09:38Z</time>
      </trkpt>
      <trkpt lat="45.93873" lon="3.90727">
        <ele>876</ele>
        <time>2012-09-30T10:09:41Z</time>
      </trkpt>
      <trkpt lat="45.93873" lon="3.90773">
        <ele>874</ele>
        <time>2012-09-30T10:09:44Z</time>
      </trkpt>
      <trkpt lat="45.93874" lon="3.90789">
        <ele>873</ele>
        <time>2012-09-30T10:09:45Z</time>
      </trkpt>
      <trkpt lat="45.93874" lon="3.90803">
        <ele>871</ele>
        <time>2012-09-30T10:09:46Z</time>
      </trkpt>
      <trkpt lat="45.93876" lon="3.90827">
        <ele>869</ele>
        <time>2012-09-30T10:09:48Z</time>
      </trkpt>
      <trkpt lat="45.93877" lon="3.90848">
        <ele>868</ele>
        <time>2012-09-30T10:09:50Z</time>
      </trkpt>
      <trkpt lat="45.93878" lon="3.90869">
        <ele>866</ele>
        <time>2012-09-30T10:09:52Z</time>
      </trkpt>
      <trkpt lat="45.93878" lon="3.90894">
        <ele>865</ele>
        <time>2012-09-30T10:09:54Z</time>
      </trkpt>
      <trkpt lat="45.93876" lon="3.9094">
        <ele>865</ele>
        <time>2012-09-30T10:09:58Z</time>
      </trkpt>
      <trkpt lat="45.93873" lon="3.91006">
        <ele>864</ele>
        <time>2012-09-30T10:10:05Z</time>
      </trkpt>
      <trkpt lat="45.93871" lon="3.91046">
        <ele>862</ele>
        <time>2012-09-30T10:10:10Z</time>
      </trkpt>
      <trkpt lat="45.93875" lon="3.9109">
        <ele>859</ele>
        <time>2012-09-30T10:10:17Z</time>
      </trkpt>
      <trkpt lat="45.9388" lon="3.91117">
        <ele>854</ele>
        <time>2012-09-30T10:10:23Z</time>
      </trkpt>
      <trkpt lat="45.93883" lon="3.9113">
        <ele>849</ele>
        <time>2012-09-30T10:10:27Z</time>
      </trkpt>
      <trkpt lat="45.93891" lon="3.91169">
        <ele>840</ele>
        <time>2012-09-30T10:10:43Z</time>
      </trkpt>
      <trkpt lat="45.93895" lon="3.9119">
        <ele>836</ele>
        <time>2012-09-30T10:10:50Z</time>
      </trkpt>
      <trkpt lat="45.93898" lon="3.91204">
        <ele>834</ele>
        <time>2012-09-30T10:10:56Z</time>
      </trkpt>
      <trkpt lat="45.939" lon="3.91222">
        <ele>835</ele>
        <time>2012-09-30T10:11:01Z</time>
      </trkpt>
      <trkpt lat="45.93902" lon="3.91236">
        <ele>838</ele>
        <time>2012-09-30T10:11:05Z</time>
      </trkpt>
      <trkpt lat="45.93903" lon="3.9125">
        <ele>840</ele>
        <time>2012-09-30T10:11:09Z</time>
      </trkpt>
      <trkpt lat="45.93899" lon="3.91265">
        <ele>843</ele>
        <time>2012-09-30T10:11:13Z</time>
      </trkpt>
      <trkpt lat="45.93885" lon="3.91292">
        <ele>845</ele>
        <time>2012-09-30T10:11:19Z</time>
      </trkpt>
      <trkpt lat="45.93881" lon="3.91305">
        <ele>848</ele>
        <time>2012-09-30T10:11:22Z</time>
      </trkpt>
      <trkpt lat="45.93879" lon="3.91318">
        <ele>849</ele>
        <time>2012-09-30T10:11:25Z</time>
      </trkpt>
      <trkpt lat="45.93877" lon="3.91331">
        <ele>849</ele>
        <time>2012-09-30T10:11:28Z</time>
      </trkpt>
      <trkpt lat="45.93874" lon="3.91352">
        <ele>848</ele>
        <time>2012-09-30T10:11:34Z</time>
      </trkpt>
      <trkpt lat="45.93872" lon="3.91365">
        <ele>849</ele>
        <time>2012-09-30T10:11:38Z</time>
      </trkpt>
      <trkpt lat="45.93871" lon="3.9138">
        <ele>849</ele>
        <time>2012-09-30T10:11:43Z</time>
      </trkpt>
      <trkpt lat="45.93873" lon="3.91408">
        <ele>849</ele>
        <time>2012-09-30T10:11:50Z</time>
      </trkpt>
      <trkpt lat="45.93878" lon="3.91448">
        <ele>850</ele>
        <time>2012-09-30T10:11:59Z</time>
      </trkpt>
      <trkpt lat="45.93888" lon="3.91484">
        <ele>850</ele>
        <time>2012-09-30T10:12:06Z</time>
      </trkpt>
      <trkpt lat="45.93905" lon="3.91521">
        <ele>850</ele>
        <time>2012-09-30T10:12:15Z</time>
      </trkpt>
      <trkpt lat="45.93913" lon="3.91528">
        <ele>849</ele>
        <time>2012-09-30T10:12:17Z</time>
      </trkpt>
      <trkpt lat="45.93926" lon="3.91532">
        <ele>849</ele>
        <time>2012-09-30T10:12:20Z</time>
      </trkpt>
      <trkpt lat="45.93945" lon="3.91535">
        <ele>849</ele>
        <time>2012-09-30T10:12:24Z</time>
      </trkpt>
      <trkpt lat="45.93956" lon="3.91537">
        <ele>849</ele>
        <time>2012-09-30T10:12:26Z</time>
      </trkpt>
      <trkpt lat="45.93983" lon="3.91549">
        <ele>849</ele>
        <time>2012-09-30T10:12:31Z</time>
      </trkpt>
      <trkpt lat="45.94008" lon="3.91568">
        <ele>849</ele>
        <time>2012-09-30T10:12:35Z</time>
      </trkpt>
      <trkpt lat="45.94022" lon="3.91579">
        <ele>850</ele>
        <time>2012-09-30T10:12:37Z</time>
      </trkpt>
      <trkpt lat="45.94036" lon="3.91589">
        <ele>850</ele>
        <time>2012-09-30T10:12:39Z</time>
      </trkpt>
      <trkpt lat="45.94067" lon="3.91615">
        <ele>851</ele>
        <time>2012-09-30T10:12:43Z</time>
      </trkpt>
      <trkpt lat="45.94091" lon="3.91634">
        <ele>851</ele>
        <time>2012-09-30T10:12:46Z</time>
      </trkpt>
      <trkpt lat="45.9412" lon="3.91658">
        <ele>851</ele>
        <time>2012-09-30T10:12:50Z</time>
      </trkpt>
      <trkpt lat="45.94161" lon="3.91692">
        <ele>850</ele>
        <time>2012-09-30T10:12:56Z</time>
      </trkpt>
      <trkpt lat="45.94189" lon="3.91715">
        <ele>849</ele>
        <time>2012-09-30T10:13:00Z</time>
      </trkpt>
      <trkpt lat="45.94212" lon="3.91735">
        <ele>847</ele>
        <time>2012-09-30T10:13:04Z</time>
      </trkpt>
      <trkpt lat="45.94231" lon="3.91767">
        <ele>844</ele>
        <time>2012-09-30T10:13:09Z</time>
      </trkpt>
      <trkpt lat="45.94253" lon="3.91811">
        <ele>843</ele>
        <time>2012-09-30T10:13:15Z</time>
      </trkpt>
      <trkpt lat="45.94271" lon="3.91846">
        <ele>844</ele>
        <time>2012-09-30T10:13:20Z</time>
      </trkpt>
      <trkpt lat="45.94279" lon="3.91859">
        <ele>846</ele>
        <time>2012-09-30T10:13:23Z</time>
      </trkpt>
      <trkpt lat="45.94287" lon="3.9187">
        <ele>847</ele>
        <time>2012-09-30T10:13:25Z</time>
      </trkpt>
      <trkpt lat="45.94295" lon="3.91883">
        <ele>847</ele>
        <time>2012-09-30T10:13:28Z</time>
      </trkpt>
      <trkpt lat="45.94298" lon="3.91896">
        <ele>848</ele>
        <time>2012-09-30T10:13:35Z</time>
      </trkpt>
      <trkpt lat="45.94299" lon="3.9191">
        <ele>850</ele>
        <time>2012-09-30T10:13:42Z</time>
      </trkpt>
      <trkpt lat="45.94288" lon="3.9191">
        <ele>855</ele>
        <time>2012-09-30T10:15:08Z</time>
      </trkpt>
      <trkpt lat="45.94279" lon="3.91916">
        <ele>825</ele>
        <time>2012-09-30T10:30:40Z</time>
      </trkpt>
      <trkpt lat="45.9426" lon="3.91916">
        <ele>824</ele>
        <time>2012-09-30T10:32:00Z</time>
      </trkpt>
      <trkpt lat="45.94265" lon="3.91929">
        <ele>820</ele>
        <time>2012-09-30T10:32:31Z</time>
      </trkpt>
      <trkpt lat="45.94269" lon="3.91943">
        <ele>821</ele>
        <time>2012-09-30T10:32:35Z</time>
      </trkpt>
      <trkpt lat="45.94268" lon="3.91957">
        <ele>823</ele>
        <time>2012-09-30T10:32:39Z</time>
      </trkpt>
      <trkpt lat="45.94264" lon="3.9197">
        <ele>825</ele>
        <time>2012-09-30T10:32:42Z</time>
      </trkpt>
      <trkpt lat="45.94258" lon="3.91981">
        <ele>827</ele>
        <time>2012-09-30T10:32:45Z</time>
      </trkpt>
      <trkpt lat="45.94252" lon="3.91997">
        <ele>830</ele>
        <time>2012-09-30T10:32:49Z</time>
      </trkpt>
      <trkpt lat="45.94246" lon="3.9201">
        <ele>832</ele>
        <time>2012-09-30T10:32:52Z</time>
      </trkpt>
      <trkpt lat="45.94241" lon="3.92021">
        <ele>834</ele>
        <time>2012-09-30T10:32:55Z</time>
      </trkpt>
      <trkpt lat="45.94232" lon="3.92032">
        <ele>838</ele>
        <time>2012-09-30T10:33:02Z</time>
      </trkpt>
      <trkpt lat="45.94226" lon="3.92038">
        <ele>834</ele>
        <time>2012-09-30T10:33:26Z</time>
      </trkpt>
      <trkpt lat="45.94223" lon="3.92042">
        <ele>809</ele>
        <time>2012-09-30T10:35:33Z</time>
      </trkpt>
      <trkpt lat="45.94213" lon="3.92054">
        <ele>812</ele>
        <time>2012-09-30T10:36:02Z</time>
      </trkpt>
      <trkpt lat="45.94202" lon="3.92056">
        <ele>815</ele>
        <time>2012-09-30T10:36:06Z</time>
      </trkpt>
      <trkpt lat="45.94191" lon="3.92051">
        <ele>818</ele>
        <time>2012-09-30T10:36:09Z</time>
      </trkpt>
      <trkpt lat="45.94179" lon="3.92044">
        <ele>819</ele>
        <time>2012-09-30T10:36:12Z</time>
      </trkpt>
      <trkpt lat="45.94169" lon="3.92037">
        <ele>821</ele>
        <time>2012-09-30T10:36:15Z</time>
      </trkpt>
      <trkpt lat="45.9416" lon="3.9203">
        <ele>822</ele>
        <time>2012-09-30T10:36:18Z</time>
      </trkpt>
      <trkpt lat="45.94151" lon="3.92021">
        <ele>822</ele>
        <time>2012-09-30T10:36:21Z</time>
      </trkpt>
      <trkpt lat="45.94142" lon="3.92012">
        <ele>823</ele>
        <time>2012-09-30T10:36:24Z</time>
      </trkpt>
      <trkpt lat="45.94131" lon="3.91998">
        <ele>823</ele>
        <time>2012-09-30T10:36:27Z</time>
      </trkpt>
      <trkpt lat="45.94122" lon="3.91985">
        <ele>823</ele>
        <time>2012-09-30T10:36:29Z</time>
      </trkpt>
      <trkpt lat="45.94111" lon="3.91969">
        <ele>823</ele>
        <time>2012-09-30T10:36:31Z</time>
      </trkpt>
      <trkpt lat="45.94099" lon="3.91957">
        <ele>823</ele>
        <time>2012-09-30T10:36:33Z</time>
      </trkpt>
      <trkpt lat="45.94086" lon="3.91947">
        <ele>822</ele>
        <time>2012-09-30T10:36:35Z</time>
      </trkpt>
      <trkpt lat="45.94071" lon="3.91932">
        <ele>822</ele>
        <time>2012-09-30T10:36:37Z</time>
      </trkpt>
      <trkpt lat="45.94062" lon="3.91923">
        <ele>822</ele>
        <time>2012-09-30T10:36:38Z</time>
      </trkpt>
      <trkpt lat="45.94046" lon="3.91911">
        <ele>822</ele>
        <time>2012-09-30T10:36:40Z</time>
      </trkpt>
      <trkpt lat="45.94033" lon="3.919">
        <ele>821</ele>
        <time>2012-09-30T10:36:42Z</time>
      </trkpt>
      <trkpt lat="45.9402" lon="3.91889">
        <ele>821</ele>
        <time>2012-09-30T10:36:44Z</time>
      </trkpt>
      <trkpt lat="45.94008" lon="3.91878">
        <ele>820</ele>
        <time>2012-09-30T10:36:46Z</time>
      </trkpt>
      <trkpt lat="45.94" lon="3.9187">
        <ele>821</ele>
        <time>2012-09-30T10:36:47Z</time>
      </trkpt>
      <trkpt lat="45.9399" lon="3.91864">
        <ele>821</ele>
        <time>2012-09-30T10:36:49Z</time>
      </trkpt>
      <trkpt lat="45.93979" lon="3.91861">
        <ele>822</ele>
        <time>2012-09-30T10:36:52Z</time>
      </trkpt>
      <trkpt lat="45.93967" lon="3.91854">
        <ele>822</ele>
        <time>2012-09-30T10:36:55Z</time>
      </trkpt>
      <trkpt lat="45.93957" lon="3.91843">
        <ele>822</ele>
        <time>2012-09-30T10:36:59Z</time>
      </trkpt>
      <trkpt lat="45.93947" lon="3.91838">
        <ele>821</ele>
        <time>2012-09-30T10:37:13Z</time>
      </trkpt>
      <trkpt lat="45.93937" lon="3.91835">
        <ele>821</ele>
        <time>2012-09-30T10:37:16Z</time>
      </trkpt>
      <trkpt lat="45.93926" lon="3.91829">
        <ele>822</ele>
        <time>2012-09-30T10:37:20Z</time>
      </trkpt>
      <trkpt lat="45.93916" lon="3.91829">
        <ele>822</ele>
        <time>2012-09-30T10:37:23Z</time>
      </trkpt>
      <trkpt lat="45.93906" lon="3.91824">
        <ele>823</ele>
        <time>2012-09-30T10:37:34Z</time>
      </trkpt>
      <trkpt lat="45.93897" lon="3.91823">
        <ele>824</ele>
        <time>2012-09-30T10:37:38Z</time>
      </trkpt>
      <trkpt lat="45.93885" lon="3.91822">
        <ele>825</ele>
        <time>2012-09-30T10:37:41Z</time>
      </trkpt>
      <trkpt lat="45.93873" lon="3.91817">
        <ele>826</ele>
        <time>2012-09-30T10:37:46Z</time>
      </trkpt>
      <trkpt lat="45.93863" lon="3.91811">
        <ele>827</ele>
        <time>2012-09-30T10:37:52Z</time>
      </trkpt>
      <trkpt lat="45.93852" lon="3.91809">
        <ele>826</ele>
        <time>2012-09-30T10:37:56Z</time>
      </trkpt>
      <trkpt lat="45.93842" lon="3.91804">
        <ele>825</ele>
        <time>2012-09-30T10:38:00Z</time>
      </trkpt>
      <trkpt lat="45.93833" lon="3.918">
        <ele>824</ele>
        <time>2012-09-30T10:38:03Z</time>
      </trkpt>
      <trkpt lat="45.93825" lon="3.91793">
        <ele>823</ele>
        <time>2012-09-30T10:38:06Z</time>
      </trkpt>
      <trkpt lat="45.93815" lon="3.91795">
        <ele>823</ele>
        <time>2012-09-30T10:38:08Z</time>
      </trkpt>
      <trkpt lat="45.93806" lon="3.91798">
        <ele>822</ele>
        <time>2012-09-30T10:38:10Z</time>
      </trkpt>
      <trkpt lat="45.93795" lon="3.91798">
        <ele>822</ele>
        <time>2012-09-30T10:38:12Z</time>
      </trkpt>
      <trkpt lat="45.93782" lon="3.91798">
        <ele>821</ele>
        <time>2012-09-30T10:38:14Z</time>
      </trkpt>
      <trkpt lat="45.9377" lon="3.91795">
        <ele>821</ele>
        <time>2012-09-30T10:38:16Z</time>
      </trkpt>
      <trkpt lat="45.93755" lon="3.91788">
        <ele>821</ele>
        <time>2012-09-30T10:38:18Z</time>
      </trkpt>
      <trkpt lat="45.93745" lon="3.91786">
        <ele>821</ele>
        <time>2012-09-30T10:38:19Z</time>
      </trkpt>
      <trkpt lat="45.93727" lon="3.91784">
        <ele>820</ele>
        <time>2012-09-30T10:38:21Z</time>
      </trkpt>
      <trkpt lat="45.93718" lon="3.91783">
        <ele>820</ele>
        <time>2012-09-30T10:38:22Z</time>
      </trkpt>
      <trkpt lat="45.93699" lon="3.91784">
        <ele>820</ele>
        <time>2012-09-30T10:38:24Z</time>
      </trkpt>
      <trkpt lat="45.93682" lon="3.91786">
        <ele>821</ele>
        <time>2012-09-30T10:38:26Z</time>
      </trkpt>
      <trkpt lat="45.93672" lon="3.91786">
        <ele>821</ele>
        <time>2012-09-30T10:38:27Z</time>
      </trkpt>
      <trkpt lat="45.93663" lon="3.91788">
        <ele>821</ele>
        <time>2012-09-30T10:38:28Z</time>
      </trkpt>
      <trkpt lat="45.93653" lon="3.91788">
        <ele>821</ele>
        <time>2012-09-30T10:38:29Z</time>
      </trkpt>
      <trkpt lat="45.93637" lon="3.9179">
        <ele>820</ele>
        <time>2012-09-30T10:38:31Z</time>
      </trkpt>
      <trkpt lat="45.9362" lon="3.91793">
        <ele>817</ele>
        <time>2012-09-30T10:38:33Z</time>
      </trkpt>
      <trkpt lat="45.93605" lon="3.91801">
        <ele>813</ele>
        <time>2012-09-30T10:38:35Z</time>
      </trkpt>
      <trkpt lat="45.93594" lon="3.91806">
        <ele>810</ele>
        <time>2012-09-30T10:38:37Z</time>
      </trkpt>
      <trkpt lat="45.93584" lon="3.91815">
        <ele>804</ele>
        <time>2012-09-30T10:38:40Z</time>
      </trkpt>
      <trkpt lat="45.9357" lon="3.91836">
        <ele>798</ele>
        <time>2012-09-30T10:38:44Z</time>
      </trkpt>
      <trkpt lat="45.93561" lon="3.91849">
        <ele>794</ele>
        <time>2012-09-30T10:38:47Z</time>
      </trkpt>
      <trkpt lat="45.93549" lon="3.91856">
        <ele>789</ele>
        <time>2012-09-30T10:38:50Z</time>
      </trkpt>
      <trkpt lat="45.93537" lon="3.91862">
        <ele>785</ele>
        <time>2012-09-30T10:38:53Z</time>
      </trkpt>
      <trkpt lat="45.93526" lon="3.91869">
        <ele>782</ele>
        <time>2012-09-30T10:38:56Z</time>
      </trkpt>
      <trkpt lat="45.93517" lon="3.91878">
        <ele>779</ele>
        <time>2012-09-30T10:38:59Z</time>
      </trkpt>
      <trkpt lat="45.93509" lon="3.91884">
        <ele>776</ele>
        <time>2012-09-30T10:39:02Z</time>
      </trkpt>
      <trkpt lat="45.93501" lon="3.91892">
        <ele>774</ele>
        <time>2012-09-30T10:39:05Z</time>
      </trkpt>
      <trkpt lat="45.93492" lon="3.91903">
        <ele>770</ele>
        <time>2012-09-30T10:39:09Z</time>
      </trkpt>
      <trkpt lat="45.93488" lon="3.91907">
        <ele>768</ele>
        <time>2012-09-30T10:39:11Z</time>
      </trkpt>
      <trkpt lat="45.93484" lon="3.91912">
        <ele>766</ele>
        <time>2012-09-30T10:39:13Z</time>
      </trkpt>
      <trkpt lat="45.9348" lon="3.91916">
        <ele>765</ele>
        <time>2012-09-30T10:39:15Z</time>
      </trkpt>
      <trkpt lat="45.93476" lon="3.9192">
        <ele>764</ele>
        <time>2012-09-30T10:39:17Z</time>
      </trkpt>
      <trkpt lat="45.93471" lon="3.91924">
        <ele>764</ele>
        <time>2012-09-30T10:39:19Z</time>
      </trkpt>
      <trkpt lat="45.93467" lon="3.91928">
        <ele>763</ele>
        <time>2012-09-30T10:39:21Z</time>
      </trkpt>
      <trkpt lat="45.93463" lon="3.91932">
        <ele>762</ele>
        <time>2012-09-30T10:39:23Z</time>
      </trkpt>
      <trkpt lat="45.93457" lon="3.91937">
        <ele>761</ele>
        <time>2012-09-30T10:39:26Z</time>
      </trkpt>
      <trkpt lat="45.93451" lon="3.9194">
        <ele>760</ele>
        <time>2012-09-30T10:39:29Z</time>
      </trkpt>
      <trkpt lat="45.93445" lon="3.91944">
        <ele>760</ele>
        <time>2012-09-30T10:39:32Z</time>
      </trkpt>
      <trkpt lat="45.93438" lon="3.91948">
        <ele>760</ele>
        <time>2012-09-30T10:39:35Z</time>
      </trkpt>
      <trkpt lat="45.93432" lon="3.91951">
        <ele>760</ele>
        <time>2012-09-30T10:39:38Z</time>
      </trkpt>
      <trkpt lat="45.93427" lon="3.91956">
        <ele>760</ele>
        <time>2012-09-30T10:39:41Z</time>
      </trkpt>
      <trkpt lat="45.93423" lon="3.91959">
        <ele>761</ele>
        <time>2012-09-30T10:39:43Z</time>
      </trkpt>
      <trkpt lat="45.93417" lon="3.91964">
        <ele>761</ele>
        <time>2012-09-30T10:39:46Z</time>
      </trkpt>
      <trkpt lat="45.93409" lon="3.91969">
        <ele>762</ele>
        <time>2012-09-30T10:39:50Z</time>
      </trkpt>
      <trkpt lat="45.93405" lon="3.91971">
        <ele>762</ele>
        <time>2012-09-30T10:39:52Z</time>
      </trkpt>
      <trkpt lat="45.93399" lon="3.91974">
        <ele>763</ele>
        <time>2012-09-30T10:39:55Z</time>
      </trkpt>
      <trkpt lat="45.934" lon="3.9198">
        <ele>764</ele>
        <time>2012-09-30T10:39:58Z</time>
      </trkpt>
      <trkpt lat="45.93408" lon="3.91989">
        <ele>764</ele>
        <time>2012-09-30T10:40:01Z</time>
      </trkpt>
      <trkpt lat="45.93413" lon="3.92003">
        <ele>764</ele>
        <time>2012-09-30T10:40:04Z</time>
      </trkpt>
      <trkpt lat="45.9342" lon="3.92012">
        <ele>764</ele>
        <time>2012-09-30T10:40:06Z</time>
      </trkpt>
      <trkpt lat="45.93426" lon="3.92022">
        <ele>764</ele>
        <time>2012-09-30T10:40:08Z</time>
      </trkpt>
      <trkpt lat="45.93433" lon="3.92031">
        <ele>763</ele>
        <time>2012-09-30T10:40:10Z</time>
      </trkpt>
      <trkpt lat="45.93441" lon="3.92041">
        <ele>763</ele>
        <time>2012-09-30T10:40:12Z</time>
      </trkpt>
      <trkpt lat="45.93448" lon="3.92052">
        <ele>763</ele>
        <time>2012-09-30T10:40:14Z</time>
      </trkpt>
      <trkpt lat="45.93455" lon="3.92061">
        <ele>762</ele>
        <time>2012-09-30T10:40:16Z</time>
      </trkpt>
      <trkpt lat="45.93462" lon="3.92072">
        <ele>761</ele>
        <time>2012-09-30T10:40:18Z</time>
      </trkpt>
      <trkpt lat="45.93469" lon="3.92085">
        <ele>761</ele>
        <time>2012-09-30T10:40:20Z</time>
      </trkpt>
      <trkpt lat="45.93475" lon="3.92098">
        <ele>761</ele>
        <time>2012-09-30T10:40:22Z</time>
      </trkpt>
      <trkpt lat="45.9348" lon="3.92113">
        <ele>761</ele>
        <time>2012-09-30T10:40:24Z</time>
      </trkpt>
      <trkpt lat="45.93486" lon="3.92131">
        <ele>760</ele>
        <time>2012-09-30T10:40:26Z</time>
      </trkpt>
      <trkpt lat="45.93491" lon="3.92149">
        <ele>760</ele>
        <time>2012-09-30T10:40:28Z</time>
      </trkpt>
      <trkpt lat="45.93495" lon="3.92166">
        <ele>760</ele>
        <time>2012-09-30T10:40:30Z</time>
      </trkpt>
      <trkpt lat="45.93494" lon="3.92185">
        <ele>759</ele>
        <time>2012-09-30T10:40:32Z</time>
      </trkpt>
      <trkpt lat="45.93492" lon="3.92205">
        <ele>759</ele>
        <time>2012-09-30T10:40:34Z</time>
      </trkpt>
      <trkpt lat="45.9349" lon="3.92224">
        <ele>758</ele>
        <time>2012-09-30T10:40:36Z</time>
      </trkpt>
      <trkpt lat="45.93487" lon="3.92242">
        <ele>758</ele>
        <time>2012-09-30T10:40:38Z</time>
      </trkpt>
      <trkpt lat="45.93482" lon="3.92261">
        <ele>757</ele>
        <time>2012-09-30T10:40:40Z</time>
      </trkpt>
      <trkpt lat="45.93477" lon="3.92281">
        <ele>756</ele>
        <time>2012-09-30T10:40:42Z</time>
      </trkpt>
      <trkpt lat="45.93474" lon="3.923">
        <ele>757</ele>
        <time>2012-09-30T10:40:44Z</time>
      </trkpt>
      <trkpt lat="45.93471" lon="3.92319">
        <ele>756</ele>
        <time>2012-09-30T10:40:46Z</time>
      </trkpt>
      <trkpt lat="45.93468" lon="3.92334">
        <ele>756</ele>
        <time>2012-09-30T10:40:48Z</time>
      </trkpt>
      <trkpt lat="45.93471" lon="3.92333">
        <ele>757</ele>
        <time>2012-09-30T10:41:01Z</time>
      </trkpt>
      <trkpt lat="45.93478" lon="3.9232">
        <ele>757</ele>
        <time>2012-09-30T10:41:04Z</time>
      </trkpt>
      <trkpt lat="45.93483" lon="3.92308">
        <ele>757</ele>
        <time>2012-09-30T10:41:06Z</time>
      </trkpt>
      <trkpt lat="45.93488" lon="3.92295">
        <ele>758</ele>
        <time>2012-09-30T10:41:08Z</time>
      </trkpt>
      <trkpt lat="45.93494" lon="3.92283">
        <ele>758</ele>
        <time>2012-09-30T10:41:10Z</time>
      </trkpt>
      <trkpt lat="45.93501" lon="3.92267">
        <ele>757</ele>
        <time>2012-09-30T10:41:12Z</time>
      </trkpt>
      <trkpt lat="45.93509" lon="3.92249">
        <ele>757</ele>
        <time>2012-09-30T10:41:14Z</time>
      </trkpt>
      <trkpt lat="45.93516" lon="3.9223">
        <ele>758</ele>
        <time>2012-09-30T10:41:16Z</time>
      </trkpt>
      <trkpt lat="45.93526" lon="3.92209">
        <ele>758</ele>
        <time>2012-09-30T10:41:18Z</time>
      </trkpt>
      <trkpt lat="45.93536" lon="3.9219">
        <ele>757</ele>
        <time>2012-09-30T10:41:20Z</time>
      </trkpt>
      <trkpt lat="45.93546" lon="3.9217">
        <ele>757</ele>
        <time>2012-09-30T10:41:22Z</time>
      </trkpt>
      <trkpt lat="45.93556" lon="3.92148">
        <ele>755</ele>
        <time>2012-09-30T10:41:24Z</time>
      </trkpt>
      <trkpt lat="45.9356" lon="3.92136">
        <ele>755</ele>
        <time>2012-09-30T10:41:25Z</time>
      </trkpt>
      <trkpt lat="45.93564" lon="3.92123">
        <ele>754</ele>
        <time>2012-09-30T10:41:26Z</time>
      </trkpt>
      <trkpt lat="45.93568" lon="3.92108">
        <ele>753</ele>
        <time>2012-09-30T10:41:27Z</time>
      </trkpt>
      <trkpt lat="45.9357" lon="3.92094">
        <ele>753</ele>
        <time>2012-09-30T10:41:28Z</time>
      </trkpt>
      <trkpt lat="45.93572" lon="3.92078">
        <ele>752</ele>
        <time>2012-09-30T10:41:29Z</time>
      </trkpt>
      <trkpt lat="45.93575" lon="3.92062">
        <ele>752</ele>
        <time>2012-09-30T10:41:30Z</time>
      </trkpt>
      <trkpt lat="45.9358" lon="3.92048">
        <ele>752</ele>
        <time>2012-09-30T10:41:31Z</time>
      </trkpt>
      <trkpt lat="45.93586" lon="3.92034">
        <ele>751</ele>
        <time>2012-09-30T10:41:32Z</time>
      </trkpt>
      <trkpt lat="45.93593" lon="3.92024">
        <ele>750</ele>
        <time>2012-09-30T10:41:33Z</time>
      </trkpt>
      <trkpt lat="45.936" lon="3.92014">
        <ele>749</ele>
        <time>2012-09-30T10:41:34Z</time>
      </trkpt>
      <trkpt lat="45.93607" lon="3.92005">
        <ele>748</ele>
        <time>2012-09-30T10:41:35Z</time>
      </trkpt>
      <trkpt lat="45.93614" lon="3.91996">
        <ele>747</ele>
        <time>2012-09-30T10:41:36Z</time>
      </trkpt>
      <trkpt lat="45.93628" lon="3.91982">
        <ele>745</ele>
        <time>2012-09-30T10:41:38Z</time>
      </trkpt>
      <trkpt lat="45.93636" lon="3.91978">
        <ele>745</ele>
        <time>2012-09-30T10:41:39Z</time>
      </trkpt>
      <trkpt lat="45.93645" lon="3.91974">
        <ele>744</ele>
        <time>2012-09-30T10:41:40Z</time>
      </trkpt>
      <trkpt lat="45.93663" lon="3.91977">
        <ele>744</ele>
        <time>2012-09-30T10:41:42Z</time>
      </trkpt>
      <trkpt lat="45.93679" lon="3.91984">
        <ele>743</ele>
        <time>2012-09-30T10:41:44Z</time>
      </trkpt>
      <trkpt lat="45.93687" lon="3.91989">
        <ele>743</ele>
        <time>2012-09-30T10:41:45Z</time>
      </trkpt>
      <trkpt lat="45.93695" lon="3.91995">
        <ele>743</ele>
        <time>2012-09-30T10:41:46Z</time>
      </trkpt>
      <trkpt lat="45.9371" lon="3.92008">
        <ele>742</ele>
        <time>2012-09-30T10:41:48Z</time>
      </trkpt>
      <trkpt lat="45.93725" lon="3.92021">
        <ele>742</ele>
        <time>2012-09-30T10:41:50Z</time>
      </trkpt>
      <trkpt lat="45.93738" lon="3.92034">
        <ele>742</ele>
        <time>2012-09-30T10:41:52Z</time>
      </trkpt>
      <trkpt lat="45.93752" lon="3.92049">
        <ele>742</ele>
        <time>2012-09-30T10:41:54Z</time>
      </trkpt>
      <trkpt lat="45.93766" lon="3.92063">
        <ele>742</ele>
        <time>2012-09-30T10:41:56Z</time>
      </trkpt>
      <trkpt lat="45.93781" lon="3.92072">
        <ele>741</ele>
        <time>2012-09-30T10:41:58Z</time>
      </trkpt>
      <trkpt lat="45.93794" lon="3.9208">
        <ele>741</ele>
        <time>2012-09-30T10:42:00Z</time>
      </trkpt>
      <trkpt lat="45.93807" lon="3.92087">
        <ele>740</ele>
        <time>2012-09-30T10:42:02Z</time>
      </trkpt>
      <trkpt lat="45.93818" lon="3.92094">
        <ele>740</ele>
        <time>2012-09-30T10:42:04Z</time>
      </trkpt>
      <trkpt lat="45.9383" lon="3.92102">
        <ele>740</ele>
        <time>2012-09-30T10:42:06Z</time>
      </trkpt>
      <trkpt lat="45.93842" lon="3.92109">
        <ele>740</ele>
        <time>2012-09-30T10:42:08Z</time>
      </trkpt>
      <trkpt lat="45.9385" lon="3.92112">
        <ele>740</ele>
        <time>2012-09-30T10:42:10Z</time>
      </trkpt>
      <trkpt lat="45.9386" lon="3.92116">
        <ele>739</ele>
        <time>2012-09-30T10:42:13Z</time>
      </trkpt>
      <trkpt lat="45.93871" lon="3.9212">
        <ele>738</ele>
        <time>2012-09-30T10:42:16Z</time>
      </trkpt>
      <trkpt lat="45.9388" lon="3.92125">
        <ele>738</ele>
        <time>2012-09-30T10:42:19Z</time>
      </trkpt>
      <trkpt lat="45.93885" lon="3.92127">
        <ele>738</ele>
        <time>2012-09-30T10:42:21Z</time>
      </trkpt>
      <trkpt lat="45.93891" lon="3.9213">
        <ele>738</ele>
        <time>2012-09-30T10:42:23Z</time>
      </trkpt>
      <trkpt lat="45.93895" lon="3.92134">
        <ele>739</ele>
        <time>2012-09-30T10:42:25Z</time>
      </trkpt>
      <trkpt lat="45.93898" lon="3.9214">
        <ele>739</ele>
        <time>2012-09-30T10:42:27Z</time>
      </trkpt>
      <trkpt lat="45.93901" lon="3.92145">
        <ele>739</ele>
        <time>2012-09-30T10:42:29Z</time>
      </trkpt>
      <trkpt lat="45.93905" lon="3.92151">
        <ele>739</ele>
        <time>2012-09-30T10:42:31Z</time>
      </trkpt>
      <trkpt lat="45.93915" lon="3.92159">
        <ele>739</ele>
        <time>2012-09-30T10:42:35Z</time>
      </trkpt>
      <trkpt lat="45.93925" lon="3.92165">
        <ele>739</ele>
        <time>2012-09-30T10:42:39Z</time>
      </trkpt>
      <trkpt lat="45.93933" lon="3.92173">
        <ele>739</ele>
        <time>2012-09-30T10:42:43Z</time>
      </trkpt>
      <trkpt lat="45.93941" lon="3.92184">
        <ele>740</ele>
        <time>2012-09-30T10:42:47Z</time>
      </trkpt>
      <trkpt lat="45.93944" lon="3.9219">
        <ele>740</ele>
        <time>2012-09-30T10:42:49Z</time>
      </trkpt>
      <trkpt lat="45.93948" lon="3.92196">
        <ele>741</ele>
        <time>2012-09-30T10:42:51Z</time>
      </trkpt>
      <trkpt lat="45.93952" lon="3.92203">
        <ele>741</ele>
        <time>2012-09-30T10:42:53Z</time>
      </trkpt>
      <trkpt lat="45.93956" lon="3.92209">
        <ele>742</ele>
        <time>2012-09-30T10:42:55Z</time>
      </trkpt>
      <trkpt lat="45.9396" lon="3.92216">
        <ele>742</ele>
        <time>2012-09-30T10:42:57Z</time>
      </trkpt>
      <trkpt lat="45.93966" lon="3.92226">
        <ele>743</ele>
        <time>2012-09-30T10:43:00Z</time>
      </trkpt>
      <trkpt lat="45.93973" lon="3.92237">
        <ele>745</ele>
        <time>2012-09-30T10:43:03Z</time>
      </trkpt>
      <trkpt lat="45.93977" lon="3.92243">
        <ele>746</ele>
        <time>2012-09-30T10:43:05Z</time>
      </trkpt>
      <trkpt lat="45.93981" lon="3.92248">
        <ele>747</ele>
        <time>2012-09-30T10:43:07Z</time>
      </trkpt>
      <trkpt lat="45.93985" lon="3.92253">
        <ele>747</ele>
        <time>2012-09-30T10:43:09Z</time>
      </trkpt>
      <trkpt lat="45.9399" lon="3.92257">
        <ele>748</ele>
        <time>2012-09-30T10:43:11Z</time>
      </trkpt>
      <trkpt lat="45.93995" lon="3.92261">
        <ele>749</ele>
        <time>2012-09-30T10:43:13Z</time>
      </trkpt>
      <trkpt lat="45.93999" lon="3.92265">
        <ele>749</ele>
        <time>2012-09-30T10:43:15Z</time>
      </trkpt>
      <trkpt lat="45.94003" lon="3.92268">
        <ele>749</ele>
        <time>2012-09-30T10:43:17Z</time>
      </trkpt>
      <trkpt lat="45.94007" lon="3.92272">
        <ele>750</ele>
        <time>2012-09-30T10:43:19Z</time>
      </trkpt>
      <trkpt lat="45.94012" lon="3.92276">
        <ele>750</ele>
        <time>2012-09-30T10:43:21Z</time>
      </trkpt>
      <trkpt lat="45.94017" lon="3.92279">
        <ele>750</ele>
        <time>2012-09-30T10:43:23Z</time>
      </trkpt>
      <trkpt lat="45.94021" lon="3.92283">
        <ele>751</ele>
        <time>2012-09-30T10:43:25Z</time>
      </trkpt>
      <trkpt lat="45.94027" lon="3.92288">
        <ele>751</ele>
        <time>2012-09-30T10:43:28Z</time>
      </trkpt>
      <trkpt lat="45.94032" lon="3.92293">
        <ele>752</ele>
        <time>2012-09-30T10:43:31Z</time>
      </trkpt>
      <trkpt lat="45.94038" lon="3.92296">
        <ele>752</ele>
        <time>2012-09-30T10:43:34Z</time>
      </trkpt>
      <trkpt lat="45.94048" lon="3.923">
        <ele>753</ele>
        <time>2012-09-30T10:43:39Z</time>
      </trkpt>
      <trkpt lat="45.94054" lon="3.92302">
        <ele>754</ele>
        <time>2012-09-30T10:43:42Z</time>
      </trkpt>
      <trkpt lat="45.9406" lon="3.92305">
        <ele>754</ele>
        <time>2012-09-30T10:43:45Z</time>
      </trkpt>
      <trkpt lat="45.94064" lon="3.92307">
        <ele>755</ele>
        <time>2012-09-30T10:43:47Z</time>
      </trkpt>
      <trkpt lat="45.94074" lon="3.92311">
        <ele>754</ele>
        <time>2012-09-30T10:43:52Z</time>
      </trkpt>
      <trkpt lat="45.94084" lon="3.92315">
        <ele>754</ele>
        <time>2012-09-30T10:43:56Z</time>
      </trkpt>
      <trkpt lat="45.94093" lon="3.9232">
        <ele>755</ele>
        <time>2012-09-30T10:44:00Z</time>
      </trkpt>
      <trkpt lat="45.94103" lon="3.92326">
        <ele>755</ele>
        <time>2012-09-30T10:44:04Z</time>
      </trkpt>
      <trkpt lat="45.94112" lon="3.92334">
        <ele>755</ele>
        <time>2012-09-30T10:44:08Z</time>
      </trkpt>
      <trkpt lat="45.94116" lon="3.92337">
        <ele>755</ele>
        <time>2012-09-30T10:44:10Z</time>
      </trkpt>
      <trkpt lat="45.94121" lon="3.92341">
        <ele>755</ele>
        <time>2012-09-30T10:44:12Z</time>
      </trkpt>
      <trkpt lat="45.9413" lon="3.92347">
        <ele>755</ele>
        <time>2012-09-30T10:44:15Z</time>
      </trkpt>
      <trkpt lat="45.94138" lon="3.92353">
        <ele>756</ele>
        <time>2012-09-30T10:44:18Z</time>
      </trkpt>
      <trkpt lat="45.94148" lon="3.92361">
        <ele>757</ele>
        <time>2012-09-30T10:44:22Z</time>
      </trkpt>
      <trkpt lat="45.94157" lon="3.92367">
        <ele>758</ele>
        <time>2012-09-30T10:44:25Z</time>
      </trkpt>
      <trkpt lat="45.94165" lon="3.92373">
        <ele>758</ele>
        <time>2012-09-30T10:44:28Z</time>
      </trkpt>
      <trkpt lat="45.94175" lon="3.92382">
        <ele>759</ele>
        <time>2012-09-30T10:44:32Z</time>
      </trkpt>
      <trkpt lat="45.94184" lon="3.92385">
        <ele>760</ele>
        <time>2012-09-30T10:44:35Z</time>
      </trkpt>
      <trkpt lat="45.94194" lon="3.92388">
        <ele>761</ele>
        <time>2012-09-30T10:44:38Z</time>
      </trkpt>
      <trkpt lat="45.94205" lon="3.92388">
        <ele>762</ele>
        <time>2012-09-30T10:44:41Z</time>
      </trkpt>
      <trkpt lat="45.94218" lon="3.92382">
        <ele>763</ele>
        <time>2012-09-30T10:44:44Z</time>
      </trkpt>
      <trkpt lat="45.94226" lon="3.92374">
        <ele>763</ele>
        <time>2012-09-30T10:44:46Z</time>
      </trkpt>
      <trkpt lat="45.94235" lon="3.92367">
        <ele>762</ele>
        <time>2012-09-30T10:44:48Z</time>
      </trkpt>
      <trkpt lat="45.94246" lon="3.92358">
        <ele>763</ele>
        <time>2012-09-30T10:44:50Z</time>
      </trkpt>
      <trkpt lat="45.94258" lon="3.92347">
        <ele>763</ele>
        <time>2012-09-30T10:44:52Z</time>
      </trkpt>
      <trkpt lat="45.94271" lon="3.92335">
        <ele>764</ele>
        <time>2012-09-30T10:44:54Z</time>
      </trkpt>
      <trkpt lat="45.94284" lon="3.9232">
        <ele>765</ele>
        <time>2012-09-30T10:44:56Z</time>
      </trkpt>
      <trkpt lat="45.94297" lon="3.92305">
        <ele>765</ele>
        <time>2012-09-30T10:44:58Z</time>
      </trkpt>
      <trkpt lat="45.94308" lon="3.92291">
        <ele>765</ele>
        <time>2012-09-30T10:45:00Z</time>
      </trkpt>
      <trkpt lat="45.9432" lon="3.92278">
        <ele>766</ele>
        <time>2012-09-30T10:45:02Z</time>
      </trkpt>
      <trkpt lat="45.94331" lon="3.92266">
        <ele>766</ele>
        <time>2012-09-30T10:45:04Z</time>
      </trkpt>
      <trkpt lat="45.94345" lon="3.92254">
        <ele>766</ele>
        <time>2012-09-30T10:45:06Z</time>
      </trkpt>
      <trkpt lat="45.94354" lon="3.92247">
        <ele>766</ele>
        <time>2012-09-30T10:45:07Z</time>
      </trkpt>
      <trkpt lat="45.94362" lon="3.92239">
        <ele>766</ele>
        <time>2012-09-30T10:45:08Z</time>
      </trkpt>
      <trkpt lat="45.94371" lon="3.92228">
        <ele>766</ele>
        <time>2012-09-30T10:45:09Z</time>
      </trkpt>
      <trkpt lat="45.94379" lon="3.92217">
        <ele>766</ele>
        <time>2012-09-30T10:45:10Z</time>
      </trkpt>
      <trkpt lat="45.9439" lon="3.92208">
        <ele>766</ele>
        <time>2012-09-30T10:45:11Z</time>
      </trkpt>
      <trkpt lat="45.94399" lon="3.92199">
        <ele>766</ele>
        <time>2012-09-30T10:45:12Z</time>
      </trkpt>
      <trkpt lat="45.94409" lon="3.92194">
        <ele>766</ele>
        <time>2012-09-30T10:45:13Z</time>
      </trkpt>
      <trkpt lat="45.94418" lon="3.9219">
        <ele>766</ele>
        <time>2012-09-30T10:45:14Z</time>
      </trkpt>
      <trkpt lat="45.94434" lon="3.92183">
        <ele>766</ele>
        <time>2012-09-30T10:45:16Z</time>
      </trkpt>
      <trkpt lat="45.94452" lon="3.92178">
        <ele>765</ele>
        <time>2012-09-30T10:45:18Z</time>
      </trkpt>
      <trkpt lat="45.94466" lon="3.92172">
        <ele>764</ele>
        <time>2012-09-30T10:45:20Z</time>
      </trkpt>
      <trkpt lat="45.9448" lon="3.92167">
        <ele>764</ele>
        <time>2012-09-30T10:45:22Z</time>
      </trkpt>
      <trkpt lat="45.94493" lon="3.92161">
        <ele>762</ele>
        <time>2012-09-30T10:45:24Z</time>
      </trkpt>
      <trkpt lat="45.94508" lon="3.92151">
        <ele>759</ele>
        <time>2012-09-30T10:45:26Z</time>
      </trkpt>
      <trkpt lat="45.94516" lon="3.92143">
        <ele>757</ele>
        <time>2012-09-30T10:45:27Z</time>
      </trkpt>
      <trkpt lat="45.94524" lon="3.92135">
        <ele>755</ele>
        <time>2012-09-30T10:45:28Z</time>
      </trkpt>
      <trkpt lat="45.9453" lon="3.92126">
        <ele>754</ele>
        <time>2012-09-30T10:45:29Z</time>
      </trkpt>
      <trkpt lat="45.94541" lon="3.92107">
        <ele>750</ele>
        <time>2012-09-30T10:45:31Z</time>
      </trkpt>
      <trkpt lat="45.9455" lon="3.92084">
        <ele>747</ele>
        <time>2012-09-30T10:45:33Z</time>
      </trkpt>
      <trkpt lat="45.94554" lon="3.92073">
        <ele>745</ele>
        <time>2012-09-30T10:45:34Z</time>
      </trkpt>
      <trkpt lat="45.94559" lon="3.92061">
        <ele>743</ele>
        <time>2012-09-30T10:45:35Z</time>
      </trkpt>
      <trkpt lat="45.94564" lon="3.92049">
        <ele>741</ele>
        <time>2012-09-30T10:45:36Z</time>
      </trkpt>
      <trkpt lat="45.94568" lon="3.92038">
        <ele>739</ele>
        <time>2012-09-30T10:45:37Z</time>
      </trkpt>
      <trkpt lat="45.94573" lon="3.92026">
        <ele>738</ele>
        <time>2012-09-30T10:45:38Z</time>
      </trkpt>
      <trkpt lat="45.94577" lon="3.92013">
        <ele>736</ele>
        <time>2012-09-30T10:45:39Z</time>
      </trkpt>
      <trkpt lat="45.94581" lon="3.91998">
        <ele>734</ele>
        <time>2012-09-30T10:45:40Z</time>
      </trkpt>
      <trkpt lat="45.94585" lon="3.91984">
        <ele>733</ele>
        <time>2012-09-30T10:45:41Z</time>
      </trkpt>
      <trkpt lat="45.94588" lon="3.91969">
        <ele>732</ele>
        <time>2012-09-30T10:45:42Z</time>
      </trkpt>
      <trkpt lat="45.94592" lon="3.91953">
        <ele>730</ele>
        <time>2012-09-30T10:45:43Z</time>
      </trkpt>
      <trkpt lat="45.94595" lon="3.91938">
        <ele>729</ele>
        <time>2012-09-30T10:45:44Z</time>
      </trkpt>
      <trkpt lat="45.94598" lon="3.91924">
        <ele>728</ele>
        <time>2012-09-30T10:45:45Z</time>
      </trkpt>
      <trkpt lat="45.94601" lon="3.9191">
        <ele>727</ele>
        <time>2012-09-30T10:45:46Z</time>
      </trkpt>
      <trkpt lat="45.94603" lon="3.91897">
        <ele>726</ele>
        <time>2012-09-30T10:45:47Z</time>
      </trkpt>
      <trkpt lat="45.94604" lon="3.91874">
        <ele>723</ele>
        <time>2012-09-30T10:45:49Z</time>
      </trkpt>
      <trkpt lat="45.94606" lon="3.91851">
        <ele>721</ele>
        <time>2012-09-30T10:45:51Z</time>
      </trkpt>
      <trkpt lat="45.94607" lon="3.91838">
        <ele>720</ele>
        <time>2012-09-30T10:45:52Z</time>
      </trkpt>
      <trkpt lat="45.94607" lon="3.91813">
        <ele>717</ele>
        <time>2012-09-30T10:45:54Z</time>
      </trkpt>
      <trkpt lat="45.94607" lon="3.91799">
        <ele>716</ele>
        <time>2012-09-30T10:45:55Z</time>
      </trkpt>
      <trkpt lat="45.94606" lon="3.91785">
        <ele>715</ele>
        <time>2012-09-30T10:45:56Z</time>
      </trkpt>
      <trkpt lat="45.94606" lon="3.91768">
        <ele>715</ele>
        <time>2012-09-30T10:45:57Z</time>
      </trkpt>
      <trkpt lat="45.94607" lon="3.91753">
        <ele>714</ele>
        <time>2012-09-30T10:45:58Z</time>
      </trkpt>
      <trkpt lat="45.94607" lon="3.91736">
        <ele>713</ele>
        <time>2012-09-30T10:45:59Z</time>
      </trkpt>
      <trkpt lat="45.94607" lon="3.9172">
        <ele>712</ele>
        <time>2012-09-30T10:46:00Z</time>
      </trkpt>
      <trkpt lat="45.9461" lon="3.91704">
        <ele>711</ele>
        <time>2012-09-30T10:46:01Z</time>
      </trkpt>
      <trkpt lat="45.94611" lon="3.91689">
        <ele>710</ele>
        <time>2012-09-30T10:46:02Z</time>
      </trkpt>
      <trkpt lat="45.94613" lon="3.91676">
        <ele>710</ele>
        <time>2012-09-30T10:46:03Z</time>
      </trkpt>
      <trkpt lat="45.9461" lon="3.91652">
        <ele>708</ele>
        <time>2012-09-30T10:46:05Z</time>
      </trkpt>
      <trkpt lat="45.94607" lon="3.9164">
        <ele>707</ele>
        <time>2012-09-30T10:46:06Z</time>
      </trkpt>
      <trkpt lat="45.94604" lon="3.91626">
        <ele>705</ele>
        <time>2012-09-30T10:46:07Z</time>
      </trkpt>
      <trkpt lat="45.94602" lon="3.91613">
        <ele>703</ele>
        <time>2012-09-30T10:46:08Z</time>
      </trkpt>
      <trkpt lat="45.94597" lon="3.91591">
        <ele>700</ele>
        <time>2012-09-30T10:46:10Z</time>
      </trkpt>
      <trkpt lat="45.94591" lon="3.91568">
        <ele>697</ele>
        <time>2012-09-30T10:46:12Z</time>
      </trkpt>
      <trkpt lat="45.94573" lon="3.91529">
        <ele>694</ele>
        <time>2012-09-30T10:46:16Z</time>
      </trkpt>
      <trkpt lat="45.94564" lon="3.91507">
        <ele>691</ele>
        <time>2012-09-30T10:46:18Z</time>
      </trkpt>
      <trkpt lat="45.94552" lon="3.91464">
        <ele>688</ele>
        <time>2012-09-30T10:46:22Z</time>
      </trkpt>
      <trkpt lat="45.94552" lon="3.91425">
        <ele>686</ele>
        <time>2012-09-30T10:46:25Z</time>
      </trkpt>
      <trkpt lat="45.94561" lon="3.91406">
        <ele>683</ele>
        <time>2012-09-30T10:46:27Z</time>
      </trkpt>
      <trkpt lat="45.94572" lon="3.91396">
        <ele>680</ele>
        <time>2012-09-30T10:46:29Z</time>
      </trkpt>
      <trkpt lat="45.94582" lon="3.91392">
        <ele>677</ele>
        <time>2012-09-30T10:46:32Z</time>
      </trkpt>
      <trkpt lat="45.94591" lon="3.91401">
        <ele>674</ele>
        <time>2012-09-30T10:46:35Z</time>
      </trkpt>
      <trkpt lat="45.94598" lon="3.9141">
        <ele>672</ele>
        <time>2012-09-30T10:46:37Z</time>
      </trkpt>
      <trkpt lat="45.94606" lon="3.91419">
        <ele>671</ele>
        <time>2012-09-30T10:46:39Z</time>
      </trkpt>
      <trkpt lat="45.94615" lon="3.9143">
        <ele>670</ele>
        <time>2012-09-30T10:46:41Z</time>
      </trkpt>
      <trkpt lat="45.94624" lon="3.91441">
        <ele>669</ele>
        <time>2012-09-30T10:46:43Z</time>
      </trkpt>
      <trkpt lat="45.94633" lon="3.91453">
        <ele>668</ele>
        <time>2012-09-30T10:46:45Z</time>
      </trkpt>
      <trkpt lat="45.94643" lon="3.91466">
        <ele>668</ele>
        <time>2012-09-30T10:46:47Z</time>
      </trkpt>
      <trkpt lat="45.94654" lon="3.91479">
        <ele>667</ele>
        <time>2012-09-30T10:46:49Z</time>
      </trkpt>
      <trkpt lat="45.94663" lon="3.91489">
        <ele>665</ele>
        <time>2012-09-30T10:46:51Z</time>
      </trkpt>
      <trkpt lat="45.94671" lon="3.915">
        <ele>664</ele>
        <time>2012-09-30T10:46:53Z</time>
      </trkpt>
      <trkpt lat="45.94678" lon="3.91515">
        <ele>663</ele>
        <time>2012-09-30T10:46:55Z</time>
      </trkpt>
      <trkpt lat="45.94685" lon="3.91532">
        <ele>662</ele>
        <time>2012-09-30T10:46:57Z</time>
      </trkpt>
      <trkpt lat="45.94692" lon="3.91551">
        <ele>661</ele>
        <time>2012-09-30T10:46:59Z</time>
      </trkpt>
      <trkpt lat="45.94697" lon="3.91573">
        <ele>661</ele>
        <time>2012-09-30T10:47:01Z</time>
      </trkpt>
      <trkpt lat="45.94703" lon="3.91596">
        <ele>660</ele>
        <time>2012-09-30T10:47:03Z</time>
      </trkpt>
      <trkpt lat="45.94707" lon="3.9162">
        <ele>659</ele>
        <time>2012-09-30T10:47:05Z</time>
      </trkpt>
      <trkpt lat="45.94708" lon="3.91643">
        <ele>657</ele>
        <time>2012-09-30T10:47:07Z</time>
      </trkpt>
      <trkpt lat="45.9471" lon="3.91657">
        <ele>657</ele>
        <time>2012-09-30T10:47:08Z</time>
      </trkpt>
      <trkpt lat="45.94713" lon="3.9167">
        <ele>656</ele>
        <time>2012-09-30T10:47:09Z</time>
      </trkpt>
      <trkpt lat="45.94717" lon="3.91682">
        <ele>655</ele>
        <time>2012-09-30T10:47:10Z</time>
      </trkpt>
      <trkpt lat="45.94724" lon="3.91705">
        <ele>654</ele>
        <time>2012-09-30T10:47:12Z</time>
      </trkpt>
      <trkpt lat="45.94733" lon="3.91725">
        <ele>653</ele>
        <time>2012-09-30T10:47:14Z</time>
      </trkpt>
      <trkpt lat="45.94744" lon="3.91743">
        <ele>652</ele>
        <time>2012-09-30T10:47:16Z</time>
      </trkpt>
      <trkpt lat="45.94757" lon="3.91756">
        <ele>652</ele>
        <time>2012-09-30T10:47:18Z</time>
      </trkpt>
      <trkpt lat="45.94766" lon="3.91771">
        <ele>651</ele>
        <time>2012-09-30T10:47:20Z</time>
      </trkpt>
      <trkpt lat="45.9477" lon="3.91791">
        <ele>651</ele>
        <time>2012-09-30T10:47:22Z</time>
      </trkpt>
      <trkpt lat="45.9477" lon="3.91814">
        <ele>650</ele>
        <time>2012-09-30T10:47:24Z</time>
      </trkpt>
      <trkpt lat="45.94769" lon="3.9184">
        <ele>650</ele>
        <time>2012-09-30T10:47:26Z</time>
      </trkpt>
      <trkpt lat="45.94769" lon="3.91855">
        <ele>650</ele>
        <time>2012-09-30T10:47:27Z</time>
      </trkpt>
      <trkpt lat="45.94768" lon="3.91871">
        <ele>650</ele>
        <time>2012-09-30T10:47:28Z</time>
      </trkpt>
      <trkpt lat="45.94767" lon="3.91886">
        <ele>650</ele>
        <time>2012-09-30T10:47:29Z</time>
      </trkpt>
      <trkpt lat="45.94764" lon="3.91901">
        <ele>650</ele>
        <time>2012-09-30T10:47:30Z</time>
      </trkpt>
      <trkpt lat="45.94761" lon="3.91916">
        <ele>650</ele>
        <time>2012-09-30T10:47:31Z</time>
      </trkpt>
      <trkpt lat="45.94759" lon="3.9193">
        <ele>650</ele>
        <time>2012-09-30T10:47:32Z</time>
      </trkpt>
      <trkpt lat="45.94757" lon="3.91944">
        <ele>650</ele>
        <time>2012-09-30T10:47:33Z</time>
      </trkpt>
      <trkpt lat="45.94755" lon="3.9196">
        <ele>649</ele>
        <time>2012-09-30T10:47:34Z</time>
      </trkpt>
      <trkpt lat="45.94752" lon="3.91975">
        <ele>649</ele>
        <time>2012-09-30T10:47:35Z</time>
      </trkpt>
      <trkpt lat="45.9475" lon="3.91991">
        <ele>649</ele>
        <time>2012-09-30T10:47:36Z</time>
      </trkpt>
      <trkpt lat="45.94748" lon="3.92007">
        <ele>648</ele>
        <time>2012-09-30T10:47:37Z</time>
      </trkpt>
      <trkpt lat="45.94748" lon="3.92021">
        <ele>647</ele>
        <time>2012-09-30T10:47:38Z</time>
      </trkpt>
      <trkpt lat="45.94748" lon="3.92035">
        <ele>646</ele>
        <time>2012-09-30T10:47:39Z</time>
      </trkpt>
      <trkpt lat="45.9475" lon="3.92049">
        <ele>646</ele>
        <time>2012-09-30T10:47:40Z</time>
      </trkpt>
      <trkpt lat="45.94753" lon="3.92062">
        <ele>645</ele>
        <time>2012-09-30T10:47:41Z</time>
      </trkpt>
      <trkpt lat="45.94755" lon="3.92075">
        <ele>644</ele>
        <time>2012-09-30T10:47:42Z</time>
      </trkpt>
      <trkpt lat="45.94757" lon="3.92088">
        <ele>643</ele>
        <time>2012-09-30T10:47:43Z</time>
      </trkpt>
      <trkpt lat="45.94761" lon="3.92101">
        <ele>643</ele>
        <time>2012-09-30T10:47:44Z</time>
      </trkpt>
      <trkpt lat="45.94763" lon="3.92113">
        <ele>642</ele>
        <time>2012-09-30T10:47:45Z</time>
      </trkpt>
      <trkpt lat="45.94767" lon="3.92127">
        <ele>642</ele>
        <time>2012-09-30T10:47:46Z</time>
      </trkpt>
      <trkpt lat="45.94771" lon="3.92139">
        <ele>641</ele>
        <time>2012-09-30T10:47:47Z</time>
      </trkpt>
      <trkpt lat="45.94775" lon="3.92152">
        <ele>640</ele>
        <time>2012-09-30T10:47:48Z</time>
      </trkpt>
      <trkpt lat="45.94778" lon="3.92164">
        <ele>639</ele>
        <time>2012-09-30T10:47:49Z</time>
      </trkpt>
      <trkpt lat="45.94783" lon="3.92177">
        <ele>639</ele>
        <time>2012-09-30T10:47:50Z</time>
      </trkpt>
      <trkpt lat="45.94787" lon="3.92189">
        <ele>639</ele>
        <time>2012-09-30T10:47:51Z</time>
      </trkpt>
      <trkpt lat="45.94792" lon="3.922">
        <ele>638</ele>
        <time>2012-09-30T10:47:52Z</time>
      </trkpt>
      <trkpt lat="45.94797" lon="3.92211">
        <ele>638</ele>
        <time>2012-09-30T10:47:53Z</time>
      </trkpt>
      <trkpt lat="45.94805" lon="3.92231">
        <ele>637</ele>
        <time>2012-09-30T10:47:55Z</time>
      </trkpt>
      <trkpt lat="45.94811" lon="3.9225">
        <ele>636</ele>
        <time>2012-09-30T10:47:57Z</time>
      </trkpt>
      <trkpt lat="45.94815" lon="3.92272">
        <ele>635</ele>
        <time>2012-09-30T10:47:59Z</time>
      </trkpt>
      <trkpt lat="45.9482" lon="3.92292">
        <ele>634</ele>
        <time>2012-09-30T10:48:01Z</time>
      </trkpt>
      <trkpt lat="45.94824" lon="3.92314">
        <ele>633</ele>
        <time>2012-09-30T10:48:03Z</time>
      </trkpt>
      <trkpt lat="45.94826" lon="3.92337">
        <ele>633</ele>
        <time>2012-09-30T10:48:05Z</time>
      </trkpt>
      <trkpt lat="45.94828" lon="3.92359">
        <ele>632</ele>
        <time>2012-09-30T10:48:07Z</time>
      </trkpt>
      <trkpt lat="45.94834" lon="3.92378">
        <ele>632</ele>
        <time>2012-09-30T10:48:09Z</time>
      </trkpt>
      <trkpt lat="45.94837" lon="3.92399">
        <ele>631</ele>
        <time>2012-09-30T10:48:11Z</time>
      </trkpt>
      <trkpt lat="45.94841" lon="3.92414">
        <ele>630</ele>
        <time>2012-09-30T10:48:13Z</time>
      </trkpt>
      <trkpt lat="45.94845" lon="3.92434">
        <ele>630</ele>
        <time>2012-09-30T10:48:15Z</time>
      </trkpt>
      <trkpt lat="45.94849" lon="3.92453">
        <ele>629</ele>
        <time>2012-09-30T10:48:17Z</time>
      </trkpt>
      <trkpt lat="45.94857" lon="3.92472">
        <ele>628</ele>
        <time>2012-09-30T10:48:19Z</time>
      </trkpt>
      <trkpt lat="45.94869" lon="3.92493">
        <ele>627</ele>
        <time>2012-09-30T10:48:21Z</time>
      </trkpt>
      <trkpt lat="45.94875" lon="3.92502">
        <ele>627</ele>
        <time>2012-09-30T10:48:22Z</time>
      </trkpt>
      <trkpt lat="45.94881" lon="3.92513">
        <ele>626</ele>
        <time>2012-09-30T10:48:23Z</time>
      </trkpt>
      <trkpt lat="45.94887" lon="3.92522">
        <ele>625</ele>
        <time>2012-09-30T10:48:24Z</time>
      </trkpt>
      <trkpt lat="45.94894" lon="3.92531">
        <ele>624</ele>
        <time>2012-09-30T10:48:25Z</time>
      </trkpt>
      <trkpt lat="45.94906" lon="3.92549">
        <ele>623</ele>
        <time>2012-09-30T10:48:27Z</time>
      </trkpt>
      <trkpt lat="45.94917" lon="3.92564">
        <ele>621</ele>
        <time>2012-09-30T10:48:29Z</time>
      </trkpt>
      <trkpt lat="45.94932" lon="3.92575">
        <ele>620</ele>
        <time>2012-09-30T10:48:31Z</time>
      </trkpt>
      <trkpt lat="45.94947" lon="3.92577">
        <ele>619</ele>
        <time>2012-09-30T10:48:33Z</time>
      </trkpt>
      <trkpt lat="45.9496" lon="3.92575">
        <ele>618</ele>
        <time>2012-09-30T10:48:35Z</time>
      </trkpt>
      <trkpt lat="45.94971" lon="3.92569">
        <ele>618</ele>
        <time>2012-09-30T10:48:37Z</time>
      </trkpt>
      <trkpt lat="45.94982" lon="3.92568">
        <ele>617</ele>
        <time>2012-09-30T10:48:39Z</time>
      </trkpt>
      <trkpt lat="45.94992" lon="3.92573">
        <ele>618</ele>
        <time>2012-09-30T10:48:41Z</time>
      </trkpt>
      <trkpt lat="45.95" lon="3.92584">
        <ele>617</ele>
        <time>2012-09-30T10:48:44Z</time>
      </trkpt>
      <trkpt lat="45.95009" lon="3.92592">
        <ele>617</ele>
        <time>2012-09-30T10:48:46Z</time>
      </trkpt>
      <trkpt lat="45.95016" lon="3.92605">
        <ele>617</ele>
        <time>2012-09-30T10:48:49Z</time>
      </trkpt>
      <trkpt lat="45.95015" lon="3.9262">
        <ele>616</ele>
        <time>2012-09-30T10:48:52Z</time>
      </trkpt>
      <trkpt lat="45.9501" lon="3.92631">
        <ele>615</ele>
        <time>2012-09-30T10:48:54Z</time>
      </trkpt>
      <trkpt lat="45.95003" lon="3.92641">
        <ele>614</ele>
        <time>2012-09-30T10:48:56Z</time>
      </trkpt>
      <trkpt lat="45.94996" lon="3.92652">
        <ele>613</ele>
        <time>2012-09-30T10:48:58Z</time>
      </trkpt>
      <trkpt lat="45.94986" lon="3.92662">
        <ele>612</ele>
        <time>2012-09-30T10:49:00Z</time>
      </trkpt>
      <trkpt lat="45.94975" lon="3.92673">
        <ele>612</ele>
        <time>2012-09-30T10:49:02Z</time>
      </trkpt>
      <trkpt lat="45.94962" lon="3.92687">
        <ele>612</ele>
        <time>2012-09-30T10:49:04Z</time>
      </trkpt>
      <trkpt lat="45.94949" lon="3.92701">
        <ele>612</ele>
        <time>2012-09-30T10:49:06Z</time>
      </trkpt>
      <trkpt lat="45.94935" lon="3.92714">
        <ele>611</ele>
        <time>2012-09-30T10:49:08Z</time>
      </trkpt>
      <trkpt lat="45.94922" lon="3.92727">
        <ele>610</ele>
        <time>2012-09-30T10:49:10Z</time>
      </trkpt>
      <trkpt lat="45.94909" lon="3.92741">
        <ele>609</ele>
        <time>2012-09-30T10:49:12Z</time>
      </trkpt>
      <trkpt lat="45.94896" lon="3.92756">
        <ele>607</ele>
        <time>2012-09-30T10:49:14Z</time>
      </trkpt>
      <trkpt lat="45.94883" lon="3.92771">
        <ele>606</ele>
        <time>2012-09-30T10:49:16Z</time>
      </trkpt>
      <trkpt lat="45.9487" lon="3.92785">
        <ele>606</ele>
        <time>2012-09-30T10:49:18Z</time>
      </trkpt>
      <trkpt lat="45.94857" lon="3.928">
        <ele>605</ele>
        <time>2012-09-30T10:49:20Z</time>
      </trkpt>
      <trkpt lat="45.94849" lon="3.92808">
        <ele>605</ele>
        <time>2012-09-30T10:49:21Z</time>
      </trkpt>
      <trkpt lat="45.94841" lon="3.92817">
        <ele>605</ele>
        <time>2012-09-30T10:49:22Z</time>
      </trkpt>
      <trkpt lat="45.94832" lon="3.92826">
        <ele>605</ele>
        <time>2012-09-30T10:49:23Z</time>
      </trkpt>
      <trkpt lat="45.94824" lon="3.92835">
        <ele>604</ele>
        <time>2012-09-30T10:49:24Z</time>
      </trkpt>
      <trkpt lat="45.94817" lon="3.92844">
        <ele>604</ele>
        <time>2012-09-30T10:49:25Z</time>
      </trkpt>
      <trkpt lat="45.94804" lon="3.92861">
        <ele>603</ele>
        <time>2012-09-30T10:49:27Z</time>
      </trkpt>
      <trkpt lat="45.94795" lon="3.92879">
        <ele>602</ele>
        <time>2012-09-30T10:49:29Z</time>
      </trkpt>
      <trkpt lat="45.94785" lon="3.92895">
        <ele>601</ele>
        <time>2012-09-30T10:49:31Z</time>
      </trkpt>
      <trkpt lat="45.94773" lon="3.9291">
        <ele>600</ele>
        <time>2012-09-30T10:49:33Z</time>
      </trkpt>
      <trkpt lat="45.94762" lon="3.92926">
        <ele>600</ele>
        <time>2012-09-30T10:49:35Z</time>
      </trkpt>
      <trkpt lat="45.9475" lon="3.92941">
        <ele>600</ele>
        <time>2012-09-30T10:49:37Z</time>
      </trkpt>
      <trkpt lat="45.94739" lon="3.92954">
        <ele>600</ele>
        <time>2012-09-30T10:49:39Z</time>
      </trkpt>
      <trkpt lat="45.94728" lon="3.92966">
        <ele>600</ele>
        <time>2012-09-30T10:49:41Z</time>
      </trkpt>
      <trkpt lat="45.94716" lon="3.92981">
        <ele>601</ele>
        <time>2012-09-30T10:49:43Z</time>
      </trkpt>
      <trkpt lat="45.94705" lon="3.92996">
        <ele>601</ele>
        <time>2012-09-30T10:49:45Z</time>
      </trkpt>
      <trkpt lat="45.94695" lon="3.93014">
        <ele>600</ele>
        <time>2012-09-30T10:49:47Z</time>
      </trkpt>
      <trkpt lat="45.94685" lon="3.9303">
        <ele>600</ele>
        <time>2012-09-30T10:49:49Z</time>
      </trkpt>
      <trkpt lat="45.94676" lon="3.93046">
        <ele>600</ele>
        <time>2012-09-30T10:49:51Z</time>
      </trkpt>
      <trkpt lat="45.94666" lon="3.9306">
        <ele>600</ele>
        <time>2012-09-30T10:49:53Z</time>
      </trkpt>
      <trkpt lat="45.9466" lon="3.9308">
        <ele>600</ele>
        <time>2012-09-30T10:49:55Z</time>
      </trkpt>
      <trkpt lat="45.94653" lon="3.93098">
        <ele>600</ele>
        <time>2012-09-30T10:49:57Z</time>
      </trkpt>
      <trkpt lat="45.94645" lon="3.93119">
        <ele>601</ele>
        <time>2012-09-30T10:49:59Z</time>
      </trkpt>
      <trkpt lat="45.94638" lon="3.9314">
        <ele>601</ele>
        <time>2012-09-30T10:50:01Z</time>
      </trkpt>
      <trkpt lat="45.94631" lon="3.93159">
        <ele>602</ele>
        <time>2012-09-30T10:50:03Z</time>
      </trkpt>
      <trkpt lat="45.94624" lon="3.93179">
        <ele>602</ele>
        <time>2012-09-30T10:50:05Z</time>
      </trkpt>
      <trkpt lat="45.94617" lon="3.93198">
        <ele>603</ele>
        <time>2012-09-30T10:50:07Z</time>
      </trkpt>
      <trkpt lat="45.94608" lon="3.93216">
        <ele>604</ele>
        <time>2012-09-30T10:50:09Z</time>
      </trkpt>
      <trkpt lat="45.94599" lon="3.93231">
        <ele>605</ele>
        <time>2012-09-30T10:50:11Z</time>
      </trkpt>
      <trkpt lat="45.94588" lon="3.93243">
        <ele>606</ele>
        <time>2012-09-30T10:50:13Z</time>
      </trkpt>
      <trkpt lat="45.94577" lon="3.93255">
        <ele>607</ele>
        <time>2012-09-30T10:50:15Z</time>
      </trkpt>
      <trkpt lat="45.94571" lon="3.93269">
        <ele>607</ele>
        <time>2012-09-30T10:50:16Z</time>
      </trkpt>
      <trkpt lat="45.94567" lon="3.93285">
        <ele>607</ele>
        <time>2012-09-30T10:50:17Z</time>
      </trkpt>
      <trkpt lat="45.94562" lon="3.93301">
        <ele>607</ele>
        <time>2012-09-30T10:50:18Z</time>
      </trkpt>
      <trkpt lat="45.94558" lon="3.93316">
        <ele>606</ele>
        <time>2012-09-30T10:50:19Z</time>
      </trkpt>
      <trkpt lat="45.94554" lon="3.93329">
        <ele>606</ele>
        <time>2012-09-30T10:50:20Z</time>
      </trkpt>
      <trkpt lat="45.9455" lon="3.93341">
        <ele>605</ele>
        <time>2012-09-30T10:50:21Z</time>
      </trkpt>
      <trkpt lat="45.94543" lon="3.93363">
        <ele>604</ele>
        <time>2012-09-30T10:50:23Z</time>
      </trkpt>
      <trkpt lat="45.94537" lon="3.9338">
        <ele>603</ele>
        <time>2012-09-30T10:50:25Z</time>
      </trkpt>
      <trkpt lat="45.94529" lon="3.93399">
        <ele>602</ele>
        <time>2012-09-30T10:50:27Z</time>
      </trkpt>
      <trkpt lat="45.9452" lon="3.93418">
        <ele>600</ele>
        <time>2012-09-30T10:50:29Z</time>
      </trkpt>
      <trkpt lat="45.9451" lon="3.93437">
        <ele>599</ele>
        <time>2012-09-30T10:50:31Z</time>
      </trkpt>
      <trkpt lat="45.945" lon="3.93454">
        <ele>597</ele>
        <time>2012-09-30T10:50:33Z</time>
      </trkpt>
      <trkpt lat="45.94489" lon="3.93468">
        <ele>596</ele>
        <time>2012-09-30T10:50:35Z</time>
      </trkpt>
      <trkpt lat="45.94479" lon="3.93481">
        <ele>595</ele>
        <time>2012-09-30T10:50:37Z</time>
      </trkpt>
      <trkpt lat="45.94467" lon="3.93496">
        <ele>594</ele>
        <time>2012-09-30T10:50:39Z</time>
      </trkpt>
      <trkpt lat="45.94457" lon="3.93511">
        <ele>594</ele>
        <time>2012-09-30T10:50:41Z</time>
      </trkpt>
      <trkpt lat="45.94446" lon="3.93526">
        <ele>593</ele>
        <time>2012-09-30T10:50:43Z</time>
      </trkpt>
      <trkpt lat="45.94438" lon="3.93545">
        <ele>592</ele>
        <time>2012-09-30T10:50:45Z</time>
      </trkpt>
      <trkpt lat="45.9443" lon="3.93565">
        <ele>592</ele>
        <time>2012-09-30T10:50:47Z</time>
      </trkpt>
      <trkpt lat="45.94423" lon="3.93587">
        <ele>591</ele>
        <time>2012-09-30T10:50:49Z</time>
      </trkpt>
      <trkpt lat="45.94417" lon="3.9361">
        <ele>591</ele>
        <time>2012-09-30T10:50:51Z</time>
      </trkpt>
      <trkpt lat="45.94414" lon="3.93622">
        <ele>590</ele>
        <time>2012-09-30T10:50:52Z</time>
      </trkpt>
      <trkpt lat="45.94412" lon="3.93634">
        <ele>590</ele>
        <time>2012-09-30T10:50:53Z</time>
      </trkpt>
      <trkpt lat="45.9441" lon="3.93647">
        <ele>589</ele>
        <time>2012-09-30T10:50:54Z</time>
      </trkpt>
      <trkpt lat="45.94409" lon="3.93661">
        <ele>589</ele>
        <time>2012-09-30T10:50:55Z</time>
      </trkpt>
      <trkpt lat="45.94408" lon="3.93674">
        <ele>589</ele>
        <time>2012-09-30T10:50:56Z</time>
      </trkpt>
      <trkpt lat="45.94407" lon="3.93687">
        <ele>588</ele>
        <time>2012-09-30T10:50:57Z</time>
      </trkpt>
      <trkpt lat="45.94403" lon="3.93711">
        <ele>588</ele>
        <time>2012-09-30T10:50:59Z</time>
      </trkpt>
      <trkpt lat="45.94395" lon="3.93734">
        <ele>587</ele>
        <time>2012-09-30T10:51:01Z</time>
      </trkpt>
      <trkpt lat="45.94386" lon="3.93754">
        <ele>587</ele>
        <time>2012-09-30T10:51:03Z</time>
      </trkpt>
      <trkpt lat="45.94381" lon="3.93765">
        <ele>586</ele>
        <time>2012-09-30T10:51:04Z</time>
      </trkpt>
      <trkpt lat="45.94375" lon="3.93777">
        <ele>586</ele>
        <time>2012-09-30T10:51:05Z</time>
      </trkpt>
      <trkpt lat="45.9437" lon="3.93788">
        <ele>586</ele>
        <time>2012-09-30T10:51:06Z</time>
      </trkpt>
      <trkpt lat="45.94365" lon="3.93799">
        <ele>585</ele>
        <time>2012-09-30T10:51:07Z</time>
      </trkpt>
      <trkpt lat="45.9436" lon="3.9381">
        <ele>585</ele>
        <time>2012-09-30T10:51:08Z</time>
      </trkpt>
      <trkpt lat="45.94354" lon="3.93821">
        <ele>585</ele>
        <time>2012-09-30T10:51:09Z</time>
      </trkpt>
      <trkpt lat="45.94349" lon="3.93832">
        <ele>584</ele>
        <time>2012-09-30T10:51:10Z</time>
      </trkpt>
      <trkpt lat="45.94343" lon="3.93842">
        <ele>584</ele>
        <time>2012-09-30T10:51:11Z</time>
      </trkpt>
      <trkpt lat="45.94337" lon="3.93852">
        <ele>584</ele>
        <time>2012-09-30T10:51:12Z</time>
      </trkpt>
      <trkpt lat="45.94331" lon="3.93862">
        <ele>584</ele>
        <time>2012-09-30T10:51:13Z</time>
      </trkpt>
      <trkpt lat="45.94324" lon="3.93871">
        <ele>583</ele>
        <time>2012-09-30T10:51:14Z</time>
      </trkpt>
      <trkpt lat="45.94316" lon="3.9388">
        <ele>583</ele>
        <time>2012-09-30T10:51:15Z</time>
      </trkpt>
      <trkpt lat="45.94309" lon="3.93888">
        <ele>583</ele>
        <time>2012-09-30T10:51:16Z</time>
      </trkpt>
      <trkpt lat="45.94301" lon="3.93896">
        <ele>582</ele>
        <time>2012-09-30T10:51:17Z</time>
      </trkpt>
      <trkpt lat="45.94292" lon="3.93904">
        <ele>582</ele>
        <time>2012-09-30T10:51:18Z</time>
      </trkpt>
      <trkpt lat="45.94284" lon="3.93912">
        <ele>582</ele>
        <time>2012-09-30T10:51:19Z</time>
      </trkpt>
      <trkpt lat="45.94275" lon="3.93919">
        <ele>581</ele>
        <time>2012-09-30T10:51:20Z</time>
      </trkpt>
      <trkpt lat="45.94267" lon="3.93926">
        <ele>581</ele>
        <time>2012-09-30T10:51:21Z</time>
      </trkpt>
      <trkpt lat="45.94258" lon="3.93932">
        <ele>581</ele>
        <time>2012-09-30T10:51:22Z</time>
      </trkpt>
      <trkpt lat="45.9425" lon="3.93938">
        <ele>581</ele>
        <time>2012-09-30T10:51:23Z</time>
      </trkpt>
      <trkpt lat="45.94241" lon="3.93943">
        <ele>580</ele>
        <time>2012-09-30T10:51:24Z</time>
      </trkpt>
      <trkpt lat="45.94232" lon="3.93948">
        <ele>580</ele>
        <time>2012-09-30T10:51:25Z</time>
      </trkpt>
      <trkpt lat="45.94223" lon="3.93953">
        <ele>580</ele>
        <time>2012-09-30T10:51:26Z</time>
      </trkpt>
      <trkpt lat="45.94214" lon="3.93957">
        <ele>580</ele>
        <time>2012-09-30T10:51:27Z</time>
      </trkpt>
      <trkpt lat="45.94205" lon="3.93961">
        <ele>580</ele>
        <time>2012-09-30T10:51:28Z</time>
      </trkpt>
      <trkpt lat="45.94196" lon="3.93965">
        <ele>579</ele>
        <time>2012-09-30T10:51:29Z</time>
      </trkpt>
      <trkpt lat="45.94186" lon="3.93969">
        <ele>579</ele>
        <time>2012-09-30T10:51:30Z</time>
      </trkpt>
      <trkpt lat="45.94177" lon="3.93972">
        <ele>579</ele>
        <time>2012-09-30T10:51:31Z</time>
      </trkpt>
      <trkpt lat="45.94167" lon="3.93976">
        <ele>578</ele>
        <time>2012-09-30T10:51:32Z</time>
      </trkpt>
      <trkpt lat="45.94158" lon="3.93979">
        <ele>578</ele>
        <time>2012-09-30T10:51:33Z</time>
      </trkpt>
      <trkpt lat="45.94148" lon="3.93983">
        <ele>577</ele>
        <time>2012-09-30T10:51:34Z</time>
      </trkpt>
      <trkpt lat="45.9414" lon="3.93987">
        <ele>577</ele>
        <time>2012-09-30T10:51:35Z</time>
      </trkpt>
      <trkpt lat="45.9413" lon="3.93991">
        <ele>576</ele>
        <time>2012-09-30T10:51:36Z</time>
      </trkpt>
      <trkpt lat="45.94121" lon="3.93995">
        <ele>575</ele>
        <time>2012-09-30T10:51:37Z</time>
      </trkpt>
      <trkpt lat="45.94111" lon="3.93999">
        <ele>575</ele>
        <time>2012-09-30T10:51:38Z</time>
      </trkpt>
      <trkpt lat="45.94102" lon="3.94002">
        <ele>574</ele>
        <time>2012-09-30T10:51:39Z</time>
      </trkpt>
      <trkpt lat="45.94092" lon="3.94006">
        <ele>573</ele>
        <time>2012-09-30T10:51:40Z</time>
      </trkpt>
      <trkpt lat="45.94083" lon="3.94009">
        <ele>572</ele>
        <time>2012-09-30T10:51:41Z</time>
      </trkpt>
      <trkpt lat="45.94074" lon="3.94012">
        <ele>571</ele>
        <time>2012-09-30T10:51:42Z</time>
      </trkpt>
      <trkpt lat="45.94064" lon="3.94016">
        <ele>571</ele>
        <time>2012-09-30T10:51:43Z</time>
      </trkpt>
      <trkpt lat="45.94054" lon="3.94019">
        <ele>570</ele>
        <time>2012-09-30T10:51:44Z</time>
      </trkpt>
      <trkpt lat="45.94045" lon="3.94023">
        <ele>569</ele>
        <time>2012-09-30T10:51:45Z</time>
      </trkpt>
      <trkpt lat="45.94036" lon="3.94027">
        <ele>569</ele>
        <time>2012-09-30T10:51:46Z</time>
      </trkpt>
      <trkpt lat="45.94026" lon="3.94031">
        <ele>568</ele>
        <time>2012-09-30T10:51:47Z</time>
      </trkpt>
      <trkpt lat="45.94017" lon="3.94035">
        <ele>567</ele>
        <time>2012-09-30T10:51:48Z</time>
      </trkpt>
      <trkpt lat="45.94008" lon="3.94038">
        <ele>567</ele>
        <time>2012-09-30T10:51:49Z</time>
      </trkpt>
      <trkpt lat="45.94" lon="3.94042">
        <ele>566</ele>
        <time>2012-09-30T10:51:50Z</time>
      </trkpt>
      <trkpt lat="45.93983" lon="3.94047">
        <ele>565</ele>
        <time>2012-09-30T10:51:52Z</time>
      </trkpt>
      <trkpt lat="45.93968" lon="3.94052">
        <ele>565</ele>
        <time>2012-09-30T10:51:54Z</time>
      </trkpt>
      <trkpt lat="45.93954" lon="3.94057">
        <ele>564</ele>
        <time>2012-09-30T10:51:56Z</time>
      </trkpt>
      <trkpt lat="45.9394" lon="3.94063">
        <ele>564</ele>
        <time>2012-09-30T10:51:58Z</time>
      </trkpt>
      <trkpt lat="45.93929" lon="3.94067">
        <ele>564</ele>
        <time>2012-09-30T10:52:00Z</time>
      </trkpt>
      <trkpt lat="45.93919" lon="3.94069">
        <ele>564</ele>
        <time>2012-09-30T10:52:02Z</time>
      </trkpt>
      <trkpt lat="45.93908" lon="3.94073">
        <ele>564</ele>
        <time>2012-09-30T10:52:04Z</time>
      </trkpt>
      <trkpt lat="45.93894" lon="3.94077">
        <ele>565</ele>
        <time>2012-09-30T10:52:06Z</time>
      </trkpt>
      <trkpt lat="45.9388" lon="3.94083">
        <ele>565</ele>
        <time>2012-09-30T10:52:08Z</time>
      </trkpt>
      <trkpt lat="45.93864" lon="3.9409">
        <ele>566</ele>
        <time>2012-09-30T10:52:10Z</time>
      </trkpt>
      <trkpt lat="45.93845" lon="3.94094">
        <ele>566</ele>
        <time>2012-09-30T10:52:12Z</time>
      </trkpt>
      <trkpt lat="45.93836" lon="3.94096">
        <ele>566</ele>
        <time>2012-09-30T10:52:13Z</time>
      </trkpt>
      <trkpt lat="45.93827" lon="3.94099">
        <ele>565</ele>
        <time>2012-09-30T10:52:14Z</time>
      </trkpt>
      <trkpt lat="45.93818" lon="3.94104">
        <ele>565</ele>
        <time>2012-09-30T10:52:15Z</time>
      </trkpt>
      <trkpt lat="45.93811" lon="3.94112">
        <ele>565</ele>
        <time>2012-09-30T10:52:16Z</time>
      </trkpt>
      <trkpt lat="45.93798" lon="3.94127">
        <ele>565</ele>
        <time>2012-09-30T10:52:18Z</time>
      </trkpt>
      <trkpt lat="45.93784" lon="3.94137">
        <ele>565</ele>
        <time>2012-09-30T10:52:20Z</time>
      </trkpt>
      <trkpt lat="45.9377" lon="3.94145">
        <ele>564</ele>
        <time>2012-09-30T10:52:22Z</time>
      </trkpt>
      <trkpt lat="45.93756" lon="3.94153">
        <ele>564</ele>
        <time>2012-09-30T10:52:24Z</time>
      </trkpt>
      <trkpt lat="45.93741" lon="3.94161">
        <ele>565</ele>
        <time>2012-09-30T10:52:26Z</time>
      </trkpt>
      <trkpt lat="45.93727" lon="3.94173">
        <ele>564</ele>
        <time>2012-09-30T10:52:28Z</time>
      </trkpt>
      <trkpt lat="45.93715" lon="3.94189">
        <ele>564</ele>
        <time>2012-09-30T10:52:30Z</time>
      </trkpt>
      <trkpt lat="45.93705" lon="3.94206">
        <ele>564</ele>
        <time>2012-09-30T10:52:32Z</time>
      </trkpt>
      <trkpt lat="45.93698" lon="3.94225">
        <ele>563</ele>
        <time>2012-09-30T10:52:34Z</time>
      </trkpt>
      <trkpt lat="45.93692" lon="3.94248">
        <ele>562</ele>
        <time>2012-09-30T10:52:36Z</time>
      </trkpt>
      <trkpt lat="45.93686" lon="3.9427">
        <ele>561</ele>
        <time>2012-09-30T10:52:38Z</time>
      </trkpt>
      <trkpt lat="45.93679" lon="3.94291">
        <ele>560</ele>
        <time>2012-09-30T10:52:40Z</time>
      </trkpt>
      <trkpt lat="45.9367" lon="3.9431">
        <ele>559</ele>
        <time>2012-09-30T10:52:42Z</time>
      </trkpt>
      <trkpt lat="45.93662" lon="3.94326">
        <ele>559</ele>
        <time>2012-09-30T10:52:44Z</time>
      </trkpt>
      <trkpt lat="45.93655" lon="3.94342">
        <ele>558</ele>
        <time>2012-09-30T10:52:46Z</time>
      </trkpt>
      <trkpt lat="45.93649" lon="3.9436">
        <ele>558</ele>
        <time>2012-09-30T10:52:48Z</time>
      </trkpt>
      <trkpt lat="45.93644" lon="3.94379">
        <ele>557</ele>
        <time>2012-09-30T10:52:50Z</time>
      </trkpt>
      <trkpt lat="45.93638" lon="3.94398">
        <ele>556</ele>
        <time>2012-09-30T10:52:52Z</time>
      </trkpt>
      <trkpt lat="45.93633" lon="3.94415">
        <ele>557</ele>
        <time>2012-09-30T10:52:54Z</time>
      </trkpt>
      <trkpt lat="45.93628" lon="3.94433">
        <ele>557</ele>
        <time>2012-09-30T10:52:56Z</time>
      </trkpt>
      <trkpt lat="45.93621" lon="3.94449">
        <ele>557</ele>
        <time>2012-09-30T10:52:58Z</time>
      </trkpt>
      <trkpt lat="45.93614" lon="3.94466">
        <ele>557</ele>
        <time>2012-09-30T10:53:00Z</time>
      </trkpt>
      <trkpt lat="45.93604" lon="3.94478">
        <ele>557</ele>
        <time>2012-09-30T10:53:02Z</time>
      </trkpt>
      <trkpt lat="45.93593" lon="3.94483">
        <ele>557</ele>
        <time>2012-09-30T10:53:04Z</time>
      </trkpt>
      <trkpt lat="45.93578" lon="3.94485">
        <ele>557</ele>
        <time>2012-09-30T10:53:06Z</time>
      </trkpt>
      <trkpt lat="45.93562" lon="3.94489">
        <ele>556</ele>
        <time>2012-09-30T10:53:08Z</time>
      </trkpt>
      <trkpt lat="45.93549" lon="3.94498">
        <ele>556</ele>
        <time>2012-09-30T10:53:10Z</time>
      </trkpt>
      <trkpt lat="45.93543" lon="3.94516">
        <ele>555</ele>
        <time>2012-09-30T10:53:12Z</time>
      </trkpt>
      <trkpt lat="45.93537" lon="3.94535">
        <ele>556</ele>
        <time>2012-09-30T10:53:14Z</time>
      </trkpt>
      <trkpt lat="45.93532" lon="3.94556">
        <ele>556</ele>
        <time>2012-09-30T10:53:16Z</time>
      </trkpt>
      <trkpt lat="45.93528" lon="3.94576">
        <ele>556</ele>
        <time>2012-09-30T10:53:18Z</time>
      </trkpt>
      <trkpt lat="45.93525" lon="3.94593">
        <ele>556</ele>
        <time>2012-09-30T10:53:20Z</time>
      </trkpt>
      <trkpt lat="45.93522" lon="3.94606">
        <ele>556</ele>
        <time>2012-09-30T10:53:22Z</time>
      </trkpt>
      <trkpt lat="45.93515" lon="3.94618">
        <ele>555</ele>
        <time>2012-09-30T10:53:24Z</time>
      </trkpt>
      <trkpt lat="45.93509" lon="3.94629">
        <ele>555</ele>
        <time>2012-09-30T10:53:26Z</time>
      </trkpt>
      <trkpt lat="45.93502" lon="3.94638">
        <ele>553</ele>
        <time>2012-09-30T10:53:28Z</time>
      </trkpt>
      <trkpt lat="45.93494" lon="3.94647">
        <ele>553</ele>
        <time>2012-09-30T10:53:30Z</time>
      </trkpt>
      <trkpt lat="45.93486" lon="3.94655">
        <ele>553</ele>
        <time>2012-09-30T10:53:32Z</time>
      </trkpt>
      <trkpt lat="45.93479" lon="3.94664">
        <ele>553</ele>
        <time>2012-09-30T10:53:34Z</time>
      </trkpt>
      <trkpt lat="45.93471" lon="3.94672">
        <ele>554</ele>
        <time>2012-09-30T10:53:36Z</time>
      </trkpt>
      <trkpt lat="45.93461" lon="3.94683">
        <ele>554</ele>
        <time>2012-09-30T10:53:39Z</time>
      </trkpt>
      <trkpt lat="45.93453" lon="3.94689">
        <ele>555</ele>
        <time>2012-09-30T10:53:42Z</time>
      </trkpt>
      <trkpt lat="45.93442" lon="3.94695">
        <ele>555</ele>
        <time>2012-09-30T10:53:46Z</time>
      </trkpt>
      <trkpt lat="45.93431" lon="3.94693">
        <ele>556</ele>
        <time>2012-09-30T10:53:49Z</time>
      </trkpt>
      <trkpt lat="45.93421" lon="3.94697">
        <ele>557</ele>
        <time>2012-09-30T10:53:52Z</time>
      </trkpt>
      <trkpt lat="45.93411" lon="3.94702">
        <ele>558</ele>
        <time>2012-09-30T10:53:55Z</time>
      </trkpt>
      <trkpt lat="45.93402" lon="3.94708">
        <ele>559</ele>
        <time>2012-09-30T10:53:58Z</time>
      </trkpt>
      <trkpt lat="45.93394" lon="3.94716">
        <ele>560</ele>
        <time>2012-09-30T10:54:01Z</time>
      </trkpt>
      <trkpt lat="45.93384" lon="3.94721">
        <ele>561</ele>
        <time>2012-09-30T10:54:05Z</time>
      </trkpt>
      <trkpt lat="45.93373" lon="3.94724">
        <ele>560</ele>
        <time>2012-09-30T10:54:08Z</time>
      </trkpt>
      <trkpt lat="45.93363" lon="3.94732">
        <ele>561</ele>
        <time>2012-09-30T10:54:10Z</time>
      </trkpt>
      <trkpt lat="45.93352" lon="3.94743">
        <ele>561</ele>
        <time>2012-09-30T10:54:12Z</time>
      </trkpt>
      <trkpt lat="45.9334" lon="3.94754">
        <ele>561</ele>
        <time>2012-09-30T10:54:14Z</time>
      </trkpt>
      <trkpt lat="45.93327" lon="3.94763">
        <ele>561</ele>
        <time>2012-09-30T10:54:16Z</time>
      </trkpt>
      <trkpt lat="45.93313" lon="3.94773">
        <ele>561</ele>
        <time>2012-09-30T10:54:18Z</time>
      </trkpt>
      <trkpt lat="45.93301" lon="3.94788">
        <ele>560</ele>
        <time>2012-09-30T10:54:20Z</time>
      </trkpt>
      <trkpt lat="45.93295" lon="3.94808">
        <ele>560</ele>
        <time>2012-09-30T10:54:22Z</time>
      </trkpt>
      <trkpt lat="45.93285" lon="3.94823">
        <ele>561</ele>
        <time>2012-09-30T10:54:24Z</time>
      </trkpt>
      <trkpt lat="45.93267" lon="3.94829">
        <ele>561</ele>
        <time>2012-09-30T10:54:26Z</time>
      </trkpt>
      <trkpt lat="45.93257" lon="3.94832">
        <ele>560</ele>
        <time>2012-09-30T10:54:27Z</time>
      </trkpt>
      <trkpt lat="45.93246" lon="3.94835">
        <ele>559</ele>
        <time>2012-09-30T10:54:28Z</time>
      </trkpt>
      <trkpt lat="45.93235" lon="3.94838">
        <ele>559</ele>
        <time>2012-09-30T10:54:29Z</time>
      </trkpt>
      <trkpt lat="45.93225" lon="3.94841">
        <ele>558</ele>
        <time>2012-09-30T10:54:30Z</time>
      </trkpt>
      <trkpt lat="45.93214" lon="3.94846">
        <ele>557</ele>
        <time>2012-09-30T10:54:31Z</time>
      </trkpt>
      <trkpt lat="45.93204" lon="3.94854">
        <ele>556</ele>
        <time>2012-09-30T10:54:32Z</time>
      </trkpt>
      <trkpt lat="45.93195" lon="3.94863">
        <ele>555</ele>
        <time>2012-09-30T10:54:33Z</time>
      </trkpt>
      <trkpt lat="45.93186" lon="3.94873">
        <ele>555</ele>
        <time>2012-09-30T10:54:34Z</time>
      </trkpt>
      <trkpt lat="45.93178" lon="3.94884">
        <ele>554</ele>
        <time>2012-09-30T10:54:35Z</time>
      </trkpt>
      <trkpt lat="45.9317" lon="3.94894">
        <ele>553</ele>
        <time>2012-09-30T10:54:36Z</time>
      </trkpt>
      <trkpt lat="45.93161" lon="3.94904">
        <ele>553</ele>
        <time>2012-09-30T10:54:37Z</time>
      </trkpt>
      <trkpt lat="45.93152" lon="3.94915">
        <ele>552</ele>
        <time>2012-09-30T10:54:38Z</time>
      </trkpt>
      <trkpt lat="45.93144" lon="3.94925">
        <ele>551</ele>
        <time>2012-09-30T10:54:39Z</time>
      </trkpt>
      <trkpt lat="45.93135" lon="3.94935">
        <ele>551</ele>
        <time>2012-09-30T10:54:40Z</time>
      </trkpt>
      <trkpt lat="45.93127" lon="3.94946">
        <ele>550</ele>
        <time>2012-09-30T10:54:41Z</time>
      </trkpt>
      <trkpt lat="45.93119" lon="3.94954">
        <ele>550</ele>
        <time>2012-09-30T10:54:42Z</time>
      </trkpt>
      <trkpt lat="45.9311" lon="3.9496">
        <ele>549</ele>
        <time>2012-09-30T10:54:43Z</time>
      </trkpt>
      <trkpt lat="45.931" lon="3.94964">
        <ele>549</ele>
        <time>2012-09-30T10:54:44Z</time>
      </trkpt>
      <trkpt lat="45.93091" lon="3.94968">
        <ele>549</ele>
        <time>2012-09-30T10:54:45Z</time>
      </trkpt>
      <trkpt lat="45.93082" lon="3.94972">
        <ele>549</ele>
        <time>2012-09-30T10:54:46Z</time>
      </trkpt>
      <trkpt lat="45.93072" lon="3.94974">
        <ele>548</ele>
        <time>2012-09-30T10:54:47Z</time>
      </trkpt>
      <trkpt lat="45.93062" lon="3.94976">
        <ele>548</ele>
        <time>2012-09-30T10:54:48Z</time>
      </trkpt>
      <trkpt lat="45.93052" lon="3.94977">
        <ele>548</ele>
        <time>2012-09-30T10:54:49Z</time>
      </trkpt>
      <trkpt lat="45.93041" lon="3.94978">
        <ele>548</ele>
        <time>2012-09-30T10:54:50Z</time>
      </trkpt>
      <trkpt lat="45.93031" lon="3.94979">
        <ele>548</ele>
        <time>2012-09-30T10:54:51Z</time>
      </trkpt>
      <trkpt lat="45.93021" lon="3.9498">
        <ele>547</ele>
        <time>2012-09-30T10:54:52Z</time>
      </trkpt>
      <trkpt lat="45.93011" lon="3.94981">
        <ele>547</ele>
        <time>2012-09-30T10:54:53Z</time>
      </trkpt>
      <trkpt lat="45.93001" lon="3.94981">
        <ele>546</ele>
        <time>2012-09-30T10:54:54Z</time>
      </trkpt>
      <trkpt lat="45.9299" lon="3.94982">
        <ele>545</ele>
        <time>2012-09-30T10:54:55Z</time>
      </trkpt>
      <trkpt lat="45.9298" lon="3.94982">
        <ele>545</ele>
        <time>2012-09-30T10:54:56Z</time>
      </trkpt>
      <trkpt lat="45.9297" lon="3.94983">
        <ele>544</ele>
        <time>2012-09-30T10:54:57Z</time>
      </trkpt>
      <trkpt lat="45.9296" lon="3.94984">
        <ele>544</ele>
        <time>2012-09-30T10:54:58Z</time>
      </trkpt>
      <trkpt lat="45.92949" lon="3.94985">
        <ele>543</ele>
        <time>2012-09-30T10:54:59Z</time>
      </trkpt>
      <trkpt lat="45.92939" lon="3.94987">
        <ele>542</ele>
        <time>2012-09-30T10:55:00Z</time>
      </trkpt>
      <trkpt lat="45.9293" lon="3.94989">
        <ele>542</ele>
        <time>2012-09-30T10:55:01Z</time>
      </trkpt>
      <trkpt lat="45.92921" lon="3.94992">
        <ele>541</ele>
        <time>2012-09-30T10:55:02Z</time>
      </trkpt>
      <trkpt lat="45.92912" lon="3.94994">
        <ele>541</ele>
        <time>2012-09-30T10:55:03Z</time>
      </trkpt>
      <trkpt lat="45.92895" lon="3.94999">
        <ele>540</ele>
        <time>2012-09-30T10:55:05Z</time>
      </trkpt>
      <trkpt lat="45.92879" lon="3.95003">
        <ele>539</ele>
        <time>2012-09-30T10:55:07Z</time>
      </trkpt>
      <trkpt lat="45.92864" lon="3.95007">
        <ele>538</ele>
        <time>2012-09-30T10:55:09Z</time>
      </trkpt>
      <trkpt lat="45.92851" lon="3.9501">
        <ele>538</ele>
        <time>2012-09-30T10:55:11Z</time>
      </trkpt>
      <trkpt lat="45.92837" lon="3.95012">
        <ele>538</ele>
        <time>2012-09-30T10:55:13Z</time>
      </trkpt>
      <trkpt lat="45.92823" lon="3.95014">
        <ele>538</ele>
        <time>2012-09-30T10:55:15Z</time>
      </trkpt>
      <trkpt lat="45.92807" lon="3.95018">
        <ele>539</ele>
        <time>2012-09-30T10:55:17Z</time>
      </trkpt>
      <trkpt lat="45.92792" lon="3.95022">
        <ele>539</ele>
        <time>2012-09-30T10:55:19Z</time>
      </trkpt>
      <trkpt lat="45.92777" lon="3.95025">
        <ele>539</ele>
        <time>2012-09-30T10:55:21Z</time>
      </trkpt>
      <trkpt lat="45.92761" lon="3.95028">
        <ele>539</ele>
        <time>2012-09-30T10:55:23Z</time>
      </trkpt>
      <trkpt lat="45.92746" lon="3.95031">
        <ele>539</ele>
        <time>2012-09-30T10:55:25Z</time>
      </trkpt>
      <trkpt lat="45.92731" lon="3.95036">
        <ele>539</ele>
        <time>2012-09-30T10:55:27Z</time>
      </trkpt>
      <trkpt lat="45.92716" lon="3.95041">
        <ele>539</ele>
        <time>2012-09-30T10:55:29Z</time>
      </trkpt>
      <trkpt lat="45.92703" lon="3.95046">
        <ele>539</ele>
        <time>2012-09-30T10:55:31Z</time>
      </trkpt>
      <trkpt lat="45.92689" lon="3.9505">
        <ele>539</ele>
        <time>2012-09-30T10:55:33Z</time>
      </trkpt>
      <trkpt lat="45.9268" lon="3.95048">
        <ele>539</ele>
        <time>2012-09-30T10:55:34Z</time>
      </trkpt>
      <trkpt lat="45.9267" lon="3.95047">
        <ele>539</ele>
        <time>2012-09-30T10:55:35Z</time>
      </trkpt>
      <trkpt lat="45.92661" lon="3.95045">
        <ele>538</ele>
        <time>2012-09-30T10:55:36Z</time>
      </trkpt>
      <trkpt lat="45.92652" lon="3.95044">
        <ele>538</ele>
        <time>2012-09-30T10:55:37Z</time>
      </trkpt>
      <trkpt lat="45.92642" lon="3.95043">
        <ele>538</ele>
        <time>2012-09-30T10:55:38Z</time>
      </trkpt>
      <trkpt lat="45.92626" lon="3.95042">
        <ele>538</ele>
        <time>2012-09-30T10:55:40Z</time>
      </trkpt>
      <trkpt lat="45.92616" lon="3.95033">
        <ele>538</ele>
        <time>2012-09-30T10:55:43Z</time>
      </trkpt>
      <trkpt lat="45.92615" lon="3.95017">
        <ele>538</ele>
        <time>2012-09-30T10:55:46Z</time>
      </trkpt>
      <trkpt lat="45.92617" lon="3.95003">
        <ele>538</ele>
        <time>2012-09-30T10:55:48Z</time>
      </trkpt>
      <trkpt lat="45.92617" lon="3.94989">
        <ele>539</ele>
        <time>2012-09-30T10:55:50Z</time>
      </trkpt>
      <trkpt lat="45.92615" lon="3.94975">
        <ele>539</ele>
        <time>2012-09-30T10:55:52Z</time>
      </trkpt>
      <trkpt lat="45.92613" lon="3.94962">
        <ele>539</ele>
        <time>2012-09-30T10:55:54Z</time>
      </trkpt>
      <trkpt lat="45.92604" lon="3.94951">
        <ele>539</ele>
        <time>2012-09-30T10:55:57Z</time>
      </trkpt>
      <trkpt lat="45.92591" lon="3.94949">
        <ele>540</ele>
        <time>2012-09-30T10:56:00Z</time>
      </trkpt>
      <trkpt lat="45.92578" lon="3.94948">
        <ele>540</ele>
        <time>2012-09-30T10:56:03Z</time>
      </trkpt>
      <trkpt lat="45.92567" lon="3.94947">
        <ele>540</ele>
        <time>2012-09-30T10:56:06Z</time>
      </trkpt>
      <trkpt lat="45.92551" lon="3.94949">
        <ele>540</ele>
        <time>2012-09-30T10:56:13Z</time>
      </trkpt>
      <trkpt lat="45.92542" lon="3.94953">
        <ele>539</ele>
        <time>2012-09-30T10:56:18Z</time>
      </trkpt>
      <trkpt lat="45.92535" lon="3.94955">
        <ele>538</ele>
        <time>2012-09-30T10:56:21Z</time>
      </trkpt>
      <trkpt lat="45.92529" lon="3.94955">
        <ele>537</ele>
        <time>2012-09-30T10:56:24Z</time>
      </trkpt>
      <trkpt lat="45.92524" lon="3.94954">
        <ele>536</ele>
        <time>2012-09-30T10:56:26Z</time>
      </trkpt>
      <trkpt lat="45.92519" lon="3.94953">
        <ele>537</ele>
        <time>2012-09-30T10:56:28Z</time>
      </trkpt>
      <trkpt lat="45.92511" lon="3.94949">
        <ele>538</ele>
        <time>2012-09-30T10:56:32Z</time>
      </trkpt>
      <trkpt lat="45.925" lon="3.94944">
        <ele>540</ele>
        <time>2012-09-30T10:56:38Z</time>
      </trkpt>
      <trkpt lat="45.92489" lon="3.94932">
        <ele>544</ele>
        <time>2012-09-30T10:56:46Z</time>
      </trkpt>
      <trkpt lat="45.92485" lon="3.94928">
        <ele>546</ele>
        <time>2012-09-30T10:56:49Z</time>
      </trkpt>
      <trkpt lat="45.92483" lon="3.94921">
        <ele>546</ele>
        <time>2012-09-30T10:56:52Z</time>
      </trkpt>
      <trkpt lat="45.9248" lon="3.94914">
        <ele>547</ele>
        <time>2012-09-30T10:56:55Z</time>
      </trkpt>
      <trkpt lat="45.92477" lon="3.94908">
        <ele>547</ele>
        <time>2012-09-30T10:56:58Z</time>
      </trkpt>
      <trkpt lat="45.92474" lon="3.94901">
        <ele>547</ele>
        <time>2012-09-30T10:57:01Z</time>
      </trkpt>
      <trkpt lat="45.9247" lon="3.94895">
        <ele>547</ele>
        <time>2012-09-30T10:57:04Z</time>
      </trkpt>
      <trkpt lat="45.92466" lon="3.9489">
        <ele>547</ele>
        <time>2012-09-30T10:57:06Z</time>
      </trkpt>
      <trkpt lat="45.92462" lon="3.94885">
        <ele>547</ele>
        <time>2012-09-30T10:57:08Z</time>
      </trkpt>
      <trkpt lat="45.92458" lon="3.9488">
        <ele>547</ele>
        <time>2012-09-30T10:57:10Z</time>
      </trkpt>
      <trkpt lat="45.92455" lon="3.94875">
        <ele>548</ele>
        <time>2012-09-30T10:57:12Z</time>
      </trkpt>
      <trkpt lat="45.92447" lon="3.94866">
        <ele>548</ele>
        <time>2012-09-30T10:57:17Z</time>
      </trkpt>
      <trkpt lat="45.92435" lon="3.94861">
        <ele>547</ele>
        <time>2012-09-30T10:57:21Z</time>
      </trkpt>
      <trkpt lat="45.92426" lon="3.9486">
        <ele>546</ele>
        <time>2012-09-30T10:57:23Z</time>
      </trkpt>
      <trkpt lat="45.92414" lon="3.94858">
        <ele>546</ele>
        <time>2012-09-30T10:57:25Z</time>
      </trkpt>
      <trkpt lat="45.92399" lon="3.94859">
        <ele>546</ele>
        <time>2012-09-30T10:57:27Z</time>
      </trkpt>
      <trkpt lat="45.92386" lon="3.94869">
        <ele>545</ele>
        <time>2012-09-30T10:57:29Z</time>
      </trkpt>
      <trkpt lat="45.92374" lon="3.94883">
        <ele>545</ele>
        <time>2012-09-30T10:57:31Z</time>
      </trkpt>
      <trkpt lat="45.92361" lon="3.94898">
        <ele>544</ele>
        <time>2012-09-30T10:57:33Z</time>
      </trkpt>
      <trkpt lat="45.92347" lon="3.94911">
        <ele>544</ele>
        <time>2012-09-30T10:57:35Z</time>
      </trkpt>
      <trkpt lat="45.92332" lon="3.94924">
        <ele>544</ele>
        <time>2012-09-30T10:57:37Z</time>
      </trkpt>
      <trkpt lat="45.92319" lon="3.94936">
        <ele>543</ele>
        <time>2012-09-30T10:57:39Z</time>
      </trkpt>
      <trkpt lat="45.92305" lon="3.94949">
        <ele>542</ele>
        <time>2012-09-30T10:57:41Z</time>
      </trkpt>
      <trkpt lat="45.92292" lon="3.94963">
        <ele>542</ele>
        <time>2012-09-30T10:57:43Z</time>
      </trkpt>
      <trkpt lat="45.92278" lon="3.94974">
        <ele>541</ele>
        <time>2012-09-30T10:57:45Z</time>
      </trkpt>
      <trkpt lat="45.92264" lon="3.94984">
        <ele>540</ele>
        <time>2012-09-30T10:57:47Z</time>
      </trkpt>
      <trkpt lat="45.92249" lon="3.94992">
        <ele>539</ele>
        <time>2012-09-30T10:57:49Z</time>
      </trkpt>
      <trkpt lat="45.92237" lon="3.95">
        <ele>539</ele>
        <time>2012-09-30T10:57:51Z</time>
      </trkpt>
      <trkpt lat="45.92228" lon="3.95006">
        <ele>538</ele>
        <time>2012-09-30T10:57:53Z</time>
      </trkpt>
      <trkpt lat="45.9222" lon="3.9502">
        <ele>537</ele>
        <time>2012-09-30T10:57:55Z</time>
      </trkpt>
      <trkpt lat="45.92208" lon="3.95036">
        <ele>537</ele>
        <time>2012-09-30T10:57:57Z</time>
      </trkpt>
      <trkpt lat="45.92195" lon="3.95053">
        <ele>537</ele>
        <time>2012-09-30T10:57:59Z</time>
      </trkpt>
      <trkpt lat="45.92187" lon="3.9506">
        <ele>537</ele>
        <time>2012-09-30T10:58:00Z</time>
      </trkpt>
      <trkpt lat="45.92178" lon="3.95065">
        <ele>537</ele>
        <time>2012-09-30T10:58:01Z</time>
      </trkpt>
      <trkpt lat="45.92163" lon="3.95076">
        <ele>537</ele>
        <time>2012-09-30T10:58:03Z</time>
      </trkpt>
      <trkpt lat="45.92149" lon="3.95086">
        <ele>536</ele>
        <time>2012-09-30T10:58:05Z</time>
      </trkpt>
      <trkpt lat="45.92135" lon="3.95095">
        <ele>536</ele>
        <time>2012-09-30T10:58:07Z</time>
      </trkpt>
      <trkpt lat="45.9212" lon="3.95101">
        <ele>536</ele>
        <time>2012-09-30T10:58:09Z</time>
      </trkpt>
      <trkpt lat="45.92105" lon="3.95116">
        <ele>536</ele>
        <time>2012-09-30T10:58:11Z</time>
      </trkpt>
      <trkpt lat="45.921" lon="3.95128">
        <ele>537</ele>
        <time>2012-09-30T10:58:12Z</time>
      </trkpt>
      <trkpt lat="45.92094" lon="3.95139">
        <ele>537</ele>
        <time>2012-09-30T10:58:13Z</time>
      </trkpt>
      <trkpt lat="45.92089" lon="3.95151">
        <ele>537</ele>
        <time>2012-09-30T10:58:14Z</time>
      </trkpt>
      <trkpt lat="45.92077" lon="3.9517">
        <ele>537</ele>
        <time>2012-09-30T10:58:16Z</time>
      </trkpt>
      <trkpt lat="45.9207" lon="3.95179">
        <ele>537</ele>
        <time>2012-09-30T10:58:17Z</time>
      </trkpt>
      <trkpt lat="45.92056" lon="3.95194">
        <ele>538</ele>
        <time>2012-09-30T10:58:19Z</time>
      </trkpt>
      <trkpt lat="45.92041" lon="3.95204">
        <ele>538</ele>
        <time>2012-09-30T10:58:21Z</time>
      </trkpt>
      <trkpt lat="45.92025" lon="3.95214">
        <ele>539</ele>
        <time>2012-09-30T10:58:23Z</time>
      </trkpt>
      <trkpt lat="45.92011" lon="3.95225">
        <ele>538</ele>
        <time>2012-09-30T10:58:25Z</time>
      </trkpt>
      <trkpt lat="45.91996" lon="3.95236">
        <ele>537</ele>
        <time>2012-09-30T10:58:27Z</time>
      </trkpt>
      <trkpt lat="45.9198" lon="3.95247">
        <ele>535</ele>
        <time>2012-09-30T10:58:29Z</time>
      </trkpt>
      <trkpt lat="45.91963" lon="3.95254">
        <ele>534</ele>
        <time>2012-09-30T10:58:31Z</time>
      </trkpt>
      <trkpt lat="45.91947" lon="3.95258">
        <ele>533</ele>
        <time>2012-09-30T10:58:33Z</time>
      </trkpt>
      <trkpt lat="45.91933" lon="3.95261">
        <ele>532</ele>
        <time>2012-09-30T10:58:35Z</time>
      </trkpt>
      <trkpt lat="45.9192" lon="3.95264">
        <ele>532</ele>
        <time>2012-09-30T10:58:37Z</time>
      </trkpt>
      <trkpt lat="45.91907" lon="3.95268">
        <ele>531</ele>
        <time>2012-09-30T10:58:39Z</time>
      </trkpt>
      <trkpt lat="45.91895" lon="3.95274">
        <ele>531</ele>
        <time>2012-09-30T10:58:41Z</time>
      </trkpt>
      <trkpt lat="45.91884" lon="3.9528">
        <ele>531</ele>
        <time>2012-09-30T10:58:43Z</time>
      </trkpt>
      <trkpt lat="45.91872" lon="3.95284">
        <ele>531</ele>
        <time>2012-09-30T10:58:45Z</time>
      </trkpt>
      <trkpt lat="45.91862" lon="3.9529">
        <ele>531</ele>
        <time>2012-09-30T10:58:47Z</time>
      </trkpt>
      <trkpt lat="45.91851" lon="3.95293">
        <ele>530</ele>
        <time>2012-09-30T10:58:49Z</time>
      </trkpt>
      <trkpt lat="45.91837" lon="3.95295">
        <ele>530</ele>
        <time>2012-09-30T10:58:51Z</time>
      </trkpt>
      <trkpt lat="45.91822" lon="3.95298">
        <ele>529</ele>
        <time>2012-09-30T10:58:53Z</time>
      </trkpt>
      <trkpt lat="45.9181" lon="3.95302">
        <ele>529</ele>
        <time>2012-09-30T10:58:55Z</time>
      </trkpt>
      <trkpt lat="45.918" lon="3.95312">
        <ele>529</ele>
        <time>2012-09-30T10:58:57Z</time>
      </trkpt>
      <trkpt lat="45.9179" lon="3.95323">
        <ele>529</ele>
        <time>2012-09-30T10:58:59Z</time>
      </trkpt>
      <trkpt lat="45.91778" lon="3.95336">
        <ele>529</ele>
        <time>2012-09-30T10:59:01Z</time>
      </trkpt>
      <trkpt lat="45.91763" lon="3.9535">
        <ele>529</ele>
        <time>2012-09-30T10:59:03Z</time>
      </trkpt>
      <trkpt lat="45.91748" lon="3.95362">
        <ele>529</ele>
        <time>2012-09-30T10:59:05Z</time>
      </trkpt>
      <trkpt lat="45.91733" lon="3.95376">
        <ele>528</ele>
        <time>2012-09-30T10:59:07Z</time>
      </trkpt>
      <trkpt lat="45.91726" lon="3.95384">
        <ele>528</ele>
        <time>2012-09-30T10:59:08Z</time>
      </trkpt>
      <trkpt lat="45.91718" lon="3.95392">
        <ele>527</ele>
        <time>2012-09-30T10:59:09Z</time>
      </trkpt>
      <trkpt lat="45.91711" lon="3.954">
        <ele>526</ele>
        <time>2012-09-30T10:59:10Z</time>
      </trkpt>
      <trkpt lat="45.91703" lon="3.95408">
        <ele>526</ele>
        <time>2012-09-30T10:59:11Z</time>
      </trkpt>
      <trkpt lat="45.91696" lon="3.95416">
        <ele>525</ele>
        <time>2012-09-30T10:59:12Z</time>
      </trkpt>
      <trkpt lat="45.91682" lon="3.95431">
        <ele>524</ele>
        <time>2012-09-30T10:59:14Z</time>
      </trkpt>
      <trkpt lat="45.91666" lon="3.95441">
        <ele>523</ele>
        <time>2012-09-30T10:59:16Z</time>
      </trkpt>
      <trkpt lat="45.91651" lon="3.95449">
        <ele>523</ele>
        <time>2012-09-30T10:59:18Z</time>
      </trkpt>
      <trkpt lat="45.91636" lon="3.95451">
        <ele>522</ele>
        <time>2012-09-30T10:59:20Z</time>
      </trkpt>
      <trkpt lat="45.91618" lon="3.9545">
        <ele>521</ele>
        <time>2012-09-30T10:59:23Z</time>
      </trkpt>
      <trkpt lat="45.91603" lon="3.95456">
        <ele>521</ele>
        <time>2012-09-30T10:59:25Z</time>
      </trkpt>
      <trkpt lat="45.91591" lon="3.95465">
        <ele>521</ele>
        <time>2012-09-30T10:59:27Z</time>
      </trkpt>
      <trkpt lat="45.91579" lon="3.95474">
        <ele>520</ele>
        <time>2012-09-30T10:59:29Z</time>
      </trkpt>
      <trkpt lat="45.91566" lon="3.95484">
        <ele>519</ele>
        <time>2012-09-30T10:59:31Z</time>
      </trkpt>
      <trkpt lat="45.91555" lon="3.95493">
        <ele>518</ele>
        <time>2012-09-30T10:59:33Z</time>
      </trkpt>
      <trkpt lat="45.91543" lon="3.955">
        <ele>517</ele>
        <time>2012-09-30T10:59:35Z</time>
      </trkpt>
      <trkpt lat="45.91534" lon="3.95505">
        <ele>516</ele>
        <time>2012-09-30T10:59:37Z</time>
      </trkpt>
      <trkpt lat="45.91523" lon="3.95505">
        <ele>515</ele>
        <time>2012-09-30T10:59:39Z</time>
      </trkpt>
      <trkpt lat="45.91513" lon="3.95507">
        <ele>515</ele>
        <time>2012-09-30T10:59:41Z</time>
      </trkpt>
      <trkpt lat="45.91503" lon="3.95507">
        <ele>514</ele>
        <time>2012-09-30T10:59:43Z</time>
      </trkpt>
      <trkpt lat="45.91489" lon="3.9551">
        <ele>513</ele>
        <time>2012-09-30T10:59:47Z</time>
      </trkpt>
      <trkpt lat="45.91475" lon="3.95516">
        <ele>512</ele>
        <time>2012-09-30T10:59:53Z</time>
      </trkpt>
      <trkpt lat="45.91465" lon="3.95522">
        <ele>513</ele>
        <time>2012-09-30T10:59:57Z</time>
      </trkpt>
      <trkpt lat="45.91457" lon="3.95531">
        <ele>514</ele>
        <time>2012-09-30T11:00:01Z</time>
      </trkpt>
      <trkpt lat="45.91447" lon="3.95537">
        <ele>516</ele>
        <time>2012-09-30T11:00:06Z</time>
      </trkpt>
      <trkpt lat="45.9144" lon="3.95539">
        <ele>517</ele>
        <time>2012-09-30T11:00:10Z</time>
      </trkpt>
      <trkpt lat="45.91434" lon="3.9554">
        <ele>518</ele>
        <time>2012-09-30T11:00:14Z</time>
      </trkpt>
      <trkpt lat="45.91419" lon="3.95538">
        <ele>519</ele>
        <time>2012-09-30T11:00:24Z</time>
      </trkpt>
      <trkpt lat="45.91415" lon="3.95537">
        <ele>520</ele>
        <time>2012-09-30T11:00:27Z</time>
      </trkpt>
      <trkpt lat="45.9141" lon="3.95535">
        <ele>521</ele>
        <time>2012-09-30T11:00:30Z</time>
      </trkpt>
      <trkpt lat="45.91405" lon="3.95531">
        <ele>521</ele>
        <time>2012-09-30T11:00:33Z</time>
      </trkpt>
      <trkpt lat="45.91401" lon="3.95529">
        <ele>521</ele>
        <time>2012-09-30T11:00:37Z</time>
      </trkpt>
      <trkpt lat="45.91395" lon="3.95527">
        <ele>522</ele>
        <time>2012-09-30T11:00:41Z</time>
      </trkpt>
      <trkpt lat="45.91385" lon="3.95523">
        <ele>522</ele>
        <time>2012-09-30T11:00:48Z</time>
      </trkpt>
      <trkpt lat="45.91375" lon="3.95519">
        <ele>523</ele>
        <time>2012-09-30T11:00:53Z</time>
      </trkpt>
      <trkpt lat="45.91371" lon="3.95516">
        <ele>523</ele>
        <time>2012-09-30T11:00:55Z</time>
      </trkpt>
      <trkpt lat="45.91367" lon="3.95513">
        <ele>524</ele>
        <time>2012-09-30T11:00:58Z</time>
      </trkpt>
      <trkpt lat="45.9136" lon="3.95507">
        <ele>525</ele>
        <time>2012-09-30T11:01:02Z</time>
      </trkpt>
      <trkpt lat="45.91355" lon="3.95504">
        <ele>526</ele>
        <time>2012-09-30T11:01:04Z</time>
      </trkpt>
      <trkpt lat="45.9135" lon="3.95501">
        <ele>527</ele>
        <time>2012-09-30T11:01:06Z</time>
      </trkpt>
      <trkpt lat="45.91346" lon="3.95498">
        <ele>528</ele>
        <time>2012-09-30T11:01:08Z</time>
      </trkpt>
      <trkpt lat="45.91341" lon="3.95495">
        <ele>528</ele>
        <time>2012-09-30T11:01:10Z</time>
      </trkpt>
      <trkpt lat="45.91336" lon="3.95491">
        <ele>529</ele>
        <time>2012-09-30T11:01:12Z</time>
      </trkpt>
      <trkpt lat="45.91331" lon="3.95487">
        <ele>529</ele>
        <time>2012-09-30T11:01:14Z</time>
      </trkpt>
      <trkpt lat="45.91326" lon="3.95484">
        <ele>529</ele>
        <time>2012-09-30T11:01:16Z</time>
      </trkpt>
      <trkpt lat="45.9132" lon="3.95482">
        <ele>530</ele>
        <time>2012-09-30T11:01:18Z</time>
      </trkpt>
      <trkpt lat="45.91315" lon="3.95478">
        <ele>530</ele>
        <time>2012-09-30T11:01:20Z</time>
      </trkpt>
      <trkpt lat="45.91306" lon="3.95472">
        <ele>530</ele>
        <time>2012-09-30T11:01:23Z</time>
      </trkpt>
      <trkpt lat="45.91298" lon="3.95464">
        <ele>530</ele>
        <time>2012-09-30T11:01:26Z</time>
      </trkpt>
      <trkpt lat="45.91293" lon="3.95456">
        <ele>530</ele>
        <time>2012-09-30T11:01:28Z</time>
      </trkpt>
      <trkpt lat="45.91287" lon="3.95445">
        <ele>531</ele>
        <time>2012-09-30T11:01:31Z</time>
      </trkpt>
      <trkpt lat="45.91284" lon="3.95432">
        <ele>531</ele>
        <time>2012-09-30T11:01:34Z</time>
      </trkpt>
      <trkpt lat="45.91283" lon="3.95418">
        <ele>531</ele>
        <time>2012-09-30T11:01:37Z</time>
      </trkpt>
      <trkpt lat="45.91283" lon="3.95409">
        <ele>531</ele>
        <time>2012-09-30T11:01:39Z</time>
      </trkpt>
      <trkpt lat="45.91283" lon="3.95399">
        <ele>532</ele>
        <time>2012-09-30T11:01:41Z</time>
      </trkpt>
      <trkpt lat="45.91284" lon="3.95389">
        <ele>532</ele>
        <time>2012-09-30T11:01:43Z</time>
      </trkpt>
      <trkpt lat="45.91286" lon="3.95377">
        <ele>532</ele>
        <time>2012-09-30T11:01:45Z</time>
      </trkpt>
      <trkpt lat="45.91287" lon="3.95371">
        <ele>532</ele>
        <time>2012-09-30T11:01:46Z</time>
      </trkpt>
      <trkpt lat="45.91288" lon="3.95358">
        <ele>533</ele>
        <time>2012-09-30T11:01:48Z</time>
      </trkpt>
      <trkpt lat="45.91287" lon="3.95347">
        <ele>534</ele>
        <time>2012-09-30T11:01:50Z</time>
      </trkpt>
      <trkpt lat="45.91284" lon="3.95337">
        <ele>534</ele>
        <time>2012-09-30T11:01:52Z</time>
      </trkpt>
      <trkpt lat="45.91276" lon="3.95325">
        <ele>535</ele>
        <time>2012-09-30T11:01:55Z</time>
      </trkpt>
      <trkpt lat="45.91264" lon="3.95315">
        <ele>535</ele>
        <time>2012-09-30T11:01:58Z</time>
      </trkpt>
      <trkpt lat="45.91253" lon="3.95309">
        <ele>536</ele>
        <time>2012-09-30T11:02:01Z</time>
      </trkpt>
      <trkpt lat="45.91243" lon="3.953">
        <ele>536</ele>
        <time>2012-09-30T11:02:03Z</time>
      </trkpt>
      <trkpt lat="45.91233" lon="3.9529">
        <ele>535</ele>
        <time>2012-09-30T11:02:05Z</time>
      </trkpt>
      <trkpt lat="45.91221" lon="3.95277">
        <ele>536</ele>
        <time>2012-09-30T11:02:07Z</time>
      </trkpt>
      <trkpt lat="45.91215" lon="3.95268">
        <ele>535</ele>
        <time>2012-09-30T11:02:08Z</time>
      </trkpt>
      <trkpt lat="45.91208" lon="3.95257">
        <ele>535</ele>
        <time>2012-09-30T11:02:09Z</time>
      </trkpt>
      <trkpt lat="45.91202" lon="3.95245">
        <ele>535</ele>
        <time>2012-09-30T11:02:10Z</time>
      </trkpt>
      <trkpt lat="45.91198" lon="3.95231">
        <ele>535</ele>
        <time>2012-09-30T11:02:11Z</time>
      </trkpt>
      <trkpt lat="45.91198" lon="3.95218">
        <ele>534</ele>
        <time>2012-09-30T11:02:12Z</time>
      </trkpt>
      <trkpt lat="45.91199" lon="3.95204">
        <ele>534</ele>
        <time>2012-09-30T11:02:13Z</time>
      </trkpt>
      <trkpt lat="45.91203" lon="3.95187">
        <ele>534</ele>
        <time>2012-09-30T11:02:15Z</time>
      </trkpt>
      <trkpt lat="45.91208" lon="3.95172">
        <ele>534</ele>
        <time>2012-09-30T11:02:17Z</time>
      </trkpt>
      <trkpt lat="45.91212" lon="3.95159">
        <ele>534</ele>
        <time>2012-09-30T11:02:19Z</time>
      </trkpt>
      <trkpt lat="45.91217" lon="3.95146">
        <ele>534</ele>
        <time>2012-09-30T11:02:21Z</time>
      </trkpt>
      <trkpt lat="45.91223" lon="3.95136">
        <ele>534</ele>
        <time>2012-09-30T11:02:23Z</time>
      </trkpt>
      <trkpt lat="45.91232" lon="3.95124">
        <ele>534</ele>
        <time>2012-09-30T11:02:26Z</time>
      </trkpt>
      <trkpt lat="45.91238" lon="3.95109">
        <ele>535</ele>
        <time>2012-09-30T11:02:29Z</time>
      </trkpt>
      <trkpt lat="45.91242" lon="3.95094">
        <ele>536</ele>
        <time>2012-09-30T11:02:32Z</time>
      </trkpt>
      <trkpt lat="45.91247" lon="3.95078">
        <ele>536</ele>
        <time>2012-09-30T11:02:35Z</time>
      </trkpt>
      <trkpt lat="45.91253" lon="3.95062">
        <ele>536</ele>
        <time>2012-09-30T11:02:38Z</time>
      </trkpt>
      <trkpt lat="45.91259" lon="3.95046">
        <ele>536</ele>
        <time>2012-09-30T11:02:41Z</time>
      </trkpt>
      <trkpt lat="45.91264" lon="3.95036">
        <ele>536</ele>
        <time>2012-09-30T11:02:44Z</time>
      </trkpt>
      <trkpt lat="45.91268" lon="3.95024">
        <ele>537</ele>
        <time>2012-09-30T11:02:47Z</time>
      </trkpt>
      <trkpt lat="45.91269" lon="3.95014">
        <ele>537</ele>
        <time>2012-09-30T11:02:49Z</time>
      </trkpt>
      <trkpt lat="45.91271" lon="3.95">
        <ele>537</ele>
        <time>2012-09-30T11:02:51Z</time>
      </trkpt>
      <trkpt lat="45.91269" lon="3.94982">
        <ele>537</ele>
        <time>2012-09-30T11:02:53Z</time>
      </trkpt>
      <trkpt lat="45.91261" lon="3.94967">
        <ele>537</ele>
        <time>2012-09-30T11:02:55Z</time>
      </trkpt>
      <trkpt lat="45.9125" lon="3.94962">
        <ele>537</ele>
        <time>2012-09-30T11:02:57Z</time>
      </trkpt>
      <trkpt lat="45.91241" lon="3.94956">
        <ele>536</ele>
        <time>2012-09-30T11:02:59Z</time>
      </trkpt>
      <trkpt lat="45.91228" lon="3.94949">
        <ele>536</ele>
        <time>2012-09-30T11:03:01Z</time>
      </trkpt>
      <trkpt lat="45.91215" lon="3.94941">
        <ele>535</ele>
        <time>2012-09-30T11:03:03Z</time>
      </trkpt>
      <trkpt lat="45.91199" lon="3.94931">
        <ele>535</ele>
        <time>2012-09-30T11:03:05Z</time>
      </trkpt>
      <trkpt lat="45.91184" lon="3.9492">
        <ele>534</ele>
        <time>2012-09-30T11:03:07Z</time>
      </trkpt>
      <trkpt lat="45.9117" lon="3.9491">
        <ele>533</ele>
        <time>2012-09-30T11:03:09Z</time>
      </trkpt>
      <trkpt lat="45.91158" lon="3.94902">
        <ele>531</ele>
        <time>2012-09-30T11:03:11Z</time>
      </trkpt>
      <trkpt lat="45.91146" lon="3.949">
        <ele>530</ele>
        <time>2012-09-30T11:03:13Z</time>
      </trkpt>
      <trkpt lat="45.91135" lon="3.94905">
        <ele>529</ele>
        <time>2012-09-30T11:03:15Z</time>
      </trkpt>
      <trkpt lat="45.91132" lon="3.94918">
        <ele>529</ele>
        <time>2012-09-30T11:03:17Z</time>
      </trkpt>
      <trkpt lat="45.91132" lon="3.94934">
        <ele>529</ele>
        <time>2012-09-30T11:03:19Z</time>
      </trkpt>
      <trkpt lat="45.91127" lon="3.94948">
        <ele>529</ele>
        <time>2012-09-30T11:03:22Z</time>
      </trkpt>
      <trkpt lat="45.91123" lon="3.94954">
        <ele>529</ele>
        <time>2012-09-30T11:03:24Z</time>
      </trkpt>
      <trkpt lat="45.91119" lon="3.9496">
        <ele>529</ele>
        <time>2012-09-30T11:03:26Z</time>
      </trkpt>
      <trkpt lat="45.91111" lon="3.94968">
        <ele>529</ele>
        <time>2012-09-30T11:03:30Z</time>
      </trkpt>
      <trkpt lat="45.91107" lon="3.94974">
        <ele>528</ele>
        <time>2012-09-30T11:03:33Z</time>
      </trkpt>
      <trkpt lat="45.91107" lon="3.94981">
        <ele>528</ele>
        <time>2012-09-30T11:03:35Z</time>
      </trkpt>
      <trkpt lat="45.91107" lon="3.95001">
        <ele>528</ele>
        <time>2012-09-30T11:03:38Z</time>
      </trkpt>
      <trkpt lat="45.9111" lon="3.95014">
        <ele>528</ele>
        <time>2012-09-30T11:03:40Z</time>
      </trkpt>
      <trkpt lat="45.91112" lon="3.9503">
        <ele>528</ele>
        <time>2012-09-30T11:03:42Z</time>
      </trkpt>
      <trkpt lat="45.91114" lon="3.95049">
        <ele>528</ele>
        <time>2012-09-30T11:03:44Z</time>
      </trkpt>
      <trkpt lat="45.91114" lon="3.95068">
        <ele>528</ele>
        <time>2012-09-30T11:03:46Z</time>
      </trkpt>
      <trkpt lat="45.91115" lon="3.95095">
        <ele>528</ele>
        <time>2012-09-30T11:03:48Z</time>
      </trkpt>
      <trkpt lat="45.91116" lon="3.95108">
        <ele>527</ele>
        <time>2012-09-30T11:03:49Z</time>
      </trkpt>
      <trkpt lat="45.91116" lon="3.95121">
        <ele>527</ele>
        <time>2012-09-30T11:03:50Z</time>
      </trkpt>
      <trkpt lat="45.91117" lon="3.95135">
        <ele>527</ele>
        <time>2012-09-30T11:03:51Z</time>
      </trkpt>
      <trkpt lat="45.91117" lon="3.95147">
        <ele>526</ele>
        <time>2012-09-30T11:03:52Z</time>
      </trkpt>
      <trkpt lat="45.91118" lon="3.95173">
        <ele>526</ele>
        <time>2012-09-30T11:03:54Z</time>
      </trkpt>
      <trkpt lat="45.9112" lon="3.95186">
        <ele>526</ele>
        <time>2012-09-30T11:03:55Z</time>
      </trkpt>
      <trkpt lat="45.91121" lon="3.95199">
        <ele>526</ele>
        <time>2012-09-30T11:03:56Z</time>
      </trkpt>
      <trkpt lat="45.91123" lon="3.95212">
        <ele>526</ele>
        <time>2012-09-30T11:03:57Z</time>
      </trkpt>
      <trkpt lat="45.91125" lon="3.95226">
        <ele>525</ele>
        <time>2012-09-30T11:03:58Z</time>
      </trkpt>
      <trkpt lat="45.91127" lon="3.9524">
        <ele>525</ele>
        <time>2012-09-30T11:03:59Z</time>
      </trkpt>
      <trkpt lat="45.91129" lon="3.95254">
        <ele>524</ele>
        <time>2012-09-30T11:04:00Z</time>
      </trkpt>
      <trkpt lat="45.91132" lon="3.95267">
        <ele>523</ele>
        <time>2012-09-30T11:04:01Z</time>
      </trkpt>
      <trkpt lat="45.91135" lon="3.95281">
        <ele>523</ele>
        <time>2012-09-30T11:04:02Z</time>
      </trkpt>
      <trkpt lat="45.91138" lon="3.95296">
        <ele>522</ele>
        <time>2012-09-30T11:04:03Z</time>
      </trkpt>
      <trkpt lat="45.91141" lon="3.9531">
        <ele>521</ele>
        <time>2012-09-30T11:04:04Z</time>
      </trkpt>
      <trkpt lat="45.91144" lon="3.95324">
        <ele>521</ele>
        <time>2012-09-30T11:04:05Z</time>
      </trkpt>
      <trkpt lat="45.91147" lon="3.95339">
        <ele>520</ele>
        <time>2012-09-30T11:04:06Z</time>
      </trkpt>
      <trkpt lat="45.9115" lon="3.95353">
        <ele>519</ele>
        <time>2012-09-30T11:04:07Z</time>
      </trkpt>
      <trkpt lat="45.91153" lon="3.95367">
        <ele>518</ele>
        <time>2012-09-30T11:04:08Z</time>
      </trkpt>
      <trkpt lat="45.91156" lon="3.95382">
        <ele>518</ele>
        <time>2012-09-30T11:04:09Z</time>
      </trkpt>
      <trkpt lat="45.91158" lon="3.95396">
        <ele>517</ele>
        <time>2012-09-30T11:04:10Z</time>
      </trkpt>
      <trkpt lat="45.91159" lon="3.9541">
        <ele>516</ele>
        <time>2012-09-30T11:04:11Z</time>
      </trkpt>
      <trkpt lat="45.91156" lon="3.95425">
        <ele>516</ele>
        <time>2012-09-30T11:04:12Z</time>
      </trkpt>
      <trkpt lat="45.91152" lon="3.95439">
        <ele>516</ele>
        <time>2012-09-30T11:04:13Z</time>
      </trkpt>
      <trkpt lat="45.91149" lon="3.95452">
        <ele>515</ele>
        <time>2012-09-30T11:04:14Z</time>
      </trkpt>
      <trkpt lat="45.91145" lon="3.95464">
        <ele>515</ele>
        <time>2012-09-30T11:04:15Z</time>
      </trkpt>
      <trkpt lat="45.91139" lon="3.95484">
        <ele>514</ele>
        <time>2012-09-30T11:04:17Z</time>
      </trkpt>
      <trkpt lat="45.91131" lon="3.95496">
        <ele>513</ele>
        <time>2012-09-30T11:04:19Z</time>
      </trkpt>
      <trkpt lat="45.91124" lon="3.95503">
        <ele>512</ele>
        <time>2012-09-30T11:04:21Z</time>
      </trkpt>
      <trkpt lat="45.91113" lon="3.95507">
        <ele>511</ele>
        <time>2012-09-30T11:04:24Z</time>
      </trkpt>
      <trkpt lat="45.91102" lon="3.95503">
        <ele>510</ele>
        <time>2012-09-30T11:04:27Z</time>
      </trkpt>
      <trkpt lat="45.91093" lon="3.95496">
        <ele>509</ele>
        <time>2012-09-30T11:04:30Z</time>
      </trkpt>
      <trkpt lat="45.91083" lon="3.95493">
        <ele>508</ele>
        <time>2012-09-30T11:04:34Z</time>
      </trkpt>
      <trkpt lat="45.91071" lon="3.95489">
        <ele>507</ele>
        <time>2012-09-30T11:04:40Z</time>
      </trkpt>
      <trkpt lat="45.91061" lon="3.95486">
        <ele>508</ele>
        <time>2012-09-30T11:04:45Z</time>
      </trkpt>
      <trkpt lat="45.91051" lon="3.95482">
        <ele>511</ele>
        <time>2012-09-30T11:04:50Z</time>
      </trkpt>
      <trkpt lat="45.91032" lon="3.95478">
        <ele>515</ele>
        <time>2012-09-30T11:04:58Z</time>
      </trkpt>
      <trkpt lat="45.91018" lon="3.95479">
        <ele>518</ele>
        <time>2012-09-30T11:05:03Z</time>
      </trkpt>
      <trkpt lat="45.91009" lon="3.95483">
        <ele>519</ele>
        <time>2012-09-30T11:05:08Z</time>
      </trkpt>
      <trkpt lat="45.90998" lon="3.95488">
        <ele>521</ele>
        <time>2012-09-30T11:05:12Z</time>
      </trkpt>
      <trkpt lat="45.90981" lon="3.95499">
        <ele>526</ele>
        <time>2012-09-30T11:05:18Z</time>
      </trkpt>
      <trkpt lat="45.9097" lon="3.95505">
        <ele>529</ele>
        <time>2012-09-30T11:05:21Z</time>
      </trkpt>
      <trkpt lat="45.90956" lon="3.95514">
        <ele>533</ele>
        <time>2012-09-30T11:05:27Z</time>
      </trkpt>
      <trkpt lat="45.90949" lon="3.95522">
        <ele>534</ele>
        <time>2012-09-30T11:05:30Z</time>
      </trkpt>
      <trkpt lat="45.90941" lon="3.95531">
        <ele>536</ele>
        <time>2012-09-30T11:05:33Z</time>
      </trkpt>
      <trkpt lat="45.90935" lon="3.95543">
        <ele>539</ele>
        <time>2012-09-30T11:05:36Z</time>
      </trkpt>
      <trkpt lat="45.90925" lon="3.95552">
        <ele>541</ele>
        <time>2012-09-30T11:05:39Z</time>
      </trkpt>
      <trkpt lat="45.90918" lon="3.95561">
        <ele>542</ele>
        <time>2012-09-30T11:05:42Z</time>
      </trkpt>
      <trkpt lat="45.90911" lon="3.9557">
        <ele>543</ele>
        <time>2012-09-30T11:05:45Z</time>
      </trkpt>
      <trkpt lat="45.90902" lon="3.95577">
        <ele>544</ele>
        <time>2012-09-30T11:05:48Z</time>
      </trkpt>
      <trkpt lat="45.90891" lon="3.95578">
        <ele>544</ele>
        <time>2012-09-30T11:05:51Z</time>
      </trkpt>
      <trkpt lat="45.90883" lon="3.95585">
        <ele>544</ele>
        <time>2012-09-30T11:05:54Z</time>
      </trkpt>
      <trkpt lat="45.90875" lon="3.95596">
        <ele>544</ele>
        <time>2012-09-30T11:05:58Z</time>
      </trkpt>
      <trkpt lat="45.90869" lon="3.95616">
        <ele>544</ele>
        <time>2012-09-30T11:06:09Z</time>
      </trkpt>
      <trkpt lat="45.90866" lon="3.9563">
        <ele>545</ele>
        <time>2012-09-30T11:06:15Z</time>
      </trkpt>
      <trkpt lat="45.90865" lon="3.95644">
        <ele>549</ele>
        <time>2012-09-30T11:06:20Z</time>
      </trkpt>
      <trkpt lat="45.90863" lon="3.95658">
        <ele>552</ele>
        <time>2012-09-30T11:06:25Z</time>
      </trkpt>
      <trkpt lat="45.90861" lon="3.95681">
        <ele>556</ele>
        <time>2012-09-30T11:06:30Z</time>
      </trkpt>
      <trkpt lat="45.90862" lon="3.9571">
        <ele>560</ele>
        <time>2012-09-30T11:06:37Z</time>
      </trkpt>
      <trkpt lat="45.90862" lon="3.95734">
        <ele>558</ele>
        <time>2012-09-30T11:06:41Z</time>
      </trkpt>
      <trkpt lat="45.90863" lon="3.95747">
        <ele>556</ele>
        <time>2012-09-30T11:06:44Z</time>
      </trkpt>
      <trkpt lat="45.90862" lon="3.95763">
        <ele>553</ele>
        <time>2012-09-30T11:06:48Z</time>
      </trkpt>
      <trkpt lat="45.9086" lon="3.9577">
        <ele>551</ele>
        <time>2012-09-30T11:06:50Z</time>
      </trkpt>
      <trkpt lat="45.90857" lon="3.95786">
        <ele>549</ele>
        <time>2012-09-30T11:06:54Z</time>
      </trkpt>
      <trkpt lat="45.90854" lon="3.95798">
        <ele>547</ele>
        <time>2012-09-30T11:06:57Z</time>
      </trkpt>
      <trkpt lat="45.90851" lon="3.9581">
        <ele>547</ele>
        <time>2012-09-30T11:07:00Z</time>
      </trkpt>
      <trkpt lat="45.90849" lon="3.95817">
        <ele>546</ele>
        <time>2012-09-30T11:07:02Z</time>
      </trkpt>
      <trkpt lat="45.90844" lon="3.95832">
        <ele>547</ele>
        <time>2012-09-30T11:07:06Z</time>
      </trkpt>
      <trkpt lat="45.9084" lon="3.95841">
        <ele>548</ele>
        <time>2012-09-30T11:07:08Z</time>
      </trkpt>
      <trkpt lat="45.90835" lon="3.95852">
        <ele>549</ele>
        <time>2012-09-30T11:07:11Z</time>
      </trkpt>
      <trkpt lat="45.90829" lon="3.95863">
        <ele>549</ele>
        <time>2012-09-30T11:07:14Z</time>
      </trkpt>
      <trkpt lat="45.90825" lon="3.95875">
        <ele>549</ele>
        <time>2012-09-30T11:07:18Z</time>
      </trkpt>
      <trkpt lat="45.90818" lon="3.95888">
        <ele>550</ele>
        <time>2012-09-30T11:07:22Z</time>
      </trkpt>
      <trkpt lat="45.90806" lon="3.95905">
        <ele>551</ele>
        <time>2012-09-30T11:07:30Z</time>
      </trkpt>
      <trkpt lat="45.90795" lon="3.95918">
        <ele>554</ele>
        <time>2012-09-30T11:07:36Z</time>
      </trkpt>
      <trkpt lat="45.90783" lon="3.95934">
        <ele>555</ele>
        <time>2012-09-30T11:07:44Z</time>
      </trkpt>
      <trkpt lat="45.90775" lon="3.95942">
        <ele>556</ele>
        <time>2012-09-30T11:07:49Z</time>
      </trkpt>
      <trkpt lat="45.90766" lon="3.95951">
        <ele>557</ele>
        <time>2012-09-30T11:07:54Z</time>
      </trkpt>
      <trkpt lat="45.90757" lon="3.9596">
        <ele>559</ele>
        <time>2012-09-30T11:07:58Z</time>
      </trkpt>
      <trkpt lat="45.90747" lon="3.95966">
        <ele>559</ele>
        <time>2012-09-30T11:08:02Z</time>
      </trkpt>
      <trkpt lat="45.90738" lon="3.95969">
        <ele>558</ele>
        <time>2012-09-30T11:08:05Z</time>
      </trkpt>
      <trkpt lat="45.90728" lon="3.95977">
        <ele>557</ele>
        <time>2012-09-30T11:08:09Z</time>
      </trkpt>
      <trkpt lat="45.9072" lon="3.95987">
        <ele>558</ele>
        <time>2012-09-30T11:08:12Z</time>
      </trkpt>
      <trkpt lat="45.90712" lon="3.95997">
        <ele>558</ele>
        <time>2012-09-30T11:08:16Z</time>
      </trkpt>
      <trkpt lat="45.90708" lon="3.96007">
        <ele>558</ele>
        <time>2012-09-30T11:08:19Z</time>
      </trkpt>
      <trkpt lat="45.90705" lon="3.96015">
        <ele>558</ele>
        <time>2012-09-30T11:08:21Z</time>
      </trkpt>
      <trkpt lat="45.90703" lon="3.96021">
        <ele>558</ele>
        <time>2012-09-30T11:08:23Z</time>
      </trkpt>
      <trkpt lat="45.90701" lon="3.96027">
        <ele>558</ele>
        <time>2012-09-30T11:08:25Z</time>
      </trkpt>
      <trkpt lat="45.90691" lon="3.96048">
        <ele>558</ele>
        <time>2012-09-30T11:08:38Z</time>
      </trkpt>
      <trkpt lat="45.90687" lon="3.96063">
        <ele>561</ele>
        <time>2012-09-30T11:08:42Z</time>
      </trkpt>
      <trkpt lat="45.90681" lon="3.9608">
        <ele>563</ele>
        <time>2012-09-30T11:08:47Z</time>
      </trkpt>
      <trkpt lat="45.90676" lon="3.96093">
        <ele>566</ele>
        <time>2012-09-30T11:08:52Z</time>
      </trkpt>
      <trkpt lat="45.90671" lon="3.96108">
        <ele>569</ele>
        <time>2012-09-30T11:08:57Z</time>
      </trkpt>
      <trkpt lat="45.90666" lon="3.96122">
        <ele>571</ele>
        <time>2012-09-30T11:09:01Z</time>
      </trkpt>
      <trkpt lat="45.90663" lon="3.96134">
        <ele>573</ele>
        <time>2012-09-30T11:09:04Z</time>
      </trkpt>
      <trkpt lat="45.90661" lon="3.96147">
        <ele>574</ele>
        <time>2012-09-30T11:09:07Z</time>
      </trkpt>
      <trkpt lat="45.90658" lon="3.96157">
        <ele>574</ele>
        <time>2012-09-30T11:09:10Z</time>
      </trkpt>
      <trkpt lat="45.90651" lon="3.96174">
        <ele>575</ele>
        <time>2012-09-30T11:09:15Z</time>
      </trkpt>
      <trkpt lat="45.90646" lon="3.96187">
        <ele>575</ele>
        <time>2012-09-30T11:09:19Z</time>
      </trkpt>
      <trkpt lat="45.90638" lon="3.96197">
        <ele>574</ele>
        <time>2012-09-30T11:09:23Z</time>
      </trkpt>
      <trkpt lat="45.90633" lon="3.96208">
        <ele>575</ele>
        <time>2012-09-30T11:09:27Z</time>
      </trkpt>
      <trkpt lat="45.90627" lon="3.96219">
        <ele>575</ele>
        <time>2012-09-30T11:09:31Z</time>
      </trkpt>
      <trkpt lat="45.90622" lon="3.9623">
        <ele>574</ele>
        <time>2012-09-30T11:09:34Z</time>
      </trkpt>
      <trkpt lat="45.90613" lon="3.9624">
        <ele>574</ele>
        <time>2012-09-30T11:09:38Z</time>
      </trkpt>
      <trkpt lat="45.90605" lon="3.9625">
        <ele>574</ele>
        <time>2012-09-30T11:09:42Z</time>
      </trkpt>
      <trkpt lat="45.90601" lon="3.96262">
        <ele>574</ele>
        <time>2012-09-30T11:09:46Z</time>
      </trkpt>
      <trkpt lat="45.90594" lon="3.96275">
        <ele>573</ele>
        <time>2012-09-30T11:09:51Z</time>
      </trkpt>
      <trkpt lat="45.90589" lon="3.96287">
        <ele>574</ele>
        <time>2012-09-30T11:09:55Z</time>
      </trkpt>
      <trkpt lat="45.90582" lon="3.96299">
        <ele>575</ele>
        <time>2012-09-30T11:10:00Z</time>
      </trkpt>
      <trkpt lat="45.90576" lon="3.9631">
        <ele>576</ele>
        <time>2012-09-30T11:10:04Z</time>
      </trkpt>
      <trkpt lat="45.90568" lon="3.9632">
        <ele>577</ele>
        <time>2012-09-30T11:10:09Z</time>
      </trkpt>
      <trkpt lat="45.90562" lon="3.96332">
        <ele>579</ele>
        <time>2012-09-30T11:10:13Z</time>
      </trkpt>
      <trkpt lat="45.90558" lon="3.96337">
        <ele>579</ele>
        <time>2012-09-30T11:10:15Z</time>
      </trkpt>
      <trkpt lat="45.90554" lon="3.96341">
        <ele>580</ele>
        <time>2012-09-30T11:10:17Z</time>
      </trkpt>
      <trkpt lat="45.90547" lon="3.96346">
        <ele>580</ele>
        <time>2012-09-30T11:10:20Z</time>
      </trkpt>
      <trkpt lat="45.90542" lon="3.96348">
        <ele>581</ele>
        <time>2012-09-30T11:10:22Z</time>
      </trkpt>
      <trkpt lat="45.90534" lon="3.96351">
        <ele>580</ele>
        <time>2012-09-30T11:10:25Z</time>
      </trkpt>
      <trkpt lat="45.90528" lon="3.96353">
        <ele>580</ele>
        <time>2012-09-30T11:10:27Z</time>
      </trkpt>
      <trkpt lat="45.90519" lon="3.96354">
        <ele>581</ele>
        <time>2012-09-30T11:10:30Z</time>
      </trkpt>
      <trkpt lat="45.90514" lon="3.96354">
        <ele>580</ele>
        <time>2012-09-30T11:10:32Z</time>
      </trkpt>
      <trkpt lat="45.90509" lon="3.96354">
        <ele>580</ele>
        <time>2012-09-30T11:10:34Z</time>
      </trkpt>
      <trkpt lat="45.90503" lon="3.96352">
        <ele>580</ele>
        <time>2012-09-30T11:10:37Z</time>
      </trkpt>
      <trkpt lat="45.90499" lon="3.96348">
        <ele>580</ele>
        <time>2012-09-30T11:10:40Z</time>
      </trkpt>
      <trkpt lat="45.90495" lon="3.96344">
        <ele>579</ele>
        <time>2012-09-30T11:10:42Z</time>
      </trkpt>
      <trkpt lat="45.90491" lon="3.96341">
        <ele>579</ele>
        <time>2012-09-30T11:10:44Z</time>
      </trkpt>
      <trkpt lat="45.90485" lon="3.96337">
        <ele>579</ele>
        <time>2012-09-30T11:10:47Z</time>
      </trkpt>
      <trkpt lat="45.90481" lon="3.96334">
        <ele>579</ele>
        <time>2012-09-30T11:10:50Z</time>
      </trkpt>
      <trkpt lat="45.90477" lon="3.96329">
        <ele>579</ele>
        <time>2012-09-30T11:10:53Z</time>
      </trkpt>
      <trkpt lat="45.90475" lon="3.96322">
        <ele>579</ele>
        <time>2012-09-30T11:10:56Z</time>
      </trkpt>
      <trkpt lat="45.90466" lon="3.96313">
        <ele>577</ele>
        <time>2012-09-30T11:11:23Z</time>
      </trkpt>
      <trkpt lat="45.90461" lon="3.96303">
        <ele>579</ele>
        <time>2012-09-30T11:11:27Z</time>
      </trkpt>
      <trkpt lat="45.90455" lon="3.9629">
        <ele>580</ele>
        <time>2012-09-30T11:11:31Z</time>
      </trkpt>
      <trkpt lat="45.90449" lon="3.96277">
        <ele>581</ele>
        <time>2012-09-30T11:11:35Z</time>
      </trkpt>
      <trkpt lat="45.90447" lon="3.96271">
        <ele>582</ele>
        <time>2012-09-30T11:11:37Z</time>
      </trkpt>
      <trkpt lat="45.90444" lon="3.96265">
        <ele>582</ele>
        <time>2012-09-30T11:11:39Z</time>
      </trkpt>
      <trkpt lat="45.90441" lon="3.96259">
        <ele>582</ele>
        <time>2012-09-30T11:11:41Z</time>
      </trkpt>
      <trkpt lat="45.90438" lon="3.96253">
        <ele>583</ele>
        <time>2012-09-30T11:11:43Z</time>
      </trkpt>
      <trkpt lat="45.90432" lon="3.9624">
        <ele>584</ele>
        <time>2012-09-30T11:11:47Z</time>
      </trkpt>
      <trkpt lat="45.90429" lon="3.96234">
        <ele>584</ele>
        <time>2012-09-30T11:11:49Z</time>
      </trkpt>
      <trkpt lat="45.90425" lon="3.96227">
        <ele>584</ele>
        <time>2012-09-30T11:11:51Z</time>
      </trkpt>
      <trkpt lat="45.90422" lon="3.96221">
        <ele>585</ele>
        <time>2012-09-30T11:11:53Z</time>
      </trkpt>
      <trkpt lat="45.90418" lon="3.96215">
        <ele>585</ele>
        <time>2012-09-30T11:11:55Z</time>
      </trkpt>
      <trkpt lat="45.90415" lon="3.96205">
        <ele>585</ele>
        <time>2012-09-30T11:11:58Z</time>
      </trkpt>
      <trkpt lat="45.90411" lon="3.96198">
        <ele>585</ele>
        <time>2012-09-30T11:12:00Z</time>
      </trkpt>
      <trkpt lat="45.90404" lon="3.96186">
        <ele>585</ele>
        <time>2012-09-30T11:12:04Z</time>
      </trkpt>
      <trkpt lat="45.904" lon="3.9618">
        <ele>585</ele>
        <time>2012-09-30T11:12:07Z</time>
      </trkpt>
      <trkpt lat="45.90396" lon="3.96173">
        <ele>586</ele>
        <time>2012-09-30T11:12:10Z</time>
      </trkpt>
      <trkpt lat="45.90392" lon="3.96168">
        <ele>586</ele>
        <time>2012-09-30T11:12:12Z</time>
      </trkpt>
      <trkpt lat="45.90388" lon="3.96164">
        <ele>586</ele>
        <time>2012-09-30T11:12:14Z</time>
      </trkpt>
      <trkpt lat="45.90383" lon="3.96159">
        <ele>586</ele>
        <time>2012-09-30T11:12:16Z</time>
      </trkpt>
      <trkpt lat="45.90379" lon="3.96156">
        <ele>586</ele>
        <time>2012-09-30T11:12:18Z</time>
      </trkpt>
      <trkpt lat="45.90374" lon="3.96153">
        <ele>587</ele>
        <time>2012-09-30T11:12:20Z</time>
      </trkpt>
      <trkpt lat="45.90369" lon="3.96149">
        <ele>587</ele>
        <time>2012-09-30T11:12:22Z</time>
      </trkpt>
      <trkpt lat="45.90365" lon="3.96146">
        <ele>588</ele>
        <time>2012-09-30T11:12:24Z</time>
      </trkpt>
      <trkpt lat="45.9036" lon="3.96143">
        <ele>589</ele>
        <time>2012-09-30T11:12:26Z</time>
      </trkpt>
      <trkpt lat="45.90356" lon="3.96142">
        <ele>589</ele>
        <time>2012-09-30T11:12:28Z</time>
      </trkpt>
      <trkpt lat="45.9035" lon="3.9614">
        <ele>590</ele>
        <time>2012-09-30T11:12:30Z</time>
      </trkpt>
      <trkpt lat="45.90345" lon="3.96137">
        <ele>590</ele>
        <time>2012-09-30T11:12:32Z</time>
      </trkpt>
      <trkpt lat="45.9034" lon="3.96135">
        <ele>591</ele>
        <time>2012-09-30T11:12:34Z</time>
      </trkpt>
      <trkpt lat="45.90335" lon="3.96134">
        <ele>591</ele>
        <time>2012-09-30T11:12:36Z</time>
      </trkpt>
      <trkpt lat="45.9033" lon="3.96132">
        <ele>592</ele>
        <time>2012-09-30T11:12:38Z</time>
      </trkpt>
      <trkpt lat="45.90325" lon="3.9613">
        <ele>592</ele>
        <time>2012-09-30T11:12:40Z</time>
      </trkpt>
      <trkpt lat="45.9032" lon="3.96128">
        <ele>593</ele>
        <time>2012-09-30T11:12:42Z</time>
      </trkpt>
      <trkpt lat="45.90314" lon="3.96126">
        <ele>594</ele>
        <time>2012-09-30T11:12:44Z</time>
      </trkpt>
      <trkpt lat="45.90309" lon="3.96124">
        <ele>594</ele>
        <time>2012-09-30T11:12:46Z</time>
      </trkpt>
      <trkpt lat="45.90303" lon="3.96122">
        <ele>594</ele>
        <time>2012-09-30T11:12:48Z</time>
      </trkpt>
      <trkpt lat="45.90298" lon="3.96119">
        <ele>594</ele>
        <time>2012-09-30T11:12:50Z</time>
      </trkpt>
      <trkpt lat="45.90293" lon="3.96116">
        <ele>595</ele>
        <time>2012-09-30T11:12:52Z</time>
      </trkpt>
      <trkpt lat="45.90286" lon="3.96112">
        <ele>595</ele>
        <time>2012-09-30T11:12:54Z</time>
      </trkpt>
      <trkpt lat="45.90281" lon="3.9611">
        <ele>596</ele>
        <time>2012-09-30T11:12:56Z</time>
      </trkpt>
      <trkpt lat="45.90274" lon="3.96108">
        <ele>596</ele>
        <time>2012-09-30T11:12:58Z</time>
      </trkpt>
      <trkpt lat="45.90268" lon="3.96105">
        <ele>597</ele>
        <time>2012-09-30T11:13:00Z</time>
      </trkpt>
      <trkpt lat="45.90261" lon="3.96104">
        <ele>597</ele>
        <time>2012-09-30T11:13:02Z</time>
      </trkpt>
      <trkpt lat="45.90253" lon="3.96103">
        <ele>597</ele>
        <time>2012-09-30T11:13:04Z</time>
      </trkpt>
      <trkpt lat="45.90247" lon="3.96103">
        <ele>597</ele>
        <time>2012-09-30T11:13:06Z</time>
      </trkpt>
      <trkpt lat="45.9024" lon="3.96107">
        <ele>597</ele>
        <time>2012-09-30T11:13:10Z</time>
      </trkpt>
      <trkpt lat="45.90236" lon="3.96112">
        <ele>597</ele>
        <time>2012-09-30T11:13:12Z</time>
      </trkpt>
      <trkpt lat="45.90231" lon="3.96118">
        <ele>597</ele>
        <time>2012-09-30T11:13:14Z</time>
      </trkpt>
      <trkpt lat="45.90227" lon="3.96126">
        <ele>597</ele>
        <time>2012-09-30T11:13:16Z</time>
      </trkpt>
      <trkpt lat="45.90223" lon="3.96136">
        <ele>597</ele>
        <time>2012-09-30T11:13:18Z</time>
      </trkpt>
      <trkpt lat="45.90221" lon="3.96141">
        <ele>597</ele>
        <time>2012-09-30T11:13:19Z</time>
      </trkpt>
      <trkpt lat="45.90218" lon="3.96146">
        <ele>596</ele>
        <time>2012-09-30T11:13:20Z</time>
      </trkpt>
      <trkpt lat="45.90214" lon="3.96152">
        <ele>596</ele>
        <time>2012-09-30T11:13:21Z</time>
      </trkpt>
      <trkpt lat="45.9021" lon="3.96157">
        <ele>596</ele>
        <time>2012-09-30T11:13:22Z</time>
      </trkpt>
      <trkpt lat="45.902" lon="3.96162">
        <ele>596</ele>
        <time>2012-09-30T11:13:24Z</time>
      </trkpt>
      <trkpt lat="45.90188" lon="3.9616">
        <ele>595</ele>
        <time>2012-09-30T11:13:26Z</time>
      </trkpt>
      <trkpt lat="45.90179" lon="3.9615">
        <ele>594</ele>
        <time>2012-09-30T11:13:28Z</time>
      </trkpt>
      <trkpt lat="45.90173" lon="3.96133">
        <ele>594</ele>
        <time>2012-09-30T11:13:30Z</time>
      </trkpt>
      <trkpt lat="45.90173" lon="3.96114">
        <ele>594</ele>
        <time>2012-09-30T11:13:32Z</time>
      </trkpt>
      <trkpt lat="45.90175" lon="3.96095">
        <ele>593</ele>
        <time>2012-09-30T11:13:34Z</time>
      </trkpt>
      <trkpt lat="45.90179" lon="3.96077">
        <ele>592</ele>
        <time>2012-09-30T11:13:36Z</time>
      </trkpt>
      <trkpt lat="45.90181" lon="3.96068">
        <ele>592</ele>
        <time>2012-09-30T11:13:37Z</time>
      </trkpt>
      <trkpt lat="45.90184" lon="3.96059">
        <ele>591</ele>
        <time>2012-09-30T11:13:38Z</time>
      </trkpt>
      <trkpt lat="45.90186" lon="3.9605">
        <ele>591</ele>
        <time>2012-09-30T11:13:39Z</time>
      </trkpt>
      <trkpt lat="45.90188" lon="3.96043">
        <ele>590</ele>
        <time>2012-09-30T11:13:40Z</time>
      </trkpt>
      <trkpt lat="45.9019" lon="3.96036">
        <ele>590</ele>
        <time>2012-09-30T11:13:41Z</time>
      </trkpt>
      <trkpt lat="45.90193" lon="3.96025">
        <ele>589</ele>
        <time>2012-09-30T11:13:43Z</time>
      </trkpt>
      <trkpt lat="45.90197" lon="3.96017">
        <ele>589</ele>
        <time>2012-09-30T11:13:59Z</time>
      </trkpt>
      <trkpt lat="45.90191" lon="3.96063">
        <ele>590</ele>
        <time>2012-09-30T11:17:08Z</time>
      </trkpt>
      <trkpt lat="45.90185" lon="3.96081">
        <ele>591</ele>
        <time>2012-09-30T11:17:10Z</time>
      </trkpt>
      <trkpt lat="45.9018" lon="3.96099">
        <ele>593</ele>
        <time>2012-09-30T11:17:12Z</time>
      </trkpt>
      <trkpt lat="45.90179" lon="3.96114">
        <ele>594</ele>
        <time>2012-09-30T11:17:14Z</time>
      </trkpt>
      <trkpt lat="45.90182" lon="3.96136">
        <ele>597</ele>
        <time>2012-09-30T11:17:18Z</time>
      </trkpt>
      <trkpt lat="45.90188" lon="3.96147">
        <ele>598</ele>
        <time>2012-09-30T11:17:20Z</time>
      </trkpt>
      <trkpt lat="45.90196" lon="3.96154">
        <ele>600</ele>
        <time>2012-09-30T11:17:23Z</time>
      </trkpt>
      <trkpt lat="45.90207" lon="3.96155">
        <ele>601</ele>
        <time>2012-09-30T11:17:26Z</time>
      </trkpt>
      <trkpt lat="45.90216" lon="3.96151">
        <ele>601</ele>
        <time>2012-09-30T11:17:29Z</time>
      </trkpt>
      <trkpt lat="45.90224" lon="3.96139">
        <ele>602</ele>
        <time>2012-09-30T11:17:32Z</time>
      </trkpt>
      <trkpt lat="45.90231" lon="3.96127">
        <ele>602</ele>
        <time>2012-09-30T11:17:35Z</time>
      </trkpt>
      <trkpt lat="45.90237" lon="3.96112">
        <ele>602</ele>
        <time>2012-09-30T11:17:38Z</time>
      </trkpt>
      <trkpt lat="45.90248" lon="3.96105">
        <ele>603</ele>
        <time>2012-09-30T11:17:41Z</time>
      </trkpt>
      <trkpt lat="45.9026" lon="3.96103">
        <ele>604</ele>
        <time>2012-09-30T11:17:44Z</time>
      </trkpt>
      <trkpt lat="45.90273" lon="3.96107">
        <ele>605</ele>
        <time>2012-09-30T11:17:48Z</time>
      </trkpt>
      <trkpt lat="45.90284" lon="3.96111">
        <ele>605</ele>
        <time>2012-09-30T11:17:50Z</time>
      </trkpt>
      <trkpt lat="45.90293" lon="3.96116">
        <ele>605</ele>
        <time>2012-09-30T11:17:52Z</time>
      </trkpt>
      <trkpt lat="45.90302" lon="3.96121">
        <ele>605</ele>
        <time>2012-09-30T11:17:54Z</time>
      </trkpt>
      <trkpt lat="45.90312" lon="3.96127">
        <ele>604</ele>
        <time>2012-09-30T11:17:56Z</time>
      </trkpt>
      <trkpt lat="45.90323" lon="3.96132">
        <ele>604</ele>
        <time>2012-09-30T11:17:58Z</time>
      </trkpt>
      <trkpt lat="45.90334" lon="3.96138">
        <ele>603</ele>
        <time>2012-09-30T11:18:00Z</time>
      </trkpt>
      <trkpt lat="45.90345" lon="3.96143">
        <ele>603</ele>
        <time>2012-09-30T11:18:02Z</time>
      </trkpt>
      <trkpt lat="45.90358" lon="3.96147">
        <ele>602</ele>
        <time>2012-09-30T11:18:04Z</time>
      </trkpt>
      <trkpt lat="45.90373" lon="3.96153">
        <ele>602</ele>
        <time>2012-09-30T11:18:06Z</time>
      </trkpt>
      <trkpt lat="45.90388" lon="3.9616">
        <ele>601</ele>
        <time>2012-09-30T11:18:08Z</time>
      </trkpt>
      <trkpt lat="45.90403" lon="3.96171">
        <ele>601</ele>
        <time>2012-09-30T11:18:10Z</time>
      </trkpt>
      <trkpt lat="45.90416" lon="3.96187">
        <ele>601</ele>
        <time>2012-09-30T11:18:12Z</time>
      </trkpt>
      <trkpt lat="45.90425" lon="3.96208">
        <ele>601</ele>
        <time>2012-09-30T11:18:14Z</time>
      </trkpt>
      <trkpt lat="45.90429" lon="3.96221">
        <ele>600</ele>
        <time>2012-09-30T11:18:15Z</time>
      </trkpt>
      <trkpt lat="45.90434" lon="3.96233">
        <ele>600</ele>
        <time>2012-09-30T11:18:16Z</time>
      </trkpt>
      <trkpt lat="45.90439" lon="3.96245">
        <ele>600</ele>
        <time>2012-09-30T11:18:17Z</time>
      </trkpt>
      <trkpt lat="45.90445" lon="3.96258">
        <ele>599</ele>
        <time>2012-09-30T11:18:18Z</time>
      </trkpt>
      <trkpt lat="45.9045" lon="3.9627">
        <ele>599</ele>
        <time>2012-09-30T11:18:19Z</time>
      </trkpt>
      <trkpt lat="45.90455" lon="3.96281">
        <ele>599</ele>
        <time>2012-09-30T11:18:20Z</time>
      </trkpt>
      <trkpt lat="45.90464" lon="3.96298">
        <ele>598</ele>
        <time>2012-09-30T11:18:22Z</time>
      </trkpt>
      <trkpt lat="45.9047" lon="3.96312">
        <ele>598</ele>
        <time>2012-09-30T11:18:24Z</time>
      </trkpt>
      <trkpt lat="45.90476" lon="3.96326">
        <ele>598</ele>
        <time>2012-09-30T11:18:26Z</time>
      </trkpt>
      <trkpt lat="45.90483" lon="3.96342">
        <ele>598</ele>
        <time>2012-09-30T11:18:29Z</time>
      </trkpt>
      <trkpt lat="45.90492" lon="3.96353">
        <ele>597</ele>
        <time>2012-09-30T11:18:31Z</time>
      </trkpt>
      <trkpt lat="45.90503" lon="3.96363">
        <ele>596</ele>
        <time>2012-09-30T11:18:33Z</time>
      </trkpt>
      <trkpt lat="45.90513" lon="3.96372">
        <ele>596</ele>
        <time>2012-09-30T11:18:35Z</time>
      </trkpt>
      <trkpt lat="45.90522" lon="3.96378">
        <ele>595</ele>
        <time>2012-09-30T11:18:37Z</time>
      </trkpt>
      <trkpt lat="45.90532" lon="3.96383">
        <ele>593</ele>
        <time>2012-09-30T11:18:39Z</time>
      </trkpt>
      <trkpt lat="45.90542" lon="3.96386">
        <ele>592</ele>
        <time>2012-09-30T11:18:41Z</time>
      </trkpt>
      <trkpt lat="45.90552" lon="3.96386">
        <ele>590</ele>
        <time>2012-09-30T11:18:43Z</time>
      </trkpt>
      <trkpt lat="45.90562" lon="3.96381">
        <ele>589</ele>
        <time>2012-09-30T11:18:45Z</time>
      </trkpt>
      <trkpt lat="45.90572" lon="3.96376">
        <ele>588</ele>
        <time>2012-09-30T11:18:47Z</time>
      </trkpt>
      <trkpt lat="45.90883" lon="3.96388">
        <ele>557</ele>
        <time>2012-09-30T11:20:15Z</time>
      </trkpt>
      <trkpt lat="45.90875" lon="3.96403">
        <ele>544</ele>
        <time>2012-09-30T11:20:20Z</time>
      </trkpt>
      <trkpt lat="45.90864" lon="3.96475">
        <ele>522</ele>
        <time>2012-09-30T11:20:44Z</time>
      </trkpt>
      <trkpt lat="45.90867" lon="3.96488">
        <ele>520</ele>
        <time>2012-09-30T11:20:50Z</time>
      </trkpt>
      <trkpt lat="45.90873" lon="3.96499">
        <ele>518</ele>
        <time>2012-09-30T11:20:56Z</time>
      </trkpt>
      <trkpt lat="45.9088" lon="3.96512">
        <ele>516</ele>
        <time>2012-09-30T11:21:00Z</time>
      </trkpt>
      <trkpt lat="45.90884" lon="3.96524">
        <ele>515</ele>
        <time>2012-09-30T11:21:07Z</time>
      </trkpt>
      <trkpt lat="45.90885" lon="3.96537">
        <ele>512</ele>
        <time>2012-09-30T11:21:14Z</time>
      </trkpt>
      <trkpt lat="45.90886" lon="3.96552">
        <ele>510</ele>
        <time>2012-09-30T11:21:22Z</time>
      </trkpt>
      <trkpt lat="45.90889" lon="3.96565">
        <ele>509</ele>
        <time>2012-09-30T11:21:29Z</time>
      </trkpt>
      <trkpt lat="45.90892" lon="3.96578">
        <ele>507</ele>
        <time>2012-09-30T11:21:36Z</time>
      </trkpt>
      <trkpt lat="45.90895" lon="3.96591">
        <ele>505</ele>
        <time>2012-09-30T11:21:41Z</time>
      </trkpt>
      <trkpt lat="45.90901" lon="3.96601">
        <ele>504</ele>
        <time>2012-09-30T11:21:52Z</time>
      </trkpt>
      <trkpt lat="45.90908" lon="3.9661">
        <ele>510</ele>
        <time>2012-09-30T11:21:58Z</time>
      </trkpt>
      <trkpt lat="45.90917" lon="3.96619">
        <ele>513</ele>
        <time>2012-09-30T11:22:03Z</time>
      </trkpt>
      <trkpt lat="45.90923" lon="3.96631">
        <ele>516</ele>
        <time>2012-09-30T11:22:10Z</time>
      </trkpt>
      <trkpt lat="45.90928" lon="3.96643">
        <ele>518</ele>
        <time>2012-09-30T11:22:15Z</time>
      </trkpt>
      <trkpt lat="45.90933" lon="3.96654">
        <ele>520</ele>
        <time>2012-09-30T11:22:21Z</time>
      </trkpt>
      <trkpt lat="45.90937" lon="3.96667">
        <ele>521</ele>
        <time>2012-09-30T11:22:29Z</time>
      </trkpt>
      <trkpt lat="45.90942" lon="3.96679">
        <ele>521</ele>
        <time>2012-09-30T11:22:35Z</time>
      </trkpt>
      <trkpt lat="45.90946" lon="3.96692">
        <ele>523</ele>
        <time>2012-09-30T11:22:44Z</time>
      </trkpt>
      <trkpt lat="45.90946" lon="3.96707">
        <ele>524</ele>
        <time>2012-09-30T11:22:52Z</time>
      </trkpt>
      <trkpt lat="45.90951" lon="3.96718">
        <ele>524</ele>
        <time>2012-09-30T11:22:57Z</time>
      </trkpt>
      <trkpt lat="45.90958" lon="3.9673">
        <ele>526</ele>
        <time>2012-09-30T11:23:04Z</time>
      </trkpt>
      <trkpt lat="45.90961" lon="3.96743">
        <ele>525</ele>
        <time>2012-09-30T11:23:11Z</time>
      </trkpt>
      <trkpt lat="45.90963" lon="3.96756">
        <ele>525</ele>
        <time>2012-09-30T11:23:20Z</time>
      </trkpt>
      <trkpt lat="45.90966" lon="3.9677">
        <ele>525</ele>
        <time>2012-09-30T11:23:27Z</time>
      </trkpt>
      <trkpt lat="45.90969" lon="3.96782">
        <ele>527</ele>
        <time>2012-09-30T11:23:34Z</time>
      </trkpt>
      <trkpt lat="45.90977" lon="3.96792">
        <ele>528</ele>
        <time>2012-09-30T11:23:40Z</time>
      </trkpt>
      <trkpt lat="45.90984" lon="3.96801">
        <ele>529</ele>
        <time>2012-09-30T11:23:48Z</time>
      </trkpt>
      <trkpt lat="45.90991" lon="3.96811">
        <ele>531</ele>
        <time>2012-09-30T11:23:56Z</time>
      </trkpt>
      <trkpt lat="45.90998" lon="3.96825">
        <ele>536</ele>
        <time>2012-09-30T11:24:04Z</time>
      </trkpt>
      <trkpt lat="45.91002" lon="3.96837">
        <ele>540</ele>
        <time>2012-09-30T11:24:10Z</time>
      </trkpt>
      <trkpt lat="45.91006" lon="3.96849">
        <ele>542</ele>
        <time>2012-09-30T11:24:18Z</time>
      </trkpt>
      <trkpt lat="45.91012" lon="3.96859">
        <ele>542</ele>
        <time>2012-09-30T11:24:24Z</time>
      </trkpt>
      <trkpt lat="45.91014" lon="3.96873">
        <ele>542</ele>
        <time>2012-09-30T11:24:29Z</time>
      </trkpt>
      <trkpt lat="45.91016" lon="3.96887">
        <ele>542</ele>
        <time>2012-09-30T11:24:35Z</time>
      </trkpt>
      <trkpt lat="45.91017" lon="3.969">
        <ele>542</ele>
        <time>2012-09-30T11:24:40Z</time>
      </trkpt>
      <trkpt lat="45.91017" lon="3.96915">
        <ele>541</ele>
        <time>2012-09-30T11:24:46Z</time>
      </trkpt>
      <trkpt lat="45.9102" lon="3.96929">
        <ele>541</ele>
        <time>2012-09-30T11:24:52Z</time>
      </trkpt>
      <trkpt lat="45.91024" lon="3.96943">
        <ele>543</ele>
        <time>2012-09-30T11:24:59Z</time>
      </trkpt>
      <trkpt lat="45.91028" lon="3.96957">
        <ele>548</ele>
        <time>2012-09-30T11:25:07Z</time>
      </trkpt>
      <trkpt lat="45.91026" lon="3.96971">
        <ele>547</ele>
        <time>2012-09-30T11:25:12Z</time>
      </trkpt>
      <trkpt lat="45.91029" lon="3.96988">
        <ele>546</ele>
        <time>2012-09-30T11:25:19Z</time>
      </trkpt>
      <trkpt lat="45.91031" lon="3.97002">
        <ele>546</ele>
        <time>2012-09-30T11:25:23Z</time>
      </trkpt>
      <trkpt lat="45.91041" lon="3.97009">
        <ele>547</ele>
        <time>2012-09-30T11:25:27Z</time>
      </trkpt>
      <trkpt lat="45.9105" lon="3.97017">
        <ele>549</ele>
        <time>2012-09-30T11:25:31Z</time>
      </trkpt>
      <trkpt lat="45.91059" lon="3.97022">
        <ele>552</ele>
        <time>2012-09-30T11:25:35Z</time>
      </trkpt>
      <trkpt lat="45.91069" lon="3.97027">
        <ele>555</ele>
        <time>2012-09-30T11:25:39Z</time>
      </trkpt>
      <trkpt lat="45.9108" lon="3.97034">
        <ele>559</ele>
        <time>2012-09-30T11:25:43Z</time>
      </trkpt>
      <trkpt lat="45.91091" lon="3.97039">
        <ele>562</ele>
        <time>2012-09-30T11:25:47Z</time>
      </trkpt>
      <trkpt lat="45.911" lon="3.97046">
        <ele>565</ele>
        <time>2012-09-30T11:25:51Z</time>
      </trkpt>
      <trkpt lat="45.91109" lon="3.97051">
        <ele>568</ele>
        <time>2012-09-30T11:25:55Z</time>
      </trkpt>
      <trkpt lat="45.91114" lon="3.97054">
        <ele>569</ele>
        <time>2012-09-30T11:25:57Z</time>
      </trkpt>
      <trkpt lat="45.91123" lon="3.97058">
        <ele>571</ele>
        <time>2012-09-30T11:26:01Z</time>
      </trkpt>
      <trkpt lat="45.91134" lon="3.97061">
        <ele>574</ele>
        <time>2012-09-30T11:26:06Z</time>
      </trkpt>
      <trkpt lat="45.91138" lon="3.97063">
        <ele>575</ele>
        <time>2012-09-30T11:26:08Z</time>
      </trkpt>
      <trkpt lat="45.91143" lon="3.97064">
        <ele>576</ele>
        <time>2012-09-30T11:26:10Z</time>
      </trkpt>
      <trkpt lat="45.91153" lon="3.97066">
        <ele>575</ele>
        <time>2012-09-30T11:26:14Z</time>
      </trkpt>
      <trkpt lat="45.91163" lon="3.97071">
        <ele>576</ele>
        <time>2012-09-30T11:26:18Z</time>
      </trkpt>
      <trkpt lat="45.91173" lon="3.97078">
        <ele>576</ele>
        <time>2012-09-30T11:26:22Z</time>
      </trkpt>
      <trkpt lat="45.91183" lon="3.97084">
        <ele>577</ele>
        <time>2012-09-30T11:26:26Z</time>
      </trkpt>
      <trkpt lat="45.91194" lon="3.97088">
        <ele>577</ele>
        <time>2012-09-30T11:26:31Z</time>
      </trkpt>
      <trkpt lat="45.91202" lon="3.97093">
        <ele>577</ele>
        <time>2012-09-30T11:26:35Z</time>
      </trkpt>
      <trkpt lat="45.91211" lon="3.97099">
        <ele>578</ele>
        <time>2012-09-30T11:26:39Z</time>
      </trkpt>
      <trkpt lat="45.91219" lon="3.97107">
        <ele>577</ele>
        <time>2012-09-30T11:26:43Z</time>
      </trkpt>
      <trkpt lat="45.91227" lon="3.97117">
        <ele>577</ele>
        <time>2012-09-30T11:26:48Z</time>
      </trkpt>
      <trkpt lat="45.91236" lon="3.97125">
        <ele>575</ele>
        <time>2012-09-30T11:26:53Z</time>
      </trkpt>
      <trkpt lat="45.91246" lon="3.97131">
        <ele>571</ele>
        <time>2012-09-30T11:26:58Z</time>
      </trkpt>
      <trkpt lat="45.91255" lon="3.97139">
        <ele>569</ele>
        <time>2012-09-30T11:27:02Z</time>
      </trkpt>
      <trkpt lat="45.91263" lon="3.97148">
        <ele>567</ele>
        <time>2012-09-30T11:27:06Z</time>
      </trkpt>
      <trkpt lat="45.91272" lon="3.97149">
        <ele>566</ele>
        <time>2012-09-30T11:27:11Z</time>
      </trkpt>
      <trkpt lat="45.91279" lon="3.9714">
        <ele>567</ele>
        <time>2012-09-30T11:27:15Z</time>
      </trkpt>
      <trkpt lat="45.91285" lon="3.97126">
        <ele>569</ele>
        <time>2012-09-30T11:27:18Z</time>
      </trkpt>
      <trkpt lat="45.91289" lon="3.97108">
        <ele>573</ele>
        <time>2012-09-30T11:27:21Z</time>
      </trkpt>
      <trkpt lat="45.91293" lon="3.97088">
        <ele>576</ele>
        <time>2012-09-30T11:27:24Z</time>
      </trkpt>
      <trkpt lat="45.913" lon="3.97074">
        <ele>577</ele>
        <time>2012-09-30T11:27:26Z</time>
      </trkpt>
      <trkpt lat="45.91306" lon="3.97059">
        <ele>578</ele>
        <time>2012-09-30T11:27:28Z</time>
      </trkpt>
      <trkpt lat="45.91312" lon="3.97047">
        <ele>579</ele>
        <time>2012-09-30T11:27:30Z</time>
      </trkpt>
      <trkpt lat="45.91318" lon="3.97036">
        <ele>579</ele>
        <time>2012-09-30T11:27:32Z</time>
      </trkpt>
      <trkpt lat="45.91327" lon="3.97026">
        <ele>580</ele>
        <time>2012-09-30T11:27:34Z</time>
      </trkpt>
      <trkpt lat="45.91337" lon="3.97016">
        <ele>581</ele>
        <time>2012-09-30T11:27:36Z</time>
      </trkpt>
      <trkpt lat="45.91346" lon="3.97006">
        <ele>582</ele>
        <time>2012-09-30T11:27:38Z</time>
      </trkpt>
      <trkpt lat="45.91356" lon="3.96992">
        <ele>583</ele>
        <time>2012-09-30T11:27:40Z</time>
      </trkpt>
      <trkpt lat="45.91365" lon="3.96979">
        <ele>585</ele>
        <time>2012-09-30T11:27:42Z</time>
      </trkpt>
      <trkpt lat="45.91374" lon="3.96967">
        <ele>586</ele>
        <time>2012-09-30T11:27:44Z</time>
      </trkpt>
      <trkpt lat="45.91383" lon="3.96953">
        <ele>587</ele>
        <time>2012-09-30T11:27:46Z</time>
      </trkpt>
      <trkpt lat="45.91391" lon="3.96943">
        <ele>588</ele>
        <time>2012-09-30T11:27:48Z</time>
      </trkpt>
      <trkpt lat="45.91399" lon="3.9693">
        <ele>589</ele>
        <time>2012-09-30T11:27:51Z</time>
      </trkpt>
      <trkpt lat="45.91406" lon="3.96917">
        <ele>589</ele>
        <time>2012-09-30T11:27:55Z</time>
      </trkpt>
      <trkpt lat="45.91415" lon="3.96925">
        <ele>588</ele>
        <time>2012-09-30T11:27:59Z</time>
      </trkpt>
      <trkpt lat="45.91425" lon="3.96947">
        <ele>587</ele>
        <time>2012-09-30T11:28:03Z</time>
      </trkpt>
      <trkpt lat="45.91428" lon="3.9696">
        <ele>587</ele>
        <time>2012-09-30T11:28:05Z</time>
      </trkpt>
      <trkpt lat="45.91432" lon="3.96973">
        <ele>587</ele>
        <time>2012-09-30T11:28:07Z</time>
      </trkpt>
      <trkpt lat="45.91434" lon="3.96989">
        <ele>586</ele>
        <time>2012-09-30T11:28:10Z</time>
      </trkpt>
      <trkpt lat="45.91437" lon="3.97003">
        <ele>585</ele>
        <time>2012-09-30T11:28:13Z</time>
      </trkpt>
      <trkpt lat="45.9144" lon="3.97018">
        <ele>585</ele>
        <time>2012-09-30T11:28:17Z</time>
      </trkpt>
      <trkpt lat="45.91445" lon="3.9703">
        <ele>586</ele>
        <time>2012-09-30T11:28:23Z</time>
      </trkpt>
      <trkpt lat="45.91452" lon="3.97042">
        <ele>587</ele>
        <time>2012-09-30T11:28:29Z</time>
      </trkpt>
      <trkpt lat="45.91459" lon="3.97051">
        <ele>589</ele>
        <time>2012-09-30T11:28:33Z</time>
      </trkpt>
      <trkpt lat="45.91467" lon="3.97061">
        <ele>592</ele>
        <time>2012-09-30T11:28:38Z</time>
      </trkpt>
      <trkpt lat="45.91474" lon="3.97072">
        <ele>594</ele>
        <time>2012-09-30T11:28:44Z</time>
      </trkpt>
      <trkpt lat="45.9148" lon="3.97085">
        <ele>594</ele>
        <time>2012-09-30T11:28:49Z</time>
      </trkpt>
      <trkpt lat="45.91486" lon="3.97095">
        <ele>595</ele>
        <time>2012-09-30T11:28:54Z</time>
      </trkpt>
      <trkpt lat="45.91494" lon="3.97105">
        <ele>596</ele>
        <time>2012-09-30T11:28:57Z</time>
      </trkpt>
      <trkpt lat="45.91502" lon="3.97114">
        <ele>597</ele>
        <time>2012-09-30T11:29:00Z</time>
      </trkpt>
      <trkpt lat="45.91511" lon="3.97122">
        <ele>598</ele>
        <time>2012-09-30T11:29:03Z</time>
      </trkpt>
      <trkpt lat="45.91519" lon="3.9713">
        <ele>598</ele>
        <time>2012-09-30T11:29:06Z</time>
      </trkpt>
      <trkpt lat="45.91523" lon="3.97145">
        <ele>598</ele>
        <time>2012-09-30T11:29:10Z</time>
      </trkpt>
      <trkpt lat="45.91524" lon="3.97158">
        <ele>599</ele>
        <time>2012-09-30T11:29:14Z</time>
      </trkpt>
      <trkpt lat="45.91534" lon="3.97158">
        <ele>601</ele>
        <time>2012-09-30T11:29:25Z</time>
      </trkpt>
      <trkpt lat="45.91536" lon="3.97144">
        <ele>602</ele>
        <time>2012-09-30T11:29:28Z</time>
      </trkpt>
      <trkpt lat="45.91538" lon="3.9713">
        <ele>603</ele>
        <time>2012-09-30T11:29:32Z</time>
      </trkpt>
      <trkpt lat="45.91541" lon="3.97117">
        <ele>603</ele>
        <time>2012-09-30T11:29:36Z</time>
      </trkpt>
      <trkpt lat="45.91543" lon="3.97102">
        <ele>604</ele>
        <time>2012-09-30T11:29:40Z</time>
      </trkpt>
      <trkpt lat="45.91545" lon="3.97087">
        <ele>604</ele>
        <time>2012-09-30T11:29:44Z</time>
      </trkpt>
      <trkpt lat="45.91549" lon="3.97074">
        <ele>604</ele>
        <time>2012-09-30T11:29:48Z</time>
      </trkpt>
      <trkpt lat="45.91551" lon="3.9706">
        <ele>604</ele>
        <time>2012-09-30T11:29:51Z</time>
      </trkpt>
      <trkpt lat="45.91554" lon="3.97045">
        <ele>603</ele>
        <time>2012-09-30T11:29:55Z</time>
      </trkpt>
      <trkpt lat="45.91558" lon="3.97033">
        <ele>602</ele>
        <time>2012-09-30T11:29:58Z</time>
      </trkpt>
      <trkpt lat="45.9156" lon="3.97019">
        <ele>602</ele>
        <time>2012-09-30T11:30:01Z</time>
      </trkpt>
      <trkpt lat="45.91561" lon="3.97002">
        <ele>602</ele>
        <time>2012-09-30T11:30:04Z</time>
      </trkpt>
      <trkpt lat="45.91561" lon="3.96988">
        <ele>601</ele>
        <time>2012-09-30T11:30:07Z</time>
      </trkpt>
      <trkpt lat="45.91562" lon="3.96974">
        <ele>601</ele>
        <time>2012-09-30T11:30:10Z</time>
      </trkpt>
      <trkpt lat="45.91563" lon="3.9696">
        <ele>600</ele>
        <time>2012-09-30T11:30:13Z</time>
      </trkpt>
      <trkpt lat="45.91563" lon="3.96946">
        <ele>599</ele>
        <time>2012-09-30T11:30:16Z</time>
      </trkpt>
      <trkpt lat="45.91565" lon="3.9693">
        <ele>598</ele>
        <time>2012-09-30T11:30:19Z</time>
      </trkpt>
      <trkpt lat="45.91565" lon="3.96916">
        <ele>598</ele>
        <time>2012-09-30T11:30:22Z</time>
      </trkpt>
      <trkpt lat="45.91564" lon="3.96901">
        <ele>598</ele>
        <time>2012-09-30T11:30:26Z</time>
      </trkpt>
      <trkpt lat="45.91564" lon="3.96887">
        <ele>599</ele>
        <time>2012-09-30T11:30:30Z</time>
      </trkpt>
      <trkpt lat="45.91564" lon="3.96871">
        <ele>601</ele>
        <time>2012-09-30T11:30:35Z</time>
      </trkpt>
      <trkpt lat="45.91566" lon="3.96855">
        <ele>601</ele>
        <time>2012-09-30T11:30:39Z</time>
      </trkpt>
      <trkpt lat="45.91569" lon="3.96842">
        <ele>602</ele>
        <time>2012-09-30T11:30:43Z</time>
      </trkpt>
      <trkpt lat="45.91573" lon="3.96827">
        <ele>606</ele>
        <time>2012-09-30T11:30:48Z</time>
      </trkpt>
      <trkpt lat="45.9158" lon="3.96815">
        <ele>608</ele>
        <time>2012-09-30T11:30:53Z</time>
      </trkpt>
      <trkpt lat="45.91583" lon="3.96802">
        <ele>611</ele>
        <time>2012-09-30T11:30:59Z</time>
      </trkpt>
      <trkpt lat="45.91586" lon="3.96789">
        <ele>613</ele>
        <time>2012-09-30T11:31:05Z</time>
      </trkpt>
      <trkpt lat="45.91591" lon="3.96775">
        <ele>616</ele>
        <time>2012-09-30T11:31:11Z</time>
      </trkpt>
      <trkpt lat="45.91594" lon="3.96762">
        <ele>617</ele>
        <time>2012-09-30T11:31:15Z</time>
      </trkpt>
      <trkpt lat="45.91597" lon="3.96749">
        <ele>619</ele>
        <time>2012-09-30T11:31:20Z</time>
      </trkpt>
      <trkpt lat="45.916" lon="3.96735">
        <ele>620</ele>
        <time>2012-09-30T11:31:24Z</time>
      </trkpt>
      <trkpt lat="45.91603" lon="3.9672">
        <ele>622</ele>
        <time>2012-09-30T11:31:28Z</time>
      </trkpt>
      <trkpt lat="45.91605" lon="3.96703">
        <ele>622</ele>
        <time>2012-09-30T11:31:32Z</time>
      </trkpt>
      <trkpt lat="45.91606" lon="3.9669">
        <ele>622</ele>
        <time>2012-09-30T11:31:35Z</time>
      </trkpt>
      <trkpt lat="45.91608" lon="3.96677">
        <ele>623</ele>
        <time>2012-09-30T11:31:38Z</time>
      </trkpt>
      <trkpt lat="45.91614" lon="3.96659">
        <ele>623</ele>
        <time>2012-09-30T11:31:41Z</time>
      </trkpt>
      <trkpt lat="45.91618" lon="3.96648">
        <ele>623</ele>
        <time>2012-09-30T11:31:43Z</time>
      </trkpt>
      <trkpt lat="45.91624" lon="3.9663">
        <ele>622</ele>
        <time>2012-09-30T11:31:46Z</time>
      </trkpt>
      <trkpt lat="45.91627" lon="3.96618">
        <ele>621</ele>
        <time>2012-09-30T11:31:48Z</time>
      </trkpt>
      <trkpt lat="45.91631" lon="3.96604">
        <ele>621</ele>
        <time>2012-09-30T11:31:50Z</time>
      </trkpt>
      <trkpt lat="45.91634" lon="3.96588">
        <ele>621</ele>
        <time>2012-09-30T11:31:52Z</time>
      </trkpt>
      <trkpt lat="45.91638" lon="3.96573">
        <ele>621</ele>
        <time>2012-09-30T11:31:54Z</time>
      </trkpt>
      <trkpt lat="45.91642" lon="3.96557">
        <ele>621</ele>
        <time>2012-09-30T11:31:56Z</time>
      </trkpt>
      <trkpt lat="45.91646" lon="3.96542">
        <ele>621</ele>
        <time>2012-09-30T11:31:58Z</time>
      </trkpt>
      <trkpt lat="45.9165" lon="3.96527">
        <ele>620</ele>
        <time>2012-09-30T11:32:00Z</time>
      </trkpt>
      <trkpt lat="45.91654" lon="3.96512">
        <ele>620</ele>
        <time>2012-09-30T11:32:02Z</time>
      </trkpt>
      <trkpt lat="45.91659" lon="3.96498">
        <ele>619</ele>
        <time>2012-09-30T11:32:04Z</time>
      </trkpt>
      <trkpt lat="45.91664" lon="3.96484">
        <ele>619</ele>
        <time>2012-09-30T11:32:06Z</time>
      </trkpt>
      <trkpt lat="45.9167" lon="3.96469">
        <ele>619</ele>
        <time>2012-09-30T11:32:08Z</time>
      </trkpt>
      <trkpt lat="45.91678" lon="3.96448">
        <ele>618</ele>
        <time>2012-09-30T11:32:11Z</time>
      </trkpt>
      <trkpt lat="45.91683" lon="3.96435">
        <ele>618</ele>
        <time>2012-09-30T11:32:13Z</time>
      </trkpt>
      <trkpt lat="45.91689" lon="3.96422">
        <ele>617</ele>
        <time>2012-09-30T11:32:15Z</time>
      </trkpt>
      <trkpt lat="45.91695" lon="3.9641">
        <ele>617</ele>
        <time>2012-09-30T11:32:17Z</time>
      </trkpt>
      <trkpt lat="45.91702" lon="3.96396">
        <ele>617</ele>
        <time>2012-09-30T11:32:19Z</time>
      </trkpt>
      <trkpt lat="45.91709" lon="3.96383">
        <ele>618</ele>
        <time>2012-09-30T11:32:21Z</time>
      </trkpt>
      <trkpt lat="45.91714" lon="3.9637">
        <ele>618</ele>
        <time>2012-09-30T11:32:23Z</time>
      </trkpt>
      <trkpt lat="45.91719" lon="3.96355">
        <ele>618</ele>
        <time>2012-09-30T11:32:25Z</time>
      </trkpt>
      <trkpt lat="45.91722" lon="3.96341">
        <ele>618</ele>
        <time>2012-09-30T11:32:27Z</time>
      </trkpt>
      <trkpt lat="45.91728" lon="3.96326">
        <ele>619</ele>
        <time>2012-09-30T11:32:30Z</time>
      </trkpt>
      <trkpt lat="45.91735" lon="3.96313">
        <ele>620</ele>
        <time>2012-09-30T11:32:33Z</time>
      </trkpt>
      <trkpt lat="45.91743" lon="3.96306">
        <ele>620</ele>
        <time>2012-09-30T11:32:35Z</time>
      </trkpt>
      <trkpt lat="45.91753" lon="3.96301">
        <ele>620</ele>
        <time>2012-09-30T11:32:37Z</time>
      </trkpt>
      <trkpt lat="45.91765" lon="3.96294">
        <ele>620</ele>
        <time>2012-09-30T11:32:39Z</time>
      </trkpt>
      <trkpt lat="45.91779" lon="3.96287">
        <ele>621</ele>
        <time>2012-09-30T11:32:41Z</time>
      </trkpt>
      <trkpt lat="45.91793" lon="3.96281">
        <ele>621</ele>
        <time>2012-09-30T11:32:43Z</time>
      </trkpt>
      <trkpt lat="45.91808" lon="3.96275">
        <ele>621</ele>
        <time>2012-09-30T11:32:45Z</time>
      </trkpt>
      <trkpt lat="45.91823" lon="3.96271">
        <ele>622</ele>
        <time>2012-09-30T11:32:47Z</time>
      </trkpt>
      <trkpt lat="45.9184" lon="3.96265">
        <ele>622</ele>
        <time>2012-09-30T11:32:49Z</time>
      </trkpt>
      <trkpt lat="45.91849" lon="3.96264">
        <ele>622</ele>
        <time>2012-09-30T11:32:50Z</time>
      </trkpt>
      <trkpt lat="45.91867" lon="3.96262">
        <ele>622</ele>
        <time>2012-09-30T11:32:52Z</time>
      </trkpt>
      <trkpt lat="45.91881" lon="3.96258">
        <ele>621</ele>
        <time>2012-09-30T11:32:54Z</time>
      </trkpt>
      <trkpt lat="45.91896" lon="3.96254">
        <ele>621</ele>
        <time>2012-09-30T11:32:56Z</time>
      </trkpt>
      <trkpt lat="45.91912" lon="3.96247">
        <ele>620</ele>
        <time>2012-09-30T11:32:58Z</time>
      </trkpt>
      <trkpt lat="45.91926" lon="3.96234">
        <ele>618</ele>
        <time>2012-09-30T11:33:00Z</time>
      </trkpt>
      <trkpt lat="45.91938" lon="3.9622">
        <ele>616</ele>
        <time>2012-09-30T11:33:02Z</time>
      </trkpt>
      <trkpt lat="45.9195" lon="3.96196">
        <ele>613</ele>
        <time>2012-09-30T11:33:06Z</time>
      </trkpt>
      <trkpt lat="45.91958" lon="3.96157">
        <ele>613</ele>
        <time>2012-09-30T11:33:11Z</time>
      </trkpt>
      <trkpt lat="45.91955" lon="3.96113">
        <ele>613</ele>
        <time>2012-09-30T11:33:17Z</time>
      </trkpt>
      <trkpt lat="45.91957" lon="3.96067">
        <ele>614</ele>
        <time>2012-09-30T11:33:23Z</time>
      </trkpt>
      <trkpt lat="45.91961" lon="3.9605">
        <ele>614</ele>
        <time>2012-09-30T11:33:25Z</time>
      </trkpt>
      <trkpt lat="45.91966" lon="3.96034">
        <ele>615</ele>
        <time>2012-09-30T11:33:27Z</time>
      </trkpt>
      <trkpt lat="45.91971" lon="3.96015">
        <ele>615</ele>
        <time>2012-09-30T11:33:29Z</time>
      </trkpt>
      <trkpt lat="45.91976" lon="3.95998">
        <ele>615</ele>
        <time>2012-09-30T11:33:31Z</time>
      </trkpt>
      <trkpt lat="45.91983" lon="3.95979">
        <ele>614</ele>
        <time>2012-09-30T11:33:33Z</time>
      </trkpt>
      <trkpt lat="45.91992" lon="3.9596">
        <ele>614</ele>
        <time>2012-09-30T11:33:35Z</time>
      </trkpt>
      <trkpt lat="45.91999" lon="3.95942">
        <ele>614</ele>
        <time>2012-09-30T11:33:37Z</time>
      </trkpt>
      <trkpt lat="45.92005" lon="3.95922">
        <ele>613</ele>
        <time>2012-09-30T11:33:39Z</time>
      </trkpt>
      <trkpt lat="45.92012" lon="3.95902">
        <ele>612</ele>
        <time>2012-09-30T11:33:41Z</time>
      </trkpt>
      <trkpt lat="45.92018" lon="3.95884">
        <ele>612</ele>
        <time>2012-09-30T11:33:43Z</time>
      </trkpt>
      <trkpt lat="45.92026" lon="3.95868">
        <ele>612</ele>
        <time>2012-09-30T11:33:45Z</time>
      </trkpt>
      <trkpt lat="45.92033" lon="3.95856">
        <ele>612</ele>
        <time>2012-09-30T11:33:47Z</time>
      </trkpt>
      <trkpt lat="45.92041" lon="3.95843">
        <ele>611</ele>
        <time>2012-09-30T11:33:49Z</time>
      </trkpt>
      <trkpt lat="45.92048" lon="3.95831">
        <ele>611</ele>
        <time>2012-09-30T11:33:51Z</time>
      </trkpt>
      <trkpt lat="45.92057" lon="3.9582">
        <ele>611</ele>
        <time>2012-09-30T11:33:53Z</time>
      </trkpt>
      <trkpt lat="45.92065" lon="3.95805">
        <ele>610</ele>
        <time>2012-09-30T11:33:56Z</time>
      </trkpt>
      <trkpt lat="45.92072" lon="3.95793">
        <ele>609</ele>
        <time>2012-09-30T11:33:58Z</time>
      </trkpt>
      <trkpt lat="45.9208" lon="3.95784">
        <ele>609</ele>
        <time>2012-09-30T11:34:00Z</time>
      </trkpt>
      <trkpt lat="45.9209" lon="3.95777">
        <ele>608</ele>
        <time>2012-09-30T11:34:02Z</time>
      </trkpt>
      <trkpt lat="45.92102" lon="3.95774">
        <ele>608</ele>
        <time>2012-09-30T11:34:04Z</time>
      </trkpt>
      <trkpt lat="45.92113" lon="3.95772">
        <ele>607</ele>
        <time>2012-09-30T11:34:06Z</time>
      </trkpt>
      <trkpt lat="45.92124" lon="3.9577">
        <ele>607</ele>
        <time>2012-09-30T11:34:08Z</time>
      </trkpt>
      <trkpt lat="45.92154" lon="3.95769">
        <ele>607</ele>
        <time>2012-09-30T11:34:13Z</time>
      </trkpt>
      <trkpt lat="45.92166" lon="3.95769">
        <ele>608</ele>
        <time>2012-09-30T11:34:15Z</time>
      </trkpt>
      <trkpt lat="45.92177" lon="3.95766">
        <ele>608</ele>
        <time>2012-09-30T11:34:17Z</time>
      </trkpt>
      <trkpt lat="45.92187" lon="3.95763">
        <ele>608</ele>
        <time>2012-09-30T11:34:19Z</time>
      </trkpt>
      <trkpt lat="45.92217" lon="3.95764">
        <ele>610</ele>
        <time>2012-09-30T11:34:45Z</time>
      </trkpt>
      <trkpt lat="45.92248" lon="3.95764">
        <ele>612</ele>
        <time>2012-09-30T11:35:01Z</time>
      </trkpt>
      <trkpt lat="45.92257" lon="3.95759">
        <ele>613</ele>
        <time>2012-09-30T11:35:07Z</time>
      </trkpt>
      <trkpt lat="45.92265" lon="3.95752">
        <ele>613</ele>
        <time>2012-09-30T11:35:09Z</time>
      </trkpt>
      <trkpt lat="45.92273" lon="3.95746">
        <ele>613</ele>
        <time>2012-09-30T11:35:13Z</time>
      </trkpt>
      <trkpt lat="45.92282" lon="3.95741">
        <ele>613</ele>
        <time>2012-09-30T11:35:18Z</time>
      </trkpt>
      <trkpt lat="45.92294" lon="3.95732">
        <ele>613</ele>
        <time>2012-09-30T11:35:24Z</time>
      </trkpt>
      <trkpt lat="45.92302" lon="3.95724">
        <ele>613</ele>
        <time>2012-09-30T11:35:28Z</time>
      </trkpt>
      <trkpt lat="45.9231" lon="3.95716">
        <ele>613</ele>
        <time>2012-09-30T11:35:32Z</time>
      </trkpt>
      <trkpt lat="45.92322" lon="3.957">
        <ele>611</ele>
        <time>2012-09-30T11:35:40Z</time>
      </trkpt>
      <trkpt lat="45.92323" lon="3.95686">
        <ele>609</ele>
        <time>2012-09-30T11:35:45Z</time>
      </trkpt>
      <trkpt lat="45.92329" lon="3.95663">
        <ele>606</ele>
        <time>2012-09-30T11:35:55Z</time>
      </trkpt>
      <trkpt lat="45.92337" lon="3.95655">
        <ele>606</ele>
        <time>2012-09-30T11:35:58Z</time>
      </trkpt>
      <trkpt lat="45.92347" lon="3.95647">
        <ele>606</ele>
        <time>2012-09-30T11:36:02Z</time>
      </trkpt>
      <trkpt lat="45.92359" lon="3.95637">
        <ele>606</ele>
        <time>2012-09-30T11:36:09Z</time>
      </trkpt>
      <trkpt lat="45.92367" lon="3.95632">
        <ele>606</ele>
        <time>2012-09-30T11:36:15Z</time>
      </trkpt>
      <trkpt lat="45.92378" lon="3.95628">
        <ele>606</ele>
        <time>2012-09-30T11:36:21Z</time>
      </trkpt>
      <trkpt lat="45.92389" lon="3.95627">
        <ele>607</ele>
        <time>2012-09-30T11:36:29Z</time>
      </trkpt>
      <trkpt lat="45.92399" lon="3.95625">
        <ele>610</ele>
        <time>2012-09-30T11:36:34Z</time>
      </trkpt>
      <trkpt lat="45.92409" lon="3.95624">
        <ele>611</ele>
        <time>2012-09-30T11:36:39Z</time>
      </trkpt>
      <trkpt lat="45.92419" lon="3.95623">
        <ele>611</ele>
        <time>2012-09-30T11:36:44Z</time>
      </trkpt>
      <trkpt lat="45.92428" lon="3.95621">
        <ele>610</ele>
        <time>2012-09-30T11:36:49Z</time>
      </trkpt>
      <trkpt lat="45.92438" lon="3.95621">
        <ele>610</ele>
        <time>2012-09-30T11:36:55Z</time>
      </trkpt>
      <trkpt lat="45.92448" lon="3.9562">
        <ele>610</ele>
        <time>2012-09-30T11:36:57Z</time>
      </trkpt>
      <trkpt lat="45.92464" lon="3.95623">
        <ele>613</ele>
        <time>2012-09-30T11:37:05Z</time>
      </trkpt>
      <trkpt lat="45.92473" lon="3.95625">
        <ele>617</ele>
        <time>2012-09-30T11:37:11Z</time>
      </trkpt>
      <trkpt lat="45.92483" lon="3.95625">
        <ele>620</ele>
        <time>2012-09-30T11:37:17Z</time>
      </trkpt>
      <trkpt lat="45.925" lon="3.95625">
        <ele>626</ele>
        <time>2012-09-30T11:37:28Z</time>
      </trkpt>
      <trkpt lat="45.9251" lon="3.95628">
        <ele>629</ele>
        <time>2012-09-30T11:37:33Z</time>
      </trkpt>
      <trkpt lat="45.9252" lon="3.95629">
        <ele>631</ele>
        <time>2012-09-30T11:37:38Z</time>
      </trkpt>
      <trkpt lat="45.92531" lon="3.95629">
        <ele>633</ele>
        <time>2012-09-30T11:37:43Z</time>
      </trkpt>
      <trkpt lat="45.92541" lon="3.95628">
        <ele>633</ele>
        <time>2012-09-30T11:37:48Z</time>
      </trkpt>
      <trkpt lat="45.92551" lon="3.95625">
        <ele>631</ele>
        <time>2012-09-30T11:37:53Z</time>
      </trkpt>
      <trkpt lat="45.92561" lon="3.95623">
        <ele>630</ele>
        <time>2012-09-30T11:37:57Z</time>
      </trkpt>
      <trkpt lat="45.92573" lon="3.95621">
        <ele>630</ele>
        <time>2012-09-30T11:38:00Z</time>
      </trkpt>
      <trkpt lat="45.92587" lon="3.95619">
        <ele>630</ele>
        <time>2012-09-30T11:38:06Z</time>
      </trkpt>
      <trkpt lat="45.92597" lon="3.95618">
        <ele>629</ele>
        <time>2012-09-30T11:38:10Z</time>
      </trkpt>
      <trkpt lat="45.92613" lon="3.95622">
        <ele>627</ele>
        <time>2012-09-30T11:38:18Z</time>
      </trkpt>
      <trkpt lat="45.92625" lon="3.95621">
        <ele>626</ele>
        <time>2012-09-30T11:38:24Z</time>
      </trkpt>
      <trkpt lat="45.92634" lon="3.95622">
        <ele>627</ele>
        <time>2012-09-30T11:38:27Z</time>
      </trkpt>
      <trkpt lat="45.92642" lon="3.95628">
        <ele>629</ele>
        <time>2012-09-30T11:38:30Z</time>
      </trkpt>
      <trkpt lat="45.92651" lon="3.95634">
        <ele>631</ele>
        <time>2012-09-30T11:38:34Z</time>
      </trkpt>
      <trkpt lat="45.92661" lon="3.95638">
        <ele>632</ele>
        <time>2012-09-30T11:38:38Z</time>
      </trkpt>
      <trkpt lat="45.92671" lon="3.95644">
        <ele>634</ele>
        <time>2012-09-30T11:38:42Z</time>
      </trkpt>
      <trkpt lat="45.9268" lon="3.95648">
        <ele>635</ele>
        <time>2012-09-30T11:38:45Z</time>
      </trkpt>
      <trkpt lat="45.92691" lon="3.95654">
        <ele>635</ele>
        <time>2012-09-30T11:38:49Z</time>
      </trkpt>
      <trkpt lat="45.92701" lon="3.9566">
        <ele>637</ele>
        <time>2012-09-30T11:38:53Z</time>
      </trkpt>
      <trkpt lat="45.92712" lon="3.95666">
        <ele>637</ele>
        <time>2012-09-30T11:38:57Z</time>
      </trkpt>
      <trkpt lat="45.92722" lon="3.95668">
        <ele>636</ele>
        <time>2012-09-30T11:39:00Z</time>
      </trkpt>
      <trkpt lat="45.92731" lon="3.95671">
        <ele>636</ele>
        <time>2012-09-30T11:39:03Z</time>
      </trkpt>
      <trkpt lat="45.9274" lon="3.95674">
        <ele>636</ele>
        <time>2012-09-30T11:39:06Z</time>
      </trkpt>
      <trkpt lat="45.9275" lon="3.95677">
        <ele>636</ele>
        <time>2012-09-30T11:39:09Z</time>
      </trkpt>
      <trkpt lat="45.92759" lon="3.9568">
        <ele>636</ele>
        <time>2012-09-30T11:39:12Z</time>
      </trkpt>
      <trkpt lat="45.9277" lon="3.95682">
        <ele>637</ele>
        <time>2012-09-30T11:39:16Z</time>
      </trkpt>
      <trkpt lat="45.92779" lon="3.95684">
        <ele>637</ele>
        <time>2012-09-30T11:39:19Z</time>
      </trkpt>
      <trkpt lat="45.9279" lon="3.95688">
        <ele>637</ele>
        <time>2012-09-30T11:39:22Z</time>
      </trkpt>
      <trkpt lat="45.92801" lon="3.95692">
        <ele>636</ele>
        <time>2012-09-30T11:39:25Z</time>
      </trkpt>
      <trkpt lat="45.92811" lon="3.95697">
        <ele>636</ele>
        <time>2012-09-30T11:39:28Z</time>
      </trkpt>
      <trkpt lat="45.92823" lon="3.95701">
        <ele>635</ele>
        <time>2012-09-30T11:39:32Z</time>
      </trkpt>
      <trkpt lat="45.92832" lon="3.95707">
        <ele>634</ele>
        <time>2012-09-30T11:39:35Z</time>
      </trkpt>
      <trkpt lat="45.9284" lon="3.95714">
        <ele>633</ele>
        <time>2012-09-30T11:39:38Z</time>
      </trkpt>
      <trkpt lat="45.9285" lon="3.95723">
        <ele>633</ele>
        <time>2012-09-30T11:39:41Z</time>
      </trkpt>
      <trkpt lat="45.9286" lon="3.9573">
        <ele>633</ele>
        <time>2012-09-30T11:39:44Z</time>
      </trkpt>
      <trkpt lat="45.92871" lon="3.95736">
        <ele>632</ele>
        <time>2012-09-30T11:39:47Z</time>
      </trkpt>
      <trkpt lat="45.92882" lon="3.95741">
        <ele>632</ele>
        <time>2012-09-30T11:39:50Z</time>
      </trkpt>
      <trkpt lat="45.92895" lon="3.95746">
        <ele>632</ele>
        <time>2012-09-30T11:39:53Z</time>
      </trkpt>
      <trkpt lat="45.92907" lon="3.9575">
        <ele>632</ele>
        <time>2012-09-30T11:39:56Z</time>
      </trkpt>
      <trkpt lat="45.92917" lon="3.95752">
        <ele>632</ele>
        <time>2012-09-30T11:39:58Z</time>
      </trkpt>
      <trkpt lat="45.92929" lon="3.95754">
        <ele>631</ele>
        <time>2012-09-30T11:40:00Z</time>
      </trkpt>
      <trkpt lat="45.92941" lon="3.95756">
        <ele>630</ele>
        <time>2012-09-30T11:40:02Z</time>
      </trkpt>
      <trkpt lat="45.9295" lon="3.95759">
        <ele>629</ele>
        <time>2012-09-30T11:40:04Z</time>
      </trkpt>
      <trkpt lat="45.9296" lon="3.9576">
        <ele>629</ele>
        <time>2012-09-30T11:40:06Z</time>
      </trkpt>
      <trkpt lat="45.92971" lon="3.9576">
        <ele>629</ele>
        <time>2012-09-30T11:40:09Z</time>
      </trkpt>
      <trkpt lat="45.92979" lon="3.95772">
        <ele>629</ele>
        <time>2012-09-30T11:40:12Z</time>
      </trkpt>
      <trkpt lat="45.92985" lon="3.95783">
        <ele>629</ele>
        <time>2012-09-30T11:40:14Z</time>
      </trkpt>
      <trkpt lat="45.92991" lon="3.95795">
        <ele>630</ele>
        <time>2012-09-30T11:40:16Z</time>
      </trkpt>
      <trkpt lat="45.92999" lon="3.95805">
        <ele>630</ele>
        <time>2012-09-30T11:40:18Z</time>
      </trkpt>
      <trkpt lat="45.93007" lon="3.95814">
        <ele>630</ele>
        <time>2012-09-30T11:40:20Z</time>
      </trkpt>
      <trkpt lat="45.93014" lon="3.95824">
        <ele>630</ele>
        <time>2012-09-30T11:40:22Z</time>
      </trkpt>
      <trkpt lat="45.93023" lon="3.95835">
        <ele>630</ele>
        <time>2012-09-30T11:40:24Z</time>
      </trkpt>
      <trkpt lat="45.9305" lon="3.95862">
        <ele>630</ele>
        <time>2012-09-30T11:40:29Z</time>
      </trkpt>
      <trkpt lat="45.93079" lon="3.95886">
        <ele>629</ele>
        <time>2012-09-30T11:40:33Z</time>
      </trkpt>
      <trkpt lat="45.93101" lon="3.95911">
        <ele>629</ele>
        <time>2012-09-30T11:40:36Z</time>
      </trkpt>
      <trkpt lat="45.93123" lon="3.95937">
        <ele>629</ele>
        <time>2012-09-30T11:40:39Z</time>
      </trkpt>
      <trkpt lat="45.9315" lon="3.95969">
        <ele>629</ele>
        <time>2012-09-30T11:40:43Z</time>
      </trkpt>
      <trkpt lat="45.93176" lon="3.95998">
        <ele>629</ele>
        <time>2012-09-30T11:40:47Z</time>
      </trkpt>
      <trkpt lat="45.93201" lon="3.96026">
        <ele>629</ele>
        <time>2012-09-30T11:40:51Z</time>
      </trkpt>
      <trkpt lat="45.93226" lon="3.96055">
        <ele>629</ele>
        <time>2012-09-30T11:40:55Z</time>
      </trkpt>
      <trkpt lat="45.93247" lon="3.96088">
        <ele>630</ele>
        <time>2012-09-30T11:40:59Z</time>
      </trkpt>
      <trkpt lat="45.93262" lon="3.96131">
        <ele>630</ele>
        <time>2012-09-30T11:41:03Z</time>
      </trkpt>
      <trkpt lat="45.93282" lon="3.96191">
        <ele>631</ele>
        <time>2012-09-30T11:41:09Z</time>
      </trkpt>
      <trkpt lat="45.93035" lon="3.96165">
        <ele>581.7</ele>
        <time>2012-09-30T11:41:29Z</time>
      </trkpt>
      <trkpt lat="45.93013" lon="3.96191">
        <ele>629</ele>
        <time>2012-09-30T11:41:34Z</time>
      </trkpt>
      <trkpt lat="45.9301" lon="3.96234">
        <ele>619</ele>
        <time>2012-09-30T11:41:38Z</time>
      </trkpt>
      <trkpt lat="45.92996" lon="3.96274">
        <ele>596</ele>
        <time>2012-09-30T11:41:45Z</time>
      </trkpt>
      <trkpt lat="45.93002" lon="3.96296">
        <ele>591</ele>
        <time>2012-09-30T11:41:47Z</time>
      </trkpt>
      <trkpt lat="45.93021" lon="3.96336">
        <ele>587</ele>
        <time>2012-09-30T11:41:51Z</time>
      </trkpt>
      <trkpt lat="45.93031" lon="3.96352">
        <ele>582</ele>
        <time>2012-09-30T11:41:53Z</time>
      </trkpt>
      <trkpt lat="45.93041" lon="3.96365">
        <ele>578</ele>
        <time>2012-09-30T11:41:55Z</time>
      </trkpt>
      <trkpt lat="45.93052" lon="3.96373">
        <ele>575</ele>
        <time>2012-09-30T11:41:57Z</time>
      </trkpt>
      <trkpt lat="45.93065" lon="3.96378">
        <ele>572</ele>
        <time>2012-09-30T11:41:59Z</time>
      </trkpt>
      <trkpt lat="45.93075" lon="3.96378">
        <ele>570</ele>
        <time>2012-09-30T11:42:01Z</time>
      </trkpt>
      <trkpt lat="45.93084" lon="3.96386">
        <ele>566</ele>
        <time>2012-09-30T11:42:07Z</time>
      </trkpt>
      <trkpt lat="45.93082" lon="3.964">
        <ele>566</ele>
        <time>2012-09-30T11:42:09Z</time>
      </trkpt>
      <trkpt lat="45.93078" lon="3.9642">
        <ele>566</ele>
        <time>2012-09-30T11:42:11Z</time>
      </trkpt>
      <trkpt lat="45.93071" lon="3.96441">
        <ele>566</ele>
        <time>2012-09-30T11:42:13Z</time>
      </trkpt>
      <trkpt lat="45.93066" lon="3.96456">
        <ele>566</ele>
        <time>2012-09-30T11:42:14Z</time>
      </trkpt>
      <trkpt lat="45.93054" lon="3.96486">
        <ele>565</ele>
        <time>2012-09-30T11:42:16Z</time>
      </trkpt>
      <trkpt lat="45.93042" lon="3.96518">
        <ele>565</ele>
        <time>2012-09-30T11:42:18Z</time>
      </trkpt>
      <trkpt lat="45.9303" lon="3.96562">
        <ele>565</ele>
        <time>2012-09-30T11:42:21Z</time>
      </trkpt>
      <trkpt lat="45.93027" lon="3.96596">
        <ele>565</ele>
        <time>2012-09-30T11:42:23Z</time>
      </trkpt>
      <trkpt lat="45.93027" lon="3.96612">
        <ele>565</ele>
        <time>2012-09-30T11:42:24Z</time>
      </trkpt>
      <trkpt lat="45.93028" lon="3.96626">
        <ele>564</ele>
        <time>2012-09-30T11:42:25Z</time>
      </trkpt>
      <trkpt lat="45.93029" lon="3.9664">
        <ele>564</ele>
        <time>2012-09-30T11:42:26Z</time>
      </trkpt>
      <trkpt lat="45.9303" lon="3.96653">
        <ele>564</ele>
        <time>2012-09-30T11:42:27Z</time>
      </trkpt>
      <trkpt lat="45.93029" lon="3.96676">
        <ele>563</ele>
        <time>2012-09-30T11:42:29Z</time>
      </trkpt>
      <trkpt lat="45.93021" lon="3.96718">
        <ele>562</ele>
        <time>2012-09-30T11:42:33Z</time>
      </trkpt>
      <trkpt lat="45.93015" lon="3.96736">
        <ele>561</ele>
        <time>2012-09-30T11:42:35Z</time>
      </trkpt>
      <trkpt lat="45.9301" lon="3.96755">
        <ele>560</ele>
        <time>2012-09-30T11:42:37Z</time>
      </trkpt>
      <trkpt lat="45.93007" lon="3.96771">
        <ele>560</ele>
        <time>2012-09-30T11:42:39Z</time>
      </trkpt>
      <trkpt lat="45.93006" lon="3.96784">
        <ele>559</ele>
        <time>2012-09-30T11:42:41Z</time>
      </trkpt>
      <trkpt lat="45.93007" lon="3.968">
        <ele>558</ele>
        <time>2012-09-30T11:42:44Z</time>
      </trkpt>
      <trkpt lat="45.93011" lon="3.96815">
        <ele>558</ele>
        <time>2012-09-30T11:42:46Z</time>
      </trkpt>
      <trkpt lat="45.93015" lon="3.96837">
        <ele>557</ele>
        <time>2012-09-30T11:42:48Z</time>
      </trkpt>
      <trkpt lat="45.93019" lon="3.96851">
        <ele>556</ele>
        <time>2012-09-30T11:42:49Z</time>
      </trkpt>
      <trkpt lat="45.93023" lon="3.96864">
        <ele>556</ele>
        <time>2012-09-30T11:42:50Z</time>
      </trkpt>
      <trkpt lat="45.93027" lon="3.96878">
        <ele>555</ele>
        <time>2012-09-30T11:42:51Z</time>
      </trkpt>
      <trkpt lat="45.93029" lon="3.96892">
        <ele>554</ele>
        <time>2012-09-30T11:42:52Z</time>
      </trkpt>
      <trkpt lat="45.93029" lon="3.96908">
        <ele>554</ele>
        <time>2012-09-30T11:42:53Z</time>
      </trkpt>
      <trkpt lat="45.93029" lon="3.96922">
        <ele>553</ele>
        <time>2012-09-30T11:42:54Z</time>
      </trkpt>
      <trkpt lat="45.93029" lon="3.96937">
        <ele>552</ele>
        <time>2012-09-30T11:42:55Z</time>
      </trkpt>
      <trkpt lat="45.93027" lon="3.96951">
        <ele>551</ele>
        <time>2012-09-30T11:42:56Z</time>
      </trkpt>
      <trkpt lat="45.93025" lon="3.96964">
        <ele>551</ele>
        <time>2012-09-30T11:42:57Z</time>
      </trkpt>
      <trkpt lat="45.93021" lon="3.96977">
        <ele>551</ele>
        <time>2012-09-30T11:42:58Z</time>
      </trkpt>
      <trkpt lat="45.93014" lon="3.97">
        <ele>550</ele>
        <time>2012-09-30T11:43:00Z</time>
      </trkpt>
      <trkpt lat="45.93007" lon="3.97011">
        <ele>550</ele>
        <time>2012-09-30T11:43:01Z</time>
      </trkpt>
      <trkpt lat="45.92999" lon="3.97021">
        <ele>549</ele>
        <time>2012-09-30T11:43:02Z</time>
      </trkpt>
      <trkpt lat="45.92989" lon="3.97032">
        <ele>549</ele>
        <time>2012-09-30T11:43:03Z</time>
      </trkpt>
      <trkpt lat="45.92966" lon="3.97048">
        <ele>549</ele>
        <time>2012-09-30T11:43:05Z</time>
      </trkpt>
      <trkpt lat="45.92945" lon="3.97065">
        <ele>549</ele>
        <time>2012-09-30T11:43:07Z</time>
      </trkpt>
      <trkpt lat="45.92921" lon="3.9708">
        <ele>548</ele>
        <time>2012-09-30T11:43:09Z</time>
      </trkpt>
      <trkpt lat="45.92897" lon="3.97093">
        <ele>548</ele>
        <time>2012-09-30T11:43:11Z</time>
      </trkpt>
      <trkpt lat="45.92874" lon="3.97104">
        <ele>548</ele>
        <time>2012-09-30T11:43:13Z</time>
      </trkpt>
      <trkpt lat="45.92851" lon="3.97115">
        <ele>547</ele>
        <time>2012-09-30T11:43:15Z</time>
      </trkpt>
      <trkpt lat="45.92831" lon="3.97125">
        <ele>547</ele>
        <time>2012-09-30T11:43:17Z</time>
      </trkpt>
      <trkpt lat="45.92808" lon="3.97152">
        <ele>545</ele>
        <time>2012-09-30T11:43:21Z</time>
      </trkpt>
      <trkpt lat="45.92816" lon="3.97192">
        <ele>544</ele>
        <time>2012-09-30T11:43:26Z</time>
      </trkpt>
      <trkpt lat="45.92822" lon="3.97236">
        <ele>544</ele>
        <time>2012-09-30T11:43:29Z</time>
      </trkpt>
      <trkpt lat="45.92822" lon="3.97264">
        <ele>543</ele>
        <time>2012-09-30T11:43:31Z</time>
      </trkpt>
      <trkpt lat="45.9282" lon="3.97302">
        <ele>541</ele>
        <time>2012-09-30T11:43:34Z</time>
      </trkpt>
      <trkpt lat="45.92817" lon="3.97323">
        <ele>539</ele>
        <time>2012-09-30T11:43:36Z</time>
      </trkpt>
      <trkpt lat="45.92813" lon="3.97344">
        <ele>537</ele>
        <time>2012-09-30T11:43:38Z</time>
      </trkpt>
      <trkpt lat="45.92805" lon="3.97364">
        <ele>535</ele>
        <time>2012-09-30T11:43:40Z</time>
      </trkpt>
      <trkpt lat="45.928" lon="3.97376">
        <ele>534</ele>
        <time>2012-09-30T11:43:41Z</time>
      </trkpt>
      <trkpt lat="45.92795" lon="3.97386">
        <ele>533</ele>
        <time>2012-09-30T11:43:42Z</time>
      </trkpt>
      <trkpt lat="45.92785" lon="3.97402">
        <ele>531</ele>
        <time>2012-09-30T11:43:44Z</time>
      </trkpt>
      <trkpt lat="45.92776" lon="3.97416">
        <ele>529</ele>
        <time>2012-09-30T11:43:48Z</time>
      </trkpt>
      <trkpt lat="45.92778" lon="3.97435">
        <ele>528</ele>
        <time>2012-09-30T11:43:50Z</time>
      </trkpt>
      <trkpt lat="45.92801" lon="3.9746">
        <ele>526</ele>
        <time>2012-09-30T11:43:57Z</time>
      </trkpt>
      <trkpt lat="45.92829" lon="3.97483">
        <ele>525</ele>
        <time>2012-09-30T11:44:01Z</time>
      </trkpt>
      <trkpt lat="45.92856" lon="3.97503">
        <ele>524</ele>
        <time>2012-09-30T11:44:04Z</time>
      </trkpt>
      <trkpt lat="45.92885" lon="3.97535">
        <ele>523</ele>
        <time>2012-09-30T11:44:08Z</time>
      </trkpt>
      <trkpt lat="45.92907" lon="3.9757">
        <ele>522</ele>
        <time>2012-09-30T11:44:12Z</time>
      </trkpt>
      <trkpt lat="45.92918" lon="3.97593">
        <ele>521</ele>
        <time>2012-09-30T11:44:14Z</time>
      </trkpt>
      <trkpt lat="45.92924" lon="3.97603">
        <ele>519</ele>
        <time>2012-09-30T11:44:15Z</time>
      </trkpt>
      <trkpt lat="45.9293" lon="3.97612">
        <ele>518</ele>
        <time>2012-09-30T11:44:16Z</time>
      </trkpt>
      <trkpt lat="45.92942" lon="3.9763">
        <ele>516</ele>
        <time>2012-09-30T11:44:18Z</time>
      </trkpt>
      <trkpt lat="45.92954" lon="3.97649">
        <ele>513</ele>
        <time>2012-09-30T11:44:20Z</time>
      </trkpt>
      <trkpt lat="45.92966" lon="3.97667">
        <ele>511</ele>
        <time>2012-09-30T11:44:22Z</time>
      </trkpt>
      <trkpt lat="45.92977" lon="3.97683">
        <ele>509</ele>
        <time>2012-09-30T11:44:24Z</time>
      </trkpt>
      <trkpt lat="45.92987" lon="3.97696">
        <ele>507</ele>
        <time>2012-09-30T11:44:26Z</time>
      </trkpt>
      <trkpt lat="45.92996" lon="3.97707">
        <ele>507</ele>
        <time>2012-09-30T11:44:28Z</time>
      </trkpt>
      <trkpt lat="45.93006" lon="3.97717">
        <ele>506</ele>
        <time>2012-09-30T11:44:30Z</time>
      </trkpt>
      <trkpt lat="45.93018" lon="3.97731">
        <ele>505</ele>
        <time>2012-09-30T11:44:34Z</time>
      </trkpt>
      <trkpt lat="45.93027" lon="3.97742">
        <ele>505</ele>
        <time>2012-09-30T11:44:37Z</time>
      </trkpt>
      <trkpt lat="45.93036" lon="3.97752">
        <ele>504</ele>
        <time>2012-09-30T11:44:39Z</time>
      </trkpt>
      <trkpt lat="45.93048" lon="3.97769">
        <ele>502</ele>
        <time>2012-09-30T11:44:43Z</time>
      </trkpt>
      <trkpt lat="45.93056" lon="3.97783">
        <ele>501</ele>
        <time>2012-09-30T11:44:46Z</time>
      </trkpt>
      <trkpt lat="45.93064" lon="3.97798">
        <ele>501</ele>
        <time>2012-09-30T11:44:49Z</time>
      </trkpt>
      <trkpt lat="45.93071" lon="3.97812">
        <ele>500</ele>
        <time>2012-09-30T11:44:51Z</time>
      </trkpt>
      <trkpt lat="45.93074" lon="3.97824">
        <ele>500</ele>
        <time>2012-09-30T11:44:53Z</time>
      </trkpt>
      <trkpt lat="45.93075" lon="3.97842">
        <ele>500</ele>
        <time>2012-09-30T11:44:59Z</time>
      </trkpt>
      <trkpt lat="45.9308" lon="3.97865">
        <ele>498</ele>
        <time>2012-09-30T11:45:05Z</time>
      </trkpt>
      <trkpt lat="45.93081" lon="3.97878">
        <ele>499</ele>
        <time>2012-09-30T11:45:10Z</time>
      </trkpt>
      <trkpt lat="45.93084" lon="3.97902">
        <ele>499</ele>
        <time>2012-09-30T11:45:19Z</time>
      </trkpt>
      <trkpt lat="45.93089" lon="3.97918">
        <ele>499</ele>
        <time>2012-09-30T11:45:25Z</time>
      </trkpt>
      <trkpt lat="45.931" lon="3.97924">
        <ele>500</ele>
        <time>2012-09-30T11:45:30Z</time>
      </trkpt>
      <trkpt lat="45.9311" lon="3.97931">
        <ele>501</ele>
        <time>2012-09-30T11:45:34Z</time>
      </trkpt>
      <trkpt lat="45.9312" lon="3.97937">
        <ele>503</ele>
        <time>2012-09-30T11:45:38Z</time>
      </trkpt>
      <trkpt lat="45.93129" lon="3.97942">
        <ele>505</ele>
        <time>2012-09-30T11:45:42Z</time>
      </trkpt>
      <trkpt lat="45.93139" lon="3.97948">
        <ele>507</ele>
        <time>2012-09-30T11:45:46Z</time>
      </trkpt>
      <trkpt lat="45.93152" lon="3.97958">
        <ele>507</ele>
        <time>2012-09-30T11:45:51Z</time>
      </trkpt>
      <trkpt lat="45.93164" lon="3.97968">
        <ele>509</ele>
        <time>2012-09-30T11:45:54Z</time>
      </trkpt>
      <trkpt lat="45.93173" lon="3.97975">
        <ele>509</ele>
        <time>2012-09-30T11:45:56Z</time>
      </trkpt>
      <trkpt lat="45.93182" lon="3.97983">
        <ele>510</ele>
        <time>2012-09-30T11:45:58Z</time>
      </trkpt>
      <trkpt lat="45.93194" lon="3.9799">
        <ele>511</ele>
        <time>2012-09-30T11:46:01Z</time>
      </trkpt>
      <trkpt lat="45.93204" lon="3.97994">
        <ele>511</ele>
        <time>2012-09-30T11:46:04Z</time>
      </trkpt>
      <trkpt lat="45.93217" lon="3.97998">
        <ele>512</ele>
        <time>2012-09-30T11:46:07Z</time>
      </trkpt>
      <trkpt lat="45.93226" lon="3.98001">
        <ele>512</ele>
        <time>2012-09-30T11:46:09Z</time>
      </trkpt>
      <trkpt lat="45.93236" lon="3.98003">
        <ele>512</ele>
        <time>2012-09-30T11:46:11Z</time>
      </trkpt>
      <trkpt lat="45.93246" lon="3.98005">
        <ele>512</ele>
        <time>2012-09-30T11:46:13Z</time>
      </trkpt>
      <trkpt lat="45.93256" lon="3.98006">
        <ele>512</ele>
        <time>2012-09-30T11:46:15Z</time>
      </trkpt>
      <trkpt lat="45.93265" lon="3.98008">
        <ele>511</ele>
        <time>2012-09-30T11:46:17Z</time>
      </trkpt>
      <trkpt lat="45.93274" lon="3.98012">
        <ele>511</ele>
        <time>2012-09-30T11:46:19Z</time>
      </trkpt>
      <trkpt lat="45.93283" lon="3.98018">
        <ele>510</ele>
        <time>2012-09-30T11:46:21Z</time>
      </trkpt>
      <trkpt lat="45.93291" lon="3.98029">
        <ele>510</ele>
        <time>2012-09-30T11:46:23Z</time>
      </trkpt>
      <trkpt lat="45.93295" lon="3.98043">
        <ele>510</ele>
        <time>2012-09-30T11:46:25Z</time>
      </trkpt>
      <trkpt lat="45.93295" lon="3.9806">
        <ele>509</ele>
        <time>2012-09-30T11:46:28Z</time>
      </trkpt>
      <trkpt lat="45.93291" lon="3.98076">
        <ele>508</ele>
        <time>2012-09-30T11:46:31Z</time>
      </trkpt>
      <trkpt lat="45.93286" lon="3.98092">
        <ele>507</ele>
        <time>2012-09-30T11:46:34Z</time>
      </trkpt>
      <trkpt lat="45.93285" lon="3.98111">
        <ele>507</ele>
        <time>2012-09-30T11:46:37Z</time>
      </trkpt>
      <trkpt lat="45.93285" lon="3.98128">
        <ele>507</ele>
        <time>2012-09-30T11:46:40Z</time>
      </trkpt>
      <trkpt lat="45.93287" lon="3.98146">
        <ele>507</ele>
        <time>2012-09-30T11:46:43Z</time>
      </trkpt>
      <trkpt lat="45.93287" lon="3.98159">
        <ele>507</ele>
        <time>2012-09-30T11:46:45Z</time>
      </trkpt>
      <trkpt lat="45.93288" lon="3.98175">
        <ele>507</ele>
        <time>2012-09-30T11:46:48Z</time>
      </trkpt>
      <trkpt lat="45.9329" lon="3.98205">
        <ele>508</ele>
        <time>2012-09-30T11:46:54Z</time>
      </trkpt>
      <trkpt lat="45.93289" lon="3.98222">
        <ele>508</ele>
        <time>2012-09-30T11:46:57Z</time>
      </trkpt>
      <trkpt lat="45.93288" lon="3.98235">
        <ele>508</ele>
        <time>2012-09-30T11:47:00Z</time>
      </trkpt>
      <trkpt lat="45.93285" lon="3.9825">
        <ele>508</ele>
        <time>2012-09-30T11:47:03Z</time>
      </trkpt>
      <trkpt lat="45.93286" lon="3.98265">
        <ele>508</ele>
        <time>2012-09-30T11:47:06Z</time>
      </trkpt>
      <trkpt lat="45.93289" lon="3.98281">
        <ele>508</ele>
        <time>2012-09-30T11:47:10Z</time>
      </trkpt>
      <trkpt lat="45.93293" lon="3.98294">
        <ele>510</ele>
        <time>2012-09-30T11:47:13Z</time>
      </trkpt>
      <trkpt lat="45.93297" lon="3.9831">
        <ele>513</ele>
        <time>2012-09-30T11:47:20Z</time>
      </trkpt>
      <trkpt lat="45.93298" lon="3.98325">
        <ele>515</ele>
        <time>2012-09-30T11:47:24Z</time>
      </trkpt>
      <trkpt lat="45.93299" lon="3.9834">
        <ele>517</ele>
        <time>2012-09-30T11:47:27Z</time>
      </trkpt>
      <trkpt lat="45.93303" lon="3.98357">
        <ele>518</ele>
        <time>2012-09-30T11:47:30Z</time>
      </trkpt>
      <trkpt lat="45.93306" lon="3.98376">
        <ele>518</ele>
        <time>2012-09-30T11:47:33Z</time>
      </trkpt>
      <trkpt lat="45.93311" lon="3.98393">
        <ele>517</ele>
        <time>2012-09-30T11:47:36Z</time>
      </trkpt>
      <trkpt lat="45.93314" lon="3.9841">
        <ele>516</ele>
        <time>2012-09-30T11:47:39Z</time>
      </trkpt>
      <trkpt lat="45.93319" lon="3.98427">
        <ele>515</ele>
        <time>2012-09-30T11:47:42Z</time>
      </trkpt>
      <trkpt lat="45.93324" lon="3.98444">
        <ele>514</ele>
        <time>2012-09-30T11:47:45Z</time>
      </trkpt>
      <trkpt lat="45.93331" lon="3.98457">
        <ele>514</ele>
        <time>2012-09-30T11:47:48Z</time>
      </trkpt>
      <trkpt lat="45.93338" lon="3.98467">
        <ele>513</ele>
        <time>2012-09-30T11:47:51Z</time>
      </trkpt>
      <trkpt lat="45.93347" lon="3.98481">
        <ele>513</ele>
        <time>2012-09-30T11:47:54Z</time>
      </trkpt>
      <trkpt lat="45.93355" lon="3.98495">
        <ele>512</ele>
        <time>2012-09-30T11:47:57Z</time>
      </trkpt>
      <trkpt lat="45.9336" lon="3.98506">
        <ele>512</ele>
        <time>2012-09-30T11:47:59Z</time>
      </trkpt>
      <trkpt lat="45.93366" lon="3.98517">
        <ele>513</ele>
        <time>2012-09-30T11:48:01Z</time>
      </trkpt>
      <trkpt lat="45.93372" lon="3.98528">
        <ele>513</ele>
        <time>2012-09-30T11:48:03Z</time>
      </trkpt>
      <trkpt lat="45.9338" lon="3.98541">
        <ele>514</ele>
        <time>2012-09-30T11:48:05Z</time>
      </trkpt>
      <trkpt lat="45.93388" lon="3.98552">
        <ele>514</ele>
        <time>2012-09-30T11:48:07Z</time>
      </trkpt>
      <trkpt lat="45.93397" lon="3.98562">
        <ele>514</ele>
        <time>2012-09-30T11:48:09Z</time>
      </trkpt>
      <trkpt lat="45.93405" lon="3.98571">
        <ele>515</ele>
        <time>2012-09-30T11:48:11Z</time>
      </trkpt>
      <trkpt lat="45.93415" lon="3.98576">
        <ele>515</ele>
        <time>2012-09-30T11:48:13Z</time>
      </trkpt>
      <trkpt lat="45.93426" lon="3.98583">
        <ele>516</ele>
        <time>2012-09-30T11:48:15Z</time>
      </trkpt>
      <trkpt lat="45.93437" lon="3.98589">
        <ele>516</ele>
        <time>2012-09-30T11:48:17Z</time>
      </trkpt>
      <trkpt lat="45.93447" lon="3.98593">
        <ele>516</ele>
        <time>2012-09-30T11:48:19Z</time>
      </trkpt>
      <trkpt lat="45.93457" lon="3.98599">
        <ele>516</ele>
        <time>2012-09-30T11:48:21Z</time>
      </trkpt>
      <trkpt lat="45.93467" lon="3.98603">
        <ele>516</ele>
        <time>2012-09-30T11:48:23Z</time>
      </trkpt>
      <trkpt lat="45.93476" lon="3.98609">
        <ele>516</ele>
        <time>2012-09-30T11:48:25Z</time>
      </trkpt>
      <trkpt lat="45.93485" lon="3.98619">
        <ele>515</ele>
        <time>2012-09-30T11:48:27Z</time>
      </trkpt>
      <trkpt lat="45.93492" lon="3.9863">
        <ele>515</ele>
        <time>2012-09-30T11:48:29Z</time>
      </trkpt>
      <trkpt lat="45.93498" lon="3.9864">
        <ele>514</ele>
        <time>2012-09-30T11:48:31Z</time>
      </trkpt>
      <trkpt lat="45.93505" lon="3.98653">
        <ele>513</ele>
        <time>2012-09-30T11:48:34Z</time>
      </trkpt>
      <trkpt lat="45.93511" lon="3.98665">
        <ele>513</ele>
        <time>2012-09-30T11:48:36Z</time>
      </trkpt>
      <trkpt lat="45.93517" lon="3.98675">
        <ele>514</ele>
        <time>2012-09-30T11:48:38Z</time>
      </trkpt>
      <trkpt lat="45.93523" lon="3.98687">
        <ele>514</ele>
        <time>2012-09-30T11:48:40Z</time>
      </trkpt>
      <trkpt lat="45.93529" lon="3.98698">
        <ele>514</ele>
        <time>2012-09-30T11:48:42Z</time>
      </trkpt>
      <trkpt lat="45.93534" lon="3.9871">
        <ele>514</ele>
        <time>2012-09-30T11:48:44Z</time>
      </trkpt>
      <trkpt lat="45.93537" lon="3.98724">
        <ele>514</ele>
        <time>2012-09-30T11:48:46Z</time>
      </trkpt>
      <trkpt lat="45.93537" lon="3.9874">
        <ele>514</ele>
        <time>2012-09-30T11:48:48Z</time>
      </trkpt>
      <trkpt lat="45.93534" lon="3.98756">
        <ele>514</ele>
        <time>2012-09-30T11:48:50Z</time>
      </trkpt>
      <trkpt lat="45.93529" lon="3.98773">
        <ele>514</ele>
        <time>2012-09-30T11:48:52Z</time>
      </trkpt>
      <trkpt lat="45.93524" lon="3.9879">
        <ele>514</ele>
        <time>2012-09-30T11:48:54Z</time>
      </trkpt>
      <trkpt lat="45.93517" lon="3.98809">
        <ele>513</ele>
        <time>2012-09-30T11:48:56Z</time>
      </trkpt>
      <trkpt lat="45.9351" lon="3.98829">
        <ele>513</ele>
        <time>2012-09-30T11:48:58Z</time>
      </trkpt>
      <trkpt lat="45.93504" lon="3.98851">
        <ele>512</ele>
        <time>2012-09-30T11:49:00Z</time>
      </trkpt>
      <trkpt lat="45.93502" lon="3.98872">
        <ele>510</ele>
        <time>2012-09-30T11:49:02Z</time>
      </trkpt>
      <trkpt lat="45.93499" lon="3.98895">
        <ele>509</ele>
        <time>2012-09-30T11:49:04Z</time>
      </trkpt>
      <trkpt lat="45.93497" lon="3.98914">
        <ele>507</ele>
        <time>2012-09-30T11:49:06Z</time>
      </trkpt>
      <trkpt lat="45.93496" lon="3.98937">
        <ele>505</ele>
        <time>2012-09-30T11:49:08Z</time>
      </trkpt>
      <trkpt lat="45.93497" lon="3.98951">
        <ele>503</ele>
        <time>2012-09-30T11:49:09Z</time>
      </trkpt>
      <trkpt lat="45.93503" lon="3.98976">
        <ele>501</ele>
        <time>2012-09-30T11:49:11Z</time>
      </trkpt>
      <trkpt lat="45.93505" lon="3.98989">
        <ele>500</ele>
        <time>2012-09-30T11:49:12Z</time>
      </trkpt>
      <trkpt lat="45.93508" lon="3.99002">
        <ele>499</ele>
        <time>2012-09-30T11:49:13Z</time>
      </trkpt>
      <trkpt lat="45.93512" lon="3.99015">
        <ele>499</ele>
        <time>2012-09-30T11:49:14Z</time>
      </trkpt>
      <trkpt lat="45.93515" lon="3.99027">
        <ele>498</ele>
        <time>2012-09-30T11:49:15Z</time>
      </trkpt>
      <trkpt lat="45.93518" lon="3.9904">
        <ele>497</ele>
        <time>2012-09-30T11:49:16Z</time>
      </trkpt>
      <trkpt lat="45.93525" lon="3.99063">
        <ele>496</ele>
        <time>2012-09-30T11:49:18Z</time>
      </trkpt>
      <trkpt lat="45.9353" lon="3.99085">
        <ele>495</ele>
        <time>2012-09-30T11:49:20Z</time>
      </trkpt>
      <trkpt lat="45.93534" lon="3.99105">
        <ele>493</ele>
        <time>2012-09-30T11:49:22Z</time>
      </trkpt>
      <trkpt lat="45.93539" lon="3.99123">
        <ele>491</ele>
        <time>2012-09-30T11:49:24Z</time>
      </trkpt>
      <trkpt lat="45.93548" lon="3.99136">
        <ele>489</ele>
        <time>2012-09-30T11:49:26Z</time>
      </trkpt>
      <trkpt lat="45.93554" lon="3.99152">
        <ele>487</ele>
        <time>2012-09-30T11:49:28Z</time>
      </trkpt>
      <trkpt lat="45.93561" lon="3.9917">
        <ele>485</ele>
        <time>2012-09-30T11:49:30Z</time>
      </trkpt>
      <trkpt lat="45.93569" lon="3.99185">
        <ele>483</ele>
        <time>2012-09-30T11:49:32Z</time>
      </trkpt>
      <trkpt lat="45.93578" lon="3.99201">
        <ele>482</ele>
        <time>2012-09-30T11:49:34Z</time>
      </trkpt>
      <trkpt lat="45.93588" lon="3.9922">
        <ele>481</ele>
        <time>2012-09-30T11:49:36Z</time>
      </trkpt>
      <trkpt lat="45.93598" lon="3.99237">
        <ele>479</ele>
        <time>2012-09-30T11:49:38Z</time>
      </trkpt>
      <trkpt lat="45.93578" lon="3.99265">
        <ele>477</ele>
        <time>2012-09-30T11:49:50Z</time>
      </trkpt>
      <trkpt lat="45.93568" lon="3.99265">
        <ele>476</ele>
        <time>2012-09-30T11:49:52Z</time>
      </trkpt>
      <trkpt lat="45.93557" lon="3.99256">
        <ele>476</ele>
        <time>2012-09-30T11:49:55Z</time>
      </trkpt>
      <trkpt lat="45.93547" lon="3.99245">
        <ele>475</ele>
        <time>2012-09-30T11:49:57Z</time>
      </trkpt>
      <trkpt lat="45.93535" lon="3.99236">
        <ele>475</ele>
        <time>2012-09-30T11:49:59Z</time>
      </trkpt>
      <trkpt lat="45.93522" lon="3.99232">
        <ele>475</ele>
        <time>2012-09-30T11:50:01Z</time>
      </trkpt>
      <trkpt lat="45.93509" lon="3.99228">
        <ele>474</ele>
        <time>2012-09-30T11:50:03Z</time>
      </trkpt>
      <trkpt lat="45.93495" lon="3.99224">
        <ele>473</ele>
        <time>2012-09-30T11:50:05Z</time>
      </trkpt>
      <trkpt lat="45.9348" lon="3.9922">
        <ele>472</ele>
        <time>2012-09-30T11:50:07Z</time>
      </trkpt>
      <trkpt lat="45.93467" lon="3.99218">
        <ele>470</ele>
        <time>2012-09-30T11:50:09Z</time>
      </trkpt>
      <trkpt lat="45.93453" lon="3.99222">
        <ele>469</ele>
        <time>2012-09-30T11:50:11Z</time>
      </trkpt>
      <trkpt lat="45.93437" lon="3.99227">
        <ele>468</ele>
        <time>2012-09-30T11:50:13Z</time>
      </trkpt>
      <trkpt lat="45.93422" lon="3.99234">
        <ele>467</ele>
        <time>2012-09-30T11:50:15Z</time>
      </trkpt>
      <trkpt lat="45.93407" lon="3.99243">
        <ele>466</ele>
        <time>2012-09-30T11:50:17Z</time>
      </trkpt>
      <trkpt lat="45.93394" lon="3.99252">
        <ele>466</ele>
        <time>2012-09-30T11:50:19Z</time>
      </trkpt>
      <trkpt lat="45.9338" lon="3.99263">
        <ele>465</ele>
        <time>2012-09-30T11:50:21Z</time>
      </trkpt>
      <trkpt lat="45.93367" lon="3.99276">
        <ele>464</ele>
        <time>2012-09-30T11:50:23Z</time>
      </trkpt>
      <trkpt lat="45.93353" lon="3.99288">
        <ele>464</ele>
        <time>2012-09-30T11:50:25Z</time>
      </trkpt>
      <trkpt lat="45.9334" lon="3.99299">
        <ele>463</ele>
        <time>2012-09-30T11:50:27Z</time>
      </trkpt>
      <trkpt lat="45.93328" lon="3.99309">
        <ele>463</ele>
        <time>2012-09-30T11:50:29Z</time>
      </trkpt>
      <trkpt lat="45.93317" lon="3.99319">
        <ele>463</ele>
        <time>2012-09-30T11:50:31Z</time>
      </trkpt>
      <trkpt lat="45.9331" lon="3.99329">
        <ele>464</ele>
        <time>2012-09-30T11:50:33Z</time>
      </trkpt>
      <trkpt lat="45.93305" lon="3.99353">
        <ele>464</ele>
        <time>2012-09-30T11:50:40Z</time>
      </trkpt>
      <trkpt lat="45.93302" lon="3.99368">
        <ele>464</ele>
        <time>2012-09-30T11:50:41Z</time>
      </trkpt>
      <trkpt lat="45.93294" lon="3.99366">
        <ele>460</ele>
        <time>2012-09-30T11:50:51Z</time>
      </trkpt>
      <trkpt lat="45.93292" lon="3.99349">
        <ele>457</ele>
        <time>2012-09-30T11:50:55Z</time>
      </trkpt>
      <trkpt lat="45.93285" lon="3.99339">
        <ele>456</ele>
        <time>2012-09-30T11:50:57Z</time>
      </trkpt>
      <trkpt lat="45.93278" lon="3.99329">
        <ele>455</ele>
        <time>2012-09-30T11:50:59Z</time>
      </trkpt>
      <trkpt lat="45.93271" lon="3.99313">
        <ele>454</ele>
        <time>2012-09-30T11:51:01Z</time>
      </trkpt>
      <trkpt lat="45.93265" lon="3.99296">
        <ele>453</ele>
        <time>2012-09-30T11:51:03Z</time>
      </trkpt>
      <trkpt lat="45.9326" lon="3.99281">
        <ele>452</ele>
        <time>2012-09-30T11:51:05Z</time>
      </trkpt>
      <trkpt lat="45.93241" lon="3.9925">
        <ele>451</ele>
        <time>2012-09-30T11:51:13Z</time>
      </trkpt>
      <trkpt lat="45.93232" lon="3.99244">
        <ele>451</ele>
        <time>2012-09-30T11:51:15Z</time>
      </trkpt>
      <trkpt lat="45.93216" lon="3.99238">
        <ele>451</ele>
        <time>2012-09-30T11:51:18Z</time>
      </trkpt>
      <trkpt lat="45.93188" lon="3.99235">
        <ele>452</ele>
        <time>2012-09-30T11:51:22Z</time>
      </trkpt>
      <trkpt lat="45.93107" lon="3.99236">
        <ele>393.9</ele>
        <time>2012-09-30T11:51:32Z</time>
      </trkpt>
      <trkpt lat="45.93045" lon="3.99258">
        <ele>454</ele>
        <time>2012-09-30T11:51:39Z</time>
      </trkpt>
      <trkpt lat="45.93069" lon="3.99282">
        <ele>457</ele>
        <time>2012-09-30T11:51:56Z</time>
      </trkpt>
      <trkpt lat="45.93093" lon="3.99301">
        <ele>457</ele>
        <time>2012-09-30T11:52:01Z</time>
      </trkpt>
      <trkpt lat="45.93089" lon="3.99323">
        <ele>465</ele>
        <time>2012-09-30T11:53:06Z</time>
      </trkpt>
      <trkpt lat="45.93106" lon="3.99338">
        <ele>462</ele>
        <time>2012-09-30T11:53:13Z</time>
      </trkpt>
      <trkpt lat="45.93114" lon="3.99348">
        <ele>461</ele>
        <time>2012-09-30T11:53:14Z</time>
      </trkpt>
      <trkpt lat="45.93121" lon="3.99357">
        <ele>458</ele>
        <time>2012-09-30T11:53:17Z</time>
      </trkpt>
      <trkpt lat="45.93136" lon="3.99396">
        <ele>442</ele>
        <time>2012-09-30T11:53:34Z</time>
      </trkpt>
      <trkpt lat="45.93136" lon="3.99411">
        <ele>437</ele>
        <time>2012-09-30T11:53:47Z</time>
      </trkpt>
      <trkpt lat="45.93151" lon="3.99461">
        <ele>417</ele>
        <time>2012-09-30T11:54:19Z</time>
      </trkpt>
      <trkpt lat="45.93157" lon="3.99486">
        <ele>417</ele>
        <time>2012-09-30T11:54:34Z</time>
      </trkpt>
      <trkpt lat="45.93161" lon="3.995">
        <ele>422</ele>
        <time>2012-09-30T11:54:44Z</time>
      </trkpt>
      <trkpt lat="45.93161" lon="3.99513">
        <ele>425</ele>
        <time>2012-09-30T11:54:51Z</time>
      </trkpt>
      <trkpt lat="45.9316" lon="3.99539">
        <ele>436</ele>
        <time>2012-09-30T11:55:10Z</time>
      </trkpt>
      <trkpt lat="45.9315" lon="3.9954">
        <ele>448</ele>
        <time>2012-09-30T11:55:38Z</time>
      </trkpt>
      <trkpt lat="45.93141" lon="3.99544">
        <ele>450</ele>
        <time>2012-09-30T11:55:44Z</time>
      </trkpt>
      <trkpt lat="45.93135" lon="3.99555">
        <ele>450</ele>
        <time>2012-09-30T11:55:49Z</time>
      </trkpt>
      <trkpt lat="45.9313" lon="3.99566">
        <ele>451</ele>
        <time>2012-09-30T11:55:55Z</time>
      </trkpt>
      <trkpt lat="45.93119" lon="3.99605">
        <ele>452</ele>
        <time>2012-09-30T11:56:13Z</time>
      </trkpt>
      <trkpt lat="45.93116" lon="3.99619">
        <ele>452</ele>
        <time>2012-09-30T11:56:17Z</time>
      </trkpt>
      <trkpt lat="45.93112" lon="3.99631">
        <ele>452</ele>
        <time>2012-09-30T11:56:23Z</time>
      </trkpt>
      <trkpt lat="45.93105" lon="3.99644">
        <ele>451</ele>
        <time>2012-09-30T11:56:27Z</time>
      </trkpt>
      <trkpt lat="45.931" lon="3.99658">
        <ele>450</ele>
        <time>2012-09-30T11:56:32Z</time>
      </trkpt>
      <trkpt lat="45.93101" lon="3.99672">
        <ele>451</ele>
        <time>2012-09-30T11:56:41Z</time>
      </trkpt>
      <trkpt lat="45.93106" lon="3.99683">
        <ele>452</ele>
        <time>2012-09-30T11:56:47Z</time>
      </trkpt>
      <trkpt lat="45.93111" lon="3.99696">
        <ele>451</ele>
        <time>2012-09-30T11:56:55Z</time>
      </trkpt>
      <trkpt lat="45.93116" lon="3.99708">
        <ele>449</ele>
        <time>2012-09-30T11:57:01Z</time>
      </trkpt>
      <trkpt lat="45.93124" lon="3.99719">
        <ele>445</ele>
        <time>2012-09-30T11:57:08Z</time>
      </trkpt>
      <trkpt lat="45.93132" lon="3.99729">
        <ele>442</ele>
        <time>2012-09-30T11:57:15Z</time>
      </trkpt>
      <trkpt lat="45.93135" lon="3.99743">
        <ele>441</ele>
        <time>2012-09-30T11:57:24Z</time>
      </trkpt>
      <trkpt lat="45.93126" lon="3.99753">
        <ele>445</ele>
        <time>2012-09-30T11:57:55Z</time>
      </trkpt>
      <trkpt lat="45.93118" lon="3.9976">
        <ele>447</ele>
        <time>2012-09-30T11:58:01Z</time>
      </trkpt>
      <trkpt lat="45.93114" lon="3.99773">
        <ele>450</ele>
        <time>2012-09-30T11:58:08Z</time>
      </trkpt>
      <trkpt lat="45.93114" lon="3.99786">
        <ele>453</ele>
        <time>2012-09-30T11:58:23Z</time>
      </trkpt>
      <trkpt lat="45.93106" lon="3.99797">
        <ele>451</ele>
        <time>2012-09-30T11:58:39Z</time>
      </trkpt>
      <trkpt lat="45.93101" lon="3.99803">
        <ele>454</ele>
        <time>2012-09-30T11:58:54Z</time>
      </trkpt>
      <trkpt lat="45.93094" lon="3.99819">
        <ele>456</ele>
        <time>2012-09-30T11:59:10Z</time>
      </trkpt>
      <trkpt lat="45.93088" lon="3.9983">
        <ele>457</ele>
        <time>2012-09-30T11:59:16Z</time>
      </trkpt>
      <trkpt lat="45.93082" lon="3.99842">
        <ele>459</ele>
        <time>2012-09-30T11:59:22Z</time>
      </trkpt>
      <trkpt lat="45.93078" lon="3.99855">
        <ele>461</ele>
        <time>2012-09-30T11:59:26Z</time>
      </trkpt>
      <trkpt lat="45.93072" lon="3.99867">
        <ele>464</ele>
        <time>2012-09-30T11:59:30Z</time>
      </trkpt>
      <trkpt lat="45.93066" lon="3.9988">
        <ele>465</ele>
        <time>2012-09-30T11:59:34Z</time>
      </trkpt>
      <trkpt lat="45.93062" lon="3.99894">
        <ele>465</ele>
        <time>2012-09-30T11:59:38Z</time>
      </trkpt>
      <trkpt lat="45.9306" lon="3.99907">
        <ele>466</ele>
        <time>2012-09-30T11:59:44Z</time>
      </trkpt>
      <trkpt lat="45.93056" lon="3.9992">
        <ele>467</ele>
        <time>2012-09-30T11:59:49Z</time>
      </trkpt>
      <trkpt lat="45.9305" lon="3.99931">
        <ele>469</ele>
        <time>2012-09-30T11:59:54Z</time>
      </trkpt>
      <trkpt lat="45.93045" lon="3.99943">
        <ele>469</ele>
        <time>2012-09-30T11:59:58Z</time>
      </trkpt>
      <trkpt lat="45.9304" lon="3.99954">
        <ele>470</ele>
        <time>2012-09-30T12:00:02Z</time>
      </trkpt>
      <trkpt lat="45.93035" lon="3.99967">
        <ele>470</ele>
        <time>2012-09-30T12:00:06Z</time>
      </trkpt>
      <trkpt lat="45.9303" lon="3.9998">
        <ele>470</ele>
        <time>2012-09-30T12:00:09Z</time>
      </trkpt>
      <trkpt lat="45.93025" lon="3.99993">
        <ele>469</ele>
        <time>2012-09-30T12:00:12Z</time>
      </trkpt>
      <trkpt lat="45.93019" lon="4.00007">
        <ele>468</ele>
        <time>2012-09-30T12:00:15Z</time>
      </trkpt>
      <trkpt lat="45.93013" lon="4.00021">
        <ele>468</ele>
        <time>2012-09-30T12:00:18Z</time>
      </trkpt>
      <trkpt lat="45.93007" lon="4.00035">
        <ele>467</ele>
        <time>2012-09-30T12:00:21Z</time>
      </trkpt>
      <trkpt lat="45.93002" lon="4.00046">
        <ele>466</ele>
        <time>2012-09-30T12:00:24Z</time>
      </trkpt>
      <trkpt lat="45.92995" lon="4.00057">
        <ele>466</ele>
        <time>2012-09-30T12:00:27Z</time>
      </trkpt>
      <trkpt lat="45.92986" lon="4.00067">
        <ele>466</ele>
        <time>2012-09-30T12:00:30Z</time>
      </trkpt>
      <trkpt lat="45.92981" lon="4.00078">
        <ele>466</ele>
        <time>2012-09-30T12:00:32Z</time>
      </trkpt>
      <trkpt lat="45.92975" lon="4.0009">
        <ele>466</ele>
        <time>2012-09-30T12:00:34Z</time>
      </trkpt>
      <trkpt lat="45.9297" lon="4.00107">
        <ele>466</ele>
        <time>2012-09-30T12:00:37Z</time>
      </trkpt>
      <trkpt lat="45.92966" lon="4.0012">
        <ele>466</ele>
        <time>2012-09-30T12:00:39Z</time>
      </trkpt>
      <trkpt lat="45.9296" lon="4.00136">
        <ele>466</ele>
        <time>2012-09-30T12:00:42Z</time>
      </trkpt>
      <trkpt lat="45.92953" lon="4.0015">
        <ele>466</ele>
        <time>2012-09-30T12:00:45Z</time>
      </trkpt>
      <trkpt lat="45.92947" lon="4.00164">
        <ele>466</ele>
        <time>2012-09-30T12:00:48Z</time>
      </trkpt>
      <trkpt lat="45.92941" lon="4.00179">
        <ele>467</ele>
        <time>2012-09-30T12:00:51Z</time>
      </trkpt>
      <trkpt lat="45.92934" lon="4.00196">
        <ele>468</ele>
        <time>2012-09-30T12:00:54Z</time>
      </trkpt>
      <trkpt lat="45.92928" lon="4.00212">
        <ele>468</ele>
        <time>2012-09-30T12:00:57Z</time>
      </trkpt>
      <trkpt lat="45.92922" lon="4.00226">
        <ele>470</ele>
        <time>2012-09-30T12:01:00Z</time>
      </trkpt>
      <trkpt lat="45.92917" lon="4.00237">
        <ele>470</ele>
        <time>2012-09-30T12:01:02Z</time>
      </trkpt>
      <trkpt lat="45.92913" lon="4.00255">
        <ele>470</ele>
        <time>2012-09-30T12:01:05Z</time>
      </trkpt>
      <trkpt lat="45.92909" lon="4.00268">
        <ele>469</ele>
        <time>2012-09-30T12:01:07Z</time>
      </trkpt>
      <trkpt lat="45.92905" lon="4.00283">
        <ele>469</ele>
        <time>2012-09-30T12:01:09Z</time>
      </trkpt>
      <trkpt lat="45.92902" lon="4.00299">
        <ele>469</ele>
        <time>2012-09-30T12:01:11Z</time>
      </trkpt>
      <trkpt lat="45.92902" lon="4.00318">
        <ele>469</ele>
        <time>2012-09-30T12:01:13Z</time>
      </trkpt>
      <trkpt lat="45.92902" lon="4.00335">
        <ele>469</ele>
        <time>2012-09-30T12:01:15Z</time>
      </trkpt>
      <trkpt lat="45.92902" lon="4.00352">
        <ele>468</ele>
        <time>2012-09-30T12:01:17Z</time>
      </trkpt>
      <trkpt lat="45.929" lon="4.00366">
        <ele>468</ele>
        <time>2012-09-30T12:01:19Z</time>
      </trkpt>
      <trkpt lat="45.92896" lon="4.00383">
        <ele>467</ele>
        <time>2012-09-30T12:01:21Z</time>
      </trkpt>
      <trkpt lat="45.92894" lon="4.00398">
        <ele>466</ele>
        <time>2012-09-30T12:01:23Z</time>
      </trkpt>
      <trkpt lat="45.92891" lon="4.00413">
        <ele>464</ele>
        <time>2012-09-30T12:01:25Z</time>
      </trkpt>
      <trkpt lat="45.92887" lon="4.00426">
        <ele>463</ele>
        <time>2012-09-30T12:01:27Z</time>
      </trkpt>
      <trkpt lat="45.92882" lon="4.00438">
        <ele>462</ele>
        <time>2012-09-30T12:01:30Z</time>
      </trkpt>
      <trkpt lat="45.92867" lon="4.00468">
        <ele>461</ele>
        <time>2012-09-30T12:01:47Z</time>
      </trkpt>
      <trkpt lat="45.92859" lon="4.00475">
        <ele>460</ele>
        <time>2012-09-30T12:01:51Z</time>
      </trkpt>
      <trkpt lat="45.92851" lon="4.00484">
        <ele>460</ele>
        <time>2012-09-30T12:01:56Z</time>
      </trkpt>
      <trkpt lat="45.92847" lon="4.00498">
        <ele>459</ele>
        <time>2012-09-30T12:02:01Z</time>
      </trkpt>
      <trkpt lat="45.92848" lon="4.00513">
        <ele>458</ele>
        <time>2012-09-30T12:02:07Z</time>
      </trkpt>
      <trkpt lat="45.92846" lon="4.00528">
        <ele>457</ele>
        <time>2012-09-30T12:02:13Z</time>
      </trkpt>
      <trkpt lat="45.92841" lon="4.00539">
        <ele>456</ele>
        <time>2012-09-30T12:02:18Z</time>
      </trkpt>
      <trkpt lat="45.92838" lon="4.00553">
        <ele>456</ele>
        <time>2012-09-30T12:02:23Z</time>
      </trkpt>
      <trkpt lat="45.92833" lon="4.00565">
        <ele>455</ele>
        <time>2012-09-30T12:02:29Z</time>
      </trkpt>
      <trkpt lat="45.92829" lon="4.00581">
        <ele>456</ele>
        <time>2012-09-30T12:02:34Z</time>
      </trkpt>
      <trkpt lat="45.92836" lon="4.00594">
        <ele>457</ele>
        <time>2012-09-30T12:02:47Z</time>
      </trkpt>
      <trkpt lat="45.92845" lon="4.00598">
        <ele>458</ele>
        <time>2012-09-30T12:02:49Z</time>
      </trkpt>
      <trkpt lat="45.92855" lon="4.00601">
        <ele>459</ele>
        <time>2012-09-30T12:02:52Z</time>
      </trkpt>
      <trkpt lat="45.92865" lon="4.00603">
        <ele>459</ele>
        <time>2012-09-30T12:02:58Z</time>
      </trkpt>
      <trkpt lat="45.92858" lon="4.00611">
        <ele>458</ele>
        <time>2012-09-30T12:03:29Z</time>
      </trkpt>
      <trkpt lat="45.92855" lon="4.00599">
        <ele>456</ele>
        <time>2012-09-30T12:04:46Z</time>
      </trkpt>
      <trkpt lat="45.92861" lon="4.00584">
        <ele>456</ele>
        <time>2012-09-30T12:04:56Z</time>
      </trkpt>
      <trkpt lat="45.92869" lon="4.00575">
        <ele>456</ele>
        <time>2012-09-30T12:05:05Z</time>
      </trkpt>
    </trkseg>
  </trk>
</gpx>